XML Sitemap

This is a XML Sitemap which is supposed to be processed by search engines which follow the XML Sitemap standard like Ask.com, Bing, Google and Yahoo.
It was generated using the Blogging-Software WordPress and the Google Sitemap Generator Plugin by Arne Brachhold.
You can find more information about XML sitemaps on sitemaps.org and Google's list of sitemap programs.

URLPriorityChange frequencyLast modified (GMT)
http://www.hotnewdeal.com/2017/07/31/199321_Target_prepaid_refill_cards_5_off_extra_5_off_w/20%Monthly2017-07-31 23:37
http://www.hotnewdeal.com/2017/07/31/199320_Ryzen_5_1400_AM4_CPU_150_wemailed_code_81/20%Monthly2017-07-31 23:36
http://www.hotnewdeal.com/2017/07/31/199319_Four_hose_nozzles_for_932_Amazon_prime_Three_di/20%Monthly2017-07-31 23:17
http://www.hotnewdeal.com/2017/07/31/199318_Price_Mistake_GoodSense_Advantage_MilkBased_Powd/20%Monthly2017-07-31 22:54
http://www.hotnewdeal.com/2017/07/31/199317_25_off_100_O_Reilly_Auto_Parts/20%Monthly2017-07-31 22:53
http://www.hotnewdeal.com/2017/07/31/199316_US_Wire_and_Cable_Heavy_Duty_143_65_Lighted_Exte/20%Monthly2017-07-31 22:38
http://www.hotnewdeal.com/2017/07/31/199315_Intel_Core_i76850K_36GHz_LGA_20113_Processor_3/20%Monthly2017-07-31 22:38
http://www.hotnewdeal.com/2017/07/31/199314_PAIR_Polk_Audio_Monitor_70_II_Floorstanding_Speak/20%Monthly2017-07-31 21:54
http://www.hotnewdeal.com/2017/07/31/199313_Xbox_One_Digital_Games_Battlefield_4_Dragons_Tee/20%Monthly2017-07-31 21:54
http://www.hotnewdeal.com/2017/07/31/199312_Samsung_75inch_MU6290_Series_Smart_4K_UHD_TV_1799/20%Monthly2017-07-31 21:41
http://www.hotnewdeal.com/2017/07/31/199311_Aldi_BM_4piece_Outdoor_Conversational_Set__99/20%Monthly2017-07-31 21:41
http://www.hotnewdeal.com/2017/07/31/199310_HP_F500G_1080p_Dash_Cam_Video_Camera_w_GPS_50/20%Monthly2017-07-31 21:25
http://www.hotnewdeal.com/2017/07/31/199309_Google_Home__Philips_Hue_Color_3rd_Gen_Kit_for_2/20%Monthly2017-07-31 21:17
http://www.hotnewdeal.com/2017/07/31/199308_Fostex_TH900mk2_15_Tesla_Stereo_Headphones_899_/20%Monthly2017-07-31 21:17
http://www.hotnewdeal.com/2017/07/31/199307_Costco_Gold_Membership_at_Groupon_60_w_20_Cash_/20%Monthly2017-07-31 21:08
http://www.hotnewdeal.com/2017/07/31/199306_TopFin_Aquarium_Kits__starting_at_1999_for_55g/20%Monthly2017-07-31 21:00
http://www.hotnewdeal.com/2017/07/31/199305_APC_7Outlet_Surge_Protector_1440_Joules_SurgeArr/20%Monthly2017-07-31 20:54
http://www.hotnewdeal.com/2017/07/31/199304_10_sheet_shredder_for_13_6_sheet_shredder_for_9/20%Monthly2017-07-31 20:54
http://www.hotnewdeal.com/2017/07/31/199303_FREE_TICKETS_to_Hitmans_Bodyguard__screening_at_/20%Monthly2017-07-31 20:36
http://www.hotnewdeal.com/2017/07/31/199302_10_Playstation_Network_Card_Digital_Delivery_7/20%Monthly2017-07-31 20:21
http://www.hotnewdeal.com/2017/07/31/199301_Lowes_DEWALT_Rapid_Load_27Piece_Screwdriver_Bit/20%Monthly2017-07-31 20:21
http://www.hotnewdeal.com/2017/07/31/199300_3999_Craftsman_108_piece_Mechanics_Tools_Set/20%Monthly2017-07-31 20:09
http://www.hotnewdeal.com/2017/07/31/199299_Amazon_has_Grove_Square_Cappuccino_French_Vanilla/20%Monthly2017-07-31 19:58
http://www.hotnewdeal.com/2017/07/31/199297_11oz_Liquid_Wrench_L212_Lubricating_Oil_220_w_/20%Monthly2017-07-31 19:37
http://www.hotnewdeal.com/2017/07/31/199296_Babyganics_MineralBased_Baby_Sunscreen_Lotion_SP/20%Monthly2017-07-31 19:37
http://www.hotnewdeal.com/2017/07/31/199295_Akai_Professional_Project_50X__OverEar_Studio_Mo/20%Monthly2017-07-31 19:24
http://www.hotnewdeal.com/2017/07/31/199294_iPad_Pro_105129_inches_WiFi_2017_model_50_of/20%Monthly2017-07-31 19:19
http://www.hotnewdeal.com/2017/07/31/199293_LG_22MP38DB_22_Class_Full_HD_75Hz_LED_Monitor_5/20%Monthly2017-07-31 18:57
http://www.hotnewdeal.com/2017/07/31/199292_100_DJI_Mavic__8330_Quickrelease_Folding_Prope/20%Monthly2017-07-31 18:57
http://www.hotnewdeal.com/2017/07/31/199291_Uber_Ride_passes_for_Austin__5_fee_to_unlock_fla/20%Monthly2017-07-31 18:57
http://www.hotnewdeal.com/2017/07/31/199290_Prime_Members_Air_Wick_VIPOO_PrePoo_Toilet_Spr/20%Monthly2017-07-31 18:57
http://www.hotnewdeal.com/2017/07/31/199289_Prime_Members_24Pack_of_10oz_Tropicana_Orange_J/20%Monthly2017-07-31 18:44
http://www.hotnewdeal.com/2017/07/31/199288_MZuiko_Digital_ED_40150mm_f4056_R_Black_Re/20%Monthly2017-07-31 18:43
http://www.hotnewdeal.com/2017/07/31/199287_Logitech_M720_Triathlon_MultiDevice_Wireless_Mous/20%Monthly2017-07-31 18:31
http://www.hotnewdeal.com/2017/07/31/199286_Sandisk_SSD_Plus_240GB_Solid_State_Drive__7290_/20%Monthly2017-07-31 18:25
http://www.hotnewdeal.com/2017/07/31/199285_Honeywell_4ft_LED_Linkable_Shop_Light_2488__Sa/20%Monthly2017-07-31 18:25
http://www.hotnewdeal.com/2017/07/31/199284_starts_8117_Newegg_Masterpass_Checkout_10/20%Monthly2017-07-31 18:06
http://www.hotnewdeal.com/2017/07/31/199283_Massdrop_x_Sennheiser_PC37X_Gaming_Headset_11999/20%Monthly2017-07-31 18:06
http://www.hotnewdeal.com/2017/07/31/199282_Samsung_21ch_Curved_Soundbar_w_Wireless_Subwoofe/20%Monthly2017-07-31 18:06
http://www.hotnewdeal.com/2017/07/31/199281_Mastermind_Game__The_Strategy_Game_of_Codemaker_v/20%Monthly2017-07-31 18:06
http://www.hotnewdeal.com/2017/07/31/199280_Fender_PM1_Paramount_Deluxe_Dreadnought_Acoustic_/20%Monthly2017-07-31 17:52
http://www.hotnewdeal.com/2017/07/31/199279_Polk_TSx_Speaker_Sale_pair_330T_Floors_150_25/20%Monthly2017-07-31 17:51
http://www.hotnewdeal.com/2017/07/31/199278_Masterbuilt_20070112_Cold_Smoking_Kit_for_Masterbu/20%Monthly2017-07-31 17:47
http://www.hotnewdeal.com/2017/07/31/199277_Prime_Members_Scott_TubeFree_Toilet_Paper_48_Co/20%Monthly2017-07-31 17:39
http://www.hotnewdeal.com/2017/07/31/199276_Weller_WLC100_40Watt_Soldering_Station_2873_wit/20%Monthly2017-07-31 17:25
http://www.hotnewdeal.com/2017/07/31/199275_SanDisk__Ultra_II_960GB_Internal_SATA_Solid_State/20%Monthly2017-07-31 17:25
http://www.hotnewdeal.com/2017/07/31/199274_Acer_Aspire_3_156_Laptop_A99420_6GB_DDR4_1TB/20%Monthly2017-07-31 17:16
http://www.hotnewdeal.com/2017/07/31/199273_Amazon_Giantex_3_Piece_Dining_Set_Table_w_2_Chai/20%Monthly2017-07-31 17:03
http://www.hotnewdeal.com/2017/07/31/199272_GAP__40_off_with_code_HOT__10_off_with_code_MO/20%Monthly2017-07-31 17:03
http://www.hotnewdeal.com/2017/07/31/199271_5_qt_Mobil_1_Full_Synthetic_Motor_Oil_Various_Grad/20%Monthly2017-07-31 16:53
http://www.hotnewdeal.com/2017/07/31/199268_Anker_15W_Solar_Charger_SaleLightning_Deal/20%Monthly2017-07-31 16:23
http://www.hotnewdeal.com/2017/07/31/199267_Black__Decker_LCS1020_20V_MAX_LithiumIon_10_in_/20%Monthly2017-07-31 16:23
http://www.hotnewdeal.com/2017/07/31/199266_1_day_only_Chefs_Choice_15_Trizor_XV_Electric_K/20%Monthly2017-07-31 16:16
http://www.hotnewdeal.com/2017/07/31/199264_iPad_Pro_105_256gb_673__Sams_Club/20%Monthly2017-07-31 15:51
http://www.hotnewdeal.com/2017/07/31/199263_Milwaukee_M12_14_in_Ratchet_and_38_in_Ratchet_/20%Monthly2017-07-31 15:51
http://www.hotnewdeal.com/2017/07/31/199261_Zinus_12_Inch_Deluxe_Wood_Platform_Bed__No_Boxspr/20%Monthly2017-07-31 15:40
http://www.hotnewdeal.com/2017/07/31/199260_Nintendo_Switch_Splatoon_Pro_Controller__Amazon_/20%Monthly2017-07-31 15:25
http://www.hotnewdeal.com/2017/07/31/199259_1_Year_of_Private_Internet_Access_Service_2999/20%Monthly2017-07-31 15:25
http://www.hotnewdeal.com/2017/07/31/199258_Avalon_Bay_EcoWash_Portable_Washing_Machine_404/20%Monthly2017-07-31 15:17
http://www.hotnewdeal.com/2017/07/31/199257_Starbucks_Buy_any_Macchiato_and_get_one_FREE_AUG/20%Monthly2017-07-31 15:16
http://www.hotnewdeal.com/2017/07/31/199256_Certified_Refurbished_Fire_HD_10_Tablet_101_HD_D/20%Monthly2017-07-31 15:16
http://www.hotnewdeal.com/2017/07/31/199255_yurbuds_by_JBL_Inspire_100_Vivid_InTheEar_Sport_/20%Monthly2017-07-31 15:16
http://www.hotnewdeal.com/2017/07/31/199254_Charcoal_Wood_Pellets_and_Smoking_Chips_Clearanc/20%Monthly2017-07-31 14:56
http://www.hotnewdeal.com/2017/07/31/199253_YI_Home_Camera_Wireless_IP_Security_Surveillance_S/20%Monthly2017-07-31 14:56
http://www.hotnewdeal.com/2017/07/31/199252_FoodSaver_V3250_Vacuum_Sealing_System_Remanufact/20%Monthly2017-07-31 14:56
http://www.hotnewdeal.com/2017/07/31/199251_3Piece_American_Tourister_Arona_Hardside_Spinner_/20%Monthly2017-07-31 14:34
http://www.hotnewdeal.com/2017/07/31/199250_Philips_Hue_Motion_Sensor__Now_2399/20%Monthly2017-07-31 14:29
http://www.hotnewdeal.com/2017/07/31/199249_Verizon_Smart_Rewards_Brookstone_5_Gift_Card_for_/20%Monthly2017-07-31 14:29
http://www.hotnewdeal.com/2017/07/31/199248_Prime_Members_Sanpellegrino_Lemon_Sparkling_Fruit/20%Monthly2017-07-31 14:08
http://www.hotnewdeal.com/2017/07/31/199247_Xiaomi_Mijia_05mm_Sign_Pen_099__free_shipping/20%Monthly2017-07-31 14:08
http://www.hotnewdeal.com/2017/07/31/199246_Marantz_sr6011_92_AVR_for_840_Clearance_at_Best_/20%Monthly2017-07-31 13:55
http://www.hotnewdeal.com/2017/07/31/199245_GoPro_Hero_5_Charger_with_Battery_3999/20%Monthly2017-07-31 13:55
http://www.hotnewdeal.com/2017/07/31/199244_5Piece_Lancme_All_About_Drama_Set__7Piece_Lanc/20%Monthly2017-07-31 13:54
http://www.hotnewdeal.com/2017/07/31/199243_Bella_Electric_Food_Slicer_30/20%Monthly2017-07-31 13:47
http://www.hotnewdeal.com/2017/07/31/199242_36Ct_Bounty_SelectASize_Double_Rolls_4047_o/20%Monthly2017-07-31 13:32
http://www.hotnewdeal.com/2017/07/31/199241_Smashburger_Printable_Coupon_Buy_One_Entree_Get_O/20%Monthly2017-07-31 13:26
http://www.hotnewdeal.com/2017/07/31/199240_The_Economist_1_per_issue__51_for_one_year_51_/20%Monthly2017-07-31 13:26
http://www.hotnewdeal.com/2017/07/31/199239_Prime_Members_Optimum_Nutrition_Sample_Box_for_7/20%Monthly2017-07-31 13:25
http://www.hotnewdeal.com/2017/07/31/199238_3TB_Seagate_Barracuda_ST3000DM008_Hard_Drive_70AC/20%Monthly2017-07-31 13:19
http://www.hotnewdeal.com/2017/07/31/199237_Injustice_2__Xbox_One__PS_4_32_wGCU/20%Monthly2017-07-31 13:19
http://www.hotnewdeal.com/2017/07/31/199236_Target_August_Beauty_Box_Available_Now__7__Free/20%Monthly2017-07-31 12:55
http://www.hotnewdeal.com/2017/07/31/199235_100_Hotelscom_GC_for_90__free_mail_delivery_sv/20%Monthly2017-07-31 12:44
http://www.hotnewdeal.com/2017/07/31/199234_9oz_Town_House_Baked_Focaccia_Crackers_Rosemary_a/20%Monthly2017-07-31 12:37
http://www.hotnewdeal.com/2017/07/31/199233_Dollar_General_Coupon_20_Off__Free_SH_Today_On/20%Monthly2017-07-31 12:37
http://www.hotnewdeal.com/2017/07/31/199232_New_York_to_Bangalore_India_695_RT_on_Kuwait_Airw/20%Monthly2017-07-31 12:25
http://www.hotnewdeal.com/2017/07/31/199231_Fractal_Design_Define_C_ATX_Mid_Tower_Case_60_73/20%Monthly2017-07-31 12:18
http://www.hotnewdeal.com/2017/07/31/199230_CyberPower_GX1325U_1325_VA_810_Watts_10_Outlets_UP/20%Monthly2017-07-31 12:18
http://www.hotnewdeal.com/2017/07/31/199229_Canon_EFS_1018mm_f4556_IS_STM_Refurbished_1/20%Monthly2017-07-31 12:13
http://www.hotnewdeal.com/2017/07/31/199228_50_ExxonMobil_gas_GC_for_46_100_BP_GC_for_93_/20%Monthly2017-07-31 12:03
http://www.hotnewdeal.com/2017/07/31/199227_Not_Alone_by_Craig_Falconer__Kindle_edition_099/20%Monthly2017-07-31 12:03
http://www.hotnewdeal.com/2017/07/31/199226_VIZIO_SmartCast_E50E1_Ultra_HD_50ampquot_Class/20%Monthly2017-07-31 12:03
http://www.hotnewdeal.com/2017/07/31/199225_Knorr_Cube_Bouillon_Beef_31_oz_8_ct_Beef_Cubes/20%Monthly2017-07-31 12:02
http://www.hotnewdeal.com/2017/07/31/199224_Olive_Garden_Buy_one_meal_in_restaurant_for_129/20%Monthly2017-07-31 11:52
http://www.hotnewdeal.com/2017/07/31/199223_2Pack_Munchkin_Miracle_360_10oz_Sippy_Cups_pink/20%Monthly2017-07-31 11:52
http://www.hotnewdeal.com/2017/07/31/199222_Avalon_Bay_Sous_Vide_2370_free_shipping__Promo_/20%Monthly2017-07-31 11:31
http://www.hotnewdeal.com/2017/07/31/199221_PlayStation4Pro1TBconsole_Newegg_Via_Ebay_359/20%Monthly2017-07-31 11:24
http://www.hotnewdeal.com/2017/07/31/199220_Farberware_Electric_Skillet_11_Black_999_Wal/20%Monthly2017-07-31 11:08
http://www.hotnewdeal.com/2017/07/31/199219_Elite_Portable_Induction_Cooktop_Red_EIND88R_13/20%Monthly2017-07-31 10:56
http://www.hotnewdeal.com/2017/07/31/199217_Bobs_Red_mill_gluten_free_flour_091_per_5_lbs_a/20%Monthly2017-07-31 10:42
http://www.hotnewdeal.com/2017/07/31/199216_Veranda_KettleStyle_Barbecue_Grill_Cover_by_Class/20%Monthly2017-07-31 10:30
http://www.hotnewdeal.com/2017/07/31/199215_MLB__NCAA__NFL__NHL_Hats__Caps_Various_Teams/20%Monthly2017-07-31 10:24
http://www.hotnewdeal.com/2017/07/31/199214_Nintendo_Switch_Joy_Con_Grey__Neon_RedNeon_Blue/20%Monthly2017-07-31 10:13
http://www.hotnewdeal.com/2017/07/31/199213_Charcoal_Grill_Clearance_Megathread__Walmart_YMMV/20%Monthly2017-07-31 10:13
http://www.hotnewdeal.com/2017/07/31/199212_Microsoft_Surface_3_108_Full_HD_Tablet_Intel_Ato/20%Monthly2017-07-31 10:07
http://www.hotnewdeal.com/2017/07/31/199211_Kershaw_1776ST_Link_Serrated_Knife_wSpeedSafe__/20%Monthly2017-07-31 09:46
http://www.hotnewdeal.com/2017/07/31/199209_Sony_STRDN1080_AV_Receiver__72_Dolby_Atmos_Wi/20%Monthly2017-07-31 09:17
http://www.hotnewdeal.com/2017/07/31/199208_Pack_of_8__Glade_Wax_Melts_Air_Freshener_Refill_/20%Monthly2017-07-31 09:13
http://www.hotnewdeal.com/2017/07/31/199207_Duracell_Duralock_Coppertop_70_AA__30_AAA_Batteri/20%Monthly2017-07-31 08:54
http://www.hotnewdeal.com/2017/07/31/199206_Scaffolding__Drywall_Cart__Builing_Equipment_Pr/20%Monthly2017-07-31 08:48
http://www.hotnewdeal.com/2017/07/31/199205_BO_PLAY_by_Bang__Olufsen_Beoplay_H4_Wireless_Ove/20%Monthly2017-07-31 08:20
http://www.hotnewdeal.com/2017/07/31/199203_Acronis_True_Image_2017__5_Devices_Free_after_60/20%Monthly2017-07-31 08:03
http://www.hotnewdeal.com/2017/07/31/199202_DeWalt_Tools_DeWalt_DCD771C2_20V_Max_Drill_Driver/20%Monthly2017-07-31 07:39
http://www.hotnewdeal.com/2017/07/31/199201_SOG_Entrenching_Tool_F08N__Folding_Shovel_High_/20%Monthly2017-07-31 07:26
http://www.hotnewdeal.com/2017/07/31/199200_Tom_Clancys_the_Division_or_Rainbow_Siege_Six_P/20%Monthly2017-07-31 05:32
http://www.hotnewdeal.com/2017/07/31/199199_Mainstays_Fans__16_Oscillating_Pedestal_Fan_for_/20%Monthly2017-07-31 05:11
http://www.hotnewdeal.com/2017/07/31/199198_Coleman_30Can_Soft_Cooler_With_Hard_Liner_Green/20%Monthly2017-07-31 04:33
http://www.hotnewdeal.com/2017/07/31/199197_Costco_Membership__GrouponLivinsocial_starts_73/20%Monthly2017-07-31 03:12
http://www.hotnewdeal.com/2017/07/31/199196_7995_FS_Lowepro_Fastpack_BP_250_AW_II_Black/20%Monthly2017-07-31 03:12
http://www.hotnewdeal.com/2017/07/31/199195_Bounty_SelectASize_White_Paper_Towels_12_Mega_Ro/20%Monthly2017-07-31 03:11
http://www.hotnewdeal.com/2017/07/31/199194_hyper_tough_lawn_mower_20_inch125cc_99_ymmv/20%Monthly2017-07-31 02:13
http://www.hotnewdeal.com/2017/07/31/199193_Free_Graphing_calculator_Android_App_Pro_Normally/20%Monthly2017-07-31 01:34
http://www.hotnewdeal.com/2017/07/31/199192_28oz_Palmolive_Dish_Soap_Crisp_Orchard_Burst_for/20%Monthly2017-07-31 01:33
http://www.hotnewdeal.com/2017/07/31/199191_10_KIDS_HAIRCUTS_K6TH_GRADE_JC_Penny_salons_thro/20%Monthly2017-07-31 01:28
http://www.hotnewdeal.com/2017/07/31/199190_120Count_Stretch_Island_Cinnamon_Apple_Organic_Fr/20%Monthly2017-07-31 01:13
http://www.hotnewdeal.com/2017/07/31/199189_Amazon_Pearington_36H_X_42W_Table_with_Stools_S/20%Monthly2017-07-31 01:13
http://www.hotnewdeal.com/2017/07/31/199188_BelkinBelkin_smart_LED_Lighting_Starter_Set_1499/20%Monthly2017-07-31 00:20
http://www.hotnewdeal.com/2017/07/31/199187_Canon_T6i_with_1855mm_EFS_Lens_Refurbished/20%Monthly2017-07-31 00:20
http://www.hotnewdeal.com/2017/07/31/199186_Office_Depot_4Pack_UniBall_Gel_Pens_ONLY_1__F/20%Monthly2017-07-31 00:03
http://www.hotnewdeal.com/2017/07/30/199185_Philips_HeartStart_Home_Defibrillator__Amazon_78/20%Monthly2017-07-30 23:52
http://www.hotnewdeal.com/2017/07/30/199184_Mainstays_Basic_Paper_Towel_Holder_Black_384_W/20%Monthly2017-07-30 23:52
http://www.hotnewdeal.com/2017/07/30/199183_Samsung_Galaxy_S8S8__Buy_on_installment_at_Sam/20%Monthly2017-07-30 23:52
http://www.hotnewdeal.com/2017/07/30/199182_LG_55_Inch_4K_TV_55UJ6300_frys_for_499_Expires_0/20%Monthly2017-07-30 23:08
http://www.hotnewdeal.com/2017/07/30/199181_3Pack_Gillette_Venus_Tropical_Disposable_Womens_/20%Monthly2017-07-30 22:59
http://www.hotnewdeal.com/2017/07/30/199180_Garmin_Vivosmart_HR_Activity_Tracker_Regular_Fit_/20%Monthly2017-07-30 22:47
http://www.hotnewdeal.com/2017/07/30/199179_Azio_MGK1_Backlit_Full_Mechanical_Gaming_Keyboard_/20%Monthly2017-07-30 21:57
http://www.hotnewdeal.com/2017/07/30/199178_Eureka_The_Complete_Series_Region_Free_Bluray_/20%Monthly2017-07-30 21:00
http://www.hotnewdeal.com/2017/07/30/199177_1TB_Samsung_850_EVO_25_Solid_State_Drive_28799/20%Monthly2017-07-30 20:55
http://www.hotnewdeal.com/2017/07/30/199176_Danby_ArcticAire_70Pint_2Speed_Energy_Star_Air_D/20%Monthly2017-07-30 20:55
http://www.hotnewdeal.com/2017/07/30/199175_Diary_of_a_Wimpy_Kid_10_Second_Challenge_855__F/20%Monthly2017-07-30 20:48
http://www.hotnewdeal.com/2017/07/30/199174_Crisco_Professional_Oil_Spray_Grill_Master_12_Ou/20%Monthly2017-07-30 20:48
http://www.hotnewdeal.com/2017/07/30/199173_Morakniv_Outdoor_2000_Fixed_Blade_Knife_with_Sandv/20%Monthly2017-07-30 20:48
http://www.hotnewdeal.com/2017/07/30/199172_Pioneer_VSXLX101_72_Receiver_with_Atmos__130_N/20%Monthly2017-07-30 20:48
http://www.hotnewdeal.com/2017/07/30/199171_Logitech_Z323_21_Speaker_System_RFBB_25/20%Monthly2017-07-30 20:48
http://www.hotnewdeal.com/2017/07/30/199170_Mens_Citizen_Ecodrive_Black_Stainless_Steel_for_/20%Monthly2017-07-30 20:36
http://www.hotnewdeal.com/2017/07/30/199169_Amazon_Prime_Members_Pampers__clip_2_coupon/20%Monthly2017-07-30 20:36
http://www.hotnewdeal.com/2017/07/30/199168_GoPro_Hero_Session_120_FS_at_Amazon/20%Monthly2017-07-30 20:36
http://www.hotnewdeal.com/2017/07/30/199167_Brookstone_Big_Blue_Bluetooth_Headphone_Amplifier_/20%Monthly2017-07-30 20:04
http://www.hotnewdeal.com/2017/07/30/199166_The_Big_One_Cotton_Poly_Blend_Percale_Sheet_Set_T/20%Monthly2017-07-30 20:04
http://www.hotnewdeal.com/2017/07/30/199165_Target_Cottonelle_Ultra_Mega_Roll_18_Count_3_Packs/20%Monthly2017-07-30 19:51
http://www.hotnewdeal.com/2017/07/30/199164_Doom_3_PC_Steam__115/20%Monthly2017-07-30 19:46
http://www.hotnewdeal.com/2017/07/30/199163_625_Steel_Shelving_Unit_5Shelf_on_Wheels_in_C/20%Monthly2017-07-30 19:28
http://www.hotnewdeal.com/2017/07/30/199161_Apple_MacBook_Air_133_in_Dual_Core_Intel_Core_i5/20%Monthly2017-07-30 19:20
http://www.hotnewdeal.com/2017/07/30/199160_EVGA_GTX_1060_Gaming_6GB_DDR5__24349_Shipped/20%Monthly2017-07-30 19:15
http://www.hotnewdeal.com/2017/07/30/199159_KOHLER_38100_Santa_Rosa_Comfort_Height_Elongated_/20%Monthly2017-07-30 19:14
http://www.hotnewdeal.com/2017/07/30/199157_Costco_Website_iTunes_Gift_Cards_200_for_16499/20%Monthly2017-07-30 18:49
http://www.hotnewdeal.com/2017/07/30/199156_Lifesmart_6_Element_Large_Room_Infrared_Quartz_Hea/20%Monthly2017-07-30 18:33
http://www.hotnewdeal.com/2017/07/30/199155_Star_Wars_Smart_R2D2__3499/20%Monthly2017-07-30 18:33
http://www.hotnewdeal.com/2017/07/30/199153_GoPro_HERO5_Black_Camera_Only_31999/20%Monthly2017-07-30 18:04
http://www.hotnewdeal.com/2017/07/30/199152_12Pack_Chef_Boyardee_Mini_Beef_Ravioli_1425oz_Mi/20%Monthly2017-07-30 17:52
http://www.hotnewdeal.com/2017/07/30/199151_Carlson_Extra_Wide_Walk_Through_Gate_with_Pet_Door/20%Monthly2017-07-30 17:52
http://www.hotnewdeal.com/2017/07/30/199150_Eco_outdoor_wifi_outlet_2_outlets_15_at_Walmart/20%Monthly2017-07-30 17:32
http://www.hotnewdeal.com/2017/07/30/199149_Samsung_OEM_Original_Wireless_Charging_Pad_Wall_C/20%Monthly2017-07-30 17:18
http://www.hotnewdeal.com/2017/07/30/199148_College_Student_Only_Samsung_Galaxy_S8_Coral_Blu/20%Monthly2017-07-30 17:13
http://www.hotnewdeal.com/2017/07/30/199147_2pack_Mens_Leather_Belts_1_Black_1_Brown_89/20%Monthly2017-07-30 17:13
http://www.hotnewdeal.com/2017/07/30/199146_Curious_George_Storybook_Collection_CGTV_Hardcov/20%Monthly2017-07-30 16:53
http://www.hotnewdeal.com/2017/07/30/199145_Black__Decker_2in1_Landscape_Edger_and_Trencher/20%Monthly2017-07-30 16:53
http://www.hotnewdeal.com/2017/07/30/199144_Thomas_Wooden_Railway_Light_up_Annie__Claribel_8/20%Monthly2017-07-30 16:47
http://www.hotnewdeal.com/2017/07/30/199143_Logitech_G602_Wireless_Gaming_Mouse_or_RAPOO_VPro_/20%Monthly2017-07-30 16:06
http://www.hotnewdeal.com/2017/07/30/199142_BAHN_HarleyDavidson_Motorcycle_Accessories__75_/20%Monthly2017-07-30 15:49
http://www.hotnewdeal.com/2017/07/30/199141_Star_Wars_Sphero_BB8_AppEnabled_Droid_64_Walmar/20%Monthly2017-07-30 15:49
http://www.hotnewdeal.com/2017/07/30/199140_64oz_Stanley_Vacuum_Insulated_Stainless_Steel_Grow/20%Monthly2017-07-30 15:33
http://www.hotnewdeal.com/2017/07/30/199139_10_for_two_Wall_mount_grocery_bag_dispenser/20%Monthly2017-07-30 15:15
http://www.hotnewdeal.com/2017/07/30/199138_12Pc_Harvest_Manor_Jaquard_Queen_Comforter_Set__/20%Monthly2017-07-30 15:08
http://www.hotnewdeal.com/2017/07/30/199137_Munchkin_Miracle_360_Sippy_Cup_GreenBlue_10_Oun/20%Monthly2017-07-30 14:58
http://www.hotnewdeal.com/2017/07/30/199136_Big_Lebowski_Steelbook_499_with_free_pickup/20%Monthly2017-07-30 14:47
http://www.hotnewdeal.com/2017/07/30/199135_PDQ_BOGO_Chicken_Tenders_Meal/20%Monthly2017-07-30 14:42
http://www.hotnewdeal.com/2017/07/30/199134_Craftsman_150230Watt_Solder_Gun_1999__Free_St/20%Monthly2017-07-30 14:42
http://www.hotnewdeal.com/2017/07/30/199133_Uppababy_2017_Vista_Cruz_etc_at_10_off_with_Pay/20%Monthly2017-07-30 14:37
http://www.hotnewdeal.com/2017/07/30/199132_Staples_weekly_ad_73085__750_sheet_reams_49_A/20%Monthly2017-07-30 14:23
http://www.hotnewdeal.com/2017/07/30/199131_Bath__Body_Works__Online_only_flash_sale__6_Se/20%Monthly2017-07-30 13:54
http://www.hotnewdeal.com/2017/07/30/199130_Song_of_the_Deep__Collectors_Edition__PS4__7/20%Monthly2017-07-30 13:44
http://www.hotnewdeal.com/2017/07/30/199129_CrockPot_has_20oz_CrockPot_Lunch_Food_Warmers_3_/20%Monthly2017-07-30 13:44
http://www.hotnewdeal.com/2017/07/30/199128_Craftsman_3_ton_Floor_Jack_with_Jack_Stands_and_Cr/20%Monthly2017-07-30 13:25
http://www.hotnewdeal.com/2017/07/30/199127_Samsung_55_InchUN55MU6300FXZA_4K_HDTV_529_Frys_B/20%Monthly2017-07-30 13:25
http://www.hotnewdeal.com/2017/07/30/199126_Walmart_Galanz_35_cu_ft_VCM_SingleDoor_Refriger/20%Monthly2017-07-30 13:07
http://www.hotnewdeal.com/2017/07/30/199125_Moto_G4_Play_Unlocked_74__Walmart_YMMV/20%Monthly2017-07-30 13:00
http://www.hotnewdeal.com/2017/07/30/199124_Chefman_Immersion_Blender__Stainless_Steel_Shaft_/20%Monthly2017-07-30 12:45
http://www.hotnewdeal.com/2017/07/30/199123_1More_Triple_Driver_InEar_Headphones__6499__C/20%Monthly2017-07-30 12:45
http://www.hotnewdeal.com/2017/07/30/199122_CORSAIR_VOID_SE_Wireless_Gaming_Headset_Yellow_Ja/20%Monthly2017-07-30 12:31
http://www.hotnewdeal.com/2017/07/30/199121_No_Coupons_Nivea_Body_Wash_Just_100_at_Target_/20%Monthly2017-07-30 12:26
http://www.hotnewdeal.com/2017/07/30/199120_Amazon_LEGO_STAR_WARS_Sergeant_Jyn_Erso_75119_9/20%Monthly2017-07-30 12:11
http://www.hotnewdeal.com/2017/07/30/199119_Best_buy_college_students_deal/20%Monthly2017-07-30 12:01
http://www.hotnewdeal.com/2017/07/30/199118_Bostitch_18V_Impact_Driver_Lithium_Ion_4500_at/20%Monthly2017-07-30 12:01
http://www.hotnewdeal.com/2017/07/30/199117_Panasonic__Lumix_G_25mm_f17_ASPH_Lens_For_Micr/20%Monthly2017-07-30 11:57
http://www.hotnewdeal.com/2017/07/30/199116_Sony_XBR55X900E_55Inch_4K_Ultra_HD_Smart_LED_TV_/20%Monthly2017-07-30 11:46
http://www.hotnewdeal.com/2017/07/30/199115_Fire_Sense_Large_Yakatori_Charcoal_Grill_2327__/20%Monthly2017-07-30 11:29
http://www.hotnewdeal.com/2017/07/30/199114_100_Lowes_Gift_Card_Email_Delivery_90/20%Monthly2017-07-30 11:20
http://www.hotnewdeal.com/2017/07/30/199113_Craftsman_Magnetic_PickUp_Tool_w_Light_699__F/20%Monthly2017-07-30 11:07
http://www.hotnewdeal.com/2017/07/30/199112_Acer_Aspire_i5_8GB_1TB_HDD_156_1080p_touchscr/20%Monthly2017-07-30 11:07
http://www.hotnewdeal.com/2017/07/30/199111_Prime_Members_Rubbermaid_Commercial_Super_Stitch_/20%Monthly2017-07-30 10:48
http://www.hotnewdeal.com/2017/07/30/199110_Pack_of_4_SpaghettiOs_Original_Pasta_158_Ounce_/20%Monthly2017-07-30 10:41
http://www.hotnewdeal.com/2017/07/30/199109_38281_Monitor_2560x1440_GSYNC_165hz_Dell_S241/20%Monthly2017-07-30 10:40
http://www.hotnewdeal.com/2017/07/30/199108_YMMV_Dremel_2290_32Piece_Variable_Speed_Multipur/20%Monthly2017-07-30 10:31
http://www.hotnewdeal.com/2017/07/30/199107_2Pack_The_Big_One_Essential_Mattress_Pad_Queen_/20%Monthly2017-07-30 10:20
http://www.hotnewdeal.com/2017/07/30/199106_Uncharted_The_Nathan_Drake_Collection_or_Bloodbor/20%Monthly2017-07-30 10:15
http://www.hotnewdeal.com/2017/07/30/199105_Sprint_iPhone_SE_16GB_299mo_32GB_416mo_64GB_/20%Monthly2017-07-30 09:56
http://www.hotnewdeal.com/2017/07/30/199104_15_The_Big_One_Gel_Memory_Foam_Mattress_Topper_/20%Monthly2017-07-30 09:49
http://www.hotnewdeal.com/2017/07/30/199103_Ivation_Long_Range_Wireless_Thermometer_W_Spare_P/20%Monthly2017-07-30 09:49
http://www.hotnewdeal.com/2017/07/30/199102_King_Kong_Steelbook_Bluray__DVD__Digital_HD_/20%Monthly2017-07-30 09:46
http://www.hotnewdeal.com/2017/07/30/199101_Hario_V60_Glass_Range_Server_800ml_Size_03_13/20%Monthly2017-07-30 09:38
http://www.hotnewdeal.com/2017/07/30/199100_The_Big_One_52_Body_Pillow_Machine_Washable_for/20%Monthly2017-07-30 09:38
http://www.hotnewdeal.com/2017/07/30/199099_Pack_of_6__NIVEA_Men_Sensitive_Shaving_Foam_7_Oun/20%Monthly2017-07-30 09:21
http://www.hotnewdeal.com/2017/07/30/199098_HP_Envy_x360_QHD_Convertible_Touchscreen_Laptop_/20%Monthly2017-07-30 08:29
http://www.hotnewdeal.com/2017/07/30/199097_Select_3_BluRay_Movies_for_17_Men_In_Black_Tril/20%Monthly2017-07-30 07:39
http://www.hotnewdeal.com/2017/07/30/199096_54Count_Charmin_Mega_Roll_Toilet_Paper_Ultra_Str/20%Monthly2017-07-30 07:07
http://www.hotnewdeal.com/2017/07/30/199095_Add_on_12_Pack__La_Costena_Bean_Refried_Black_2/20%Monthly2017-07-30 06:32
http://www.hotnewdeal.com/2017/07/30/199094_Have_A_Nice_Day_Middle_Finger_Coffee_Mug_40_OFF_/20%Monthly2017-07-30 05:27
http://www.hotnewdeal.com/2017/07/30/199093_5Pack_100oz_Tide_Liquid_Laundry_Detergent_Variou/20%Monthly2017-07-30 05:06
http://www.hotnewdeal.com/2017/07/30/199092_Monoprice_ZWave_Plus_Door__Window_Sensor_New_Mo/20%Monthly2017-07-30 04:06
http://www.hotnewdeal.com/2017/07/30/199091_10999_HP_Laptop_EliteBook_8470P_Intel_Core_i5_3r/20%Monthly2017-07-30 04:06
http://www.hotnewdeal.com/2017/07/30/199090_The_Body_Shop_Discontinued_Beauty_Items__Save_Up/20%Monthly2017-07-30 03:07
http://www.hotnewdeal.com/2017/07/30/199089_GCU_Members_Assassins_Creed_The_Ezio_Collection_/20%Monthly2017-07-30 03:07
http://www.hotnewdeal.com/2017/07/30/199088_Amazon_SS_The_Body_Shop_Matte_Lipstick_Havana_R/20%Monthly2017-07-30 03:06
http://www.hotnewdeal.com/2017/07/30/199087_Dell_Inspiron_156_or_133_Touchscreen_Laptop_i/20%Monthly2017-07-30 03:06
http://www.hotnewdeal.com/2017/07/30/199086_Safety_1st_Heavenly_Dreams_Stars_a_Plenty_Baby_Mat/20%Monthly2017-07-30 02:27
http://www.hotnewdeal.com/2017/07/30/199085_Stanley_WetDry_Vacuum_5_Gallon_4_Horsepower_for/20%Monthly2017-07-30 02:07
http://www.hotnewdeal.com/2017/07/30/199084_Lenovo_Flex_4_14_2in1_14_FHD_IPS_Touch_i361/20%Monthly2017-07-30 02:07
http://www.hotnewdeal.com/2017/07/30/199083_Pocket_Juice_20000_mAh_portable_charger__9__Wal/20%Monthly2017-07-30 02:07
http://www.hotnewdeal.com/2017/07/30/199081_Costco_members_Rubbermaid_cereal_keeper__3_pack_/20%Monthly2017-07-30 01:27
http://www.hotnewdeal.com/2017/07/30/199080_Sawyer_Products_Premium_Insect_Repellent_with_20_/20%Monthly2017-07-30 01:06
http://www.hotnewdeal.com/2017/07/30/199079_Star_Wars_Xwing_Miniatures__TFA_Core_Set_25__A/20%Monthly2017-07-30 01:06
http://www.hotnewdeal.com/2017/07/30/199078_Huawei__Honor_6X_Unlocked_Smartphone_with_Dual_Ca/20%Monthly2017-07-30 00:01
http://www.hotnewdeal.com/2017/07/29/199077_5_Led_Flashlight_Gosund_T10_2Pack_Ultra_Bright_Ad/20%Monthly2017-07-29 23:12
http://www.hotnewdeal.com/2017/07/29/199076_Sportsman_GEN1000I_1000_Watt_Inverter_Generator_/20%Monthly2017-07-29 22:59
http://www.hotnewdeal.com/2017/07/29/199075_Halo_Wars_2_Xbox_One_Key_Windows_10_GLOBAL_1834_/20%Monthly2017-07-29 22:59
http://www.hotnewdeal.com/2017/07/29/199074_Turbot_3D_Virtual_Reality_Headset_with_Adjustable_/20%Monthly2017-07-29 22:50
http://www.hotnewdeal.com/2017/07/29/199072_WEN_10_Sliding_Compound_Miter_Saw_8340_In_Store/20%Monthly2017-07-29 22:31
http://www.hotnewdeal.com/2017/07/29/199070_Excelgadgets_Silicon_Stretch_Lids_50_off/20%Monthly2017-07-29 20:50
http://www.hotnewdeal.com/2017/07/29/199069_New_Samsung_Galaxy_Note_5_32GB_SMN920T_for_TMo/20%Monthly2017-07-29 20:40
http://www.hotnewdeal.com/2017/07/29/199068_Boston_Market_BOGO_exp_73017/20%Monthly2017-07-29 20:39
http://www.hotnewdeal.com/2017/07/29/199067_MSI_Z270_SLI_PLUS_LGA_1151_Intel_Z270_HDMI_SATA_6G/20%Monthly2017-07-29 20:23
http://www.hotnewdeal.com/2017/07/29/199066_Fruit_of_the_Loom_Ladies_6pk_Heather_Low_Rise_Hip/20%Monthly2017-07-29 20:16
http://www.hotnewdeal.com/2017/07/29/199065_YMMV_Kobalt_5Piece_Metric_Ratchet_Wrench_Set_48/20%Monthly2017-07-29 19:31
http://www.hotnewdeal.com/2017/07/29/199064_Huawei_Smartwatch_42mm_Stainless_Steel_w_Black_Su/20%Monthly2017-07-29 19:13
http://www.hotnewdeal.com/2017/07/29/199063_WindTunnel_2_High_Capacity_Pet_Upright_Vacuum_60_/20%Monthly2017-07-29 19:12
http://www.hotnewdeal.com/2017/07/29/199061_Pioneer_SPBS22LR_4_Andrew_Jones_Bookshelf_Speak/20%Monthly2017-07-29 18:52
http://www.hotnewdeal.com/2017/07/29/199060_NETGEAR_GS324_24Port_Gigabit_Ethernet_Desktop__R/20%Monthly2017-07-29 18:52
http://www.hotnewdeal.com/2017/07/29/199059_Sapphire_RX_460_Video_Card_80AR_PowerColor_RX_5/20%Monthly2017-07-29 18:31
http://www.hotnewdeal.com/2017/07/29/199058_256GB_Samsung_850_Pro_SSD_84_wemailed_code_star/20%Monthly2017-07-29 17:53
http://www.hotnewdeal.com/2017/07/29/199057_Hario_V60_Drip_Decanter_Pour_Over_Coffee_Maker_70/20%Monthly2017-07-29 17:53
http://www.hotnewdeal.com/2017/07/29/199056_Frys__40_Samsung_UN40MU6300_4K_UHD_Smart_LED_HDT/20%Monthly2017-07-29 17:48
http://www.hotnewdeal.com/2017/07/29/199055_Modern_Studio_10_Metal_Platform_Bed_with_Headboar/20%Monthly2017-07-29 17:07
http://www.hotnewdeal.com/2017/07/29/199054_Citizen_Mens_BM818003E_EcoDrive_Analog_Japanese/20%Monthly2017-07-29 16:50
http://www.hotnewdeal.com/2017/07/29/199053_Irwin_25ft_straight_line_tape_measure_449__low/20%Monthly2017-07-29 16:50
http://www.hotnewdeal.com/2017/07/29/199052_Lowes_Style_Selections_275in_x_78in_Red_Oak_S/20%Monthly2017-07-29 16:38
http://www.hotnewdeal.com/2017/07/29/199051_Slipstick_CB680_2_Inch_Floor_Protecting_Rubber_Off/20%Monthly2017-07-29 16:15
http://www.hotnewdeal.com/2017/07/29/199050__Rent_a_new_blockbuster_each_week_for_just_099/20%Monthly2017-07-29 16:15
http://www.hotnewdeal.com/2017/07/29/199049_Sennheiser_CX_300_II_Precision_Enhanced_Bass_Earbu/20%Monthly2017-07-29 16:08
http://www.hotnewdeal.com/2017/07/29/199048_Lego_Christmas_in_July_Free_Snow_Globe_with_99_pu/20%Monthly2017-07-29 15:46
http://www.hotnewdeal.com/2017/07/29/199046_Oui_by_Yoplait__3_FAR__Walmart_possible_money_ma/20%Monthly2017-07-29 15:27
http://www.hotnewdeal.com/2017/07/29/199045_Thermaltake_750W_Toughpower_Semi_Modular_Cables_B/20%Monthly2017-07-29 15:20
http://www.hotnewdeal.com/2017/07/29/199044_Apple_TV_4th_Generation_32_GB__Adorama__Back_In_/20%Monthly2017-07-29 15:08
http://www.hotnewdeal.com/2017/07/29/199043_Seville_Classics_UltraSlimline_40_in_Oscillating_/20%Monthly2017-07-29 14:37
http://www.hotnewdeal.com/2017/07/29/199041_JCPenney_Cooks_Small_Appliances_8_after_rebate_/20%Monthly2017-07-29 14:30
http://www.hotnewdeal.com/2017/07/29/199040_Amazon_Spot_Farms_Human_Grade_Dehydrated_Dog_Food/20%Monthly2017-07-29 14:16
http://www.hotnewdeal.com/2017/07/29/199039_Swagman_Upright_Bicycle_Roof_Rack_2269/20%Monthly2017-07-29 14:04
http://www.hotnewdeal.com/2017/07/29/199038_Walmart_Patio_Tables_Clearance_YMMV/20%Monthly2017-07-29 13:48
http://www.hotnewdeal.com/2017/07/29/199036_WindTunnel_2_High_Capacity_Pet_Upright_UH70816_/20%Monthly2017-07-29 13:47
http://www.hotnewdeal.com/2017/07/29/199035_ASUS_Rog_Strix_B250H_Gaming_LGA1151_DDR4_HDMI_DVI_/20%Monthly2017-07-29 13:40
http://www.hotnewdeal.com/2017/07/29/199034_Silicon_Power_480GB_SSD_S60_MLC_High_Endurance_SAT/20%Monthly2017-07-29 13:35
http://www.hotnewdeal.com/2017/07/29/199033_Best_price__BLACKDECKER_Digital_Advantage_Profes/20%Monthly2017-07-29 13:27
http://www.hotnewdeal.com/2017/07/29/199032_Oral_B_Pro_3000_3999/20%Monthly2017-07-29 13:15
http://www.hotnewdeal.com/2017/07/29/199031_Prime_Members_EMSCO_Group_34_Inch_Kids_Snow_Shove/20%Monthly2017-07-29 12:54
http://www.hotnewdeal.com/2017/07/29/199030_Monoprice_desktop_headphone_amp_sale_6999_take_a/20%Monthly2017-07-29 12:54
http://www.hotnewdeal.com/2017/07/29/199029_Prime_Members_Individual_Samples_for_2__2_cred/20%Monthly2017-07-29 12:48
http://www.hotnewdeal.com/2017/07/29/199028_Nordstrom_Rack_Cole_Haan_Benson_Leather_Crossbody_/20%Monthly2017-07-29 12:47
http://www.hotnewdeal.com/2017/07/29/199027_PlayDoh_60th_Anniversary_Celebration_60_Pack_9/20%Monthly2017-07-29 12:39
http://www.hotnewdeal.com/2017/07/29/199026_Samsung_Multifunction_Printer_Xpress_C1860FW_Color/20%Monthly2017-07-29 12:34
http://www.hotnewdeal.com/2017/07/29/199025_697_Acer_Desktop_Computer_Intel_i7_Quad_Core_4_GH/20%Monthly2017-07-29 12:34
http://www.hotnewdeal.com/2017/07/29/199023_Frys_Lacie_4TB_Porsche_Design_Mobile_Drive_109/20%Monthly2017-07-29 12:06
http://www.hotnewdeal.com/2017/07/29/199022_Sony_DualShock_4_Wireless_Controller_38AC/20%Monthly2017-07-29 12:05
http://www.hotnewdeal.com/2017/07/29/199021_2Pack_JCPenney_Home_Pillows_7_350_each_pillow/20%Monthly2017-07-29 12:05
http://www.hotnewdeal.com/2017/07/29/199020_Sega_Genesis_Flashback_System_available_for_preord/20%Monthly2017-07-29 11:52
http://www.hotnewdeal.com/2017/07/29/199019_Amazon_Hario_Technica_5Cup_Syphon_Coffee_Maker_/20%Monthly2017-07-29 11:51
http://www.hotnewdeal.com/2017/07/29/199018_Lowes_Kobalt_110Piece_Standard_SAE_and_Metric/20%Monthly2017-07-29 11:26
http://www.hotnewdeal.com/2017/07/29/199017_JBL_Charge_2__Refurbished_4999_or_JBL_Xtreme/20%Monthly2017-07-29 11:25
http://www.hotnewdeal.com/2017/07/29/199016_Plantronics_RIG_Flex_35mm_Gaming_Headset_w__Boom/20%Monthly2017-07-29 11:17
http://www.hotnewdeal.com/2017/07/29/199015_Pennzoil_Ultra_Platinum_10W30_15_AR_Amazon_Prime/20%Monthly2017-07-29 11:17
http://www.hotnewdeal.com/2017/07/29/199014_064_items_Bytecc_6ft_HDMI_Cable_Inland_ProHT_3/20%Monthly2017-07-29 10:55
http://www.hotnewdeal.com/2017/07/29/199013_ASICS_Mens_Team_Performance_Polo_Shirt_Large_56/20%Monthly2017-07-29 10:41
http://www.hotnewdeal.com/2017/07/29/199012_New_Nintendo_2DS_XL_13999_w_free_shipping_w_e/20%Monthly2017-07-29 10:41
http://www.hotnewdeal.com/2017/07/29/199010_VUDU_Mix__Match_Syfy_TV_Season_5_for_25/20%Monthly2017-07-29 10:25
http://www.hotnewdeal.com/2017/07/29/199009_Work_Sharp_Ken_Onion_Edition_Knife__Tool_Sharpene/20%Monthly2017-07-29 10:24
http://www.hotnewdeal.com/2017/07/29/199008_Lowes_40_Off_Peel_And_Stick_Tiles/20%Monthly2017-07-29 10:09
http://www.hotnewdeal.com/2017/07/29/199007_RYZEN_5_1600_192_or_lower/20%Monthly2017-07-29 10:08
http://www.hotnewdeal.com/2017/07/29/199005_Mr_Coffee_Caf_Barista_ECMP1000_20_GC_106_/20%Monthly2017-07-29 09:55
http://www.hotnewdeal.com/2017/07/29/199004_Graphite_Mens_Lacoste_Pique_Polo_3574_AC_FS_aft/20%Monthly2017-07-29 09:40
http://www.hotnewdeal.com/2017/07/29/199003_Dell_E310DW_Wireless_Monochrome_Laser_Printer_40/20%Monthly2017-07-29 08:51
http://www.hotnewdeal.com/2017/07/29/199002_Discover_Card_Holders_New_Social_Security_Number_/20%Monthly2017-07-29 08:38
http://www.hotnewdeal.com/2017/07/29/199001_DOOM__Includes_All_DLC_Online_Game_Code_13AC/20%Monthly2017-07-29 08:30
http://www.hotnewdeal.com/2017/07/29/199000_CHARBROIL_4_BURNER_GAS_GRILL__ALL_BLACK__99_or/20%Monthly2017-07-29 08:18
http://www.hotnewdeal.com/2017/07/29/198999_70_Mile_Range_Flat_Oval_Amplified_HD_Digital_TV_An/20%Monthly2017-07-29 07:41
http://www.hotnewdeal.com/2017/07/29/198998_12Pack_Fujitsu_AAA_800mAh_2100_Cycles_NiMH_PreC/20%Monthly2017-07-29 06:13
http://www.hotnewdeal.com/2017/07/29/198997_FitJoy_Nutrition_Protein_Bar_Chocolate_Chip_Cooki/20%Monthly2017-07-29 04:13
http://www.hotnewdeal.com/2017/07/29/198996_Mens_Stafford_Sport_Coats_Starting_as_Low_as_14/20%Monthly2017-07-29 03:14
http://www.hotnewdeal.com/2017/07/29/198995_Slightly_Discounted_Gift_Cards_at_Jetcom/20%Monthly2017-07-29 02:14
http://www.hotnewdeal.com/2017/07/29/198994_Car_Sun_Shade_Travel_63x31_599/20%Monthly2017-07-29 02:14
http://www.hotnewdeal.com/2017/07/29/198993_Fujifilm_Instax_Mini_7S_Instant_Camera_15_YMMV/20%Monthly2017-07-29 02:07
http://www.hotnewdeal.com/2017/07/29/198992_Mens_Arizona_Tee_Shirts_6_for_17_283_each_whe/20%Monthly2017-07-29 02:07
http://www.hotnewdeal.com/2017/07/29/198990_NEW_LG_G5_H830T_32GB_TMobile__GSM_Unlocked_4G_LT/20%Monthly2017-07-29 00:21
http://www.hotnewdeal.com/2017/07/29/198989_Lorex__Dahua_OEM_6x_4K_security_camera_system_w_/20%Monthly2017-07-29 00:01
http://www.hotnewdeal.com/2017/07/29/198988_SOS_Heavy_Duty_Scrubber_Sponge_3_Per_Pack_Yel/20%Monthly2017-07-29 00:01
http://www.hotnewdeal.com/2017/07/29/198987_Corsair_Gaming_MM300_AntiFray_Cloth_Mouse_Mat_Ex/20%Monthly2017-07-29 00:01
http://www.hotnewdeal.com/2017/07/28/198986_Chicago_to_Los_Angeles_or_Vice_Versa_98_RT_on_Ame/20%Monthly2017-07-28 23:40
http://www.hotnewdeal.com/2017/07/28/198985_St_Johns_Bay_Mens_Legacy_Flat_Front_Stretch_Sho/20%Monthly2017-07-28 23:35
http://www.hotnewdeal.com/2017/07/28/198984_St_Johns_Bay_Mens_Performance_Polo_Shirt_4_for_/20%Monthly2017-07-28 23:35
http://www.hotnewdeal.com/2017/07/28/198983_Office_Depot_730_Ad__01_notebook_paper_5_pur/20%Monthly2017-07-28 23:19
http://www.hotnewdeal.com/2017/07/28/198982_8__ViewMaster_Batman_The_Animated_Series_Virtu/20%Monthly2017-07-28 23:18
http://www.hotnewdeal.com/2017/07/28/198981_NuVision_Solo_10_Draw_Tablet_99__Microsoft/20%Monthly2017-07-28 22:57
http://www.hotnewdeal.com/2017/07/28/198980_Amazon_Star_Trek_Beyond_Bluray__DVD__Ultraviol/20%Monthly2017-07-28 22:57
http://www.hotnewdeal.com/2017/07/28/198979_Hamilton_Mens_Khaki_Field_Automatic_Chronograph_W/20%Monthly2017-07-28 22:42
http://www.hotnewdeal.com/2017/07/28/198978_Asus_RTAC1900P_7599_at_BB_BM/20%Monthly2017-07-28 22:42
http://www.hotnewdeal.com/2017/07/28/198977_Acer_R13_2in1_Chromebook_CB5312TK8Z9_refurbish/20%Monthly2017-07-28 22:00
http://www.hotnewdeal.com/2017/07/28/198975_Reebok_Running_Shoes_Zig_Pulse_30/20%Monthly2017-07-28 21:31
http://www.hotnewdeal.com/2017/07/28/198974_Acer_Aspire_Z3_Black_AllInOne_Desktop_Computer_/20%Monthly2017-07-28 21:22
http://www.hotnewdeal.com/2017/07/28/198972_Microsoft_Office_365_Personal_plus_antivirus_and_/20%Monthly2017-07-28 20:44
http://www.hotnewdeal.com/2017/07/28/198970_Zinus_Memory_Foam_12_Inch_Green_Tea_Mattress_Twin/20%Monthly2017-07-28 20:26
http://www.hotnewdeal.com/2017/07/28/198969_Cat_7_Flat_Ethernet_Cables_25FT_750_50ft_125/20%Monthly2017-07-28 20:26
http://www.hotnewdeal.com/2017/07/28/198968_Papa_Johns_Any_Size_5_topping_pizza_11_code_FP8w/20%Monthly2017-07-28 20:09
http://www.hotnewdeal.com/2017/07/28/198967_Amazon_Prime_Luxury_Sun_Care_Beauty_Sample_Box__/20%Monthly2017-07-28 20:09
http://www.hotnewdeal.com/2017/07/28/198966_Jim_Beam_BTDS76JB_Bradley_Smoker_4Rack_Digital_O/20%Monthly2017-07-28 19:40
http://www.hotnewdeal.com/2017/07/28/198965_15_for_40_to_Spend_on_First_Order_from_Google_Ex/20%Monthly2017-07-28 19:40
http://www.hotnewdeal.com/2017/07/28/198964_27_HP_Pavilion_27C_1080p_Curved_HD_Monitor__powe/20%Monthly2017-07-28 19:17
http://www.hotnewdeal.com/2017/07/28/198963_Dyson_V6_Absolute_198_V8_Absolute_38699_refur/20%Monthly2017-07-28 19:17
http://www.hotnewdeal.com/2017/07/28/198962_Stanley_Classic_Vacuum_Bottle_Hammertone_Green_2/20%Monthly2017-07-28 18:59
http://www.hotnewdeal.com/2017/07/28/198960_Garmin_fenix_3_Multisport_Training_GPS_Watch_with_/20%Monthly2017-07-28 18:25
http://www.hotnewdeal.com/2017/07/28/198958_50_off_Petpals_Trixie_and_Majestic_products_Petsm/20%Monthly2017-07-28 17:49
http://www.hotnewdeal.com/2017/07/28/198957_Alaska_Airlines_2For1_Day_at_MLBs_AZ_Diamondb/20%Monthly2017-07-28 17:49
http://www.hotnewdeal.com/2017/07/28/198956_SONY_Phat_Fat_Playstation_3_40GB60GB_40_at_GameS/20%Monthly2017-07-28 17:34
http://www.hotnewdeal.com/2017/07/28/198955_Learning_Resources_New_Sprouts_Grow_It_9_Pieces_/20%Monthly2017-07-28 17:18
http://www.hotnewdeal.com/2017/07/28/198954_Pep_Boys_has_1Gallon_EvapoRust_The_Original_Supe/20%Monthly2017-07-28 17:18
http://www.hotnewdeal.com/2017/07/28/198953_Cedar_Point_Tickets__31_after_student_discount/20%Monthly2017-07-28 17:17
http://www.hotnewdeal.com/2017/07/28/198951_Amazon_Subscribe__Save_SS_Fillers_that_are_und/20%Monthly2017-07-28 16:58
http://www.hotnewdeal.com/2017/07/28/198950_The_Walking_Dead_The_Telltale_Series_A_New_Fronti/20%Monthly2017-07-28 16:58
http://www.hotnewdeal.com/2017/07/28/198949_Wagner_0503059_Furno_300_Heat_GunTool__Amazon_6/20%Monthly2017-07-28 16:19
http://www.hotnewdeal.com/2017/07/28/198947_Mortal_Kombat_X_PC_Digital_Download_4_via_Gamer/20%Monthly2017-07-28 16:07
http://www.hotnewdeal.com/2017/07/28/198946_10_Playstation_Network_Card_Digital_Delivery_7/20%Monthly2017-07-28 16:00
http://www.hotnewdeal.com/2017/07/28/198945_YMMV__Sell_Baby_Items_for_10_or_more__Get_up_to/20%Monthly2017-07-28 16:00
http://www.hotnewdeal.com/2017/07/28/198944_Corsair_STRAFE_Mechanical_Gaming_Keyboard_REFURB_C/20%Monthly2017-07-28 16:00
http://www.hotnewdeal.com/2017/07/28/198943_Xbox_One_Kinect_Sensor_for_4099__Free_Shipping_/20%Monthly2017-07-28 16:00
http://www.hotnewdeal.com/2017/07/28/198941_Linksys_WeMo_Mini_Smart_Plug__Pack_of_4__8999_/20%Monthly2017-07-28 16:00
http://www.hotnewdeal.com/2017/07/28/198940_Georgia_Pacific_Corporation_Quilted_Northern_4_Dbl/20%Monthly2017-07-28 16:00
http://www.hotnewdeal.com/2017/07/28/198939_Refurbished_Dyson_SV04_V6_Absolute_Cordless_Vacuum/20%Monthly2017-07-28 16:00
http://www.hotnewdeal.com/2017/07/28/198938_Alanis_Morissette__Jagged_Little_Pill_vinyl_180_/20%Monthly2017-07-28 16:00
http://www.hotnewdeal.com/2017/07/28/198937_12Piece_Cooks_Stainless_Steel_Cookware_Set_18_a/20%Monthly2017-07-28 16:00
http://www.hotnewdeal.com/2017/07/28/198936_Staples_Select_Yankee_Candle_American_Home_Large_J/20%Monthly2017-07-28 15:39
http://www.hotnewdeal.com/2017/07/28/198935_Nvidia_Shiled_TV_Pro_Home_Meida_Server_for_270_on/20%Monthly2017-07-28 15:39
http://www.hotnewdeal.com/2017/07/28/198934_OSD_Audio_Sound_Stage_21_Bluetooth_Soundbar_up_to/20%Monthly2017-07-28 15:38
http://www.hotnewdeal.com/2017/07/28/198933_Dyson_V7_Trigger_with_4_attachments_for_160_tax_a/20%Monthly2017-07-28 15:38
http://www.hotnewdeal.com/2017/07/28/198932_BOOMR_Bungee_DSLR_Camera_Strap_for_1599__Free_S/20%Monthly2017-07-28 15:38
http://www.hotnewdeal.com/2017/07/28/198931_LG_Watch_Style_140_from_eBay/20%Monthly2017-07-28 15:38
http://www.hotnewdeal.com/2017/07/28/198930_EOS_80D_EFS_1855mm_f3556_IS_STM_Kit_Refurbis/20%Monthly2017-07-28 15:19
http://www.hotnewdeal.com/2017/07/28/198929_EVGA_GeForce_GTX_1080_Ti_Black_Edition_GAMING_11G/20%Monthly2017-07-28 15:18
http://www.hotnewdeal.com/2017/07/28/198928_Disney_Infinity_Figures_Buy_1_Get_4_Free_Back_/20%Monthly2017-07-28 15:18
http://www.hotnewdeal.com/2017/07/28/198927_Spy_Tec_A119__GPS_Logger_7120_Spy_Tec_A118C2_/20%Monthly2017-07-28 15:18
http://www.hotnewdeal.com/2017/07/28/198926_Walmart_Cooper_CS3_Touring_103T_Tire_23565R16_55/20%Monthly2017-07-28 15:02
http://www.hotnewdeal.com/2017/07/28/198925_Broken_Sword_Trilogy__100_at_bundlestarscom/20%Monthly2017-07-28 15:02
http://www.hotnewdeal.com/2017/07/28/198924_New_Balance_MX99_Cross_Training_Shoes_Standard__/20%Monthly2017-07-28 15:02
http://www.hotnewdeal.com/2017/07/28/198923_AMD_RYZEN_5_1600_6Core_32_GHz_36_GHz_Turbo_So/20%Monthly2017-07-28 14:58
http://www.hotnewdeal.com/2017/07/28/198922_Samsung_Wired_Headset_Earphones_W_Mic_for_Samsung/20%Monthly2017-07-28 14:58
http://www.hotnewdeal.com/2017/07/28/198921_Kohls_The_Big_One_Down_Alternative_Comforters_A/20%Monthly2017-07-28 14:57
http://www.hotnewdeal.com/2017/07/28/198920_Pioneer_AVH4200NEX_7_Motorized_Touchscreen_DVD_R/20%Monthly2017-07-28 14:57
http://www.hotnewdeal.com/2017/07/28/198919_Sony_XBR55X700D_55Inch_4K_Ultra_HD_Smart_LED_TV_/20%Monthly2017-07-28 14:47
http://www.hotnewdeal.com/2017/07/28/198918_Nintendo_Switch__JoyCon_LRNeon_RedNeon_Blue/20%Monthly2017-07-28 14:42
http://www.hotnewdeal.com/2017/07/28/198917_Xiaomi_Mi_Band_2_Heart_Rate_Monitor_Smart_Wristban/20%Monthly2017-07-28 14:25
http://www.hotnewdeal.com/2017/07/28/198916_Panasonic_KXTGE475S5_Handsets_8995_Amazon/20%Monthly2017-07-28 14:25
http://www.hotnewdeal.com/2017/07/28/198915_Best_Choice_Products_7Piece_Wicker_Sectional_Sofa/20%Monthly2017-07-28 14:16
http://www.hotnewdeal.com/2017/07/28/198914_Smoker_Clearance_at_Walmart__Megathread__YMMV/20%Monthly2017-07-28 14:09
http://www.hotnewdeal.com/2017/07/28/198913_Rokinon_Lens_Sale_8mm_200_to_250_12mm_f20_2/20%Monthly2017-07-28 14:09
http://www.hotnewdeal.com/2017/07/28/198912_DJI_Phantom_3_Standard_Quadcopter_RFBw20_GC_/20%Monthly2017-07-28 14:09
http://www.hotnewdeal.com/2017/07/28/198911_Apple_TV_4th_Generation_32_GB__Must_Chat_or_Call_/20%Monthly2017-07-28 13:55
http://www.hotnewdeal.com/2017/07/28/198910_AstroAI_250_PSI_Digital_Tire_Inflator_Compressor_A/20%Monthly2017-07-28 13:55
http://www.hotnewdeal.com/2017/07/28/198909_GIGABYTE_GeForce_GTX_1080_DirectX_12_GVN1080WF3OC/20%Monthly2017-07-28 13:55
http://www.hotnewdeal.com/2017/07/28/198908_Canon_Summer_Black_Friday_Sale_good_deals_on_refu/20%Monthly2017-07-28 13:55
http://www.hotnewdeal.com/2017/07/28/198907_Acer_GX281UR11_Desktop_Ryzen_5_1400_8GB_DDR4_/20%Monthly2017-07-28 13:54
http://www.hotnewdeal.com/2017/07/28/198906_Minecraft_PC_23/20%Monthly2017-07-28 13:54
http://www.hotnewdeal.com/2017/07/28/198905_Samsung_Galaxy_Tab_E_8_16GB_w_WiFi__4G_ATT_/20%Monthly2017-07-28 13:54
http://www.hotnewdeal.com/2017/07/28/198904_Google_WiFi_System_3Pack_240AC/20%Monthly2017-07-28 13:47
http://www.hotnewdeal.com/2017/07/28/198903_Nordstrom_Rack_Cole_Haan_Lacey_Leather_Hobo_7875/20%Monthly2017-07-28 13:32
http://www.hotnewdeal.com/2017/07/28/198902_Samsung_Gear_VR_2016_Edition_Virtual_Reality_Smart/20%Monthly2017-07-28 13:17
http://www.hotnewdeal.com/2017/07/28/198900_64093__Acer_Predator_XB271HU_Bmiprz_27inch_I/20%Monthly2017-07-28 13:16
http://www.hotnewdeal.com/2017/07/28/198899_Monoprice_Deluxe_Dual_Charging_Dock__Media_Remote/20%Monthly2017-07-28 13:02
http://www.hotnewdeal.com/2017/07/28/198898_Cooks_Toaster_Oven_Popcorn_Maker_12Cup_Programm/20%Monthly2017-07-28 13:01
http://www.hotnewdeal.com/2017/07/28/198897_American_Eagle_25_off_NonClearance_Purchase_whe/20%Monthly2017-07-28 13:01
http://www.hotnewdeal.com/2017/07/28/198896_Studio_Ghibli_Films_Bluray__DVD_Castle_In_The/20%Monthly2017-07-28 13:01
http://www.hotnewdeal.com/2017/07/28/198895_DEWALT_FLEXVOLT_60Volt_LithiumIon_Cordless_Brush/20%Monthly2017-07-28 13:01
http://www.hotnewdeal.com/2017/07/28/198894_Space_Jam_20th_Anniversary_Steelbook_Bluray__D/20%Monthly2017-07-28 12:55
http://www.hotnewdeal.com/2017/07/28/198893_Select_Walmart_StoresBlack__Decker_LHT2220_20V_M/20%Monthly2017-07-28 12:55
http://www.hotnewdeal.com/2017/07/28/198892_Apple_TV_4th_Gen__32GB_with_Free_Shipping__99/20%Monthly2017-07-28 12:49
http://www.hotnewdeal.com/2017/07/28/198890_Toenail_clippers_surgical_stainless_steel_5inches_/20%Monthly2017-07-28 12:49
http://www.hotnewdeal.com/2017/07/28/198889_Hologram_IoT_Sim_Card_w_1_MB_Monthly_Data__0_Fr/20%Monthly2017-07-28 12:36
http://www.hotnewdeal.com/2017/07/28/198888_Apple_Watch_Band__Milanese_Loop_Stainless_Steel_B/20%Monthly2017-07-28 12:36
http://www.hotnewdeal.com/2017/07/28/198887_eBay_College_10_Coupon_On_Select_Tech_Fashion__/20%Monthly2017-07-28 12:36
http://www.hotnewdeal.com/2017/07/28/198886_YMMV_Masterbuilt_30_inch_Digital_Electric_Smoker_/20%Monthly2017-07-28 12:15
http://www.hotnewdeal.com/2017/07/28/198885_Office_Depot_OfficeMax_Rewards_Office_Depot_Brand/20%Monthly2017-07-28 12:14
http://www.hotnewdeal.com/2017/07/28/198883_Cat5e_100FT_Networking_RJ45_Ethernet_Patch_Cable_X/20%Monthly2017-07-28 12:07
http://www.hotnewdeal.com/2017/07/28/198882_Philips_SHP9500S_OverEar_Headphones_50/20%Monthly2017-07-28 12:07
http://www.hotnewdeal.com/2017/07/28/198881_Corsair_Vengeance_K65_Compact_Mechanical_Gaming_Ke/20%Monthly2017-07-28 12:07
http://www.hotnewdeal.com/2017/07/28/198880_Asus_C301SA_133_Chromebook_w_4GB__32GB_SSD_Re/20%Monthly2017-07-28 11:50
http://www.hotnewdeal.com/2017/07/28/198879_Lifetime_Tamarack_120_Angler_Fishing_Kayak__Olive/20%Monthly2017-07-28 11:34
http://www.hotnewdeal.com/2017/07/28/198878_Tiny_Love_Super_Mat_Orange__Blue_1789_Walmar/20%Monthly2017-07-28 11:34
http://www.hotnewdeal.com/2017/07/28/198877_Joes_new_balance_50off/20%Monthly2017-07-28 11:24
http://www.hotnewdeal.com/2017/07/28/198876_Bosch_BareTool_JSH180B_18Volt_LithiumIoBosch_Ba/20%Monthly2017-07-28 11:17
http://www.hotnewdeal.com/2017/07/28/198875_Insignia__50_Cu_Ft_Chest_Freezer__White_115/20%Monthly2017-07-28 10:56
http://www.hotnewdeal.com/2017/07/28/198874_24_Bars_OPTIBAR_WHITE_CHOCOLATE_RASPBERRY_1599/20%Monthly2017-07-28 10:56
http://www.hotnewdeal.com/2017/07/28/198873_Pack_of_8__Glade_Wax_Melts_Air_Freshener_Refill_/20%Monthly2017-07-28 10:56
http://www.hotnewdeal.com/2017/07/28/198872_3Pack_Gillette_Venus_Tropical_Disposable_Womens_/20%Monthly2017-07-28 10:08
http://www.hotnewdeal.com/2017/07/28/198871_ASUS_External_Slim_CD__DVD_ReWriter_USB_20_Whit/20%Monthly2017-07-28 09:58
http://www.hotnewdeal.com/2017/07/28/198870_Leophile_eel_ip67_Bluetooth_headset__20_with_cod/20%Monthly2017-07-28 09:52
http://www.hotnewdeal.com/2017/07/28/198869_20_off_Reebokcom_by_going_through_this_link_ever/20%Monthly2017-07-28 09:39
http://www.hotnewdeal.com/2017/07/28/198868_Final_Fantasy_Tactics_The_War_of_the_Lions_Andro/20%Monthly2017-07-28 09:25
http://www.hotnewdeal.com/2017/07/28/198867_Anthropologie_40_Off_Sale_Items_Urbania_Travel_M/20%Monthly2017-07-28 09:25
http://www.hotnewdeal.com/2017/07/28/198866_Clarks_Black_Friday_in_July_Additional_30_Off_Sa/20%Monthly2017-07-28 09:25
http://www.hotnewdeal.com/2017/07/28/198865_Walmart_Lifetime_6_Youth_Wave_Kayak_w_Paddle_G/20%Monthly2017-07-28 08:07
http://www.hotnewdeal.com/2017/07/28/198864_Umbro_Youth_Arturo_Soccer_Shin_Guards__398__Ta/20%Monthly2017-07-28 07:48
http://www.hotnewdeal.com/2017/07/28/198863_Reebok_Zig_Pulse_Shoes_2_for_53_or_3_for_75/20%Monthly2017-07-28 07:19
http://www.hotnewdeal.com/2017/07/28/198862_Home_depot_Delta_Corrente_2piece_128_GPF_Elongat/20%Monthly2017-07-28 07:18
http://www.hotnewdeal.com/2017/07/28/198861_YMMV_Blackstone_17_Table_Top_Griddle_for_49_YMMV/20%Monthly2017-07-28 07:18
http://www.hotnewdeal.com/2017/07/28/198860_Honeywell_Humidifier_Blk_1772_AC_amazoncom/20%Monthly2017-07-28 07:18
http://www.hotnewdeal.com/2017/07/28/198858_Channellock_426_78Inch_Jaw_Capacity_612Inch_T/20%Monthly2017-07-28 06:14
http://www.hotnewdeal.com/2017/07/28/198857_Gears_of_War_4_Bundle_Xbox_One_Wireless_Controlle/20%Monthly2017-07-28 06:14
http://www.hotnewdeal.com/2017/07/28/198856_Office_Depot_OfficeMax_Rewards_100_back_on_selec/20%Monthly2017-07-28 06:14
http://www.hotnewdeal.com/2017/07/28/198855_Costco_coupon_book_August_2017_Aug_327__previe/20%Monthly2017-07-28 05:14
http://www.hotnewdeal.com/2017/07/28/198854_Hansens_Natural_Cane_Soda_Variety_Pack_12_Ounce_/20%Monthly2017-07-28 05:14
http://www.hotnewdeal.com/2017/07/28/198853_TMobile_Tuesday_8117_Week_61__25gal_Shel/20%Monthly2017-07-28 03:36
http://www.hotnewdeal.com/2017/07/28/198852_Buy_a_50_Nike_Gift_Card_and_Get_a_10_Bonus/20%Monthly2017-07-28 03:14
http://www.hotnewdeal.com/2017/07/28/198851_The_Big_One_Beach_Towels_or_Kids_Character_Towels/20%Monthly2017-07-28 03:14
http://www.hotnewdeal.com/2017/07/28/198850_eLuxurySupply_Hypoallergenic_Mattress_Pad_with_Fit/20%Monthly2017-07-28 01:35
http://www.hotnewdeal.com/2017/07/28/198849_Step2_Play_and_Store_Sandbox_29/20%Monthly2017-07-28 01:35
http://www.hotnewdeal.com/2017/07/28/198848_LG_27MP59GP_27_IPS_FreeSync_Monitor_1ms_Respons/20%Monthly2017-07-28 01:28
http://www.hotnewdeal.com/2017/07/28/198847_Snyders_of_Hanover_Mini_Pretzels_Canister_40_Oun/20%Monthly2017-07-28 00:06
http://www.hotnewdeal.com/2017/07/28/198846_Quest_2_Person_Dome_Tent__15/20%Monthly2017-07-28 00:06
http://www.hotnewdeal.com/2017/07/28/198845_BenQ_Refurb_Monitors_24_GL2460HM_8250_GW2760H/20%Monthly2017-07-28 00:06
http://www.hotnewdeal.com/2017/07/27/198844_Kelty_Noahs_12ft_Shelter_30/20%Monthly2017-07-27 23:47
http://www.hotnewdeal.com/2017/07/27/198843_Walmart_clearance_Blackstone_36_Griddle_Cooking_/20%Monthly2017-07-27 23:47
http://www.hotnewdeal.com/2017/07/27/198842_Bella__Hot_Air_Fryer__Black__3999/20%Monthly2017-07-27 23:21
http://www.hotnewdeal.com/2017/07/27/198841_EVGA_CLC_120_Liquid__Water_CPU_Cooler_RGB_LED_Co/20%Monthly2017-07-27 23:00
http://www.hotnewdeal.com/2017/07/27/198840_Target_Crayola_Colored_Pencils_12_ct_for_097_pi/20%Monthly2017-07-27 22:59
http://www.hotnewdeal.com/2017/07/27/198839_100_Southwest_GC_for_90_10_off_when_you_add_2/20%Monthly2017-07-27 22:59
http://www.hotnewdeal.com/2017/07/27/198838_realMyst_for_Android__099__Google_Play_regula/20%Monthly2017-07-27 22:35
http://www.hotnewdeal.com/2017/07/27/198837_Vudu_Weekend_Sale_HDX_Movies_Jurassic_World_Jac/20%Monthly2017-07-27 22:35
http://www.hotnewdeal.com/2017/07/27/198836_Oakley_Scuderia_Ferrari_Tincan_Carbon_Sunglasses_/20%Monthly2017-07-27 22:34
http://www.hotnewdeal.com/2017/07/27/198835_Stride_Rite_2_Pair_Leather_Cooper_Shoes_3360_1/20%Monthly2017-07-27 22:34
http://www.hotnewdeal.com/2017/07/27/198834_MSI_B350M_Amd_Ryzen_DDR4_AM4_Gaming_Motherboard__/20%Monthly2017-07-27 22:34
http://www.hotnewdeal.com/2017/07/27/198833_ESET_Smart_Security_2016__3_PCs__HMA_VPN_YMMV_2/20%Monthly2017-07-27 22:09
http://www.hotnewdeal.com/2017/07/27/198832_Selectec_4_Ports_USB_Rapid_Car_Charger_Adapter_wi/20%Monthly2017-07-27 21:53
http://www.hotnewdeal.com/2017/07/27/198831_Nintendo_Switch_Binding_of_Isaac_Preowned_20_Walm/20%Monthly2017-07-27 21:53
http://www.hotnewdeal.com/2017/07/27/198830_29_Philips_298X4QJAB_UltraWide_2560x1080_Full_HD_/20%Monthly2017-07-27 21:53
http://www.hotnewdeal.com/2017/07/27/198829_Prime_Members_36Ct_Swiffer_Sweeper_Wet_Mopping_P/20%Monthly2017-07-27 21:53
http://www.hotnewdeal.com/2017/07/27/198827_Mate_9_460_at_Amazon/20%Monthly2017-07-27 21:41
http://www.hotnewdeal.com/2017/07/27/198826_Pit_Boss_22_Kamado_Ceramic_Grill_349_at_Walmart_/20%Monthly2017-07-27 21:31
http://www.hotnewdeal.com/2017/07/27/198825_CharGriller_Akorn_Jr_Kamado_Kooker_9145_at_Ama/20%Monthly2017-07-27 21:31
http://www.hotnewdeal.com/2017/07/27/198824_Nike_VRS_COVERT_X_Irons__Steel_19998/20%Monthly2017-07-27 21:31
http://www.hotnewdeal.com/2017/07/27/198823_YMMV_Masterbuilt_Bluetooth_30_Smart_Digital_Elect/20%Monthly2017-07-27 21:31
http://www.hotnewdeal.com/2017/07/27/198822_Oakley_Sunglasses_Multiple_Styles_from_6999_fs_/20%Monthly2017-07-27 21:31
http://www.hotnewdeal.com/2017/07/27/198821_Walmart_Refurbished_Sanyo_40_Class_FHD_1080P_/20%Monthly2017-07-27 21:11
http://www.hotnewdeal.com/2017/07/27/198820_Google_Pixel_or_Pixel_XL_32GB_Unlocked_Smartphone/20%Monthly2017-07-27 20:58
http://www.hotnewdeal.com/2017/07/27/198819_YMMV_97_32gb_iPad_Pro_299_clearance_at_Select_W/20%Monthly2017-07-27 20:54
http://www.hotnewdeal.com/2017/07/27/198818_Prime_Members_Niagara_Conservation_N2920_Earth_Sp/20%Monthly2017-07-27 20:54
http://www.hotnewdeal.com/2017/07/27/198817_55_Proscan_PLDED5515UHD_4K_Ultra_HD_LED_HDTV_27/20%Monthly2017-07-27 20:53
http://www.hotnewdeal.com/2017/07/27/198816_JC_Penny_black_friday_in_July_10_ff_25_and_30_o/20%Monthly2017-07-27 20:53
http://www.hotnewdeal.com/2017/07/27/198815_Cigarcom_5_for_5_FS_NT_LIVE_AGAIN_/20%Monthly2017-07-27 20:20
http://www.hotnewdeal.com/2017/07/27/198814_HP_15AY197_Laptop_Intel_Core_i57200U_156_108/20%Monthly2017-07-27 20:19
http://www.hotnewdeal.com/2017/07/27/198813_RAYMOND_WEIL_Toccata_Black_Leather_Strap_Mens_Wat/20%Monthly2017-07-27 20:19
http://www.hotnewdeal.com/2017/07/27/198812_Amazon_Instant_Video_The_Founder_Digital_HD_Movie/20%Monthly2017-07-27 19:50
http://www.hotnewdeal.com/2017/07/27/198811_Epic_Hunt__Harvest_100_Grass_Fed_Beef_Jerky_H/20%Monthly2017-07-27 19:40
http://www.hotnewdeal.com/2017/07/27/198810_Goldblatt_drywall_tools/20%Monthly2017-07-27 19:40
http://www.hotnewdeal.com/2017/07/27/198809_55_off_the_Onkyo_TXRZ710_72_Channel_Home_Theate/20%Monthly2017-07-27 19:40
http://www.hotnewdeal.com/2017/07/27/198808_Denon_72_Channel_Full_4K_Ultra_HD_AV_Receiver_Wit/20%Monthly2017-07-27 19:07
http://www.hotnewdeal.com/2017/07/27/198807_Dying_Light__Harran_Military_Rifle_Free_DLC__S/20%Monthly2017-07-27 19:06
http://www.hotnewdeal.com/2017/07/27/198806_Amazon_Citizen_EcoDrive_Womens_EW190158A_Silho/20%Monthly2017-07-27 19:06
http://www.hotnewdeal.com/2017/07/27/198805_AMEX_Offer__Spend_100_get_1000_Membership_Rew/20%Monthly2017-07-27 18:52
http://www.hotnewdeal.com/2017/07/27/198804_VXi_BlueParrott_Reveal_Mobile_Bluetooth_Headset_B/20%Monthly2017-07-27 18:11
http://www.hotnewdeal.com/2017/07/27/198803_Dicks_Flash_Sales__until_10pm_today/20%Monthly2017-07-27 18:06
http://www.hotnewdeal.com/2017/07/27/198802_Granite_Gear_Nimbus_Trace_Access_12999/20%Monthly2017-07-27 18:06
http://www.hotnewdeal.com/2017/07/27/198801_Xbox_One_Games__From_799__Microsoft_Store_Free/20%Monthly2017-07-27 18:06
http://www.hotnewdeal.com/2017/07/27/198799_Maratac_Mid_Sized_Quartz_Pilot_Watch_Sale__149_/20%Monthly2017-07-27 17:48
http://www.hotnewdeal.com/2017/07/27/198798_Lunch_Bag_for_Women_with_Outside_Pocket_350__Am/20%Monthly2017-07-27 17:48
http://www.hotnewdeal.com/2017/07/27/198797_AnchormanAnchorman_2_BluRay_7_Amazon_FSPrime/20%Monthly2017-07-27 17:48
http://www.hotnewdeal.com/2017/07/27/198796_Nike_Tracer_Training_Soccer_Ball_sizes_35_8_U/20%Monthly2017-07-27 17:48
http://www.hotnewdeal.com/2017/07/27/198794_Eluktronics_W650KK1_Series_156Inch_laptop_with_I/20%Monthly2017-07-27 17:36
http://www.hotnewdeal.com/2017/07/27/198793_66Ft_TV_LED_USB_Light_Strip_60_LEDs_Changing_Colo/20%Monthly2017-07-27 17:35
http://www.hotnewdeal.com/2017/07/27/198792_Nordstrom_Cedar_Shoe_Trees_1290_reg_1995__f/20%Monthly2017-07-27 17:16
http://www.hotnewdeal.com/2017/07/27/198791_Samsung_Gear_S2_Verizon_Smartwatch_w_Rubber_Ban/20%Monthly2017-07-27 17:06
http://www.hotnewdeal.com/2017/07/27/198790_Epiphone_WILDKAT_SemiHollowbody_Electric_Guitar_w/20%Monthly2017-07-27 17:01
http://www.hotnewdeal.com/2017/07/27/198789_10_Nintendo_eShop_Credit_for_7_PC_Gaming_Supply/20%Monthly2017-07-27 17:01
http://www.hotnewdeal.com/2017/07/27/198788_Dirt_Rally_for_PC__1529_after_coupon_code/20%Monthly2017-07-27 16:41
http://www.hotnewdeal.com/2017/07/27/198787_Obihai_Obi200_VOIP_Phone_Adapter__3998_AC/20%Monthly2017-07-27 16:41
http://www.hotnewdeal.com/2017/07/27/198786_CharGriller_Akorn_Kamado_139_Original_Price_24/20%Monthly2017-07-27 16:40
http://www.hotnewdeal.com/2017/07/27/198785_Free_MAC_Lipstick_YMMV/20%Monthly2017-07-27 16:40
http://www.hotnewdeal.com/2017/07/27/198784_WD_Blue_2TB_Desktop_Hard_Disk_Drive__5400_RPM_SAT/20%Monthly2017-07-27 16:40
http://www.hotnewdeal.com/2017/07/27/198783_4_Count_x_Pack_of_12_48_Total_Musselmans_Organi/20%Monthly2017-07-27 16:24
http://www.hotnewdeal.com/2017/07/27/198782_Acer_Aspire_ATC780AUR12_Desktop_i57400_8GB_DD/20%Monthly2017-07-27 16:24
http://www.hotnewdeal.com/2017/07/27/198781_Acer_116_Aspire_HD_Chromebook_C710_4GB_RAM_320/20%Monthly2017-07-27 16:24
http://www.hotnewdeal.com/2017/07/27/198780_Intel_NUC_Next_Unit_of_Computing_BOXNUC7I5BNK_Ba/20%Monthly2017-07-27 16:14
http://www.hotnewdeal.com/2017/07/27/198779_Papa_Johns_Check_Your_Email_Free_Bonus_Points_to/20%Monthly2017-07-27 16:07
http://www.hotnewdeal.com/2017/07/27/198778_Surface_Dock_130_FS__Staples_Other_Surface_Acce/20%Monthly2017-07-27 15:49
http://www.hotnewdeal.com/2017/07/27/198777_O_The_Oprah_Magazine__15_for_4_yrs/20%Monthly2017-07-27 15:37
http://www.hotnewdeal.com/2017/07/27/198776_Staub_7Qt_Cocotte_Dark_Blue_Round_18070_Staub_1/20%Monthly2017-07-27 15:37
http://www.hotnewdeal.com/2017/07/27/198775_2017_Dodge_Charger_RT_Scat_Pack_sale_10k_off_MS/20%Monthly2017-07-27 15:30
http://www.hotnewdeal.com/2017/07/27/198774_Reebok_Zig_Evolution_Mens_Shoe_2999_Reebok_Pri/20%Monthly2017-07-27 15:24
http://www.hotnewdeal.com/2017/07/27/198773_SoundLink_Revolve_Bluetooth_speaker/20%Monthly2017-07-27 15:24
http://www.hotnewdeal.com/2017/07/27/198772_Sassy_Newborn_5_Piece_Gift_Set_2_Rattles_Teether/20%Monthly2017-07-27 15:24
http://www.hotnewdeal.com/2017/07/27/198771_Bose_QuietComfort_35_Wireless_Headphones_Black_or/20%Monthly2017-07-27 15:23
http://www.hotnewdeal.com/2017/07/27/198770_Just_Cause_139_Just_Cause_2_299_PC_Digital_D/20%Monthly2017-07-27 15:17
http://www.hotnewdeal.com/2017/07/27/198769_ASUS_K550_Laptop_i76700HQ_8GB_256GB_SSD_GTX_95/20%Monthly2017-07-27 14:59
http://www.hotnewdeal.com/2017/07/27/198768_Costco_PreLUX_UltraCool_Dormeo_Memory_Foam_Pillow/20%Monthly2017-07-27 14:59
http://www.hotnewdeal.com/2017/07/27/198767_Vinyl_deals__Drake_Take_Care__Foster_the_Peopl/20%Monthly2017-07-27 14:58
http://www.hotnewdeal.com/2017/07/27/198766_Look_Look_newborn_board_book_259__Amazon/20%Monthly2017-07-27 14:58
http://www.hotnewdeal.com/2017/07/27/198765_DOWAN_10oz_Porcelain_DessertRice_Bowls__4_Packs/20%Monthly2017-07-27 14:46
http://www.hotnewdeal.com/2017/07/27/198763_Prime_Members_12Pack_of_12oz_Starbucks_Refresher/20%Monthly2017-07-27 14:42
http://www.hotnewdeal.com/2017/07/27/198762_Dell_Alienware_133_Laptop_i77700HQ_GTX_1060_/20%Monthly2017-07-27 14:42
http://www.hotnewdeal.com/2017/07/27/198761_Beats_By_Dre_BeatsX_Sport_InEar_Earphones_with_Mi/20%Monthly2017-07-27 14:42
http://www.hotnewdeal.com/2017/07/27/198760_Ninja_Coffee_Bar_SingleServe_System__10_Kohls_/20%Monthly2017-07-27 14:42
http://www.hotnewdeal.com/2017/07/27/198759_Instant_Pot_7in1_6qt_Programmable_Pressure_Coo/20%Monthly2017-07-27 14:41
http://www.hotnewdeal.com/2017/07/27/198758_Ibanez_IBB101_Gig_Bag_for_Electric_Bass_Guitar_15/20%Monthly2017-07-27 14:30
http://www.hotnewdeal.com/2017/07/27/198757_Wheres_Waldo_The_Wonder_Book__183_at_Amazon_w/20%Monthly2017-07-27 14:26
http://www.hotnewdeal.com/2017/07/27/198756_Verizon_Smart_Rewards_Members_5_Chevron_Gift_Car/20%Monthly2017-07-27 14:26
http://www.hotnewdeal.com/2017/07/27/198755_Octopus_Style_Flexible_Tripod_079__Free_Shippin/20%Monthly2017-07-27 14:26
http://www.hotnewdeal.com/2017/07/27/198754_Stargate_Atlantis_The_Complete_Series_Bluray_/20%Monthly2017-07-27 14:25
http://www.hotnewdeal.com/2017/07/27/198753_New_Yamaha_RX_RXV377_51_Channel_180_Watt_Receive/20%Monthly2017-07-27 14:25
http://www.hotnewdeal.com/2017/07/27/198752_Samsung_Gear_360_Real_360_High_Resolution_VR_Came/20%Monthly2017-07-27 14:25
http://www.hotnewdeal.com/2017/07/27/198751_Asus_VX248H_24Inch_FHD_1920x1080_Gaming_Monitor/20%Monthly2017-07-27 14:25
http://www.hotnewdeal.com/2017/07/27/198750_NVIDIA_SHIELD_TV_Pro_Home_Media_Server_25999__F/20%Monthly2017-07-27 14:11
http://www.hotnewdeal.com/2017/07/27/198749_Hunting_Archery_Crossbow_sale_at_Dicks_Sporting/20%Monthly2017-07-27 14:10
http://www.hotnewdeal.com/2017/07/27/198748_CenturyLink_120Mbps_Internet_for_65month_YMMV/20%Monthly2017-07-27 14:06
http://www.hotnewdeal.com/2017/07/27/198747_BenQ_Refurb_Projectors_HT2050_525_HT2150ST_729/20%Monthly2017-07-27 14:06
http://www.hotnewdeal.com/2017/07/27/198746_Costco_DArtagnan_Extreme_Wagyu_Burger_Lovers_Bund/20%Monthly2017-07-27 13:53
http://www.hotnewdeal.com/2017/07/27/198745_USMobile_Unlimited_WiFi_Plan_InFlight_Hotel_an/20%Monthly2017-07-27 13:53
http://www.hotnewdeal.com/2017/07/27/198744_Utilitech_9W_3000K_Warm_White_A19_LED_Light_Bulb_/20%Monthly2017-07-27 13:48
http://www.hotnewdeal.com/2017/07/27/198743_Weber_E210_Spirit_Grill_LP_199_YMMV/20%Monthly2017-07-27 13:48
http://www.hotnewdeal.com/2017/07/27/198742_Prime_Members_Natures_Bakery_Whole_Wheat_Fig_Bar/20%Monthly2017-07-27 13:48
http://www.hotnewdeal.com/2017/07/27/198741_The_Shallows_4K_Bluray_1442_at_Amazon/20%Monthly2017-07-27 13:48
http://www.hotnewdeal.com/2017/07/27/198740_Gibson_Home_Sensations_II_16Piece_Flatware_Set_wi/20%Monthly2017-07-27 13:48
http://www.hotnewdeal.com/2017/07/27/198739_Currently_OOS_12_Switch_Preowned_Nintendo_Swi/20%Monthly2017-07-27 13:35
http://www.hotnewdeal.com/2017/07/27/198738_Dell_U3818DW_UltraSharp_38Inch_Curved_UltraWide_M/20%Monthly2017-07-27 13:35
http://www.hotnewdeal.com/2017/07/27/198737_Firehouse_Subs_Free_Medium_Sub_w_24Pack_of_Bott/20%Monthly2017-07-27 13:15
http://www.hotnewdeal.com/2017/07/27/198736_Canon_PIXMA_TS6020_Compact_Wireless_AllinOne_Aut/20%Monthly2017-07-27 13:06
http://www.hotnewdeal.com/2017/07/27/198735_Senco_RoofPro_455XP_Roofing_Nailer_99/20%Monthly2017-07-27 12:59
http://www.hotnewdeal.com/2017/07/27/198734_Costco__Stella_Rocker_Recliner_and_Ottoman__119/20%Monthly2017-07-27 12:59
http://www.hotnewdeal.com/2017/07/27/198733_Philips_Pasta_Maker__Avance_Collection_19999_/20%Monthly2017-07-27 12:59
http://www.hotnewdeal.com/2017/07/27/198732_Rosewill_CAPSTONE_Series_750W_80_Plus_Gold_Certifi/20%Monthly2017-07-27 12:59
http://www.hotnewdeal.com/2017/07/27/198731_Extra_50_Off_real_leather_Minimalst_Wallet_Credit/20%Monthly2017-07-27 12:53
http://www.hotnewdeal.com/2017/07/27/198730_20_Amazon_SS_Filler_Items_Under_2/20%Monthly2017-07-27 12:43
http://www.hotnewdeal.com/2017/07/27/198729_Costco__Braun_Series_7_Shaver_with_Extra_Shave_He/20%Monthly2017-07-27 12:43
http://www.hotnewdeal.com/2017/07/27/198728_Prime_Members_Swingline_Desk_Stapler_Commercial/20%Monthly2017-07-27 12:43
http://www.hotnewdeal.com/2017/07/27/198727_PLUSINNO_Spin_Spinning_Rod_and_Reel_Combos_Carbon_/20%Monthly2017-07-27 12:42
http://www.hotnewdeal.com/2017/07/27/198726_Vangogo_S1__S3_snorkel_mask_for_2999/20%Monthly2017-07-27 12:37
http://www.hotnewdeal.com/2017/07/27/198725_CVS_30_Off_Your_Order__Free_Shipping_No_Min/20%Monthly2017-07-27 12:37
http://www.hotnewdeal.com/2017/07/27/198724_MuscleTech_NITROTECH_100_Whey_Gold_55_lbs_for_/20%Monthly2017-07-27 12:37
http://www.hotnewdeal.com/2017/07/27/198723_38mm__42mm_Leather_Replacement_Band_for_Apple_Wat/20%Monthly2017-07-27 12:37
http://www.hotnewdeal.com/2017/07/27/198722_Browning_Wasatch_MeshLite_Long_Sleeve_Shirt_167/20%Monthly2017-07-27 12:22
http://www.hotnewdeal.com/2017/07/27/198721_LG_65_Class_645_Actual_Diagonal_Size_SJ8500_S/20%Monthly2017-07-27 12:15
http://www.hotnewdeal.com/2017/07/27/198720_Nordstrom_Rack_Extra_25_Off_Clearance_Womens_fr/20%Monthly2017-07-27 12:15
http://www.hotnewdeal.com/2017/07/27/198719_GreenWorks_Chainsaw_w4AH_battery_14038_at_Amaz/20%Monthly2017-07-27 12:15
http://www.hotnewdeal.com/2017/07/27/198718_Pictek_Mechanical_Gaming_Keyboard_2699_AC__FS_/20%Monthly2017-07-27 12:08
http://www.hotnewdeal.com/2017/07/27/198717_LED_Solar_Powered_String_Lights_2_Modes_Steady_on/20%Monthly2017-07-27 12:04
http://www.hotnewdeal.com/2017/07/27/198715_ASUS_ROG_STRIX_B350F_GAMING_AM4_AMD_B350_MOBO_for/20%Monthly2017-07-27 11:33
http://www.hotnewdeal.com/2017/07/27/198714_Lowes_11_back_via_Lowes_gift_card_at_select_sto/20%Monthly2017-07-27 11:13
http://www.hotnewdeal.com/2017/07/27/198713_Piscifun_Rapid_Right_Left_Handed_White_Baitcaste/20%Monthly2017-07-27 10:53
http://www.hotnewdeal.com/2017/07/27/198712_Weber_Genesis_II_E310_LP_349__Walmart_YMMV/20%Monthly2017-07-27 10:47
http://www.hotnewdeal.com/2017/07/27/198711_Fitness_Reality_810XLT_Super_Max_Power_Cage_with_8/20%Monthly2017-07-27 10:47
http://www.hotnewdeal.com/2017/07/27/198710_TPLink_AC3150_Wireless_WiFi_Router_Archer_C3150_/20%Monthly2017-07-27 10:47
http://www.hotnewdeal.com/2017/07/27/198709_Disney_Stuffed_Tsum_Tsum_Plush_Cars_Nemo_Star_W/20%Monthly2017-07-27 10:47
http://www.hotnewdeal.com/2017/07/27/198708_Sceptre_65_4K_2160P_LED_TV_w_Roku_4K_UHD_Media/20%Monthly2017-07-27 09:45
http://www.hotnewdeal.com/2017/07/27/198707_Top_Greener_48A_USB_Charger_Wall_Outlet_1588/20%Monthly2017-07-27 09:44
http://www.hotnewdeal.com/2017/07/27/198706_Lego_Friends_sets_on_Amazon__best_price_starting_/20%Monthly2017-07-27 09:38
http://www.hotnewdeal.com/2017/07/27/198705_KINGS_by_Honeywell_Mens_Steel_Toe_Leather_Work_o/20%Monthly2017-07-27 09:26
http://www.hotnewdeal.com/2017/07/27/198703_Jaws_Universal_100th_Anniversary_Collectors_Serie/20%Monthly2017-07-27 09:13
http://www.hotnewdeal.com/2017/07/27/198702_Arlo_Q_1080p_HD_Security_Camera_with_Audio_VMC304/20%Monthly2017-07-27 09:01
http://www.hotnewdeal.com/2017/07/27/198701_Greenworks_GMax_40V_20_Twin_Force_Dual_Blade_Cor/20%Monthly2017-07-27 08:52
http://www.hotnewdeal.com/2017/07/27/198700_Quest_bars_1874box/20%Monthly2017-07-27 08:24
http://www.hotnewdeal.com/2017/07/27/198699_Honeywell_WiFi_Smart_Thermostat_Lowes_from_107_/20%Monthly2017-07-27 08:11
http://www.hotnewdeal.com/2017/07/27/198698_Sabrent_4Port_USB_30_Hub_with_Individual_Power_S/20%Monthly2017-07-27 08:06
http://www.hotnewdeal.com/2017/07/27/198697_Acronis_True_Image_2017__1_Device_DVD_Case_Free/20%Monthly2017-07-27 07:48
http://www.hotnewdeal.com/2017/07/27/198696_15999_FS_Hitachi_certified_refurbished_C12FD/20%Monthly2017-07-27 07:36
http://www.hotnewdeal.com/2017/07/27/198695_310_after_rebate_and_gift_card_Pioneer_AVH4201N/20%Monthly2017-07-27 07:36
http://www.hotnewdeal.com/2017/07/27/198694_Nestea_flavored_tea_169_oz_24_pack_for_999_or_/20%Monthly2017-07-27 07:15
http://www.hotnewdeal.com/2017/07/27/198693_8TB_Seagate_Expansion_USB_30_35_External_Hard_D/20%Monthly2017-07-27 06:34
http://www.hotnewdeal.com/2017/07/27/198692_Paul_Mitchell_The_Conditioner_Leavein_Conditione/20%Monthly2017-07-27 06:11
http://www.hotnewdeal.com/2017/07/27/198691_Monoprice_Select_Mini_3D_Printer_White_Version_2/20%Monthly2017-07-27 06:05
http://www.hotnewdeal.com/2017/07/27/198689_Amex_Offer_Get_10_back_Save_on_your_cable_or_sat/20%Monthly2017-07-27 04:13
http://www.hotnewdeal.com/2017/07/27/198688_Dell_Inspiron_13_5368_2in1_Laptop_i36100U_13/20%Monthly2017-07-27 03:30
http://www.hotnewdeal.com/2017/07/27/198687_Canon_PIXMA_MG6821_Wireless_Photo_AllinOne_Inkje/20%Monthly2017-07-27 03:30
http://www.hotnewdeal.com/2017/07/27/198686_Staples_BM__Bristone_Managers_Chair_BrownBlac/20%Monthly2017-07-27 03:12
http://www.hotnewdeal.com/2017/07/27/198684_Free_Skin_Tom_Savini_designed_Jason_Voorhees_for_F/20%Monthly2017-07-27 02:34
http://www.hotnewdeal.com/2017/07/27/198683_Buy_a_50_Nike_Gift_Card_and_Get_a_10_Bonus/20%Monthly2017-07-27 02:34
http://www.hotnewdeal.com/2017/07/27/198682_Womens_Shoes_Liz_Claiborne_Ana_Pumps_Sandals/20%Monthly2017-07-27 02:34
http://www.hotnewdeal.com/2017/07/27/198681_Logitech__Harmony_Smart_Control__Black_70BestB/20%Monthly2017-07-27 02:11
http://www.hotnewdeal.com/2017/07/27/198680_Outdoor_Oasis_Palm_Beach_4pc_Sectional_28996_j/20%Monthly2017-07-27 02:11
http://www.hotnewdeal.com/2017/07/27/198679_Greenworks_16_40v_mower_25322_74_Walmart_Very_/20%Monthly2017-07-27 01:33
http://www.hotnewdeal.com/2017/07/27/198678_Hamilton_Beach_Egg_Cooker_with_BuiltIn_Timer_2550/20%Monthly2017-07-27 01:33
http://www.hotnewdeal.com/2017/07/27/198677_2_Mainstays_Single_Cube_Storage_Side_Tables_10/20%Monthly2017-07-27 01:12
http://www.hotnewdeal.com/2017/07/27/198676_Fandango_Movie_Ticket_Additional_Savings_5_Off_/20%Monthly2017-07-27 01:12
http://www.hotnewdeal.com/2017/07/27/198675_HydroFlask_Bottles_11_49_Off/20%Monthly2017-07-27 01:12
http://www.hotnewdeal.com/2017/07/27/198674_Cat6_10ft_50ft_100ft_Flat_Ethernet_Cable_start_a/20%Monthly2017-07-27 01:12
http://www.hotnewdeal.com/2017/07/27/198673_Xiaomi_Piston_In_Ear_Earphones_Fresh_Version_Stere/20%Monthly2017-07-27 01:05
http://www.hotnewdeal.com/2017/07/27/198672_Blue_Magic_900_Carpet_Stain__Spot_Lifter__22_oz/20%Monthly2017-07-27 00:20
http://www.hotnewdeal.com/2017/07/27/198671_xbox_live_12_month_membership_4399_on_cdkeyscom/20%Monthly2017-07-27 00:03
http://www.hotnewdeal.com/2017/07/26/198670_Samsung_4K_UHD_BluRay_Player__149/20%Monthly2017-07-26 23:58
http://www.hotnewdeal.com/2017/07/26/198669_Doom_1499_727__83_and_Free_to_Play_727__73/20%Monthly2017-07-26 23:52
http://www.hotnewdeal.com/2017/07/26/198668_Stiga_IndoorOutdoor_Ping_Pong_Clearance_Sale__Ap/20%Monthly2017-07-26 23:52
http://www.hotnewdeal.com/2017/07/26/198667_Frys_Email_Exclusive_Three_Stooges_Collection_Vo/20%Monthly2017-07-26 23:52
http://www.hotnewdeal.com/2017/07/26/198666_Merrell_Mens_Moab_FST_Mens_Hiking_Shoes_4399/20%Monthly2017-07-26 23:51
http://www.hotnewdeal.com/2017/07/26/198665_Benchmade_275BKSN_Adamas_Tactical_Folding_Knife_w/20%Monthly2017-07-26 23:40
http://www.hotnewdeal.com/2017/07/26/198664_Apple_Watch_Band_Stainless_Steel_Band_for_4_AC_A/20%Monthly2017-07-26 23:40
http://www.hotnewdeal.com/2017/07/26/198663_best_buy_Insignia__30_Cu_Ft_mini_fridge__Fin/20%Monthly2017-07-26 23:32
http://www.hotnewdeal.com/2017/07/26/198662_Samsung_Galaxy_S7_SMG930V_32GB_for_Verizon_Certi/20%Monthly2017-07-26 23:26
http://www.hotnewdeal.com/2017/07/26/198661_Lenovo__Yoga_710_2in1_116_Laptop__Intel_7th_/20%Monthly2017-07-26 23:14
http://www.hotnewdeal.com/2017/07/26/198660_Yesgo_iPhone_7_and_iPhone_7_Cases_Starting_from_/20%Monthly2017-07-26 23:01
http://www.hotnewdeal.com/2017/07/26/198659_Samson_C01UCW_USB_Condenser_Microphone_35__free_/20%Monthly2017-07-26 23:01
http://www.hotnewdeal.com/2017/07/26/198658_Foster_The_People__Torches_Vinyl__Audio_CD_10/20%Monthly2017-07-26 22:54
http://www.hotnewdeal.com/2017/07/26/198657_Stanley_FatMax_levels_flash_sale_50_off/20%Monthly2017-07-26 22:54
http://www.hotnewdeal.com/2017/07/26/198656_Lunt_Solar_Systems_Solar__Solar_Eclipse_Viewing_G/20%Monthly2017-07-26 22:54
http://www.hotnewdeal.com/2017/07/26/198655_DOWAN_22_Ounce_Porcelain_Soup_Bowls__2_Packs_Whi/20%Monthly2017-07-26 22:54
http://www.hotnewdeal.com/2017/07/26/198654_Eminem__The_Eminem_Show_Vinyl__Audio_CD_1174/20%Monthly2017-07-26 22:54
http://www.hotnewdeal.com/2017/07/26/198653_620W_SeaSonic_M12II_80_Bronze_Power_Supply_40_af/20%Monthly2017-07-26 22:53
http://www.hotnewdeal.com/2017/07/26/198651_Audio_Technica_Headphones_SonicFuel_InEar_8_Co/20%Monthly2017-07-26 22:05
http://www.hotnewdeal.com/2017/07/26/198649_PAX_ERA_Vaporizer_40_off__1999_shipped_to_CA_a/20%Monthly2017-07-26 21:54
http://www.hotnewdeal.com/2017/07/26/198648_Command__Conquer_The_Ultimate_Collection_PC_Dig/20%Monthly2017-07-26 21:44
http://www.hotnewdeal.com/2017/07/26/198647_20Amazonbe_quiet_BK013_SHADOW_ROCK_2_CPU_Coole/20%Monthly2017-07-26 21:26
http://www.hotnewdeal.com/2017/07/26/198646_Little_Tikes_Garden_Chair_Orange_386__Free_St/20%Monthly2017-07-26 21:13
http://www.hotnewdeal.com/2017/07/26/198645_open_box_Polk_LSIM_Bundles_black_2x_m707_foors/20%Monthly2017-07-26 21:01
http://www.hotnewdeal.com/2017/07/26/198644_Womens_Panties_at_Gap_shorty_bikini_hipster_/20%Monthly2017-07-26 21:01
http://www.hotnewdeal.com/2017/07/26/198642_5_Gallon_Briggs_amp_Stratton_Gas_Can/20%Monthly2017-07-26 20:51
http://www.hotnewdeal.com/2017/07/26/198641_8Pc_Home_Expressions_Complete_Comforter_Set_w_Sh/20%Monthly2017-07-26 20:38
http://www.hotnewdeal.com/2017/07/26/198640_50_Whole_Food_Gift_card_for_40_on_Amazon/20%Monthly2017-07-26 20:24
http://www.hotnewdeal.com/2017/07/26/198639_Black__Decker_20_V_MAX_Lithium_DrillDriver_With_/20%Monthly2017-07-26 20:13
http://www.hotnewdeal.com/2017/07/26/198638_Boston_to_Brussels_Beligium_or_Paris_France_for_3/20%Monthly2017-07-26 20:13
http://www.hotnewdeal.com/2017/07/26/198637_Acesori_10400mAh_Dual_USB_Aluminum_power_bank_w_LG/20%Monthly2017-07-26 19:55
http://www.hotnewdeal.com/2017/07/26/198636_Jetcom_Olympus_Tough_TG5_12_Megapixel_Compact_C/20%Monthly2017-07-26 19:44
http://www.hotnewdeal.com/2017/07/26/198635_NERF__Rival_Khaos_MXVI4000_Blaster__Blue_for_3/20%Monthly2017-07-26 19:44
http://www.hotnewdeal.com/2017/07/26/198634_Rabbitgoo_Privacy_Window_Film_Frosted_Film__6_/20%Monthly2017-07-26 19:38
http://www.hotnewdeal.com/2017/07/26/198633_LG_49_Inch_LED_TV_49LF5400_HDTV_for_379__150_De/20%Monthly2017-07-26 19:38
http://www.hotnewdeal.com/2017/07/26/198632_Best_Buy__Star_WarsMarvel_MimoPowerTube2_2600_m/20%Monthly2017-07-26 18:46
http://www.hotnewdeal.com/2017/07/26/198631_iPhone_7_Plus_Screen_Protector_185__FS/20%Monthly2017-07-26 18:45
http://www.hotnewdeal.com/2017/07/26/198630_Back_Again_Refurb_Telex_Nexus_Conference_Phone_w/20%Monthly2017-07-26 18:38
http://www.hotnewdeal.com/2017/07/26/198629_ONeill_Mens_Superlite_Life_Vest_1498_at_Dicks/20%Monthly2017-07-26 18:13
http://www.hotnewdeal.com/2017/07/26/198628_40_Sanyo_FW40D36F_1080P_LED_HDTV_Refurbished_7/20%Monthly2017-07-26 18:05
http://www.hotnewdeal.com/2017/07/26/198627_bareMinerals_Double_Cleansing_Method_1950_Doub/20%Monthly2017-07-26 17:51
http://www.hotnewdeal.com/2017/07/26/198626_SOG_F08N_Entrenching_Tool_661__Walmart_or_Amaz/20%Monthly2017-07-26 17:32
http://www.hotnewdeal.com/2017/07/26/198625_Fidget_Spinner_179_Free_Shipping_w_Prime/20%Monthly2017-07-26 17:30
http://www.hotnewdeal.com/2017/07/26/198624_24Count_Energizer_Max_Premium_AAA_Batteries_645/20%Monthly2017-07-26 17:30
http://www.hotnewdeal.com/2017/07/26/198623_PS4_Pro_1TB_325__tax_351_total_in_NY_via_Je/20%Monthly2017-07-26 17:24
http://www.hotnewdeal.com/2017/07/26/198622_24_Pads_of_3_x_3_Postit_Notes_100_Sheet_Pads_/20%Monthly2017-07-26 17:24
http://www.hotnewdeal.com/2017/07/26/198621_Myprotein_All_11lb_Impact_Whey_Protein_for_4999/20%Monthly2017-07-26 17:15
http://www.hotnewdeal.com/2017/07/26/198620_Prime_Members_Pet_Food_Container_10lb_5_Addon/20%Monthly2017-07-26 17:06
http://www.hotnewdeal.com/2017/07/26/198619_Rosewill_RHPC15001_7in1_6L63Qt_1000W_Electric/20%Monthly2017-07-26 17:00
http://www.hotnewdeal.com/2017/07/26/198618_726_Only_Kmart__M3_Convoy_Rockstar_Snowboard_6/20%Monthly2017-07-26 16:48
http://www.hotnewdeal.com/2017/07/26/198617_AMD_Ryzen_7_1800X_8Core_36GHz_Processor_37999_/20%Monthly2017-07-26 16:48
http://www.hotnewdeal.com/2017/07/26/198616_Aeon_Labs_ZWave_Sale_Smart_Energy_Switch_Minimot/20%Monthly2017-07-26 16:48
http://www.hotnewdeal.com/2017/07/26/198615_Beach_Toys__456_AC/20%Monthly2017-07-26 16:48
http://www.hotnewdeal.com/2017/07/26/198614_Champion_Womens_Perforated_Woven_Duo_Dry_Run_Shor/20%Monthly2017-07-26 16:48
http://www.hotnewdeal.com/2017/07/26/198613_Emoji_movie__buy_2_get_the_3rd_free_at_atoms_tick/20%Monthly2017-07-26 16:38
http://www.hotnewdeal.com/2017/07/26/198612_ASUS__Q524UQ_2in1_156_TouchScreen_Laptop/20%Monthly2017-07-26 16:29
http://www.hotnewdeal.com/2017/07/26/198611_Red_Pocket_Mobile_Premium_1Year_Plan_Unlimited_T/20%Monthly2017-07-26 16:28
http://www.hotnewdeal.com/2017/07/26/198610_Gaming_Keyboard_Mechanical_Brown_Switches_104Key_/20%Monthly2017-07-26 16:04
http://www.hotnewdeal.com/2017/07/26/198609_Philips_Hue_Motion_Sensor_3198/20%Monthly2017-07-26 15:47
http://www.hotnewdeal.com/2017/07/26/198608_19Piece_Pyrex_Baking__Storage_Set_or_10Piece_Co/20%Monthly2017-07-26 15:39
http://www.hotnewdeal.com/2017/07/26/198607_KAYIZU_6Pack_Mens_Underwear_Premium_Soft_Cotton_/20%Monthly2017-07-26 15:26
http://www.hotnewdeal.com/2017/07/26/198606_World_of_Tanks__Dunkirk_starter_Edition_for_Xbox_/20%Monthly2017-07-26 15:15
http://www.hotnewdeal.com/2017/07/26/198605_Wen_4214_12inch_Variable_Speed_Drill_13479/20%Monthly2017-07-26 15:14
http://www.hotnewdeal.com/2017/07/26/198604_Western_Digital_4TB_WD_Red_SATA_35_Internal_HDD_/20%Monthly2017-07-26 15:14
http://www.hotnewdeal.com/2017/07/26/198603_Prime_Members_AmazonBasics_Subwoofer_Cable__15_F/20%Monthly2017-07-26 15:14
http://www.hotnewdeal.com/2017/07/26/198602_Fitjoy_Chocolate_Iced_Brownie_Dozen_Buy_One_Get_/20%Monthly2017-07-26 15:14
http://www.hotnewdeal.com/2017/07/26/198601_45_in_1_Precision_Screwdriver_Tool_Kit_Compact_Rep/20%Monthly2017-07-26 15:14
http://www.hotnewdeal.com/2017/07/26/198600_Xiaomi_USB_TypeC_Male_to_Micro_USB_Female_Connect/20%Monthly2017-07-26 14:56
http://www.hotnewdeal.com/2017/07/26/198599_Mainstays_1500L_Solar_Security_Light_900/20%Monthly2017-07-26 14:36
http://www.hotnewdeal.com/2017/07/26/198598_Jetcom_HP_950XL951_BlackColor_Original_Ink_Car/20%Monthly2017-07-26 14:30
http://www.hotnewdeal.com/2017/07/26/198597_Kindle_ebooks_Awardwinning_titles_on_sale_80_off/20%Monthly2017-07-26 14:23
http://www.hotnewdeal.com/2017/07/26/198596_Annabelle_Creation_Free_Screening_AMC_Stubs_Memb/20%Monthly2017-07-26 14:14
http://www.hotnewdeal.com/2017/07/26/198595_Stearns_Puddle_Jumper_Deluxe_Life_Jacket_3050_lb/20%Monthly2017-07-26 14:03
http://www.hotnewdeal.com/2017/07/26/198594_Jetcom_Garmin_Forerunner_230_GPS_Running_Watch_/20%Monthly2017-07-26 14:03
http://www.hotnewdeal.com/2017/07/26/198592_Samsung_Galaxy_S4_35mm_Stereo_Headset_w_Ear_Gels/20%Monthly2017-07-26 13:51
http://www.hotnewdeal.com/2017/07/26/198591_Bath__Body_Works__BOGO_3_Wick_Candles_fall_scen/20%Monthly2017-07-26 13:46
http://www.hotnewdeal.com/2017/07/26/198590_The_LEGO_Batman_Movie__Playstation_Network_PS_O/20%Monthly2017-07-26 13:46
http://www.hotnewdeal.com/2017/07/26/198588_High_Sierra_Backpacks_Extra_50_Off_Clearance_FS/20%Monthly2017-07-26 13:34
http://www.hotnewdeal.com/2017/07/26/198587_XtremeGuard_Sale_on_2_Items_ScreenFull_Body_Pro/20%Monthly2017-07-26 13:34
http://www.hotnewdeal.com/2017/07/26/198586_2_pack_of_Black_MIU_Glass_Water_Bottle_1499_AC_/20%Monthly2017-07-26 13:34
http://www.hotnewdeal.com/2017/07/26/198585_Monopoly_Here__Now_Board_Game_for_399__Free_St/20%Monthly2017-07-26 13:27
http://www.hotnewdeal.com/2017/07/26/198584_Mountain_House_Freeze_Dried_Diced_Cooked_Chicken_/20%Monthly2017-07-26 13:14
http://www.hotnewdeal.com/2017/07/26/198583_Soccer_Jerseys_for_2719__Free_Shipping/20%Monthly2017-07-26 13:14
http://www.hotnewdeal.com/2017/07/26/198582_Shark_2in1_Blast__Scrub_Steam_Pocket_Mop_Refur/20%Monthly2017-07-26 13:14
http://www.hotnewdeal.com/2017/07/26/198581_Rosewill_CULLINANWHITE_Tempered_Glass_Mid_Tower_G/20%Monthly2017-07-26 13:13
http://www.hotnewdeal.com/2017/07/26/198580_Open_Box_Polk_Signature_Speaker_Bundle_s50s__s/20%Monthly2017-07-26 13:06
http://www.hotnewdeal.com/2017/07/26/198579_Brother_MFCL2700DW_Wireless_Monochrome_AllInOne/20%Monthly2017-07-26 12:55
http://www.hotnewdeal.com/2017/07/26/198578_Aukey_Mechanical_Keyboards_w_Blue_Switches_from_/20%Monthly2017-07-26 12:55
http://www.hotnewdeal.com/2017/07/26/198577_Gamestop_New_Nintendo_Switch_Bundles_39999/20%Monthly2017-07-26 12:55
http://www.hotnewdeal.com/2017/07/26/198576_SeaSonic_M12II_620_Bronze_620W_ATX12V_V23__EPS_1/20%Monthly2017-07-26 12:55
http://www.hotnewdeal.com/2017/07/26/198575_Sunydeal_Corner_Wall_Mount_TV_Bracket_for_1649_w/20%Monthly2017-07-26 12:54
http://www.hotnewdeal.com/2017/07/26/198574_HP_ENVY_x360_13t_Touchscreen_2in1_Laptop__QHD/20%Monthly2017-07-26 12:43
http://www.hotnewdeal.com/2017/07/26/198573_Free_After_Rebate_Right_Guard_Xtreme_Precision_Dry/20%Monthly2017-07-26 12:43
http://www.hotnewdeal.com/2017/07/26/198572_10000mAh_Xiaomi_Ultrathin_Mobile_Power_Bank_2_10/20%Monthly2017-07-26 12:30
http://www.hotnewdeal.com/2017/07/26/198571_Evenflo_ExerSaucer_Door_Jumper_Bumbly_10__FS/20%Monthly2017-07-26 12:30
http://www.hotnewdeal.com/2017/07/26/198570_Back_in_stock_Pure_Leaf_Iced_Tea_Unsweetened_Re/20%Monthly2017-07-26 12:15
http://www.hotnewdeal.com/2017/07/26/198569_0_Free_moto_instashare_projector_moto_mod_with_m/20%Monthly2017-07-26 12:06
http://www.hotnewdeal.com/2017/07/26/198568_7Piece_Summer_Beauty_Sampler_Gift_Set_7__free_s/20%Monthly2017-07-26 12:04
http://www.hotnewdeal.com/2017/07/26/198566_Samsung_Galaxy_S6_S7_OEM_Adaptive_Fast_Charger__M/20%Monthly2017-07-26 11:52
http://www.hotnewdeal.com/2017/07/26/198565_Mint_Sim_Updated_Rates__2GB__15mo_5GB__20/20%Monthly2017-07-26 11:39
http://www.hotnewdeal.com/2017/07/26/198564_Refurbished_SB6183_Arris_Modem_3999/20%Monthly2017-07-26 11:39
http://www.hotnewdeal.com/2017/07/26/198563_Kaspersky_Total_Security_2017__3_Device_Key_Card/20%Monthly2017-07-26 11:39
http://www.hotnewdeal.com/2017/07/26/198562_Samsung_Wired_Headset_Earphones_W_Mic_for_Samsung/20%Monthly2017-07-26 11:26
http://www.hotnewdeal.com/2017/07/26/198561_CHUNNUO_Outdoor_Sport_Camera_Accessories_Bundle__/20%Monthly2017-07-26 11:26
http://www.hotnewdeal.com/2017/07/26/198560_NETGEAR_Nighthawk_AC1750_Smart_Dual_Band_WiFi_Rout/20%Monthly2017-07-26 11:26
http://www.hotnewdeal.com/2017/07/26/198559_5_Off_On_UberEats_For_Existing_Users_For_McDelive/20%Monthly2017-07-26 11:14
http://www.hotnewdeal.com/2017/07/26/198558_Andersen_12_x_4_WaterHog_Entrance_IndoorOutdoor/20%Monthly2017-07-26 11:14
http://www.hotnewdeal.com/2017/07/26/198556_Frys_Email_Exclusive_Samsung_50quot_6300_4k_UHD/20%Monthly2017-07-26 11:13
http://www.hotnewdeal.com/2017/07/26/198555_Quiksilver_Sale_On_Sale_Extra_40_off_Sale_Styles/20%Monthly2017-07-26 11:13
http://www.hotnewdeal.com/2017/07/26/198554_Samsung_850_EVO_500GB_131_Samsung_960_EVO_500GB_/20%Monthly2017-07-26 10:59
http://www.hotnewdeal.com/2017/07/26/198553_Midwest_Quiet_Time_Reversible_Fleece_Paw_Print_Dog/20%Monthly2017-07-26 10:59
http://www.hotnewdeal.com/2017/07/26/198552_Free_5_GameStop_gift_card_with_purchase_of_20_D/20%Monthly2017-07-26 10:59
http://www.hotnewdeal.com/2017/07/26/198551_World_Pet_Double_Pet_Bowl_98_addon/20%Monthly2017-07-26 10:59
http://www.hotnewdeal.com/2017/07/26/198550_Portofino_Comfort_4piece_Seating_Set_in_Espresso/20%Monthly2017-07-26 10:59
http://www.hotnewdeal.com/2017/07/26/198549_Star_Wars_Endor_Commando_Backpack_2999__Free_S/20%Monthly2017-07-26 10:49
http://www.hotnewdeal.com/2017/07/26/198548_Disney_Movie_Rewards_New_DVDs_and_Blurays_Added_I/20%Monthly2017-07-26 10:45
http://www.hotnewdeal.com/2017/07/26/198547_Samsonite_BacktoSchool_Backpacks_2499__Free/20%Monthly2017-07-26 10:36
http://www.hotnewdeal.com/2017/07/26/198546_Craftsman_24_Dual_Fill_Push_Broom_1099__Free_S/20%Monthly2017-07-26 10:32
http://www.hotnewdeal.com/2017/07/26/198545_Dell_156_Inspiron_15_i3_5000_Series_Notebook_32/20%Monthly2017-07-26 10:20
http://www.hotnewdeal.com/2017/07/26/198544_The_Founder_Michael_Keaton__099_digital_movie/20%Monthly2017-07-26 10:03
http://www.hotnewdeal.com/2017/07/26/198543_50__10_Nintendo_eShop_egift_cards_for_50_via_G/20%Monthly2017-07-26 10:03
http://www.hotnewdeal.com/2017/07/26/198542_Layers_of_Fear_PC_Digital_Download_480_via_Gam/20%Monthly2017-07-26 09:55
http://www.hotnewdeal.com/2017/07/26/198541_Roundup_Extended_Control_170oz_Weed_and_Grass_Kil/20%Monthly2017-07-26 09:51
http://www.hotnewdeal.com/2017/07/26/198540_Select_Digital_SDHDX_010_Movie_Rentals_World_W/20%Monthly2017-07-26 09:51
http://www.hotnewdeal.com/2017/07/26/198539_Duck_Brand_Attic_Stairway_Cover_2926__Walmart/20%Monthly2017-07-26 09:39
http://www.hotnewdeal.com/2017/07/26/198538_Intex_Floats_Intex_River_Run_I_Sport_Lounge_53_I/20%Monthly2017-07-26 09:38
http://www.hotnewdeal.com/2017/07/26/198537_857__YARDGARD_308476B_4_Foot_X_50_Foot_2_Inch_M/20%Monthly2017-07-26 09:24
http://www.hotnewdeal.com/2017/07/26/198536_walmart_straight_talk_Apple_iPhone_5s_16gb_Refu/20%Monthly2017-07-26 09:24
http://www.hotnewdeal.com/2017/07/26/198535_Duracell_Quantum_battery_4Pack_size_AAA_as_low_as/20%Monthly2017-07-26 08:51
http://www.hotnewdeal.com/2017/07/26/198534_Rosewill_SRM01_microATX_Mini_Tower_Computer_Case_/20%Monthly2017-07-26 08:38
http://www.hotnewdeal.com/2017/07/26/198533_Crest_3D_White_Luxe_Whitestrips_Dental_Teeth_White/20%Monthly2017-07-26 08:24
http://www.hotnewdeal.com/2017/07/26/198532_1_Year_PS_Plus_3994_at_PCGameSupply/20%Monthly2017-07-26 08:03
http://www.hotnewdeal.com/2017/07/26/198531_Mr_Beams_MB330_Wireless_LED_Spotlight_with_Motion/20%Monthly2017-07-26 08:03
http://www.hotnewdeal.com/2017/07/26/198530_Microsoft_Surface_3_LC500015_Intel_Atom_x7Z8700_/20%Monthly2017-07-26 06:13
http://www.hotnewdeal.com/2017/07/26/198529_Promo_code_20BTS_20_off_orders_100/20%Monthly2017-07-26 06:13
http://www.hotnewdeal.com/2017/07/26/198528_LaView_LVKN988P86A4_Premium_IP_Surveillance_Syste/20%Monthly2017-07-26 06:13
http://www.hotnewdeal.com/2017/07/26/198527_Fallout_4_PC_Digital_Download_1295_AC__Newegg/20%Monthly2017-07-26 06:05
http://www.hotnewdeal.com/2017/07/26/198526_Rakuten_20_back_in_RSP_rakuten_super_points__sit/20%Monthly2017-07-26 05:33
http://www.hotnewdeal.com/2017/07/26/198525_Reebok_Womens_Fitness_Essentials_Capris_6__Dick/20%Monthly2017-07-26 05:26
http://www.hotnewdeal.com/2017/07/26/198524_256GB_ADATA_Ultimate_SU800_25_3D_NAND_SSD_70AC_/20%Monthly2017-07-26 05:12
http://www.hotnewdeal.com/2017/07/26/198523_Reebok_Mens_Huron_Softshell_Jacket_1999/20%Monthly2017-07-26 05:12
http://www.hotnewdeal.com/2017/07/26/198522_Panasonic_Arc_3_Mens_3Blade_WetDry_Electric_Sha/20%Monthly2017-07-26 04:33
http://www.hotnewdeal.com/2017/07/26/198521_Addon_Item_8Piece_Stanley_Premium_Paint_Kit_5/20%Monthly2017-07-26 04:12
http://www.hotnewdeal.com/2017/07/26/198520_Gigabyte_AORUS_RX_580_4GB_23828/20%Monthly2017-07-26 04:12
http://www.hotnewdeal.com/2017/07/26/198519_Ceramic_Tourmaline_Ionic_Flat_Iron_Hair_Straighten/20%Monthly2017-07-26 04:12
http://www.hotnewdeal.com/2017/07/26/198518_Polk_Audio_T50_Floor_Standing_Tower_Speakers_59ea/20%Monthly2017-07-26 03:30
http://www.hotnewdeal.com/2017/07/26/198517_8Pack_Portable_Convenient_Smart_Sensor_Night_Ligh/20%Monthly2017-07-26 03:12
http://www.hotnewdeal.com/2017/07/26/198516_GoPro_Hero_Session_Refurbished_With_1_Year_Manufac/20%Monthly2017-07-26 02:13
http://www.hotnewdeal.com/2017/07/26/198515_Galileo_Thermometer_with_Wood_Stand_488/20%Monthly2017-07-26 02:13
http://www.hotnewdeal.com/2017/07/26/198514_YMMV_Walmart_Clearance_Road_Runner_Ice_Melt_12_lb/20%Monthly2017-07-26 02:13
http://www.hotnewdeal.com/2017/07/26/198513_Victorias_Secret_offers_the_Laced_Up_Bras_for_7/20%Monthly2017-07-26 02:13
http://www.hotnewdeal.com/2017/07/26/198512_walmart_12_switch_game_preowned_2488/20%Monthly2017-07-26 01:33
http://www.hotnewdeal.com/2017/07/26/198511_Samsung_Gear_360_VR_Camera_2016_110_Amazon__F/20%Monthly2017-07-26 01:12
http://www.hotnewdeal.com/2017/07/26/198510_Raleigh_Merit_Sport_Carbon_Tiagra_Disc_Road_Bike_/20%Monthly2017-07-26 01:05
http://www.hotnewdeal.com/2017/07/26/198509_Philips_Norelco_OneBlade_Pro_for_6632_or_with_2/20%Monthly2017-07-26 00:20
http://www.hotnewdeal.com/2017/07/26/198508_Price_Mistake_AIR_TREKKERS_Spring_Loaded_JUMP_S/20%Monthly2017-07-26 00:20
http://www.hotnewdeal.com/2017/07/25/198507_Many_US_Cities_to_London_England_on_British_Airway/20%Monthly2017-07-25 23:57
http://www.hotnewdeal.com/2017/07/25/198506_Morton_Salt_Solar_Salt_40_Lbs_on_clearance__374/20%Monthly2017-07-25 23:42
http://www.hotnewdeal.com/2017/07/25/198505_Newair_AF600_18Inch_Outdoor_Misting_Fan_109__/20%Monthly2017-07-25 23:41
http://www.hotnewdeal.com/2017/07/25/198504_Discounted_GCs__10_off_when_you_spend_100_in_/20%Monthly2017-07-25 23:02
http://www.hotnewdeal.com/2017/07/25/198503_Under_Armour_Mens_Zone_2_Shoes_2998/20%Monthly2017-07-25 22:46
http://www.hotnewdeal.com/2017/07/25/198502_Chemical_Guys_MIC35303_Workhorse_Professional_Grad/20%Monthly2017-07-25 22:46
http://www.hotnewdeal.com/2017/07/25/198501_Humble_PC_Bundle__Saints_Row_Bundle_Deadlight_R/20%Monthly2017-07-25 22:16
http://www.hotnewdeal.com/2017/07/25/198500_AKASO_Mens_Orthrus_Sun_Cap_and_Mesh_Baseball_Cap_/20%Monthly2017-07-25 22:01
http://www.hotnewdeal.com/2017/07/25/198499_PNY__Elite_Turbo_Attache_4_16GB_USB_30_Type_A_Fl/20%Monthly2017-07-25 21:49
http://www.hotnewdeal.com/2017/07/25/198498_2Pack_Galaxy_S8_Screen_Protector_for_Only_97__M/20%Monthly2017-07-25 21:39
http://www.hotnewdeal.com/2017/07/25/198497_Ella_Fitzgerald__Louis_Armstrong__Complete_Studi/20%Monthly2017-07-25 21:32
http://www.hotnewdeal.com/2017/07/25/198496_Dell_XPS_13_9360_Laptop_Intel_Core_i57200U_133/20%Monthly2017-07-25 21:32
http://www.hotnewdeal.com/2017/07/25/198495_Giro_Revel_Bike_Helmet__Matte_BlackCharcoal/20%Monthly2017-07-25 21:16
http://www.hotnewdeal.com/2017/07/25/198494_Darice_68Piece_Art_Set_3_Addon_or_Amazon_Echo_/20%Monthly2017-07-25 21:16
http://www.hotnewdeal.com/2017/07/25/198493_XCOM2_War_of_the_Chosen_preorder_10_on_Amazon/20%Monthly2017-07-25 21:01
http://www.hotnewdeal.com/2017/07/25/198492_Back_in_stock_Addon_PNY_AD7800_7800mAh_1_A24_A/20%Monthly2017-07-25 21:01
http://www.hotnewdeal.com/2017/07/25/198491_Kershaw_1313BLK_Spoke_with_SpeedSafe_Black_B01B7/20%Monthly2017-07-25 21:01
http://www.hotnewdeal.com/2017/07/25/198490_Fitness_Reality_810XLT_Super_Max_Power_Cage_800lb/20%Monthly2017-07-25 21:01
http://www.hotnewdeal.com/2017/07/25/198489_Rosewill_HIMARS_ATX_Mid_Tower_Case_w_Front_HotSw/20%Monthly2017-07-25 20:56
http://www.hotnewdeal.com/2017/07/25/198488_Rosewill_RCH200__2Port_USB_30_Front_Panel_Hub_/20%Monthly2017-07-25 20:36
http://www.hotnewdeal.com/2017/07/25/198487_12_pack_of_Microwaveable_SteamedBrown_Instant_Rice/20%Monthly2017-07-25 20:29
http://www.hotnewdeal.com/2017/07/25/198486_3999_for_SportBrella_XLarge_Umbrella/20%Monthly2017-07-25 20:29
http://www.hotnewdeal.com/2017/07/25/198485_Kikkoman_Soy_Sauce_64oz__Sams_Club_091_YMMV/20%Monthly2017-07-25 20:14
http://www.hotnewdeal.com/2017/07/25/198484_Llama_Llama_Misses_Mama_Hardcover_Book_663__W/20%Monthly2017-07-25 20:07
http://www.hotnewdeal.com/2017/07/25/198483_Radiance_LED_Strip_Light_Connector_10_Piece_4pin_/20%Monthly2017-07-25 19:54
http://www.hotnewdeal.com/2017/07/25/198482_Thermaltake_Core_P3_SE_ATX_Open_Frame_Computer_Cas/20%Monthly2017-07-25 19:48
http://www.hotnewdeal.com/2017/07/25/198481_BACK_TO_SCHOOL_TRACER_II_15_VR_GTX_1060_6GB_for_86/20%Monthly2017-07-25 19:41
http://www.hotnewdeal.com/2017/07/25/198480_Prime_Members_24Pack_of_169oz_Perrier_Sparkli/20%Monthly2017-07-25 19:41
http://www.hotnewdeal.com/2017/07/25/198479_Stephen_King_Gwendys_Button_Box__3_Kindle_at_/20%Monthly2017-07-25 19:41
http://www.hotnewdeal.com/2017/07/25/198478_Dell_Inspiron_13_7378_2in1_133_Touchscreen_Lap/20%Monthly2017-07-25 19:41
http://www.hotnewdeal.com/2017/07/25/198477_Best_Choice_Products_Faux_Leather_Finish_Folding_S/20%Monthly2017-07-25 19:29
http://www.hotnewdeal.com/2017/07/25/198476_Taco_Bell_Mild_Sauce_142_Free_Shipping_Prime/20%Monthly2017-07-25 19:25
http://www.hotnewdeal.com/2017/07/25/198475_Assassins_Creed_Unity_Xbox_One_Digital_Code_1/20%Monthly2017-07-25 19:18
http://www.hotnewdeal.com/2017/07/25/198474_Glycine_Incursore_Automatic_Watch_25999_fs__md_/20%Monthly2017-07-25 19:17
http://www.hotnewdeal.com/2017/07/25/198473_HUGGIES_Little_Movers_Diapers_Size_4_152_Count_/20%Monthly2017-07-25 19:00
http://www.hotnewdeal.com/2017/07/25/198472_DC_Shoes_Coupon_Extra_40_off_Sale_Items_Mens_/20%Monthly2017-07-25 19:00
http://www.hotnewdeal.com/2017/07/25/198471_Emarth_2060x60AE_Waterproof_Angled_Spotting_Scope/20%Monthly2017-07-25 18:37
http://www.hotnewdeal.com/2017/07/25/198470_Kershaw_1306BW_Filter_Knife_with_SpeedSafe_AMAZON_/20%Monthly2017-07-25 18:31
http://www.hotnewdeal.com/2017/07/25/198469_Best_buy_Insignia__26_Cu_Ft_Mini_Fridge_799/20%Monthly2017-07-25 18:30
http://www.hotnewdeal.com/2017/07/25/198468_TMobile_iPhone_6s_and_SE_for_150__tax_through_C/20%Monthly2017-07-25 18:23
http://www.hotnewdeal.com/2017/07/25/198467_True_Wireless_Earbuds_Bluetooth_V42_Headphones_Bu/20%Monthly2017-07-25 18:16
http://www.hotnewdeal.com/2017/07/25/198466_Kelty_Cosmic_40_Sleeping_Bag__60__Dicks_Sport/20%Monthly2017-07-25 18:07
http://www.hotnewdeal.com/2017/07/25/198465_26Oz_Suave_Invisible_Solid_AntiPerspirant__Deo/20%Monthly2017-07-25 18:06
http://www.hotnewdeal.com/2017/07/25/198464_Dell_Inspiron_15_5577_156_Full_HD_Gaming_Noteboo/20%Monthly2017-07-25 17:57
http://www.hotnewdeal.com/2017/07/25/198463_Weller_WLC100_40Watt_Soldering_Station_2760__A/20%Monthly2017-07-25 17:57
http://www.hotnewdeal.com/2017/07/25/198462_Double_Star_Day_for_Gold_Members_at_Starbucks_07/20%Monthly2017-07-25 17:57
http://www.hotnewdeal.com/2017/07/25/198461_2_for_15_Mophie_Desktop_Lightning_Charging_Dock_/20%Monthly2017-07-25 17:57
http://www.hotnewdeal.com/2017/07/25/198460_HP_Pavilion_Power_156_i77700HQ_1050_GTX_2gb/20%Monthly2017-07-25 17:56
http://www.hotnewdeal.com/2017/07/25/198459_47999_for_Silverback_NXT_Portable_Basketball_Hoo/20%Monthly2017-07-25 17:56
http://www.hotnewdeal.com/2017/07/25/198458_30_off_Magnetic_Phone_Car_Mount__AMAZON_1189/20%Monthly2017-07-25 17:49
http://www.hotnewdeal.com/2017/07/25/198457_Stance_Star_Wars_Socks_from_899FS_Spring/20%Monthly2017-07-25 17:15
http://www.hotnewdeal.com/2017/07/25/198456_CyberPower_1000VA_600W_10Outlet_PFC_Sinewave_UPS_/20%Monthly2017-07-25 17:15
http://www.hotnewdeal.com/2017/07/25/198454_Greenworks_24012_7_Amp_Single_Speed_Handheld_Elect/20%Monthly2017-07-25 17:01
http://www.hotnewdeal.com/2017/07/25/198453_New_Microsoft_Xbox_One_S_Minecraft_Favorites_Bundl/20%Monthly2017-07-25 16:49
http://www.hotnewdeal.com/2017/07/25/198452_Elec3_Solar_Eclipse_Glasses__CE_and_ISO_Certified/20%Monthly2017-07-25 16:49
http://www.hotnewdeal.com/2017/07/25/198451_Webroot_Internet_Security_Plus__Antivirus_2017__/20%Monthly2017-07-25 16:49
http://www.hotnewdeal.com/2017/07/25/198449_Patriot_Torch_SE_256GB_25_SSD_62__Amazon/20%Monthly2017-07-25 16:35
http://www.hotnewdeal.com/2017/07/25/198448_Haier_13500_Poartable_Air_Conditioner__Refurbish/20%Monthly2017-07-25 16:35
http://www.hotnewdeal.com/2017/07/25/198447_VIZIO_M65D0_65_4K_UHD_HDR_SmartCast_Home_Theater/20%Monthly2017-07-25 16:12
http://www.hotnewdeal.com/2017/07/25/198446_10_off_Chilis_50_eGift_Card_email_delivery/20%Monthly2017-07-25 16:06
http://www.hotnewdeal.com/2017/07/25/198445_Rockwell_RK9034_JawStand_XP_Work_Support_Stand_52/20%Monthly2017-07-25 15:53
http://www.hotnewdeal.com/2017/07/25/198444_Cybex_Gold_Agis_MAir3_or_MAir4_Lightweight_Baby_/20%Monthly2017-07-25 15:52
http://www.hotnewdeal.com/2017/07/25/198443_Produtrend_Portable_Handheld_Shower_Outdoor_Shower/20%Monthly2017-07-25 15:52
http://www.hotnewdeal.com/2017/07/25/198442_Fidget_Spinner_179_Free_Shipping_w_Prime/20%Monthly2017-07-25 15:40
http://www.hotnewdeal.com/2017/07/25/198441_PSN__EA_Action_Sale_Battlefield_1_2300_UFC_2_/20%Monthly2017-07-25 15:40
http://www.hotnewdeal.com/2017/07/25/198440_BEHRINGER_CMD_TOUCH_TC64_Midi_Controller_USB_Midi/20%Monthly2017-07-25 15:40
http://www.hotnewdeal.com/2017/07/25/198439_Philips_FX3BK_OverEar_Headphones_for_2299/20%Monthly2017-07-25 15:40
http://www.hotnewdeal.com/2017/07/25/198437_Xiaomi_Mi_Band_2_Smart_Watch_17__free_shipping/20%Monthly2017-07-25 15:26
http://www.hotnewdeal.com/2017/07/25/198436_Roland_RP500_1200__Tax_Free_Shipping_at_Costco/20%Monthly2017-07-25 15:19
http://www.hotnewdeal.com/2017/07/25/198435_Samsung_UN58MU6100_58inch_Smart_MU6100_Series_LED/20%Monthly2017-07-25 15:19
http://www.hotnewdeal.com/2017/07/25/198434_3100mAh_iPM_MFICertified_Charger_Case_for_Apple_i/20%Monthly2017-07-25 15:17
http://www.hotnewdeal.com/2017/07/25/198433_ViewSonic_XG2703GS_27_165Hz_IPS_WQHD_1440p_GSyn/20%Monthly2017-07-25 15:17
http://www.hotnewdeal.com/2017/07/25/198432_Fine_Homebuilding_Magazine_999_per_year/20%Monthly2017-07-25 15:17
http://www.hotnewdeal.com/2017/07/25/198431_Nike_Womens_Auralux_Print_Backpack_27__free_shi/20%Monthly2017-07-25 15:16
http://www.hotnewdeal.com/2017/07/25/198430_Kelty_Cosmic_20_Degree_Sleeping_Bag_for_80/20%Monthly2017-07-25 15:03
http://www.hotnewdeal.com/2017/07/25/198429_ARRIS__Motorola_SURFboard_SB6183_DOCSIS_30_Cable/20%Monthly2017-07-25 15:03
http://www.hotnewdeal.com/2017/07/25/198428_Coolwoo_Kid_Backpack_shaped_like_a_dog_740/20%Monthly2017-07-25 15:02
http://www.hotnewdeal.com/2017/07/25/198427_Doom_Xbox_One_Digital_Code_15_via_Amazon/20%Monthly2017-07-25 15:02
http://www.hotnewdeal.com/2017/07/25/198425_O2COOL_5Inch_Battery_Operated_Clip_Fan_B01508UXT/20%Monthly2017-07-25 14:39
http://www.hotnewdeal.com/2017/07/25/198424_Apple_Airpods_for_15900_No_Tax_expect_ILWIMI/20%Monthly2017-07-25 14:39
http://www.hotnewdeal.com/2017/07/25/198423_Lululemoncom_Mens_Sojourn_LS_Buttondown_49_Wo/20%Monthly2017-07-25 14:39
http://www.hotnewdeal.com/2017/07/25/198422_HTC_10_for_399_tax_and_free_shipping/20%Monthly2017-07-25 14:24
http://www.hotnewdeal.com/2017/07/25/198421_motorcycle_gloves_on_clearance_starting_at_5/20%Monthly2017-07-25 14:08
http://www.hotnewdeal.com/2017/07/25/198420_AddOn_Item__Weber_7417_FireStarters_Lighter_Cube/20%Monthly2017-07-25 13:56
http://www.hotnewdeal.com/2017/07/25/198419_Nike_Tailwind_12E_Mens_Sports_Sunglasses__7_in_/20%Monthly2017-07-25 13:56
http://www.hotnewdeal.com/2017/07/25/198418_Channellock_369_95_Linemans_HiLeaverage_Pliers/20%Monthly2017-07-25 13:56
http://www.hotnewdeal.com/2017/07/25/198417_28Ct_Scrubbing_Bubbles_Antibacterial_Bathroom_Flu/20%Monthly2017-07-25 13:55
http://www.hotnewdeal.com/2017/07/25/198416_Beats_Studio_OverEar_Headphones/20%Monthly2017-07-25 13:55
http://www.hotnewdeal.com/2017/07/25/198415_Naturehike_or_Desert_Fox_Camping_Tents_for_34_Peo/20%Monthly2017-07-25 13:42
http://www.hotnewdeal.com/2017/07/25/198414_Sams_Club__One_Day_Sale__August_5/20%Monthly2017-07-25 13:42
http://www.hotnewdeal.com/2017/07/25/198413_Benro_MAC008ABR_Active_Series_Aluminum_Monopod_Kit/20%Monthly2017-07-25 13:40
http://www.hotnewdeal.com/2017/07/25/198412_PorterCable_PCCK618L2_20V_MAX_2_Tool_Brushless_/20%Monthly2017-07-25 13:40
http://www.hotnewdeal.com/2017/07/25/198411_Eddie_Bauer_Womens_YearRound_Field_Coat_2999_/20%Monthly2017-07-25 13:36
http://www.hotnewdeal.com/2017/07/25/198410_Spigen_Outlet__New_Open_Box_Cases_for_iPhone_66s/20%Monthly2017-07-25 13:36
http://www.hotnewdeal.com/2017/07/25/198409_Magnet_Bluetooth_Headphones__Sweatproof_Sport_Ear/20%Monthly2017-07-25 13:35
http://www.hotnewdeal.com/2017/07/25/198408_Acer_XG270HU_27_1ms_144HZ_WQHD_HDMI_DisplayPort_A/20%Monthly2017-07-25 13:35
http://www.hotnewdeal.com/2017/07/25/198407_Designer_SoapLiquid_Dispenser_Only_Today_750_a/20%Monthly2017-07-25 13:34
http://www.hotnewdeal.com/2017/07/25/198406_Mens_Ankle_Socks_Clearance__30_socks_for_40Fre/20%Monthly2017-07-25 13:26
http://www.hotnewdeal.com/2017/07/25/198405_Lenovo_Ideacentre_Y710_Desktop_i76700_GTX1080_8/20%Monthly2017-07-25 13:16
http://www.hotnewdeal.com/2017/07/25/198404_2pack_Tempered_Glass_Protector_for_iPhone_7_6s_1/20%Monthly2017-07-25 13:16
http://www.hotnewdeal.com/2017/07/25/198402_Fagor_5Piece_Stainless_Steel_NonStick_Cutlery_Se/20%Monthly2017-07-25 13:16
http://www.hotnewdeal.com/2017/07/25/198401_4pack_SGL_6_Dimmable_LED_Ceiling_Downlight_13W_/20%Monthly2017-07-25 13:02
http://www.hotnewdeal.com/2017/07/25/198400_BCP_Patio_Garden_Wooden_Wagon_Wheel_Bench_8494_/20%Monthly2017-07-25 13:01
http://www.hotnewdeal.com/2017/07/25/198399_Prime_Members_AmazonBasics_Subwoofer_Cable__25_F/20%Monthly2017-07-25 12:57
http://www.hotnewdeal.com/2017/07/25/198398_Ohuhu_Portable_Stainless_Steel_Wood_Burning_Campin/20%Monthly2017-07-25 12:57
http://www.hotnewdeal.com/2017/07/25/198397_SOG_PowerLock_MultiTool_4693_fs_on_orders_50_/20%Monthly2017-07-25 12:57
http://www.hotnewdeal.com/2017/07/25/198396_Go__Grow_by_Similac_Fruit_and_Veggie_Pouches_For_/20%Monthly2017-07-25 12:16
http://www.hotnewdeal.com/2017/07/25/198395_Ladies_watch_starting_at_249_90_off__shippin/20%Monthly2017-07-25 12:15
http://www.hotnewdeal.com/2017/07/25/198394_Rental_of_The_Founder_on_iTunes_for_99_cents/20%Monthly2017-07-25 12:15
http://www.hotnewdeal.com/2017/07/25/198393_Prime_Members_Nature_Made_Hair_Skin_Nails_with_/20%Monthly2017-07-25 12:09
http://www.hotnewdeal.com/2017/07/25/198392_Battlefield_4_Final_Stand_DLC_PC__Free/20%Monthly2017-07-25 12:09
http://www.hotnewdeal.com/2017/07/25/198391_GIGABYTE_GeForce_GTX_1060_3GB_w_free_Rocket_Leagu/20%Monthly2017-07-25 12:08
http://www.hotnewdeal.com/2017/07/25/198389_Pecham_Rechargeable_Water_Flosser_Oral_Irrigator_w/20%Monthly2017-07-25 12:00
http://www.hotnewdeal.com/2017/07/25/198388_BlitzWolf_40W_Smart_5Port_High_Speed_Desktop_Char/20%Monthly2017-07-25 11:54
http://www.hotnewdeal.com/2017/07/25/198387_August_Games_w_Gold_Slime_Rancher_or_Trials_Fusi/20%Monthly2017-07-25 11:42
http://www.hotnewdeal.com/2017/07/25/198385_Silky_Saws_WOODBOY_Dozuki_240mm_27_TPIToday_On/20%Monthly2017-07-25 11:41
http://www.hotnewdeal.com/2017/07/25/198383_Summer_Down_Alternative_Reversible_Comforter_twin_/20%Monthly2017-07-25 11:41
http://www.hotnewdeal.com/2017/07/25/198382_Philips_Norelco_Multigroom_Series_5000_Trimmer_18_/20%Monthly2017-07-25 11:41
http://www.hotnewdeal.com/2017/07/25/198380_Petsmart_15_off_50_of_select_items_Online_only/20%Monthly2017-07-25 11:17
http://www.hotnewdeal.com/2017/07/25/198379_Fractal_Design_Define_C_Black_Silent_Compact_Mid_C/20%Monthly2017-07-25 11:01
http://www.hotnewdeal.com/2017/07/25/198378_Ryzen_7_1800X_393_ac__Frys_Electronics_1Day_/20%Monthly2017-07-25 11:01
http://www.hotnewdeal.com/2017/07/25/198377_14_Mango_Pineapple_RxBars_for_1538__Free_Shippi/20%Monthly2017-07-25 10:52
http://www.hotnewdeal.com/2017/07/25/198376_4_Softsoap_body_wash__5_gift_card_for_888_at_T/20%Monthly2017-07-25 10:52
http://www.hotnewdeal.com/2017/07/25/198375_Amazon_SportBrella_XLarge_9foot_Umbrella__/20%Monthly2017-07-25 10:36
http://www.hotnewdeal.com/2017/07/25/198374_ASUS_PCEN10_80211n_WiFi_N150_PCIe_Adapter_Free_/20%Monthly2017-07-25 10:23
http://www.hotnewdeal.com/2017/07/25/198373_Marvel_Legends_Series_6_Secret_War_Captain_Americ/20%Monthly2017-07-25 10:15
http://www.hotnewdeal.com/2017/07/25/198372_Back_To_The_Future_The_Game__30th_Anniversary_Ed/20%Monthly2017-07-25 10:15
http://www.hotnewdeal.com/2017/07/25/198371_Excell_EPW2123100_3100_PSI_28_GPM_212CC_Gas_Power/20%Monthly2017-07-25 10:06
http://www.hotnewdeal.com/2017/07/25/198370_Cooler_Master_Hyper_T2_Compact_CPU_Cooler_w_Dual_/20%Monthly2017-07-25 10:05
http://www.hotnewdeal.com/2017/07/25/198369_GreenWorks_12_40Volt_LithiumIon_Cordless_String/20%Monthly2017-07-25 09:58
http://www.hotnewdeal.com/2017/07/25/198368_100_Cabelas_gift_card_for_82/20%Monthly2017-07-25 09:39
http://www.hotnewdeal.com/2017/07/25/198367_Back_to_School_Special__Microsoft_Office_2016_Hom/20%Monthly2017-07-25 09:39
http://www.hotnewdeal.com/2017/07/25/198366_27_Monoprice_ZeroG_2560x1440_WQHD_IPS_Slim_Monit/20%Monthly2017-07-25 09:24
http://www.hotnewdeal.com/2017/07/25/198365_Samsung_Notebook_9_Spin_133_inch_i7_8GB_ram_256GB/20%Monthly2017-07-25 09:15
http://www.hotnewdeal.com/2017/07/25/198364_BenQ_Refurb_Monitors_27_GL2760H_105_27_4K_BL2/20%Monthly2017-07-25 09:15
http://www.hotnewdeal.com/2017/07/25/198363_2Pack_Galaxy_S8S8_Plus_Screen_Protector_and_Slim/20%Monthly2017-07-25 08:57
http://www.hotnewdeal.com/2017/07/25/198362_Genuine_Joe_GJO15363_5Mil_Light_Powder_Industrial/20%Monthly2017-07-25 08:46
http://www.hotnewdeal.com/2017/07/25/198361_2017_Entertainment_Book_5__Free_Shipping/20%Monthly2017-07-25 08:25
http://www.hotnewdeal.com/2017/07/25/198360_Royal_Basmati_Rice_15Pound_Bag_1199_Amazon_P/20%Monthly2017-07-25 08:25
http://www.hotnewdeal.com/2017/07/25/198359_8_Pin_Lightning_to_USB_Charge__Data_Sync_Cables_f/20%Monthly2017-07-25 08:25
http://www.hotnewdeal.com/2017/07/25/198358_Graduated_Compression_Socks_For_Men__Women_492_/20%Monthly2017-07-25 08:14
http://www.hotnewdeal.com/2017/07/25/198357_Motorola_Moto_360_2nd_gen_smartwatch_4246mm_Ver/20%Monthly2017-07-25 08:07
http://www.hotnewdeal.com/2017/07/25/198356_iDeaUSA_V201_Active_Noise_Cancelling_Wireless_Blue/20%Monthly2017-07-25 08:00
http://www.hotnewdeal.com/2017/07/25/198355_Acronis_True_Image_2017__3_Devices_Free_after_50/20%Monthly2017-07-25 07:53
http://www.hotnewdeal.com/2017/07/25/198354_GCU_Members_YookaLaylee_PS4_or_Xbox_One_1599/20%Monthly2017-07-25 07:53
http://www.hotnewdeal.com/2017/07/25/198353_Kaspersky_Internet_Security_2017__3_PCs_Key_Card/20%Monthly2017-07-25 07:36
http://www.hotnewdeal.com/2017/07/25/198352_Amex_Offer_PuritansPridecom_Spend_30_And_Get_/20%Monthly2017-07-25 07:22
http://www.hotnewdeal.com/2017/07/25/198351_REFURISHED_Samsung_Gear_S2_Classic_Verizon_Andro/20%Monthly2017-07-25 07:07
http://www.hotnewdeal.com/2017/07/25/198350_24Count_Grove_Square_Cappuccino_Caramel_KCups_/20%Monthly2017-07-25 06:14
http://www.hotnewdeal.com/2017/07/25/198349_Murray_21_Gas_Push_Lawn_Mower_with_Side_Discharge/20%Monthly2017-07-25 05:13
http://www.hotnewdeal.com/2017/07/25/198348_Tide_PODS_Original_Scent_HE_Turbo_Laundry_Detergen/20%Monthly2017-07-25 05:05
http://www.hotnewdeal.com/2017/07/25/198347_Razer_DeathAdder_Chroma__MultiColor_Ergonomic_Ga/20%Monthly2017-07-25 04:26
http://www.hotnewdeal.com/2017/07/25/198346_Fractal_Design_Core_1100_Black_MATX_Mini_Tower_Com/20%Monthly2017-07-25 04:12
http://www.hotnewdeal.com/2017/07/25/198345_14999_FS_Apple__Apple_TV_32GB_4th_Generation/20%Monthly2017-07-25 02:34
http://www.hotnewdeal.com/2017/07/25/198344_Nike_Vapor_Power_Training_Backpack_36__free_ship/20%Monthly2017-07-25 02:33
http://www.hotnewdeal.com/2017/07/25/198343_New_Markdowns_at_Sierra_Trading_Post__Up_to_94_O/20%Monthly2017-07-25 02:13
http://www.hotnewdeal.com/2017/07/25/198342_ZOTAC_ZBOXSDID12PLUSU_INTEL_ATOM_D525_18GHz_Du/20%Monthly2017-07-25 02:13
http://www.hotnewdeal.com/2017/07/25/198340_Pace_Ready_Meals_Santa_Fe_Style_Steak_with_Black_B/20%Monthly2017-07-25 01:13
http://www.hotnewdeal.com/2017/07/25/198339_Lowes_Bosch_Ascenta_50_Stainless_Steel_485_inclu/20%Monthly2017-07-25 01:13
http://www.hotnewdeal.com/2017/07/25/198338_GamerGate_Bethesda_Summer_Sale_PC__Steam_DRM__/20%Monthly2017-07-25 01:13
http://www.hotnewdeal.com/2017/07/25/198337_Cellucor_2x_C4_30_Servings_60_Servings__Alpha_/20%Monthly2017-07-25 01:13
http://www.hotnewdeal.com/2017/07/25/198336_New_iPad_Pro_105_64GB_599_Staples/20%Monthly2017-07-25 01:13
http://www.hotnewdeal.com/2017/07/25/198335_Zalman_ZMK900M_White_Edition_Gaming_Mechanical_Ke/20%Monthly2017-07-25 01:05
http://www.hotnewdeal.com/2017/07/25/198334_LG_G5_H830_32GB_53_Smartphone_Silver_For_TMob/20%Monthly2017-07-25 00:21
http://www.hotnewdeal.com/2017/07/25/198333_Bobs_Red_Mill_Gluten_Free_Quick_Cooking_Rolled_Oa/20%Monthly2017-07-25 00:21
http://www.hotnewdeal.com/2017/07/25/198332_100_Exxon_Gift_Card_for_93/20%Monthly2017-07-25 00:04
http://www.hotnewdeal.com/2017/07/25/198331_Destiny_2_Limited_Edition__PS4__XBONE_Gamestop_R/20%Monthly2017-07-25 00:04
http://www.hotnewdeal.com/2017/07/24/198330_Xiaomi_Piston_In_Ear_Earphones_Fresh_Version_4__/20%Monthly2017-07-24 23:52
http://www.hotnewdeal.com/2017/07/24/198329_Target_NCAA_Basketball_Beer_Pint_Glass_Set_2_Pac/20%Monthly2017-07-24 23:47
http://www.hotnewdeal.com/2017/07/24/198328_Eastbay_20_Off_Football_Items__Additional_20_O/20%Monthly2017-07-24 23:18
http://www.hotnewdeal.com/2017/07/24/198327_Harman_Kardon_BT_Refurbished_for_100_Shipped/20%Monthly2017-07-24 23:18
http://www.hotnewdeal.com/2017/07/24/198325_Greenworks_24012_7_Amp_Single_Speed_Electric_160_M/20%Monthly2017-07-24 22:57
http://www.hotnewdeal.com/2017/07/24/198324_8Pack_of_1525oz_Campbells_New_England_Clam_Chow/20%Monthly2017-07-24 22:26
http://www.hotnewdeal.com/2017/07/24/198323_WARN_910500_Drill_Winch_500lb_capacity_8389_Pri/20%Monthly2017-07-24 22:26
http://www.hotnewdeal.com/2017/07/24/198322_Digital_Games_Forza_Horizon_3_Blizzard_Mountain_D/20%Monthly2017-07-24 22:07
http://www.hotnewdeal.com/2017/07/24/198321_GIGABYTE_GeForce_GTX_1080_Windforce_DirectX_12_GV/20%Monthly2017-07-24 22:07
http://www.hotnewdeal.com/2017/07/24/198320_Apple__Macbook__12_Display__Intel_Core_M5__8/20%Monthly2017-07-24 21:57
http://www.hotnewdeal.com/2017/07/24/198319_Costco_Members_HP_Envy_x360_Laptop_i7_7500U_13/20%Monthly2017-07-24 21:57
http://www.hotnewdeal.com/2017/07/24/198318_American_Eagle_Outfitters_50_off_Clearance__Ext/20%Monthly2017-07-24 21:57
http://www.hotnewdeal.com/2017/07/24/198317_Logitech__Harmony_650_8Device_Universal_Remote_/20%Monthly2017-07-24 21:42
http://www.hotnewdeal.com/2017/07/24/198316_LG_75_4K_UHD_HDR_TV_UJ6470_1600_w_Monday_Pro/20%Monthly2017-07-24 21:30
http://www.hotnewdeal.com/2017/07/24/198315_TCL_49S405_49_inch_UHD_ROKU_TV_w_HDR10_for_3199/20%Monthly2017-07-24 21:04
http://www.hotnewdeal.com/2017/07/24/198314_Today_Only_Save_Up_to_58_on_Cookware_Items_at_Sur/20%Monthly2017-07-24 20:35
http://www.hotnewdeal.com/2017/07/24/198313_Mass_Effect_Andromeda_20_PS4XBox_OnePC_InSto/20%Monthly2017-07-24 20:35
http://www.hotnewdeal.com/2017/07/24/198312_Stansport_Cast_Iron_Camp_Fire_Tripod_957__Walma/20%Monthly2017-07-24 20:11
http://www.hotnewdeal.com/2017/07/24/198311_Oneida_Christmas_in_July_Sale_Up_to_80_Off__Fre/20%Monthly2017-07-24 20:11
http://www.hotnewdeal.com/2017/07/24/198310_Walmart__Twin_or_Queen_Intex_Air_Mattresses_for_/20%Monthly2017-07-24 20:10
http://www.hotnewdeal.com/2017/07/24/198309_ESQ_by_Movado__129__Free_Shipping_at_Ashford/20%Monthly2017-07-24 19:55
http://www.hotnewdeal.com/2017/07/24/198308_Marvel_Vs_Capcom_Infinite__2899_PC/20%Monthly2017-07-24 19:55
http://www.hotnewdeal.com/2017/07/24/198307_Walmart__MTM_ACR418_Amm0_Crate_Utility_Box__11/20%Monthly2017-07-24 19:46
http://www.hotnewdeal.com/2017/07/24/198306_Sun_Joe_ION16LM_40V_40_Ah_Cordless_LithiumIon_16/20%Monthly2017-07-24 19:46
http://www.hotnewdeal.com/2017/07/24/198305_VUDU_Mix__Match_The_Simpsons_2_Seasons_for_199/20%Monthly2017-07-24 19:35
http://www.hotnewdeal.com/2017/07/24/198304_Royal_Velvet_400ct_WrinkleGuard_Sateen_Sheet_Set_/20%Monthly2017-07-24 19:35
http://www.hotnewdeal.com/2017/07/24/198303_Croft__Barrow_Mens_Sandals_4_styles_1360__f/20%Monthly2017-07-24 19:34
http://www.hotnewdeal.com/2017/07/24/198302_Amazon__MTM_ACR872_Ammo_Crate_Utility_Box_1242/20%Monthly2017-07-24 19:20
http://www.hotnewdeal.com/2017/07/24/198301_BUYDIG_has_a_10_off_clearance_code__mostly_OPEN_/20%Monthly2017-07-24 19:20
http://www.hotnewdeal.com/2017/07/24/198300_SoundPal_SonoBass_Wireless_OverEar_Headphones_22/20%Monthly2017-07-24 19:19
http://www.hotnewdeal.com/2017/07/24/198299_Bio_Bidet_USPA_6800_Luxury_Bidet_Seat_24999_Cost/20%Monthly2017-07-24 19:03
http://www.hotnewdeal.com/2017/07/24/198298_FisherPrice_Tough_Trike_15__Free_InStore_Picku/20%Monthly2017-07-24 18:53
http://www.hotnewdeal.com/2017/07/24/198297_JBM_Knee_Compression_Sleeve_Support__550/20%Monthly2017-07-24 18:53
http://www.hotnewdeal.com/2017/07/24/198296_Waluigi_and_Waddle_Dee_Amiibo_479_with_Best_Buy_/20%Monthly2017-07-24 18:53
http://www.hotnewdeal.com/2017/07/24/198295_LEGO_Apollo_Saturn_Vue_Rocket/20%Monthly2017-07-24 18:42
http://www.hotnewdeal.com/2017/07/24/198294_Lancme_Audacity_in_Paris_Eye_Shadow_Palette__/20%Monthly2017-07-24 18:42
http://www.hotnewdeal.com/2017/07/24/198293_CharBroil_Stainless_Steel_Portable_Gas_Grill_39/20%Monthly2017-07-24 18:31
http://www.hotnewdeal.com/2017/07/24/198292_Lutron_LZL4BWHL01_Connected_Bulb_Remote_1495/20%Monthly2017-07-24 18:31
http://www.hotnewdeal.com/2017/07/24/198291_Fender_Johnny_Marr_Jaguar_Electric_Guitar_1200__/20%Monthly2017-07-24 18:22
http://www.hotnewdeal.com/2017/07/24/198290_PowerBlock_Personal_Trainer_Adjustable_Dumbbell_Se/20%Monthly2017-07-24 18:21
http://www.hotnewdeal.com/2017/07/24/198289_Jetcom_Select_Electronics_Coupon_25_Off_150_or/20%Monthly2017-07-24 18:10
http://www.hotnewdeal.com/2017/07/24/198288_Cooler_Master_MasterKeys_Pro_L_RGB_Mechanical_Keyb/20%Monthly2017-07-24 17:25
http://www.hotnewdeal.com/2017/07/24/198286_Gatorade_Original_Thirst_Quencher_Variety_Pack_20/20%Monthly2017-07-24 17:12
http://www.hotnewdeal.com/2017/07/24/198285_CheezIt_Baked_Snack_Crackers_Original_Crackers_/20%Monthly2017-07-24 17:00
http://www.hotnewdeal.com/2017/07/24/198284_Blackstar_ID_Core_Stereo_10W_Guitar_Amplifier_60/20%Monthly2017-07-24 17:00
http://www.hotnewdeal.com/2017/07/24/198283_Pelican_ProGear_35qt_Eliet_35qt_elite_cooler_3235/20%Monthly2017-07-24 17:00
http://www.hotnewdeal.com/2017/07/24/198282_Dickies_Mens_Slim_Straight_Poplin_Pants_3_for_35/20%Monthly2017-07-24 16:52
http://www.hotnewdeal.com/2017/07/24/198281_Mantova_Grapeseed_Oil_17Ounce_Bottles_Pack_of_4/20%Monthly2017-07-24 16:46
http://www.hotnewdeal.com/2017/07/24/198280_Warriors_Team_Store_Jerseys/20%Monthly2017-07-24 16:32
http://www.hotnewdeal.com/2017/07/24/198279_Waterproof_Case_Dry_Pouch_for_Iphone_76s_Plus_Sa/20%Monthly2017-07-24 16:31
http://www.hotnewdeal.com/2017/07/24/198278_Prime_Members_First_Amazon_Restaurants_Order_15_/20%Monthly2017-07-24 16:22
http://www.hotnewdeal.com/2017/07/24/198277_Gladiator_36In_Tall_Mobile_GearBox_Cabinet__18/20%Monthly2017-07-24 16:02
http://www.hotnewdeal.com/2017/07/24/198276_Bed_Pillows_Only_263_at_Target_Today_only_07/20%Monthly2017-07-24 16:01
http://www.hotnewdeal.com/2017/07/24/198275_Warm_Jetcom_Ryzen_1700X_as_low_as_26441_or_l/20%Monthly2017-07-24 15:46
http://www.hotnewdeal.com/2017/07/24/198274_Stanley_64oz_Classic_Vacuum_Insulated_Stainless_St/20%Monthly2017-07-24 15:38
http://www.hotnewdeal.com/2017/07/24/198273_Dual_cigarette_adapter_and_USB_car_charger_for_9/20%Monthly2017-07-24 15:37
http://www.hotnewdeal.com/2017/07/24/198272_Lynec_10_Pack_ISO__CE_Certified_Solar_Eclipse_Vie/20%Monthly2017-07-24 15:37
http://www.hotnewdeal.com/2017/07/24/198271_iPhone_7_Plus_Screen_Protector_096__Amazon__FS/20%Monthly2017-07-24 15:28
http://www.hotnewdeal.com/2017/07/24/198270_Sensors_for_Samsung_SmartThings_Visonic_WindowDo/20%Monthly2017-07-24 15:27
http://www.hotnewdeal.com/2017/07/24/198269_Thrustmaster_TMX_Force_Feedback_Racing_Wheel_for_X/20%Monthly2017-07-24 15:27
http://www.hotnewdeal.com/2017/07/24/198268_3Pack_Westcott_All_Purpose_Value_Scissors_Straig/20%Monthly2017-07-24 15:19
http://www.hotnewdeal.com/2017/07/24/198267_PlayStation_4_Camera_30AC/20%Monthly2017-07-24 15:19
http://www.hotnewdeal.com/2017/07/24/198266_Amazon_Sale_on_Nintendo_Switch_Tempered_Glass_Scre/20%Monthly2017-07-24 15:10
http://www.hotnewdeal.com/2017/07/24/198265_Horizon_Zero_Dawn__30__FS/20%Monthly2017-07-24 15:10
http://www.hotnewdeal.com/2017/07/24/198264_Dorco_USA_Mens_Pace_7_Razor_Combo_Set_1_Handle_/20%Monthly2017-07-24 15:10
http://www.hotnewdeal.com/2017/07/24/198263_LG_24_Monitor__1080p_IPS_Freesync_75hz__12999/20%Monthly2017-07-24 15:10
http://www.hotnewdeal.com/2017/07/24/198262_Dollar_General_Coupon_20_off__free_shipping_on_/20%Monthly2017-07-24 15:10
http://www.hotnewdeal.com/2017/07/24/198261_Sclafani_Crushed_Tomatoes_28_Ounce_Pack_of_12_f/20%Monthly2017-07-24 15:10
http://www.hotnewdeal.com/2017/07/24/198260_12_Month_Microsoft_Xbox_Live_Gold_Membership_Emai/20%Monthly2017-07-24 14:56
http://www.hotnewdeal.com/2017/07/24/198259_Universal_longarm_cell_phone_car_mount__792_AC/20%Monthly2017-07-24 14:47
http://www.hotnewdeal.com/2017/07/24/198258_Samsung_50_4K_50MU6300__175_Dell_GC__600/20%Monthly2017-07-24 14:47
http://www.hotnewdeal.com/2017/07/24/198257_Aroma_Housewares_20Cup_Cooked_Digital_Rice_Cook/20%Monthly2017-07-24 14:40
http://www.hotnewdeal.com/2017/07/24/198256_Bonobos_Extra_40_Off_Final_Sale_Items_Plus_Free_/20%Monthly2017-07-24 14:40
http://www.hotnewdeal.com/2017/07/24/198255_School_Supplies_24Ct_Crayola_Crayons_040_10C/20%Monthly2017-07-24 14:39
http://www.hotnewdeal.com/2017/07/24/198254_Chillax_double_travel_hammock_1497_at_Costco/20%Monthly2017-07-24 14:25
http://www.hotnewdeal.com/2017/07/24/198253_Waggo_Dog_Leashes_450_Choose_Seeing_Stars_or_Pla/20%Monthly2017-07-24 14:18
http://www.hotnewdeal.com/2017/07/24/198252_Landmann_USA_Big_Sky_Steel_Wildlife_Fire_Ring__9/20%Monthly2017-07-24 14:17
http://www.hotnewdeal.com/2017/07/24/198251_Shakespeare_Micro_Series_46_Ft_Spinning_Combo_5/20%Monthly2017-07-24 14:08
http://www.hotnewdeal.com/2017/07/24/198250_49_LG_49UH6030_4K_UHD_Smart_LED_HDTV__150_Dell_/20%Monthly2017-07-24 14:08
http://www.hotnewdeal.com/2017/07/24/198249_Corsair_k70_cherry_blue_6000_refurb/20%Monthly2017-07-24 14:08
http://www.hotnewdeal.com/2017/07/24/198248_Target_Doc_McStuffins_Rosie_The_Rescuer_Toy_17/20%Monthly2017-07-24 14:03
http://www.hotnewdeal.com/2017/07/24/198247_Acer_Aspire_GX785UR18_VR_Ready_Gaming_Desktop_PC/20%Monthly2017-07-24 13:59
http://www.hotnewdeal.com/2017/07/24/198246_Monoprice_PS4_Two_Controller_Charging_Dock_325_O/20%Monthly2017-07-24 13:48
http://www.hotnewdeal.com/2017/07/24/198245_Xbox_One_S_1TB_Battlefield_bundle_23999_via_ebay/20%Monthly2017-07-24 13:48
http://www.hotnewdeal.com/2017/07/24/198244_Fiesta_Dinnerware_5Pc_or_4Pc_Place_Setting_16ea/20%Monthly2017-07-24 13:48
http://www.hotnewdeal.com/2017/07/24/198243_Hautelook_47_Off_Allen_Edmonds_Event__Mens_Sho/20%Monthly2017-07-24 13:40
http://www.hotnewdeal.com/2017/07/24/198242_153Oz_Honey_Smacks_122Oz_Apple_Jacks_112Oz/20%Monthly2017-07-24 13:33
http://www.hotnewdeal.com/2017/07/24/198241_BenQ_GW2270_215_Screen_LEDLit_Monitor_for_69/20%Monthly2017-07-24 13:33
http://www.hotnewdeal.com/2017/07/24/198240_iPhone_7_6s_6_Tempered_Glass_Screen_Protector_2pa/20%Monthly2017-07-24 13:25
http://www.hotnewdeal.com/2017/07/24/198239_179_Fidget_Spinner_Premium_Bearing_Free_Shippi/20%Monthly2017-07-24 13:18
http://www.hotnewdeal.com/2017/07/24/198238_NETGEAR_Orbi_AC3000_Triband_WiFi_System_3_Pack/20%Monthly2017-07-24 13:18
http://www.hotnewdeal.com/2017/07/24/198237_Annke_M108_Black_Wireless_Doorbell_Portable_Door_C/20%Monthly2017-07-24 13:09
http://www.hotnewdeal.com/2017/07/24/198236_VicTsing_MM057_24G_Wireless_6Button_Mouse_6/20%Monthly2017-07-24 13:09
http://www.hotnewdeal.com/2017/07/24/198233_LEGO_Star_Wars_Rebel_UWing_Fighter_at_Walmart_BM/20%Monthly2017-07-24 12:56
http://www.hotnewdeal.com/2017/07/24/198232_M3D_3D_Printer__5_Spools_of_Filament_in_4_color_o/20%Monthly2017-07-24 12:32
http://www.hotnewdeal.com/2017/07/24/198231_10_or_20_eGift_Cards_for_Movie_Rentals_at_Redbox/20%Monthly2017-07-24 12:32
http://www.hotnewdeal.com/2017/07/24/198230_Graco_Pack_n_Play_Quilted_Playard_Sheet_Cream_fo/20%Monthly2017-07-24 12:32
http://www.hotnewdeal.com/2017/07/24/198229_Fluke_174_True_RMS_DMM_email_promo_11900/20%Monthly2017-07-24 12:32
http://www.hotnewdeal.com/2017/07/24/198228_DOOM__Includes_All_DLC_Online_Game_Code_13AC/20%Monthly2017-07-24 12:32
http://www.hotnewdeal.com/2017/07/24/198226_Chain_Puzzle_EDC_Focus_Toy_010__free_shipping/20%Monthly2017-07-24 11:59
http://www.hotnewdeal.com/2017/07/24/198225_Get_a_100_BabiesRUs_Gift_Card_for_only_85__Em/20%Monthly2017-07-24 11:59
http://www.hotnewdeal.com/2017/07/24/198224_No_Tools_Accent_Table_Espresso__Room_Essentials_/20%Monthly2017-07-24 11:59
http://www.hotnewdeal.com/2017/07/24/198223_Power_Outlet_Splitter_Short_Extension_4_Power_Cor/20%Monthly2017-07-24 11:48
http://www.hotnewdeal.com/2017/07/24/198222_PS4_Vertical_Stand_Cooling_Fan_Dual_Charging_Stati/20%Monthly2017-07-24 11:47
http://www.hotnewdeal.com/2017/07/24/198221_Canon_imageCLASS_MF236N_AllinOne_Laser_Printer_/20%Monthly2017-07-24 11:39
http://www.hotnewdeal.com/2017/07/24/198220_Refurbished_ZOTAC_ZBOXNANOVD01P_VIA_DualCore_fo/20%Monthly2017-07-24 11:33
http://www.hotnewdeal.com/2017/07/24/198219_Crucial_Ballistix_Sport_16GB_Kit_4GBx4_DDR4_2400/20%Monthly2017-07-24 11:32
http://www.hotnewdeal.com/2017/07/24/198218_Paul_Mitchell_Lavender_Mint_Deep_Conditioning_Mine/20%Monthly2017-07-24 11:32
http://www.hotnewdeal.com/2017/07/24/198217_Stearns_Puddle_Jumper_Deluxe_Life_Jacket_Maui_Seri/20%Monthly2017-07-24 11:32
http://www.hotnewdeal.com/2017/07/24/198216_Slumber_1_8_Comfort_Spring_Mattress_Walmart_FREE_/20%Monthly2017-07-24 11:24
http://www.hotnewdeal.com/2017/07/24/198215_Packable_Lightweight_Travel_Hiking_Backpack_20L_V/20%Monthly2017-07-24 11:17
http://www.hotnewdeal.com/2017/07/24/198214_Coupon_to_Open_a_new_checking_and_new_savings_acco/20%Monthly2017-07-24 11:09
http://www.hotnewdeal.com/2017/07/24/198213_Vantrue_X1_Car_Dash_Cam__6748_Amazon/20%Monthly2017-07-24 11:09
http://www.hotnewdeal.com/2017/07/24/198212_YI_Technology_Action_Camera_Black_or_White_549/20%Monthly2017-07-24 11:09
http://www.hotnewdeal.com/2017/07/24/198211_Pyle_52_curved_300w_Light_Bar__5546__Walmart_/20%Monthly2017-07-24 10:55
http://www.hotnewdeal.com/2017/07/24/198210_Fujifilm_XT1_799__Includes_Free_39900_Fujifilm/20%Monthly2017-07-24 10:38
http://www.hotnewdeal.com/2017/07/24/198209_Interplay_Staycation_PCDD_Sale_Star_Trek_25th_An/20%Monthly2017-07-24 10:31
http://www.hotnewdeal.com/2017/07/24/198208_Intex_DuraBeam_Series_Elevated_Comfort_Airbed_w_/20%Monthly2017-07-24 10:16
http://www.hotnewdeal.com/2017/07/24/198207_Chemical_Guys_Body_and_Wheel_Flagged_Tip_Short_Han/20%Monthly2017-07-24 10:07
http://www.hotnewdeal.com/2017/07/24/198206_Paul_Mitchell_The_Conditioner_10oz_388_Amazon_Ad/20%Monthly2017-07-24 09:59
http://www.hotnewdeal.com/2017/07/24/198205_Disney_Infinity_30_Edition_Starter_Pack_various_/20%Monthly2017-07-24 09:58
http://www.hotnewdeal.com/2017/07/24/198204_Lakewood_Organic_Juice_Blend_Kale_Plus_Beet_125/20%Monthly2017-07-24 09:58
http://www.hotnewdeal.com/2017/07/24/198203_Walmart__Large_Schnauzer_Puppy_Dog_Plush_Toy_24_/20%Monthly2017-07-24 09:58
http://www.hotnewdeal.com/2017/07/24/198202_HP_Spectre_13w013_Intel_Core_i77500U_133_2in/20%Monthly2017-07-24 09:48
http://www.hotnewdeal.com/2017/07/24/198201_Tokina_1228mm_f40_ATX_Pro_APSC_Lens_for_Canon/20%Monthly2017-07-24 09:32
http://www.hotnewdeal.com/2017/07/24/198200_Select_CamelBak_Products_Up_to_45_Off_2016_Skyli/20%Monthly2017-07-24 09:17
http://www.hotnewdeal.com/2017/07/24/198199_MotorStorm_Apocalypse__PS3_Digital_Code__4__/20%Monthly2017-07-24 09:13
http://www.hotnewdeal.com/2017/07/24/198198_Amazon_prime_Cottonelle_FreshCare_Flushable_Clean/20%Monthly2017-07-24 09:09
http://www.hotnewdeal.com/2017/07/24/198197_Best_buy_Microsoft__Surface_Pro_4_with_Black_Type/20%Monthly2017-07-24 08:56
http://www.hotnewdeal.com/2017/07/24/198196_Star_Wars_DartBoards_Bristle_25_Paper_wound_5_w/20%Monthly2017-07-24 08:55
http://www.hotnewdeal.com/2017/07/24/198195_55_Hisense_55DU6070_4K_UHD_Smart_LED_HDTV_39999/20%Monthly2017-07-24 08:38
http://www.hotnewdeal.com/2017/07/24/198194_Lenovo_IdeaCentre_510A_Desktop_PC_AMD_A129800_Qu/20%Monthly2017-07-24 08:16
http://www.hotnewdeal.com/2017/07/24/198193_amazon_warehouse_ARRIS_SURFboard_DOCSIS_30_Cable_/20%Monthly2017-07-24 07:58
http://www.hotnewdeal.com/2017/07/24/198192_Addon_Item_Grove_Square_Cappuccino_French_Vanil/20%Monthly2017-07-24 07:58
http://www.hotnewdeal.com/2017/07/24/198191_Target_Free_40_Target_Gift_card_when_you_spend_/20%Monthly2017-07-24 07:09
http://www.hotnewdeal.com/2017/07/24/198190_Sennheiser_HD558_Audiophile_Over_The_Ear_Headphone/20%Monthly2017-07-24 06:09
http://www.hotnewdeal.com/2017/07/24/198189_Corsair_Crystal_Series_570X_RGB_CC9011098WW_Stee/20%Monthly2017-07-24 06:09
http://www.hotnewdeal.com/2017/07/24/198188_Amazon_Echo__2_for_15998_making_them_7999_ea/20%Monthly2017-07-24 05:08
http://www.hotnewdeal.com/2017/07/24/198187_LG_G6_US997_Unlocked_44999_Best_Buy/20%Monthly2017-07-24 05:07
http://www.hotnewdeal.com/2017/07/24/198186_Sony_DualShock_4_Wireless_Controller_Starter_Kit_/20%Monthly2017-07-24 05:07
http://www.hotnewdeal.com/2017/07/24/198185_999_Craftsman_Hand_Sledge_Hammer/20%Monthly2017-07-24 04:29
http://www.hotnewdeal.com/2017/07/24/198184_Orbit_NA_12Station_IndoorOutdoor_Irrigation_Time/20%Monthly2017-07-24 04:08
http://www.hotnewdeal.com/2017/07/24/198182_Dunkin_Donuts_DDPerks_Rewards_Reload_10_Balance_/20%Monthly2017-07-24 03:29
http://www.hotnewdeal.com/2017/07/24/198181_Corsair_K65_LUX_RGB_Mechanical_Gaming_Keyboard_w_/20%Monthly2017-07-24 03:23
http://www.hotnewdeal.com/2017/07/24/198180_Dell_E515dw_Mono_Laser_Printer_7999_at_staples/20%Monthly2017-07-24 03:23
http://www.hotnewdeal.com/2017/07/24/198179_Best_buy_Nespresso__VertuoLine_Espresso_Maker_an/20%Monthly2017-07-24 03:08
http://www.hotnewdeal.com/2017/07/24/198178_Lifesmart_6_Element_1500W_Max_Infrared_Quartz_Heat/20%Monthly2017-07-24 03:07
http://www.hotnewdeal.com/2017/07/24/198177_Macbook_pro_2017_150_off_from_bestbuy/20%Monthly2017-07-24 02:29
http://www.hotnewdeal.com/2017/07/24/198176_48Pack_Green_Mountain_Coffee_Pumpkin_Spice_KCups/20%Monthly2017-07-24 02:29
http://www.hotnewdeal.com/2017/07/24/198175_50_Nintendo_eShop_Gift_Card__10_Bonus_Nintendo_/20%Monthly2017-07-24 02:08
http://www.hotnewdeal.com/2017/07/24/198174_Apple_iPad_Wifi_32GB_27999_Best_Buy/20%Monthly2017-07-24 02:08
http://www.hotnewdeal.com/2017/07/24/198172_Logitech__Performance_Mouse_MX__Black_40/20%Monthly2017-07-24 02:08
http://www.hotnewdeal.com/2017/07/24/198171_238_Lenovo_2560x1440_IPS_LED_Monitor_170__Free/20%Monthly2017-07-24 02:08
http://www.hotnewdeal.com/2017/07/24/198170_Dome_ZWave_valvewater_sensor_10497_shipped_no_/20%Monthly2017-07-24 02:08
http://www.hotnewdeal.com/2017/07/24/198169_iON_IPA77_Audio_Tailgater_Bluetooth_Speaker_Cleara/20%Monthly2017-07-24 01:07
http://www.hotnewdeal.com/2017/07/23/198168_Inside_PS4_1199_digital_download/20%Monthly2017-07-23 23:58
http://www.hotnewdeal.com/2017/07/23/198167_DOOM_PC_Digital_Download_for_1298/20%Monthly2017-07-23 23:09
http://www.hotnewdeal.com/2017/07/23/198166_Wolfenstein_The_Old_Blood__PC_Steam_Key__398_/20%Monthly2017-07-23 23:09
http://www.hotnewdeal.com/2017/07/23/198165_Barneys_Warehouse_Addtl_70_Off_Select_Sale_Bar/20%Monthly2017-07-23 22:55
http://www.hotnewdeal.com/2017/07/23/198164_Livewire_HA04_4Channel_Stereo_Headphone_Amplifier/20%Monthly2017-07-23 22:55
http://www.hotnewdeal.com/2017/07/23/198163_Blendtec_Total_Blender_with_Wildside__Jar_22999/20%Monthly2017-07-23 22:39
http://www.hotnewdeal.com/2017/07/23/198162_Boston_to_Nashville_or_Vice_Versa_129_RT_Nonstop_/20%Monthly2017-07-23 21:09
http://www.hotnewdeal.com/2017/07/23/198161_Nike_Modern_Waffle_Fleece_Sweatshirt_14_Kohls/20%Monthly2017-07-23 21:09
http://www.hotnewdeal.com/2017/07/23/198159_Rocket_League__PC__CDkeyscom__879/20%Monthly2017-07-23 20:56
http://www.hotnewdeal.com/2017/07/23/198158_Target_YMMV_BM_Energizer_Eco_Advanced_8_Pack_AA_/20%Monthly2017-07-23 20:47
http://www.hotnewdeal.com/2017/07/23/198157_Artix_Bicycle_Mount__Phone_Holder_for_Bike__Crad/20%Monthly2017-07-23 20:46
http://www.hotnewdeal.com/2017/07/23/198156_Tetley_Green_Tea_72_Tea_Bags_280_AddOn_or_SS_5/20%Monthly2017-07-23 20:38
http://www.hotnewdeal.com/2017/07/23/198154_ASUS_ROG_STRIX_RX570_4GB_18999_after_coupon_w_f/20%Monthly2017-07-23 20:32
http://www.hotnewdeal.com/2017/07/23/198153_Certified_Refurbished_XPS_13_9350__i7_69432_AC_/20%Monthly2017-07-23 19:59
http://www.hotnewdeal.com/2017/07/23/198152_Ryzen_5_1600_for_185_with_free_shipping/20%Monthly2017-07-23 19:39
http://www.hotnewdeal.com/2017/07/23/198151_Newegg_Headphones_Philips_SHP9500S_50_Free_Shipp/20%Monthly2017-07-23 19:39
http://www.hotnewdeal.com/2017/07/23/198150_Bissell_Pet_Oxy_Boost_for_Carpet_Cleaners__299_/20%Monthly2017-07-23 19:32
http://www.hotnewdeal.com/2017/07/23/198149_Universal_Waterproof_Case_puch_dry_bag_2_pack_3/20%Monthly2017-07-23 19:18
http://www.hotnewdeal.com/2017/07/23/198148_6PMcom_Extra_25_Off_Select_Clearance/20%Monthly2017-07-23 19:18
http://www.hotnewdeal.com/2017/07/23/198146_225_GIGABYTE_GeForce_GTX_1060_3GB_192Bit_GDDR5_f/20%Monthly2017-07-23 19:08
http://www.hotnewdeal.com/2017/07/23/198145_TPLink_TC7650E_24x8_DOCSIS_30_Cable_Modem_69/20%Monthly2017-07-23 18:46
http://www.hotnewdeal.com/2017/07/23/198144_BM_select_states_only_rebate_on_select_paint_1/20%Monthly2017-07-23 18:17
http://www.hotnewdeal.com/2017/07/23/198143_115_in_Stackable_Deal_with_AMEX_at_1800Contacts/20%Monthly2017-07-23 18:17
http://www.hotnewdeal.com/2017/07/23/198141_Thule_Urban_Glide_Mars_Red_Jogging_Stroller__2/20%Monthly2017-07-23 17:59
http://www.hotnewdeal.com/2017/07/23/198140_Torchstar_35W_LED_Outdoor_Barn_Light_w_Photocell_/20%Monthly2017-07-23 17:40
http://www.hotnewdeal.com/2017/07/23/198139_Bobs_Red_Mill_Millet_GritsMeal__16_oz__216_/20%Monthly2017-07-23 17:32
http://www.hotnewdeal.com/2017/07/23/198138_SODIAL_Water_Resistant_Super_Bright_Mini_Flashligh/20%Monthly2017-07-23 17:24
http://www.hotnewdeal.com/2017/07/23/198137_LG_55SJ8500__55inch_Super_UHD_4K_HDR_Smart_LED_T/20%Monthly2017-07-23 17:17
http://www.hotnewdeal.com/2017/07/23/198136_Gardeners_Blue_Ribbon_PP36_Plant_Prop_36Inch_Ta/20%Monthly2017-07-23 17:09
http://www.hotnewdeal.com/2017/07/23/198135_Addon_Item_42oz_Orajel_SpiderMan_Anticavity_Fl/20%Monthly2017-07-23 17:08
http://www.hotnewdeal.com/2017/07/23/198134_Tax_free_online_military_exchange_honorably_disch/20%Monthly2017-07-23 17:08
http://www.hotnewdeal.com/2017/07/23/198133_28_Ounce_Elmers_Extra_Strength_Office_Glue_Stick/20%Monthly2017-07-23 16:56
http://www.hotnewdeal.com/2017/07/23/198132_Pioneer_AVIC8200NEX_7_Navigation_Touchscreen_Rec/20%Monthly2017-07-23 16:55
http://www.hotnewdeal.com/2017/07/23/198131_Westone_UM_Pro30_Earphones_26999/20%Monthly2017-07-23 16:23
http://www.hotnewdeal.com/2017/07/23/198130_BLACK__DECKER_20Volt_Max_10in_Straight_Cordless/20%Monthly2017-07-23 16:08
http://www.hotnewdeal.com/2017/07/23/198129_Metal_Gear_Solid_V_The_Definitive_Experience_PS4/20%Monthly2017-07-23 15:40
http://www.hotnewdeal.com/2017/07/23/198128_Logitech__G302_Daedalus_Prime_Optical_Mouse__Bla/20%Monthly2017-07-23 15:40
http://www.hotnewdeal.com/2017/07/23/198127_Giant_Uno_Card_Game_198__Free_Shipping_w_Prime/20%Monthly2017-07-23 15:17
http://www.hotnewdeal.com/2017/07/23/198125_Fiskars_8_Inch_The_Original_OrangeHandled_Scissor/20%Monthly2017-07-23 14:56
http://www.hotnewdeal.com/2017/07/23/198124_Stanley_Classic_Vacuum_Insulated_Growler_64OZ_13/20%Monthly2017-07-23 14:38
http://www.hotnewdeal.com/2017/07/23/198123_Peak_PKC0C15G_15_Amp_Smart_Charger_with_Inflator_/20%Monthly2017-07-23 14:38
http://www.hotnewdeal.com/2017/07/23/198122_Verizon_32GB_Google_Pixel_XL_for_1766Month_and_G/20%Monthly2017-07-23 14:17
http://www.hotnewdeal.com/2017/07/23/198121_Amazon_Contigo_AUTOSEAL_16oz_Travel_Mug_9/20%Monthly2017-07-23 14:17
http://www.hotnewdeal.com/2017/07/23/198120_Coleman_1Burner_Tabletop_Butane_Camp_Stove__back/20%Monthly2017-07-23 14:17
http://www.hotnewdeal.com/2017/07/23/198119_100_iTunes_gift_card_for_85_and_50_GC_for_425/20%Monthly2017-07-23 14:16
http://www.hotnewdeal.com/2017/07/23/198118_AMD_Ryzen_5_1400_CPU_and_Gigabyte_AB350N_ITX_Wifi_/20%Monthly2017-07-23 14:08
http://www.hotnewdeal.com/2017/07/23/198117_Bloomingdales_Up_to_75_Off_Clearance_Fashion_K/20%Monthly2017-07-23 14:07
http://www.hotnewdeal.com/2017/07/23/198116_Seiko_Mens_SNE047_TwoTone_Solar_Black_Dial_Watch/20%Monthly2017-07-23 13:59
http://www.hotnewdeal.com/2017/07/23/198115_Dorco_Pace_6_Plus_Shaving_Cartridges_6_Packs_24_T/20%Monthly2017-07-23 13:59
http://www.hotnewdeal.com/2017/07/23/198114_1799_star_wars_Original_trilogy_episodes_ivvi_/20%Monthly2017-07-23 13:59
http://www.hotnewdeal.com/2017/07/23/198113_Northwest_Territory_5lb_Adult_XL_Oversized_Sleepi/20%Monthly2017-07-23 13:58
http://www.hotnewdeal.com/2017/07/23/198112_Trine_Bundle_Trine_Enhanced_Edition__Trine_2_Co/20%Monthly2017-07-23 13:58
http://www.hotnewdeal.com/2017/07/23/198111_GIGABYTE_GAAX370Gaming__Free_Deepcool_Dukase_WH/20%Monthly2017-07-23 13:32
http://www.hotnewdeal.com/2017/07/23/198110_Dell_C1760nw_Color_Laser_Printer__7499__Staple/20%Monthly2017-07-23 13:24
http://www.hotnewdeal.com/2017/07/23/198109_Octavia_E_Butler_Earthseed_The_Complete_Series_/20%Monthly2017-07-23 13:18
http://www.hotnewdeal.com/2017/07/23/198108_Yamaha_RXA770BL_379_at_Frys_Free_Shipping/20%Monthly2017-07-23 13:17
http://www.hotnewdeal.com/2017/07/23/198107_FisherPrice_Thomas__Friends_Wooden_Railway_Santa/20%Monthly2017-07-23 13:17
http://www.hotnewdeal.com/2017/07/23/198106_Delta_Children_Abby_4in1_Convertible_Crib_Grey_/20%Monthly2017-07-23 13:09
http://www.hotnewdeal.com/2017/07/23/198105_Amazon_Prime_Contigo_AUTOSEAL_16oz_1261/20%Monthly2017-07-23 13:09
http://www.hotnewdeal.com/2017/07/23/198104_Tim_Hortons_100_Arabica_Medium_Roast_Original_Bl/20%Monthly2017-07-23 12:55
http://www.hotnewdeal.com/2017/07/23/198103_Steiner_10x42_Predator_Binocular_25999__BH_Pho/20%Monthly2017-07-23 12:55
http://www.hotnewdeal.com/2017/07/23/198102_Bright_Starts_Shake_Spin_Activity_Balls_Toy_for_/20%Monthly2017-07-23 12:46
http://www.hotnewdeal.com/2017/07/23/198101_Hoover_WindTunnel_2_High_Capacity_Pet_Bagless_Upri/20%Monthly2017-07-23 12:31
http://www.hotnewdeal.com/2017/07/23/198100_Microsoft_Surface_Book_Bundle_With_Surface_Dock__/20%Monthly2017-07-23 12:23
http://www.hotnewdeal.com/2017/07/23/198099_QSee_8_Ch_Analog_Surveillance_System_w_6x_4_MP_/20%Monthly2017-07-23 12:16
http://www.hotnewdeal.com/2017/07/23/198098_5_digital_movies_to_own_in_HD__Amazon_Video__Ba/20%Monthly2017-07-23 12:07
http://www.hotnewdeal.com/2017/07/23/198097_Disney_Junior_Encyclopedia_of_Animated_Characters_/20%Monthly2017-07-23 12:07
http://www.hotnewdeal.com/2017/07/23/198096_Staples_weekly_ad_723729__750_sheet_reams_04/20%Monthly2017-07-23 11:53
http://www.hotnewdeal.com/2017/07/23/198095_Large_Puppy_Plush_Toy_Bull_Dog_21_5_Reg_20/20%Monthly2017-07-23 11:47
http://www.hotnewdeal.com/2017/07/23/198094_50_Groupon_Gift_Card_for_45_at_Paypal_Digital_Gi/20%Monthly2017-07-23 11:47
http://www.hotnewdeal.com/2017/07/23/198093_Lego_Town_Fun_in_the_Park_People_Pack_24_lowest_/20%Monthly2017-07-23 11:47
http://www.hotnewdeal.com/2017/07/23/198092_InStore_BacktoSchool_Penny_Deals_Poly_Cover_No/20%Monthly2017-07-23 11:47
http://www.hotnewdeal.com/2017/07/23/198091_Random_birdseed_deal_Wagners_Finches_Deluxe_Blen/20%Monthly2017-07-23 11:24
http://www.hotnewdeal.com/2017/07/23/198090_Samsung_Galaxy_S8_64gb_Unlocked_Midnight_Black_/20%Monthly2017-07-23 11:24
http://www.hotnewdeal.com/2017/07/23/198089_1Lb_Hoosier_Hill_Farm_Heavy_Cream_Powder_Jar_49/20%Monthly2017-07-23 10:46
http://www.hotnewdeal.com/2017/07/23/198088_HP_200_Wireless_Optical_Mouse_8/20%Monthly2017-07-23 10:46
http://www.hotnewdeal.com/2017/07/23/198087_Segway_miniPRO_Personal_Transporter_Black_or_White/20%Monthly2017-07-23 10:45
http://www.hotnewdeal.com/2017/07/23/198086_Latest_Gen_iMac_21_with_Retina_Display__Best_Buy/20%Monthly2017-07-23 10:37
http://www.hotnewdeal.com/2017/07/23/198085_Panasonic_ER430K_Ear__Nose_Trimmer_w_Vacuum_Clea/20%Monthly2017-07-23 10:37
http://www.hotnewdeal.com/2017/07/23/198084_Samsung_HWM360ZA_21_Channel_200_Watt_Wireless_A/20%Monthly2017-07-23 10:37
http://www.hotnewdeal.com/2017/07/23/198083_4K_Ultra_HD_Bluray_Movies_Lucy_Passengers_Sica/20%Monthly2017-07-23 10:30
http://www.hotnewdeal.com/2017/07/23/198082_KCups_Sale_90Count_Eight_OClock_Coffee_KCups_/20%Monthly2017-07-23 10:07
http://www.hotnewdeal.com/2017/07/23/198081_HP_Pavillion_32_QHD_2560x1440_Monitor_Refurb_235/20%Monthly2017-07-23 09:46
http://www.hotnewdeal.com/2017/07/23/198080_PlayStation_VR__VR_Worlds_Bundle__PlayStation_4_/20%Monthly2017-07-23 09:46
http://www.hotnewdeal.com/2017/07/23/198079_66_off_Martha_Stewart_Collection_Brown_Wicker_Pic/20%Monthly2017-07-23 09:38
http://www.hotnewdeal.com/2017/07/23/198078_Samsung_Galaxy_S8_64GB_Unlocked_Coral_Blue_US_Ve/20%Monthly2017-07-23 09:32
http://www.hotnewdeal.com/2017/07/23/198077_48Count_Mad_Monkey_Coffee_RealCup_KCups_1276_a/20%Monthly2017-07-23 09:31
http://www.hotnewdeal.com/2017/07/23/198076_Amazon_Basics_15quot_Laptop_Sleeve__Purple__3/20%Monthly2017-07-23 09:17
http://www.hotnewdeal.com/2017/07/23/198075_ASRock_AB350_GAMING_K4_FATAL1TY_Socket_AM4AMD_B35/20%Monthly2017-07-23 09:17
http://www.hotnewdeal.com/2017/07/23/198073_MaxxHaul_70205_12V_LED_Trailer_Light_Kit_1187/20%Monthly2017-07-23 08:54
http://www.hotnewdeal.com/2017/07/23/198072_Dell_E310DW_Wireless_Monochrome_Laser_Printer_39/20%Monthly2017-07-23 07:57
http://www.hotnewdeal.com/2017/07/23/198071_Prime_Only_Whistler_CR93_LaserRadar_Detector_fo/20%Monthly2017-07-23 05:28
http://www.hotnewdeal.com/2017/07/23/198070_Arrowhead_Mills_Multigrain_Pancake__Waffle_Mix_2/20%Monthly2017-07-23 05:07
http://www.hotnewdeal.com/2017/07/23/198069_Livingsocial_50_Off_Underwear_Socks_and_Appare/20%Monthly2017-07-23 04:28
http://www.hotnewdeal.com/2017/07/23/198068_Kohls_Mystery_Savings_is_back__up_to_40_off/20%Monthly2017-07-23 04:07
http://www.hotnewdeal.com/2017/07/23/198067_Jack_Spade_Sperrys_starting_at_37_with_code_REDH/20%Monthly2017-07-23 04:07
http://www.hotnewdeal.com/2017/07/23/198066_GCU_Members_Bravely_Second_End_Layer_Nintendo_3/20%Monthly2017-07-23 03:07
http://www.hotnewdeal.com/2017/07/23/198065_Samsung_SSD_960_PRO_NVMe_M2_512GB_for_27749__F/20%Monthly2017-07-23 02:28
http://www.hotnewdeal.com/2017/07/23/198064_Target_InStore_Cartwheel_Offer_20_Off_Any_4K_B/20%Monthly2017-07-23 02:28
http://www.hotnewdeal.com/2017/07/23/198063_Amazon_Prime_LEGO_Storage_Brick_4_Blue_13__Fre/20%Monthly2017-07-23 02:28
http://www.hotnewdeal.com/2017/07/23/198062_Pack_of_24_The_Switch_Sparkling_Juice_Black_Cherr/20%Monthly2017-07-23 02:07
http://www.hotnewdeal.com/2017/07/23/198060_Bic_Simply_Soleil_Razors_Only_027_at_Walmart_w/20%Monthly2017-07-23 02:07
http://www.hotnewdeal.com/2017/07/23/198059_The_LEGO_Batman_Movie_Bluray__DVD__Digital_HD/20%Monthly2017-07-23 01:28
http://www.hotnewdeal.com/2017/07/23/198058_Kohls_Cardholders_Fila_Sport_Womens_Basic_Racerb/20%Monthly2017-07-23 01:07
http://www.hotnewdeal.com/2017/07/23/198057_Massdrop_x_AKG_K7XX_Black_ampampamp_Red_Editio/20%Monthly2017-07-23 01:07
http://www.hotnewdeal.com/2017/07/23/198056_Weber_summit_E670_on_Amazon_for_1805/20%Monthly2017-07-23 01:07
http://www.hotnewdeal.com/2017/07/22/198055_Kohls_Cardholders_Star_Wars_Episode_VII_The_Forc/20%Monthly2017-07-22 23:46
http://www.hotnewdeal.com/2017/07/22/198054_GCU_Members_Persona_5_PS4_40__Free_Shipping_/20%Monthly2017-07-22 23:32
http://www.hotnewdeal.com/2017/07/22/198053_1_Yankee_Candle_Brand_ItemsVotives_Car_Jars__T/20%Monthly2017-07-22 23:32
http://www.hotnewdeal.com/2017/07/22/198052_Acer_XR342CK_34_UltraWide_UHD_AMD_FreeSync_IPS_/20%Monthly2017-07-22 22:55
http://www.hotnewdeal.com/2017/07/22/198051_PlayStation_4_Pro_1TB_console_37999_w_promo_cod/20%Monthly2017-07-22 22:31
http://www.hotnewdeal.com/2017/07/22/198050_COSTCOCOM__Mens_Sweater_Fleece_Vest__1499__/20%Monthly2017-07-22 22:23
http://www.hotnewdeal.com/2017/07/22/198049_Kohls_Cardholders_Kids_Converse_Chuck_Taylor_All/20%Monthly2017-07-22 22:07
http://www.hotnewdeal.com/2017/07/22/198048_Loot_Vault_50_off_Everything__Splatoon_Plush_3/20%Monthly2017-07-22 21:57
http://www.hotnewdeal.com/2017/07/22/198047_Columbia_Mens_Snow_Gun_Pants_black_or_graphite_/20%Monthly2017-07-22 21:47
http://www.hotnewdeal.com/2017/07/22/198046_Amazon_11_Convenience_Concepts_Designs2Go_Small_/20%Monthly2017-07-22 21:39
http://www.hotnewdeal.com/2017/07/22/198045_Amazon_186_Ethical_100Percent_Catnip_Candy_Mic/20%Monthly2017-07-22 21:17
http://www.hotnewdeal.com/2017/07/22/198044_Prime_Members_48Count_Scott_TubeFree_Toilet_Pap/20%Monthly2017-07-22 20:46
http://www.hotnewdeal.com/2017/07/22/198043_Firepit__Fire_Pit__Landmann_USA_28347_Big_Sky_Fi/20%Monthly2017-07-22 19:47
http://www.hotnewdeal.com/2017/07/22/198042_24Pcs_Pretend_Play_Food_Set_Kitchen_Cutting_Fruit/20%Monthly2017-07-22 19:47
http://www.hotnewdeal.com/2017/07/22/198041_LG_Cam_Plus_671_shipped_wPrime/20%Monthly2017-07-22 19:39
http://www.hotnewdeal.com/2017/07/22/198040_Amazon_Prime_Nutiva_Organic_Coconut_Oil_Refined_/20%Monthly2017-07-22 19:24
http://www.hotnewdeal.com/2017/07/22/198039_Lenovo__156quot_Laptop__AMD_A6Series__4GB_M/20%Monthly2017-07-22 19:24
http://www.hotnewdeal.com/2017/07/22/198038_Stearns_Puddle_Jumper_Deluxe_Life_Jacket_For_KIDS_/20%Monthly2017-07-22 19:24
http://www.hotnewdeal.com/2017/07/22/198037_Daiwa_Lady_Samurai_Spinning_Combo_1198__fieldan/20%Monthly2017-07-22 19:08
http://www.hotnewdeal.com/2017/07/22/198036_Prey_30AC_Fallout_4_18AC_Injustice_2_36AC/20%Monthly2017-07-22 19:08
http://www.hotnewdeal.com/2017/07/22/198035_Prime_Members_w_Alexa_6Pack_of_50Count_Mentos_/20%Monthly2017-07-22 18:46
http://www.hotnewdeal.com/2017/07/22/198034_Bayside_Furnishings_9Piece_Dining_Set__costco_in/20%Monthly2017-07-22 18:46
http://www.hotnewdeal.com/2017/07/22/198033_DEWALT_DW4856_MetalWoodcutting_Reciprocating_Saw_/20%Monthly2017-07-22 18:37
http://www.hotnewdeal.com/2017/07/22/198032_JBL_FLIP_4_for_6895_with_weekly_promo_code/20%Monthly2017-07-22 18:37
http://www.hotnewdeal.com/2017/07/22/198031_110_shipped_Plackers_Micro_Flosser_with_Travel_C/20%Monthly2017-07-22 18:07
http://www.hotnewdeal.com/2017/07/22/198030_Kohls_Cardholders_Croft__Barrow_Mens_Bungee_F/20%Monthly2017-07-22 17:47
http://www.hotnewdeal.com/2017/07/22/198029_Samsonite_ToteaTon_Duffle_Bag_1619__free_ship/20%Monthly2017-07-22 17:33
http://www.hotnewdeal.com/2017/07/22/198028_Asus_Zenbook_Flip_UX360CA_133_FHD_IPS_Touch_i5/20%Monthly2017-07-22 17:17
http://www.hotnewdeal.com/2017/07/22/198027_Nitecore_MT06MD_Nichia_219B_180_Lumens_LED_Pen_Fla/20%Monthly2017-07-22 17:08
http://www.hotnewdeal.com/2017/07/22/198026_BlenderBottle_Classic_Shaker_Bottle_28oz_Loop_Top/20%Monthly2017-07-22 17:08
http://www.hotnewdeal.com/2017/07/22/198024_Ozeri_Pro_Digital_Kitchen_Food_Scale_697_Amazon/20%Monthly2017-07-22 16:55
http://www.hotnewdeal.com/2017/07/22/198023_Southwest_Airlines_Solar_Eclipse_InFlight_Viewin/20%Monthly2017-07-22 16:46
http://www.hotnewdeal.com/2017/07/22/198022_Chemical_Guys_P40_Detailer_Quick_Detailer_and_UV_P/20%Monthly2017-07-22 16:38
http://www.hotnewdeal.com/2017/07/22/198021_Pioneer_SPC22_4_Center_Channel_Speaker_54_wem/20%Monthly2017-07-22 16:38
http://www.hotnewdeal.com/2017/07/22/198020_Washington_DC_to_Kuala_Lumpur_Malaysia_466_RT_on_/20%Monthly2017-07-22 16:31
http://www.hotnewdeal.com/2017/07/22/198018_Vega_Helmets_Vertice_Stealth_Optic_Modular_Helmet_/20%Monthly2017-07-22 16:16
http://www.hotnewdeal.com/2017/07/22/198017_Garden_Treasures_134in_W_x_134in_L_x_92in_H_x_M/20%Monthly2017-07-22 16:07
http://www.hotnewdeal.com/2017/07/22/198016_AgriFab_450299_48Inch_Tow_Plug_Aerator__Amazon/20%Monthly2017-07-22 16:07
http://www.hotnewdeal.com/2017/07/22/198015_Stanley_Classic_Vacuum_Insulated_Growler_64oz_in_H/20%Monthly2017-07-22 15:58
http://www.hotnewdeal.com/2017/07/22/198014_WeMo_Switch__Model__F7C06p__Lowes_clearance__/20%Monthly2017-07-22 15:47
http://www.hotnewdeal.com/2017/07/22/198013_LG_SJ8_soundbar_41_channel_199__tax_with_Frys_/20%Monthly2017-07-22 15:09
http://www.hotnewdeal.com/2017/07/22/198012_Asus_DUALRX580O8G_Radeon_RX_580_Graphics_card_2/20%Monthly2017-07-22 14:23
http://www.hotnewdeal.com/2017/07/22/198011_Amazon__WEN_4214_12Inch_Variable_Speed_Drill_Pre/20%Monthly2017-07-22 14:17
http://www.hotnewdeal.com/2017/07/22/198010_Ocean_Spray_Craisins_Dried_Cranberries_Juice_Blue/20%Monthly2017-07-22 14:16
http://www.hotnewdeal.com/2017/07/22/198009_PLAYMOBIL_Private_Jet_1111_FS_w_Amazon_Prime/20%Monthly2017-07-22 14:16
http://www.hotnewdeal.com/2017/07/22/198008_Walmart_Mainstays_Stanton_Cushioned_4Piece_Patio/20%Monthly2017-07-22 13:39
http://www.hotnewdeal.com/2017/07/22/198007_Huawei_Watch_2__Carbon_Black__Android_Wear_20_f/20%Monthly2017-07-22 13:32
http://www.hotnewdeal.com/2017/07/22/198006_GLAREE_E03_Keychain_Blue_Flashlight_CREE_LED_150_/20%Monthly2017-07-22 13:18
http://www.hotnewdeal.com/2017/07/22/198004_Capo_for_Ukulele_Guitar_Banjo_Mandolin_Bass_by_Eve/20%Monthly2017-07-22 12:56
http://www.hotnewdeal.com/2017/07/22/198003_Prime_Members_Natures_Bakery_Whole_Wheat_Fig_Bar/20%Monthly2017-07-22 12:32
http://www.hotnewdeal.com/2017/07/22/198002_HODGSON_Kids_Polarized_Sunglasses__687/20%Monthly2017-07-22 12:18
http://www.hotnewdeal.com/2017/07/22/198001_Dreft_Stage_1_100_Oz__64_Loads__1174_with_S/20%Monthly2017-07-22 12:08
http://www.hotnewdeal.com/2017/07/22/198000_Home_Expressions_Microfiber_Sheet_Set_Twin_490/20%Monthly2017-07-22 12:00
http://www.hotnewdeal.com/2017/07/22/197999_Converse_Mens_Chuck_Taylor_Leather_High_Street_8/20%Monthly2017-07-22 11:48
http://www.hotnewdeal.com/2017/07/22/197998_Beach_Towels_7_for_32_or_get_1_for_560_Spiderm/20%Monthly2017-07-22 11:48
http://www.hotnewdeal.com/2017/07/22/197997_Makita_XPH12Z_18V_LXT_LithiumIon_Brushless_Cordle/20%Monthly2017-07-22 11:48
http://www.hotnewdeal.com/2017/07/22/197996_Pet_Door_Screen_by_Namsan__Lockable__3479_AC_/20%Monthly2017-07-22 11:41
http://www.hotnewdeal.com/2017/07/22/197995_SteelSeries_Arctis_3_AllPlatform_Gaming_Headset_w/20%Monthly2017-07-22 11:26
http://www.hotnewdeal.com/2017/07/22/197994_LaView_1080P_HD_IP_WiFi_Wireless_Security_Surveil/20%Monthly2017-07-22 11:14
http://www.hotnewdeal.com/2017/07/22/197993_Ozark_Trail_Bags_on_Clearance__Walmart_YMMV/20%Monthly2017-07-22 10:48
http://www.hotnewdeal.com/2017/07/22/197992_Werner_16ft_Aluminum_200lb_Type_III_Extension_La/20%Monthly2017-07-22 10:41
http://www.hotnewdeal.com/2017/07/22/197991_Bella_Hot_Air_Fryer_3999__Free_shipping/20%Monthly2017-07-22 10:34
http://www.hotnewdeal.com/2017/07/22/197990_JCPenney_Home_The_Curve_Memory_Foam_Contour_Pillow/20%Monthly2017-07-22 10:34
http://www.hotnewdeal.com/2017/07/22/197989_Eric_Carle_Children_Board_BooksFrom_Head_to_Toe_/20%Monthly2017-07-22 10:25
http://www.hotnewdeal.com/2017/07/22/197988_Chemical_Guys_ACC_S06_Professional_Rubber_Pet_Hair/20%Monthly2017-07-22 09:50
http://www.hotnewdeal.com/2017/07/22/197987_EA_Access__12_Month_Subscription_Xbox_One__23/20%Monthly2017-07-22 09:50
http://www.hotnewdeal.com/2017/07/22/197985_ASICS_GELVenture_5_Mens_Trail_Running_Shoes_33/20%Monthly2017-07-22 09:19
http://www.hotnewdeal.com/2017/07/22/197984_best_buy_fit_bit_blaze_139/20%Monthly2017-07-22 09:10
http://www.hotnewdeal.com/2017/07/22/197983_TOSHIBA_3TB_Canvio_Desk_Hard_Drive_57_wemailed_/20%Monthly2017-07-22 08:47
http://www.hotnewdeal.com/2017/07/22/197982_eBay_YMMV__8_ebay_bucks/20%Monthly2017-07-22 08:38
http://www.hotnewdeal.com/2017/07/22/197981_Stan_Smith_Mens_Original_Shoes_35/20%Monthly2017-07-22 08:29
http://www.hotnewdeal.com/2017/07/22/197980_SanDisk__Ultra_Fit_128GB_USB_30_Type_A_Flash_Dri/20%Monthly2017-07-22 08:01
http://www.hotnewdeal.com/2017/07/22/197979_JCPenney_Mens_Stafford_Travel_LS_Dress_Shirts_fr/20%Monthly2017-07-22 07:46
http://www.hotnewdeal.com/2017/07/22/197978_Anker_Tempered_Glass_Screen_Protector_for_iPhone_7/20%Monthly2017-07-22 07:29
http://www.hotnewdeal.com/2017/07/22/197977_Beats_solo_3_220_at_Bestbuy/20%Monthly2017-07-22 07:23
http://www.hotnewdeal.com/2017/07/22/197976_LeEco__Le_Pro3_Unlocked_Smartphone_55_Display/20%Monthly2017-07-22 07:11
http://www.hotnewdeal.com/2017/07/22/197975_Deluxe_Staunton_Wood_Tournament_Size_Chess__Check/20%Monthly2017-07-22 07:11
http://www.hotnewdeal.com/2017/07/22/197974_Intel_Core_i77700K_Kaby_Lake_Quad_Core_42GHz_Des/20%Monthly2017-07-22 06:32
http://www.hotnewdeal.com/2017/07/22/197973_PlayStation_VR__VR_Worlds_Bundle__PlayStation_4_/20%Monthly2017-07-22 06:31
http://www.hotnewdeal.com/2017/07/22/197972_LG_UP970_4K_UHD_Bluray_Disc_Player_for_139_at_Fr/20%Monthly2017-07-22 06:31
http://www.hotnewdeal.com/2017/07/22/197971_Purina_Beyond_Dry_Cat_Food_Salmon__Whole_Brown_R/20%Monthly2017-07-22 06:05
http://www.hotnewdeal.com/2017/07/22/197970_John_Deere_Big_Scoop_21_Dump_Truck__16__Walmar/20%Monthly2017-07-22 04:10
http://www.hotnewdeal.com/2017/07/22/197969_17Piece_Farberware_High_Performance_Nonstick_Cook/20%Monthly2017-07-22 04:10
http://www.hotnewdeal.com/2017/07/22/197968_My_Little_Pony_45_in_Equestria_Girls_Mini_School/20%Monthly2017-07-22 04:10
http://www.hotnewdeal.com/2017/07/22/197967_Lord__Taylor_Up_to_70_Off_Shoes__Anne_Klein_Sa/20%Monthly2017-07-22 03:10
http://www.hotnewdeal.com/2017/07/22/197966_Rabbitgoo_No_Glue_Static_Privacy_Window_Film__7/20%Monthly2017-07-22 03:10
http://www.hotnewdeal.com/2017/07/22/197964_5Pack_Cigar_Page_Prime_Sampler_Vol_II_for_8__Fr/20%Monthly2017-07-22 01:32
http://www.hotnewdeal.com/2017/07/22/197963_15_Count_25g_bars_HEALTH_WARRIOR_Chia_Bars_at_9/20%Monthly2017-07-22 01:32
http://www.hotnewdeal.com/2017/07/22/197962_YMMV_IRWIN_Polyester_Tool_Bag_1199_1999_or_Zi/20%Monthly2017-07-22 00:19
http://www.hotnewdeal.com/2017/07/22/197961_Craftsman_21_Mower_rear_bag__188_with_free_in/20%Monthly2017-07-22 00:02
http://www.hotnewdeal.com/2017/07/21/197960_SNES_Classic_Preorder_Select_Walmrt_Stores/20%Monthly2017-07-21 23:52
http://www.hotnewdeal.com/2017/07/21/197959_Super_Nintendo_Classic_PreOrder_7999_ships_Sep/20%Monthly2017-07-21 23:52
http://www.hotnewdeal.com/2017/07/21/197958_28_Acer_CB280HK_4K_Monitor_280AC/20%Monthly2017-07-21 23:47
http://www.hotnewdeal.com/2017/07/21/197957_Super_Nintendo_Entertainment_System_SNES_Classic_/20%Monthly2017-07-21 23:44
http://www.hotnewdeal.com/2017/07/21/197956_Prime_Members_Delta_Children_Plastic_Toddler_Bed/20%Monthly2017-07-21 23:44
http://www.hotnewdeal.com/2017/07/21/197955_Banana_Republic_Factory_Mens_Henley_979_with_Fr/20%Monthly2017-07-21 23:22
http://www.hotnewdeal.com/2017/07/21/197954_12Pack_32_Oz_Pacific_Foods_Light_Sodium_Organic_R/20%Monthly2017-07-21 22:43
http://www.hotnewdeal.com/2017/07/21/197953_Plantronics_RIG_400HX_Refurb_Gaming_Headset__1/20%Monthly2017-07-21 22:43
http://www.hotnewdeal.com/2017/07/21/197952_Lorex_8Channel_HD_IP_NVR_with_2TB_HDD_8_4MP_Came/20%Monthly2017-07-21 22:43
http://www.hotnewdeal.com/2017/07/21/197951_11_Ounce_Bottle_Watkins_All_Natural_Madagascar_Bou/20%Monthly2017-07-21 22:22
http://www.hotnewdeal.com/2017/07/21/197950_Edcgear_20_in_1_multi_tool_fixr_keychain__4/20%Monthly2017-07-21 21:47
http://www.hotnewdeal.com/2017/07/21/197949_Rocket_League_Xbox_One_Digital_Download_989_or/20%Monthly2017-07-21 21:35
http://www.hotnewdeal.com/2017/07/21/197948_Apple_Airpods_Wireless_Bluetooth_earphones__Veriz/20%Monthly2017-07-21 21:26
http://www.hotnewdeal.com/2017/07/21/197947_4TB_HGST_MegaScale_DC_4000B_HMS5C4040BLE640_0F23/20%Monthly2017-07-21 21:25
http://www.hotnewdeal.com/2017/07/21/197946_185oz_Glass_Water_Bottle__699__Free_Prime_Shi/20%Monthly2017-07-21 21:13
http://www.hotnewdeal.com/2017/07/21/197945_Acer_Predator_VR_Ready_Desktop_PC__Intel_Core_i7/20%Monthly2017-07-21 21:12
http://www.hotnewdeal.com/2017/07/21/197943_Craftsman_50ft_rubber_hose_1999/20%Monthly2017-07-21 21:00
http://www.hotnewdeal.com/2017/07/21/197942_Alec_Bradley_andor_The_Big_Payback_Cigar_Samplers/20%Monthly2017-07-21 20:38
http://www.hotnewdeal.com/2017/07/21/197941_Popular_Science_495yr_GQ__495yr_Time_Out_/20%Monthly2017-07-21 20:31
http://www.hotnewdeal.com/2017/07/21/197940_Klipsch_R15PM_Powered_Bluetooth_Speakers__Audio/20%Monthly2017-07-21 20:24
http://www.hotnewdeal.com/2017/07/21/197939_CORSAIR__Strafe_RGB_MX_Silent_Gaming_Keyboard__B/20%Monthly2017-07-21 20:02
http://www.hotnewdeal.com/2017/07/21/197938_Klipsch_Reference_R6_OnEar_Headphones_Black_28/20%Monthly2017-07-21 19:46
http://www.hotnewdeal.com/2017/07/21/197937_Haier_5000_BTU_Window_Air_Conditioner_115V_HWF0/20%Monthly2017-07-21 19:46
http://www.hotnewdeal.com/2017/07/21/197935_Sony_XBRX850ESeries_75Class_HDR_UHD_Smart_LED_/20%Monthly2017-07-21 19:30
http://www.hotnewdeal.com/2017/07/21/197934_Poof__Pea_Pet_Activity_Tracker_20__Best_Buy/20%Monthly2017-07-21 19:17
http://www.hotnewdeal.com/2017/07/21/197933_Minecraft_Creeper_Deluxe_Anatomy_Figure__799_Mi/20%Monthly2017-07-21 19:12
http://www.hotnewdeal.com/2017/07/21/197932_dipyourcarcom_has_22_off_everything_on_the_websi/20%Monthly2017-07-21 19:12
http://www.hotnewdeal.com/2017/07/21/197931_Klipsch_Speaker_Bundle_pair_RP280F__RP440C_C/20%Monthly2017-07-21 18:58
http://www.hotnewdeal.com/2017/07/21/197929_Home_Depot_RIDGID_18Volt_Cordless_LithiumIon_1/20%Monthly2017-07-21 18:46
http://www.hotnewdeal.com/2017/07/21/197928_Xbox_One_S_1TB_Forza_Horizon_3_Bundle__Xbox_Contr/20%Monthly2017-07-21 18:40
http://www.hotnewdeal.com/2017/07/21/197927_BlackDecker_Max_Lithium_20V_Flex_Cordless_Vacuum_/20%Monthly2017-07-21 18:39
http://www.hotnewdeal.com/2017/07/21/197926_Aeropostale_Clearance__Additional_50_off_Coupon/20%Monthly2017-07-21 18:39
http://www.hotnewdeal.com/2017/07/21/197925_Panasonic_Lumix_DMCGH4_4K_Mirrorless_Micro_Four_T/20%Monthly2017-07-21 18:39
http://www.hotnewdeal.com/2017/07/21/197924_Sony_MDR1000XB_Wireless_Bluetooth_Noise_Cancell/20%Monthly2017-07-21 18:33
http://www.hotnewdeal.com/2017/07/21/197923_Logitech_K400_Plus_Keyboard_at_Best_Buy_or_Amazon_/20%Monthly2017-07-21 18:33
http://www.hotnewdeal.com/2017/07/21/197922_Flirc_Raspberry_Pi_Case_Gen_2_for_1299__Free_Sh/20%Monthly2017-07-21 18:26
http://www.hotnewdeal.com/2017/07/21/197921_Corsair_SF600_80_Gold_SFX_Power_Supply_RFB_60_/20%Monthly2017-07-21 18:04
http://www.hotnewdeal.com/2017/07/21/197920_Splatoon_2_Pro_Controller_6749_Walmartcom/20%Monthly2017-07-21 17:58
http://www.hotnewdeal.com/2017/07/21/197919_Humidor__18_Premium_Cigars__HerfaDor_X5_Travel/20%Monthly2017-07-21 17:58
http://www.hotnewdeal.com/2017/07/21/197918_Clearance_Mens_TShirts_from_3_pickup_at_JCPenne/20%Monthly2017-07-21 17:41
http://www.hotnewdeal.com/2017/07/21/197917_Verizon_Apple_iPhone_6s_32GB_Smartphone__1299m/20%Monthly2017-07-21 17:25
http://www.hotnewdeal.com/2017/07/21/197916_Dell_XPSE89107942SLV_Special_Edition_PC__Intel_C/20%Monthly2017-07-21 17:21
http://www.hotnewdeal.com/2017/07/21/197915_Spyderco_Byrd_Cara_Cara2_Lightweight_black_FRN_Pla/20%Monthly2017-07-21 17:08
http://www.hotnewdeal.com/2017/07/21/197914_Rosewill_Hot_Water_Dispenser__two_ways_dispenser_/20%Monthly2017-07-21 17:08
http://www.hotnewdeal.com/2017/07/21/197913_Sony_HTCT180_21ch_100W_Wireless_Bluetooth_Soundb/20%Monthly2017-07-21 17:08
http://www.hotnewdeal.com/2017/07/21/197912_Toshiba_4TB_7200_RPM_Enterprise_Internal_Hard_Driv/20%Monthly2017-07-21 17:08
http://www.hotnewdeal.com/2017/07/21/197911_Amazon__Terry_Clothes_Waterproof_Mattress_Protect/20%Monthly2017-07-21 16:59
http://www.hotnewdeal.com/2017/07/21/197910_AKG_K553_PRO_ClosedBack_Studio_Headphones_for_10/20%Monthly2017-07-21 16:51
http://www.hotnewdeal.com/2017/07/21/197909_Viva_Naturals_Vitamin_D3_5000_Supplements1yr_sup/20%Monthly2017-07-21 16:51
http://www.hotnewdeal.com/2017/07/21/197908_Remington_F55800_Foil_Shaver__400_Off_Coupon/20%Monthly2017-07-21 16:51
http://www.hotnewdeal.com/2017/07/21/197907_Terra_Mediterranean_Herbs_and_a_Hint_of_Lemon_68/20%Monthly2017-07-21 16:13
http://www.hotnewdeal.com/2017/07/21/197906_Frys_721_promo__Factory_Reburbished_JBL_FLIP_3_/20%Monthly2017-07-21 16:07
http://www.hotnewdeal.com/2017/07/21/197905_Icy_Dock_Black_Vortex_4Bay_35_Hard_DriveCooler/20%Monthly2017-07-21 16:00
http://www.hotnewdeal.com/2017/07/21/197904_Alexa_Echo_Voice_Remote_982_FS_with_Amazon_Prime/20%Monthly2017-07-21 15:57
http://www.hotnewdeal.com/2017/07/21/197903_Amazon_w_Alexa_54oz_Spectrum_Organic_Virgin_Coc/20%Monthly2017-07-21 15:57
http://www.hotnewdeal.com/2017/07/21/197902_4Pack_of_Yi_Home_720p_White_Wireless_IP_Security_/20%Monthly2017-07-21 15:57
http://www.hotnewdeal.com/2017/07/21/197901_Razer_Deathadder_Elite__49_Amazoncom_FREE_Shipp/20%Monthly2017-07-21 15:57
http://www.hotnewdeal.com/2017/07/21/197900_ONLY_10_LEFT_Sony__Alpha_a7R_Mirrorless_Camer/20%Monthly2017-07-21 15:48
http://www.hotnewdeal.com/2017/07/21/197899_JCPenney_Mens_Stafford_SS_Travel_Wrinkle_Free_Dr/20%Monthly2017-07-21 15:48
http://www.hotnewdeal.com/2017/07/21/197897_Logitech_HD_Pro_Webcam_C920__4999__Amazon/20%Monthly2017-07-21 15:48
http://www.hotnewdeal.com/2017/07/21/197896_JCPenney_Home_Expressions_Bath_Towels_Solid_or_Om/20%Monthly2017-07-21 15:30
http://www.hotnewdeal.com/2017/07/21/197895_Niagara_Conservation_20_Gpm_Chrome_Handheld_Massa/20%Monthly2017-07-21 15:30
http://www.hotnewdeal.com/2017/07/21/197894_YI_4K_Sports_and_Action_Video_Camera_US_Edition_/20%Monthly2017-07-21 15:30
http://www.hotnewdeal.com/2017/07/21/197893_256GB_AData_SU800_SSD_77AC/20%Monthly2017-07-21 15:30
http://www.hotnewdeal.com/2017/07/21/197892_25_AMC_Gift_Card__1899__Free_Shipping_at_BJs_/20%Monthly2017-07-21 15:06
http://www.hotnewdeal.com/2017/07/21/197891_20000mAh_Mopower_Quick_Charge_20_USB_Battery_Pack/20%Monthly2017-07-21 15:06
http://www.hotnewdeal.com/2017/07/21/197890_Training_jump_rope_498_fs_w_prime/20%Monthly2017-07-21 15:06
http://www.hotnewdeal.com/2017/07/21/197889_Amazon_Prime_Intex_InflatABull_Inflatable_Pool/20%Monthly2017-07-21 14:53
http://www.hotnewdeal.com/2017/07/21/197888_Chemical_Guys_WAC_301_XXX_Hardcore_Carnauba_Paste_/20%Monthly2017-07-21 14:53
http://www.hotnewdeal.com/2017/07/21/197887_Arlo_Q_1080p_HD_Security_Camera_with_Audio_VMC304/20%Monthly2017-07-21 14:47
http://www.hotnewdeal.com/2017/07/21/197886_Hurry_Up_Hot_123_RT_Airfares_New_York__New_Jers/20%Monthly2017-07-21 14:47
http://www.hotnewdeal.com/2017/07/21/197885_Munchkin_Miracle_360_Sippy_Cup_GreenBlue_10_Oun/20%Monthly2017-07-21 14:47
http://www.hotnewdeal.com/2017/07/21/197884_Werewolves_Within__PlayStation_VR__1099/20%Monthly2017-07-21 14:47
http://www.hotnewdeal.com/2017/07/21/197883_Beanitos_Hint_of_Lime_with_Sea_Salt_The_Healthy_/20%Monthly2017-07-21 14:47
http://www.hotnewdeal.com/2017/07/21/197881_Student_Prime_account_15_off_40_or_more/20%Monthly2017-07-21 14:47
http://www.hotnewdeal.com/2017/07/21/197880_BitDefender_Internet_Security_2017__3_PCs_2_Year/20%Monthly2017-07-21 14:47
http://www.hotnewdeal.com/2017/07/21/197879_Ultralight_Travel_Pillow_w_Washable_Pillowcase_fo/20%Monthly2017-07-21 14:46
http://www.hotnewdeal.com/2017/07/21/197878_Abercrombie__Fitch_Extra_25_Off_Clearance_Mens/20%Monthly2017-07-21 14:46
http://www.hotnewdeal.com/2017/07/21/197877_Charmin_Essentials_Bathroom_Tissue_80_Rolls_1_o/20%Monthly2017-07-21 14:46
http://www.hotnewdeal.com/2017/07/21/197876_Frys_Email_Exclusive_3TB_WD_Elements_USB_30_Por/20%Monthly2017-07-21 14:46
http://www.hotnewdeal.com/2017/07/21/197875_Amcrest_IP2M841_ProHD_1080P_1920TVL_6499/20%Monthly2017-07-21 14:17
http://www.hotnewdeal.com/2017/07/21/197874_Uber_gift_cards_10_off__Walmartcom/20%Monthly2017-07-21 14:12
http://www.hotnewdeal.com/2017/07/21/197873_Apple_iPad_Pro_129_1st_gen_32GB_WiFi__399_/20%Monthly2017-07-21 14:07
http://www.hotnewdeal.com/2017/07/21/197872_Amazon_Exclusive_Nintendo_Corrin_Player_2_Amiibo/20%Monthly2017-07-21 14:00
http://www.hotnewdeal.com/2017/07/21/197871_Dynex_2000_mah_portable_charger_2_Best_Buy_free_i/20%Monthly2017-07-21 14:00
http://www.hotnewdeal.com/2017/07/21/197870_Chemical_Guys_ACC_B01_Gerbil_Wheel_and_Rim_Brush_/20%Monthly2017-07-21 14:00
http://www.hotnewdeal.com/2017/07/21/197869_HP_Spectre_x360_133in_Convertible_Laptop_Core_i7/20%Monthly2017-07-21 14:00
http://www.hotnewdeal.com/2017/07/21/197868_Escort_Passport_S55_RadarLaser_Detector_11200/20%Monthly2017-07-21 14:00
http://www.hotnewdeal.com/2017/07/21/197867_Canon_MF628CW_AllinOne_Wireless_Color_Laser_Prin/20%Monthly2017-07-21 13:32
http://www.hotnewdeal.com/2017/07/21/197866_DMC_games_on_sale_at_Microsoft_Xbox_OneXbox_360_/20%Monthly2017-07-21 13:27
http://www.hotnewdeal.com/2017/07/21/197864_Portable_Air_Conditioner_Arctic_King_WPPD12CR5_12/20%Monthly2017-07-21 12:59
http://www.hotnewdeal.com/2017/07/21/197863_AMD_Ryzen_5_1400_for_146_AMD_Ryzen_5_1500X_for_/20%Monthly2017-07-21 12:59
http://www.hotnewdeal.com/2017/07/21/197862_SanDisk_Ultra_Fit_32GB_USB_Drive_999_DOTD__Best/20%Monthly2017-07-21 12:59
http://www.hotnewdeal.com/2017/07/21/197860_CVScom__4pack_Burts_Bees_Beeswax_Lip_Balm_Ori/20%Monthly2017-07-21 12:58
http://www.hotnewdeal.com/2017/07/21/197859_Phanteks_Enthoo_Pro_M_Series_PHES515P_BK_Black_St/20%Monthly2017-07-21 12:58
http://www.hotnewdeal.com/2017/07/21/197858_NUK_Toddler_Tooth_and_Gum_Cleanser_with_14_Ounce_/20%Monthly2017-07-21 12:58
http://www.hotnewdeal.com/2017/07/21/197857_JBL_Extreme_13995_w_720_promo_code_Frys/20%Monthly2017-07-21 12:51
http://www.hotnewdeal.com/2017/07/21/197856_16_x_12_Inch_Slate_Cheese_Board_Set__4_Forged_Sta/20%Monthly2017-07-21 12:46
http://www.hotnewdeal.com/2017/07/21/197855_Samsung_21Channel_Wireless_Audio_Soundbar_HWK36/20%Monthly2017-07-21 12:33
http://www.hotnewdeal.com/2017/07/21/197854_Corsair_TXM_750W_80_plus_gold_certified_power_sup/20%Monthly2017-07-21 12:33
http://www.hotnewdeal.com/2017/07/21/197853_Apple__97__129_iPad_Pro_and_Ipad_Mini_4_On_Sal/20%Monthly2017-07-21 12:21
http://www.hotnewdeal.com/2017/07/21/197852_INTEX_10_ft_x_30_in_Easy_Set_Pool_for_2999__FS/20%Monthly2017-07-21 12:20
http://www.hotnewdeal.com/2017/07/21/197851_IRWIN_24_Magnetic_Ibeam_level_1199_with_prime/20%Monthly2017-07-21 12:08
http://www.hotnewdeal.com/2017/07/21/197850_Nintendo_Switch_grey_and_neon_in_stock_at_Best_Buy/20%Monthly2017-07-21 11:59
http://www.hotnewdeal.com/2017/07/21/197849_Zinus_Memory_Foam_12_Inch__Premium__Ultra_Plush_/20%Monthly2017-07-21 11:58
http://www.hotnewdeal.com/2017/07/21/197847_Dell_Inspiron_15_7000_7567_i77700HQ_Quad_core/20%Monthly2017-07-21 11:42
http://www.hotnewdeal.com/2017/07/21/197846_Marriott_Rewards_Premier_CC_80K_points_after_3K_s/20%Monthly2017-07-21 11:42
http://www.hotnewdeal.com/2017/07/21/197845_100_Southwest_Airlines_EGift_Card_for_75/20%Monthly2017-07-21 11:24
http://www.hotnewdeal.com/2017/07/21/197844_Castrol_conventional_GTX_ULTRACLEAN_5W30_Motor_Oi/20%Monthly2017-07-21 11:24
http://www.hotnewdeal.com/2017/07/21/197843_IRWIN_Tools_Tri_and_Mitre_Square_1794473_479_/20%Monthly2017-07-21 11:24
http://www.hotnewdeal.com/2017/07/21/197842_Purina_Beyond_Natural_Grain_Free_Jerky_Strips_Dog_/20%Monthly2017-07-21 11:24
http://www.hotnewdeal.com/2017/07/21/197841_Panasonic_LUMIX_GX85_4K_Mirrorless_Digtial_Camera_/20%Monthly2017-07-21 11:23
http://www.hotnewdeal.com/2017/07/21/197840_Teenage_Mutant_Ninja_Turtles_Michelangelo_Giant_Pl/20%Monthly2017-07-21 11:23
http://www.hotnewdeal.com/2017/07/21/197839_27499_Apple_ipad_mini_4_wifi_128Gb_3_colors_Best/20%Monthly2017-07-21 11:06
http://www.hotnewdeal.com/2017/07/21/197837_BACK_IN_STOCKNintendo_Switch_Console_w_Neon_Blu/20%Monthly2017-07-21 10:52
http://www.hotnewdeal.com/2017/07/21/197835_Contigo_24_FL_oz_Stainless_Steel_Water_bottle_99/20%Monthly2017-07-21 10:52
http://www.hotnewdeal.com/2017/07/21/197834_Acer_Predator_AG3710UW11_VR_Ready_Desktop_PC__I/20%Monthly2017-07-21 10:52
http://www.hotnewdeal.com/2017/07/21/197833_Radiant_Historia_Perfect_Chronology_and_Shin_Mega/20%Monthly2017-07-21 10:46
http://www.hotnewdeal.com/2017/07/21/197832_Dyson__V6_Bagless_Cordless_Stick_Vacuum__Red_19/20%Monthly2017-07-21 10:25
http://www.hotnewdeal.com/2017/07/21/197831_4Pack_Philips_60W_Equivalent_800_Lumen_A19_LED_Li/20%Monthly2017-07-21 10:11
http://www.hotnewdeal.com/2017/07/21/197830_Sabrent_Quick_Charge_30_54W_5Port_Desktop_USB_Ra/20%Monthly2017-07-21 09:53
http://www.hotnewdeal.com/2017/07/21/197829_Kershaw_Skyline_3166_Amazon/20%Monthly2017-07-21 09:52
http://www.hotnewdeal.com/2017/07/21/197828_Simplicam_for_Simplisafe_home_security_4999__Tax/20%Monthly2017-07-21 09:49
http://www.hotnewdeal.com/2017/07/21/197827_Champion_Mens_Power_Flex_9_Compression_Shorts_7/20%Monthly2017-07-21 09:18
http://www.hotnewdeal.com/2017/07/21/197826_Apple_Watch_Sale_2nd_Gen_42mm_329_38mm/20%Monthly2017-07-21 09:18
http://www.hotnewdeal.com/2017/07/21/197825_Anker_Roav_Dash_Cam_with_24_LCD_1080P_FHD_Buil/20%Monthly2017-07-21 08:59
http://www.hotnewdeal.com/2017/07/21/197824_SiliconDust_HDHomeRun_Connect_2Tuner_Streaming_Me/20%Monthly2017-07-21 08:45
http://www.hotnewdeal.com/2017/07/21/197823_Save_150_on_the_Unlocked_Galaxy_S8__S8/20%Monthly2017-07-21 08:45
http://www.hotnewdeal.com/2017/07/21/197822_12999_Craftsman_153_piece_Universal_Mechanics_To/20%Monthly2017-07-21 08:45
http://www.hotnewdeal.com/2017/07/21/197821_188_Children_Hardcover_Books_Peter_Pan_Bambi_/20%Monthly2017-07-21 08:27
http://www.hotnewdeal.com/2017/07/21/197820_Office_Depot_OfficeMax_Rewards_Boise_POLARIS_Prem/20%Monthly2017-07-21 08:27
http://www.hotnewdeal.com/2017/07/21/197819_LG_55_Inch_4K_Ultra_HD_Smart_TV_for_54999__Sear/20%Monthly2017-07-21 08:16
http://www.hotnewdeal.com/2017/07/21/197818_Sperry_Clearance_Mens_Authentic_Original_2Eye_Cr/20%Monthly2017-07-21 08:16
http://www.hotnewdeal.com/2017/07/21/197817_315Count_Avery_34_Round_ColorCoding_Labels__/20%Monthly2017-07-21 07:58
http://www.hotnewdeal.com/2017/07/21/197816_50_Assorted_Shape_and_Size_Latex_Balloons_170_/20%Monthly2017-07-21 07:28
http://www.hotnewdeal.com/2017/07/21/197815_Best_Buys_Black_Friday_in_July_Special_Sale/20%Monthly2017-07-21 07:21
http://www.hotnewdeal.com/2017/07/21/197813_Frys_Email_Exclusive_Samsung_UBDK8500_4K_Blura/20%Monthly2017-07-21 07:20
http://www.hotnewdeal.com/2017/07/21/197812_Micro_USB_Cable_Syncwire_Android_Charger_2Pack_3/20%Monthly2017-07-21 06:36
http://www.hotnewdeal.com/2017/07/21/197811_Green_Man_Gaming_2017_Summer_Sale_PCDD_Flash_Sa/20%Monthly2017-07-21 05:35
http://www.hotnewdeal.com/2017/07/21/197809_SIMPLE_Mobile__Apple_iPhone_SE_4G_LTE_with_32GB_M/20%Monthly2017-07-21 04:27
http://www.hotnewdeal.com/2017/07/21/197808_Philips_468058_Hue_White_A19_Light_Bulbs_3Pack_/20%Monthly2017-07-21 04:15
http://www.hotnewdeal.com/2017/07/21/197807_50_Target_Gift_Card_with_GoPro_Hero_5_Black__20/20%Monthly2017-07-21 04:14
http://www.hotnewdeal.com/2017/07/21/197806_Verizon_64GB_Samsung_Galaxy_S8_Smartphone__1750/20%Monthly2017-07-21 03:34
http://www.hotnewdeal.com/2017/07/21/197805_Stanley_45912_8_Inch_X_12_Inch_Steel_Carpenters_/20%Monthly2017-07-21 03:14
http://www.hotnewdeal.com/2017/07/21/197804_General_Mills_Cherrios_Cereal_Cherrios_2_Honey_/20%Monthly2017-07-21 03:14
http://www.hotnewdeal.com/2017/07/21/197803_1999_Logitech__Marathon_Mouse_M705_Wireless_Las/20%Monthly2017-07-21 03:14
http://www.hotnewdeal.com/2017/07/21/197802_Meguiars_X3003_Grit_Guard_676/20%Monthly2017-07-21 03:06
http://www.hotnewdeal.com/2017/07/21/197801_Gears_Of_War_4__PreOwned_Xbox_One__1303__T/20%Monthly2017-07-21 02:14
http://www.hotnewdeal.com/2017/07/21/197800_Office_Depot_OfficeMax_Rewards_Duracell_AAAAA_ba/20%Monthly2017-07-21 02:14
http://www.hotnewdeal.com/2017/07/21/197799_Ipad_Pro_97_32gb_Cellular__429_tax_YMMV_Wa/20%Monthly2017-07-21 01:35
http://www.hotnewdeal.com/2017/07/21/197798_Panasonic__Eneloop_AA_to_C_D_Rechargeable_Batter/20%Monthly2017-07-21 01:35
http://www.hotnewdeal.com/2017/07/21/197797_Kohls_Cardholders_Mens_Adidas_Crazylight_Basketb/20%Monthly2017-07-21 01:35
http://www.hotnewdeal.com/2017/07/21/197796_MaxxHaul_70205_12V_LED_Trailer_Light_Kit_1326/20%Monthly2017-07-21 01:27
http://www.hotnewdeal.com/2017/07/21/197794_The_Division_PS4Xbox_One_PreOwned_917_with_F/20%Monthly2017-07-21 01:14
http://www.hotnewdeal.com/2017/07/21/197793_Xiaomi_Mi_Fit_2_Metal_Band__5_rubber_bands__2_he/20%Monthly2017-07-21 01:14
http://www.hotnewdeal.com/2017/07/21/197792_Titebond_Yellow_InteriorExterior_Wood_Adhesive_1/20%Monthly2017-07-21 00:07
http://www.hotnewdeal.com/2017/07/21/197791_Vudu_Weekend_721724_Sale_499_HDX_Titles_10_/20%Monthly2017-07-21 00:07
http://www.hotnewdeal.com/2017/07/20/197790_PLATERO_Antitheft_Waterproof_Laptop_Backpack_Fits/20%Monthly2017-07-20 23:55
http://www.hotnewdeal.com/2017/07/20/197789_Cool_Gel_Ultimate_Gel_Memory_Foam_14Inch_Mattress/20%Monthly2017-07-20 23:46
http://www.hotnewdeal.com/2017/07/20/197788_BeyerDynamic_A20_Headphone_Amplifier_299__free_s/20%Monthly2017-07-20 23:30
http://www.hotnewdeal.com/2017/07/20/197787_SanDisk__Ultra_32GB_USB_30_Flash_Drive__Black_f/20%Monthly2017-07-20 23:24
http://www.hotnewdeal.com/2017/07/20/197786_Arm__Hammer_210oz_2Pack_420oz_Total_HE_Liquid/20%Monthly2017-07-20 23:07
http://www.hotnewdeal.com/2017/07/20/197785_Lenovo_Ideacentre_Y710_Cube_Desktop_Intel_Core_i7/20%Monthly2017-07-20 23:07
http://www.hotnewdeal.com/2017/07/20/197784_Automatic_Pop_Up_Tent_Waterproof_and_AntiUV_for_2/20%Monthly2017-07-20 22:56
http://www.hotnewdeal.com/2017/07/20/197783_Crayola_LongBarrel_Colored_Woodcase_Pencils_12C/20%Monthly2017-07-20 22:52
http://www.hotnewdeal.com/2017/07/20/197782_Fitness_Reality_810XLT_Super_Max_Power_Cage_175_w/20%Monthly2017-07-20 22:33
http://www.hotnewdeal.com/2017/07/20/197781_25_Ounce_Pouch_of_Purina_Beyond_Natural_Grain_Free/20%Monthly2017-07-20 22:33
http://www.hotnewdeal.com/2017/07/20/197780_Red_Pocket_Mobile_Premium_Annual_Prepaid_Phone_Pla/20%Monthly2017-07-20 22:14
http://www.hotnewdeal.com/2017/07/20/197779_US_Military_Exchange_17_discount_all_products_inc/20%Monthly2017-07-20 21:58
http://www.hotnewdeal.com/2017/07/20/197778_Global_G46__7_inch_18cm_Santoku_Knife_for_639/20%Monthly2017-07-20 21:47
http://www.hotnewdeal.com/2017/07/20/197777_Tag_Heuer_Senna_Racing_Square_Sunglasses_11999/20%Monthly2017-07-20 21:47
http://www.hotnewdeal.com/2017/07/20/197776_240GB_SanDisk_Plus_25_Internal_Solid_State_Drive/20%Monthly2017-07-20 21:47
http://www.hotnewdeal.com/2017/07/20/197775_Prime_Members_Snyders_of_Hanover_Pretzel_Variety/20%Monthly2017-07-20 21:47
http://www.hotnewdeal.com/2017/07/20/197774_Dewalt_DCD780C2R_20V_MAX_Cordless_LithiumIon_12_/20%Monthly2017-07-20 21:47
http://www.hotnewdeal.com/2017/07/20/197773_adidas_Energy_Boost_3_Mens_Running_Shoe_7045__F/20%Monthly2017-07-20 21:30
http://www.hotnewdeal.com/2017/07/20/197771_Polk_LSI_Bundle_cherry_open_box_pair_of_m705_fl/20%Monthly2017-07-20 21:05
http://www.hotnewdeal.com/2017/07/20/197770_4TB_WD_Easystore_External_USB_30_Portable_Hard_Dr/20%Monthly2017-07-20 20:55
http://www.hotnewdeal.com/2017/07/20/197769_5_Off_Fandangocom_tickets_Fandango_App__Androi/20%Monthly2017-07-20 20:55
http://www.hotnewdeal.com/2017/07/20/197768_Kumho_SIZE_22545R17_20008_for_set_of_4_after_r/20%Monthly2017-07-20 20:51
http://www.hotnewdeal.com/2017/07/20/197767_Orcs_Must_Die_Unchained__Plus_Pack_DLC__Free_for/20%Monthly2017-07-20 20:39
http://www.hotnewdeal.com/2017/07/20/197766_Apple_Magic_Keyboard_MLA22LLA_69_after_20_reb/20%Monthly2017-07-20 20:38
http://www.hotnewdeal.com/2017/07/20/197765_15_Off_50_On_Groceries_At_Jetcom_New__Existin/20%Monthly2017-07-20 20:38
http://www.hotnewdeal.com/2017/07/20/197764_Frys_InStore_Offer_55_OLED55B6P_or_OLED55C6P_O/20%Monthly2017-07-20 19:58
http://www.hotnewdeal.com/2017/07/20/197763_eGifter_Summer_Flash_Sale__100_Lowes_GC_for_90/20%Monthly2017-07-20 19:44
http://www.hotnewdeal.com/2017/07/20/197762_GIGABYTE_GAN3050N_Motherboard__CPU_Combo_for_50/20%Monthly2017-07-20 19:44
http://www.hotnewdeal.com/2017/07/20/197761_Coleman_Portable_Butane_Stove_1303__Free_Store_/20%Monthly2017-07-20 19:29
http://www.hotnewdeal.com/2017/07/20/197759_Epic_Beef_Jerky_Hunt_and_Harvest_Mix/20%Monthly2017-07-20 18:59
http://www.hotnewdeal.com/2017/07/20/197758_Converting_Outdoor_Swing_Canopy_Hammock_3Seats_Pa/20%Monthly2017-07-20 18:43
http://www.hotnewdeal.com/2017/07/20/197757_Jelly_Jam_season_1_Kids__Family__FREE_to_own_i/20%Monthly2017-07-20 18:43
http://www.hotnewdeal.com/2017/07/20/197756_Intel_Core_i56600k_back_down_below_170__Amazon_/20%Monthly2017-07-20 18:25
http://www.hotnewdeal.com/2017/07/20/197755_24count_Grove_Square_Hot_Cocoa_KCups_Milk_Choc/20%Monthly2017-07-20 18:09
http://www.hotnewdeal.com/2017/07/20/197754_27_Dell_S2716DG_2560x1440_144Hz_GSync_Gaming_Mon/20%Monthly2017-07-20 17:59
http://www.hotnewdeal.com/2017/07/20/197753_Namaste_Foods_Gluten_Free_Brownie_Mix_30Ounce_B/20%Monthly2017-07-20 17:59
http://www.hotnewdeal.com/2017/07/20/197752_Newegg__HGST_DeskStar_NAS_35_6TB_7200_RPM_128MB/20%Monthly2017-07-20 17:59
http://www.hotnewdeal.com/2017/07/20/197750_Bang_Card_Game_4th_Edition_934__Walmart__Am/20%Monthly2017-07-20 17:59
http://www.hotnewdeal.com/2017/07/20/197749_LL_Bean_Today_Only_Womens_Pathfinder_Ventilated_W/20%Monthly2017-07-20 17:59
http://www.hotnewdeal.com/2017/07/20/197748_Total_Wireless_SIM_Card_Activation_Kit_as_low_as_3/20%Monthly2017-07-20 17:48
http://www.hotnewdeal.com/2017/07/20/197747_Horizon_Zero_Dawn__PreOwned_PS4_2246_at_Wal/20%Monthly2017-07-20 17:35
http://www.hotnewdeal.com/2017/07/20/197746_Lows_has_Buddeez_Kingsford_32Quart_Black_Charcoal/20%Monthly2017-07-20 17:35
http://www.hotnewdeal.com/2017/07/20/197745_Car__Driver_3_per_year_when_you_buy_4_years_/20%Monthly2017-07-20 17:34
http://www.hotnewdeal.com/2017/07/20/197744_Star_Trek__Bridge_Crew_PS4PSVR__w_GCU_2399/20%Monthly2017-07-20 17:34
http://www.hotnewdeal.com/2017/07/20/197743_Astros_Baseball__15_games_for_99/20%Monthly2017-07-20 17:17
http://www.hotnewdeal.com/2017/07/20/197742_AMD_Ryzen_7_1700_Processor_with_Wraith_Spire_LED_C/20%Monthly2017-07-20 17:02
http://www.hotnewdeal.com/2017/07/20/197741_Klean_Kanteen_Insulated_Classic_Stainless_Steel_Bo/20%Monthly2017-07-20 17:02
http://www.hotnewdeal.com/2017/07/20/197740_Harman_Kardon_HKTS_30_51Channel_Home_Theater_Spe/20%Monthly2017-07-20 17:02
http://www.hotnewdeal.com/2017/07/20/197739_Lords_of_Waterdeep_A_Dungeons__Dragons_Board_Gam/20%Monthly2017-07-20 16:49
http://www.hotnewdeal.com/2017/07/20/197738_New_trent_bluetooth_speaker_395_FSPrime/20%Monthly2017-07-20 16:38
http://www.hotnewdeal.com/2017/07/20/197737_Monoprice_Monolith_M1060_Planar_Magnetic_Headphone/20%Monthly2017-07-20 16:38
http://www.hotnewdeal.com/2017/07/20/197736_Refurbished_Jabra_Storm_Bluetooth_Headset_for_14/20%Monthly2017-07-20 16:38
http://www.hotnewdeal.com/2017/07/20/197735_HUSKY_8_ft_Solid_Wood_Top_Adjustable_Height_Workb/20%Monthly2017-07-20 16:38
http://www.hotnewdeal.com/2017/07/20/197734_Tom__Jerry_Spotlight_Collection_DVD_Vol_13_21_o/20%Monthly2017-07-20 16:15
http://www.hotnewdeal.com/2017/07/20/197733_HIFIMAN_HE400i_Planar_Magnetic_Full_Sized_Headpho/20%Monthly2017-07-20 16:08
http://www.hotnewdeal.com/2017/07/20/197732_Target__BOGO_50_off_whole_bean_or_ground_coffee/20%Monthly2017-07-20 16:08
http://www.hotnewdeal.com/2017/07/20/197731_SanDisk_SSD_PLUS_240GB_Solid_State_Drive_SDSSDA2/20%Monthly2017-07-20 16:08
http://www.hotnewdeal.com/2017/07/20/197730_Coresmo_Solar_String_Lights_198ft_31LED_Crystal_G/20%Monthly2017-07-20 16:07
http://www.hotnewdeal.com/2017/07/20/197729_Renogy_Phoenix_Portable_Generator_Allinone_Solar/20%Monthly2017-07-20 16:07
http://www.hotnewdeal.com/2017/07/20/197728_Dell_XPS_15_156_FHD_IPS_i77700HQ_16GB_DDR4/20%Monthly2017-07-20 15:57
http://www.hotnewdeal.com/2017/07/20/197727_Pack_of_144_Planters_Peanuts_Salted_1_Ounce_Sing/20%Monthly2017-07-20 15:47
http://www.hotnewdeal.com/2017/07/20/197726_Epson_Work_Force_WF3620_Wireless_Allinone_printe/20%Monthly2017-07-20 15:47
http://www.hotnewdeal.com/2017/07/20/197725_Dallas_to_Brussels_Belgium_420_RT_on_SkyTeam_Airl/20%Monthly2017-07-20 15:37
http://www.hotnewdeal.com/2017/07/20/197723_HomeDepotcom_Aberdeen_Bathroom_Vanities_up_to_38/20%Monthly2017-07-20 15:37
http://www.hotnewdeal.com/2017/07/20/197722_Refurbished_VIZIO_D60nE3_DSeries_D60nE3_60_108/20%Monthly2017-07-20 15:23
http://www.hotnewdeal.com/2017/07/20/197721_Asus__G11CD_Desktop__Intel_Core_i5__16GB_Memory/20%Monthly2017-07-20 15:19
http://www.hotnewdeal.com/2017/07/20/197720_NeverKink_Boat_and_Camper_Drinking_Water_Safe_1/20%Monthly2017-07-20 15:19
http://www.hotnewdeal.com/2017/07/20/197719_Digital_Optical_Audio_Cable_for_Vizio_Samsung_LG_S/20%Monthly2017-07-20 15:18
http://www.hotnewdeal.com/2017/07/20/197718_Rio_2_3D_Bluray_800/20%Monthly2017-07-20 15:18
http://www.hotnewdeal.com/2017/07/20/197717_Citi_Pay_Masterpass_Earn_a_10_Statement_Credit_W/20%Monthly2017-07-20 15:07
http://www.hotnewdeal.com/2017/07/20/197716_FisherPrice_Imaginext_DC_Super_Friends_Super_Hero/20%Monthly2017-07-20 15:07
http://www.hotnewdeal.com/2017/07/20/197715_GreenWorks_GMax_40V_Cordless_Blower_Bare_Tool_/20%Monthly2017-07-20 14:49
http://www.hotnewdeal.com/2017/07/20/197714_Xiaomi_Mi_Robot_Smart_Vacuum_Cleaner__29899__F/20%Monthly2017-07-20 14:48
http://www.hotnewdeal.com/2017/07/20/197713_Eddie_Bauer_Extra_40_Off_Clearance_Womens_Pilch/20%Monthly2017-07-20 14:48
http://www.hotnewdeal.com/2017/07/20/197712_This_War_of_Mine_PC_Digital_Download_304_via_G/20%Monthly2017-07-20 14:48
http://www.hotnewdeal.com/2017/07/20/197711_Barneys_New_York_Hannah_Chain_Shoulder_Bag/20%Monthly2017-07-20 14:41
http://www.hotnewdeal.com/2017/07/20/197710_Pioneer_AVH4201NEX_7Multimedia_Receiver_with_ND/20%Monthly2017-07-20 14:37
http://www.hotnewdeal.com/2017/07/20/197709_PSN_Flash_saleThe_Order_1886_for_5_MEA_30_PS/20%Monthly2017-07-20 14:37
http://www.hotnewdeal.com/2017/07/20/197708_Nike_Pro_Dry_Mens_34_Training_Tights__Blue_Only/20%Monthly2017-07-20 14:37
http://www.hotnewdeal.com/2017/07/20/197707_Frys_That_70s_Show_Season_1_Bluray_or_That_/20%Monthly2017-07-20 14:37
http://www.hotnewdeal.com/2017/07/20/197706_Kohls_Cardholders_Mens_Big__Tall_Van_Heusen_Re/20%Monthly2017-07-20 14:16
http://www.hotnewdeal.com/2017/07/20/197705_Shadow_Warrior_PC_FREE/20%Monthly2017-07-20 14:12
http://www.hotnewdeal.com/2017/07/20/197703_Rockport_Flash_Sale_Extra_30_Off_Already_Reduced_/20%Monthly2017-07-20 14:12
http://www.hotnewdeal.com/2017/07/20/197702_Flashlight_Sale_Imalent_DN70_3800Lm_XHP70_61_DT7/20%Monthly2017-07-20 14:11
http://www.hotnewdeal.com/2017/07/20/197701_ASUS_ZenBook_Flip_UX360CA_479/20%Monthly2017-07-20 14:07
http://www.hotnewdeal.com/2017/07/20/197700_Target_BM_clearance_YMMV_Outdoor_Path_Light_Black/20%Monthly2017-07-20 14:07
http://www.hotnewdeal.com/2017/07/20/197699_Cree_LED_Headlamp_Hodgson_Flashlight_Headlight_Wat/20%Monthly2017-07-20 14:06
http://www.hotnewdeal.com/2017/07/20/197698_Shirt_Woot_10_of_purchases_of_20_or_more_and_fr/20%Monthly2017-07-20 14:06
http://www.hotnewdeal.com/2017/07/20/197697_Beyerdynamic_MMX_41_iE_InEar_Headphones_20AC/20%Monthly2017-07-20 14:06
http://www.hotnewdeal.com/2017/07/20/197696_Shark_Rocket_Handheld_Vacuum_Refurbished_385_Sh/20%Monthly2017-07-20 13:56
http://www.hotnewdeal.com/2017/07/20/197695_512GB_Sandisk_Enterprise_X300s_MLC_80mm_2280_SAT/20%Monthly2017-07-20 13:47
http://www.hotnewdeal.com/2017/07/20/197694_55_LG_OLED55B6P_4K_OLED_HDTV__400_Dell_eGift_Ca/20%Monthly2017-07-20 13:40
http://www.hotnewdeal.com/2017/07/20/197693_Discover_Card_to_offer_free_dark_web_monitoring/20%Monthly2017-07-20 13:40
http://www.hotnewdeal.com/2017/07/20/197692_Logitech__CREATE_Case_for_Apple_iPad_Pro_129_/20%Monthly2017-07-20 13:40
http://www.hotnewdeal.com/2017/07/20/197691_Monoprice_has_various_ZWave_Plus_Sensors_and_Item/20%Monthly2017-07-20 13:40
http://www.hotnewdeal.com/2017/07/20/197690_25_Brinker_4Choice_Gift_Card_Chilis_On_the_Bo/20%Monthly2017-07-20 13:40
http://www.hotnewdeal.com/2017/07/20/197689_Prime_Members_Chemical_Guys_Professional_Grade_Pr/20%Monthly2017-07-20 13:40
http://www.hotnewdeal.com/2017/07/20/197688_Intel_Core_i5_6600K_350_GHz_Quad_Core_Skylake_Des/20%Monthly2017-07-20 13:40
http://www.hotnewdeal.com/2017/07/20/197687_Hamilton_Jazzmaster_Viewmatic_Automatic_Stainless_/20%Monthly2017-07-20 13:40
http://www.hotnewdeal.com/2017/07/20/197686_FREE_Diablo_Tools_Game_Changer_TShirt/20%Monthly2017-07-20 13:40
http://www.hotnewdeal.com/2017/07/20/197685_Apple_iPad_Pro_129_Smart_Cover_Charcoal_Gray_4/20%Monthly2017-07-20 13:25
http://www.hotnewdeal.com/2017/07/20/197683_20_Amazon_SS_Fillers_under_2_Werthers_Original/20%Monthly2017-07-20 13:25
http://www.hotnewdeal.com/2017/07/20/197682_HDTV_Antenna_50_miles_range_1487/20%Monthly2017-07-20 13:25
http://www.hotnewdeal.com/2017/07/20/197681_Prime_only_Intel_Boxed_Core_i76850K_Processor_f/20%Monthly2017-07-20 13:25
http://www.hotnewdeal.com/2017/07/20/197680_Nothing_bundt_Cake_BOGO/20%Monthly2017-07-20 13:25
http://www.hotnewdeal.com/2017/07/20/197679_HP_ENVY_750411_Desktop_Intel_Core_i56400_Proces/20%Monthly2017-07-20 13:16
http://www.hotnewdeal.com/2017/07/20/197678_QNAP_TS451_4bay_Diskless_NAS_360AC_Synology_DS21/20%Monthly2017-07-20 13:15
http://www.hotnewdeal.com/2017/07/20/197676_Galaxy_S8_Plus_cases_2992X_Nintendo_2DS_XL_sc/20%Monthly2017-07-20 13:01
http://www.hotnewdeal.com/2017/07/20/197675_Holmes_38_inch_Tower_Fan_2429_plus_tax_Free_Ship/20%Monthly2017-07-20 13:01
http://www.hotnewdeal.com/2017/07/20/197674_Microsoft_Office_2016_Professional_Plus_for_3377/20%Monthly2017-07-20 13:01
http://www.hotnewdeal.com/2017/07/20/197673_Seagate_Backup_Plus_4TB_Desktop_External_Hard_Driv/20%Monthly2017-07-20 13:01
http://www.hotnewdeal.com/2017/07/20/197672_Star_Sky_Fidget_Spinner_049__free_shipping/20%Monthly2017-07-20 12:51
http://www.hotnewdeal.com/2017/07/20/197671_Autogeek_24_Hr_Sale__20_Off_and_Free_Shipping_n/20%Monthly2017-07-20 12:50
http://www.hotnewdeal.com/2017/07/20/197670_Newegg_has_Synology_DS_18178G_with_50_off_prom/20%Monthly2017-07-20 12:46
http://www.hotnewdeal.com/2017/07/20/197669_Mens_Leather_Belt_Sliding_Buckle_Starting__104/20%Monthly2017-07-20 12:46
http://www.hotnewdeal.com/2017/07/20/197668_Xersion_Mens_Short_Sleeve_Crew_Neck_TShirt_15_fo/20%Monthly2017-07-20 12:45
http://www.hotnewdeal.com/2017/07/20/197667_Target_Cartwheel_50_Off_Starbucks_Tea_Infusions_/20%Monthly2017-07-20 12:45
http://www.hotnewdeal.com/2017/07/20/197666_Penny_Dreadful_The_Complete_Series_Bluray_29/20%Monthly2017-07-20 12:45
http://www.hotnewdeal.com/2017/07/20/197665_5Pack_Shine_Hai_Grill_Mat_NonStick_BBQ_Grill__B/20%Monthly2017-07-20 12:32
http://www.hotnewdeal.com/2017/07/20/197664_Mainstays_5piece_Dining_Set_Multiple_Colors_109/20%Monthly2017-07-20 12:32
http://www.hotnewdeal.com/2017/07/20/197663_Addon_w_Amazon_Alexa_Trailmaker_Kids_Emoji_Back/20%Monthly2017-07-20 12:05
http://www.hotnewdeal.com/2017/07/20/197661_WD__My_Passport_4TB_External_USB_30_Portable_Har/20%Monthly2017-07-20 12:05
http://www.hotnewdeal.com/2017/07/20/197660_BB_Early_Access_Sennheiser_HD558_Audiophile_Over_/20%Monthly2017-07-20 11:49
http://www.hotnewdeal.com/2017/07/20/197659_Kohls_Cardholders_Juniors_SO_Pull_On_Jeggings_/20%Monthly2017-07-20 11:49
http://www.hotnewdeal.com/2017/07/20/197658_SanDisk__Cruzer_Glide_32GB_USB_20_Flash_Drive__/20%Monthly2017-07-20 11:49
http://www.hotnewdeal.com/2017/07/20/197657_Oculus_Rift_Summer_of_Rift_Software_Bundles__3/20%Monthly2017-07-20 11:39
http://www.hotnewdeal.com/2017/07/20/197656_Federal_Independence_XM855_556mm_62gr_FMJ_1000_Rn/20%Monthly2017-07-20 11:30
http://www.hotnewdeal.com/2017/07/20/197655_32GB_Sony_Xperia_X_GSM_Unlocked_Smartphone_230__/20%Monthly2017-07-20 11:29
http://www.hotnewdeal.com/2017/07/20/197654_Arizona_Mens_Jeans_or_Chinos_3_for_44__free_shi/20%Monthly2017-07-20 11:15
http://www.hotnewdeal.com/2017/07/20/197653_Weed_Eater_20V_Lithiumion_Battery_Powered_12_Str/20%Monthly2017-07-20 11:15
http://www.hotnewdeal.com/2017/07/20/197652_Lithium_Jump_Starter_Up_to_65L_Gas_or_50L_Diese/20%Monthly2017-07-20 11:02
http://www.hotnewdeal.com/2017/07/20/197651_Acer_R_11_2in1_116_inch_TouchScreen_Chromebook/20%Monthly2017-07-20 10:53
http://www.hotnewdeal.com/2017/07/20/197650_GUM_Power_Rangers_Dino_Charge_Power_Toothbrush_3/20%Monthly2017-07-20 10:53
http://www.hotnewdeal.com/2017/07/20/197649_Neal_Stephenson_Zodiac_Kindle_Edition_099__A/20%Monthly2017-07-20 10:24
http://www.hotnewdeal.com/2017/07/20/197648_Pet360__Site_shutting_down_Clearance_prices_PLUS/20%Monthly2017-07-20 10:24
http://www.hotnewdeal.com/2017/07/20/197647_Big_Lots_Online__InStore_Coupon_40_Off_200/20%Monthly2017-07-20 10:24
http://www.hotnewdeal.com/2017/07/20/197646_Kershaw_1730SS_Stainless_Steel_Zing_Knife_with_Spe/20%Monthly2017-07-20 10:08
http://www.hotnewdeal.com/2017/07/20/197645_64Oz_Hydro_flask_Wide_Mouth_30_or_less_18Oz_/20%Monthly2017-07-20 09:56
http://www.hotnewdeal.com/2017/07/20/197644_Tillys_Red_Tag_Sale_70_Off_Select_Items_Womens_/20%Monthly2017-07-20 09:56
http://www.hotnewdeal.com/2017/07/20/197643_TPLink_TGR1900BLU_OnHub_AC1900_Wireless_Router__/20%Monthly2017-07-20 09:56
http://www.hotnewdeal.com/2017/07/20/197642_Plano_Molding_Corner_Tool_Rack_10__Free_Store_Pi/20%Monthly2017-07-20 09:56
http://www.hotnewdeal.com/2017/07/20/197641_dodocool_USB_Charger_6_Ports_USB_Charging_Station_/20%Monthly2017-07-20 09:37
http://www.hotnewdeal.com/2017/07/20/197640_Harbor_Freight__25_Off_Any_Single_Item__Instor/20%Monthly2017-07-20 09:31
http://www.hotnewdeal.com/2017/07/20/197639_Home_Expressions_Faux_Fur_or_Plush_Back_Rest_Pillo/20%Monthly2017-07-20 09:16
http://www.hotnewdeal.com/2017/07/20/197638_Clarks_Womens_Brikley_Nora_or_Athol_Flip_Flops_2/20%Monthly2017-07-20 09:15
http://www.hotnewdeal.com/2017/07/20/197637_Litter_Genie_Plus_Cat_Litter_Disposal_System__14/20%Monthly2017-07-20 09:15
http://www.hotnewdeal.com/2017/07/20/197636_8Pack_Electric_Toothbrush_Heads_Replacement_for_B/20%Monthly2017-07-20 09:00
http://www.hotnewdeal.com/2017/07/20/197635_Prime_Members_Royal_Basmati_Rice_15Pound_Bag_1/20%Monthly2017-07-20 08:47
http://www.hotnewdeal.com/2017/07/20/197634_Keurig_K10K15_Personal_Coffee_Brewer_49__free_s/20%Monthly2017-07-20 08:20
http://www.hotnewdeal.com/2017/07/20/197633_25_Dominos_Pizza_Gift_Card__5_Bonus_Dominos_P/20%Monthly2017-07-20 07:34
http://www.hotnewdeal.com/2017/07/20/197632_229__Xbox_One_S_Minecraft_Bundle__Wireless_Cont/20%Monthly2017-07-20 07:17
http://www.hotnewdeal.com/2017/07/20/197631_Griots_Garage_6_Random_Orbital_Polisher_10999/20%Monthly2017-07-20 07:17
http://www.hotnewdeal.com/2017/07/20/197629_Best_Buy_Insignia__AA_and_AAA_Batteries_48Pac/20%Monthly2017-07-20 05:34
http://www.hotnewdeal.com/2017/07/20/197628_Jackson_Eagle_46_handle_RoundPoint_Shovel_Steel/20%Monthly2017-07-20 05:34
http://www.hotnewdeal.com/2017/07/20/197627_The_Complete_Die_Hard_Collection_Nakatomi_Plaza_E/20%Monthly2017-07-20 05:13
http://www.hotnewdeal.com/2017/07/20/197626_Target_Threshold_Accent_Table__Nightstand_25_S/20%Monthly2017-07-20 05:13
http://www.hotnewdeal.com/2017/07/20/197625_LIAN_LI_DK05X_Black_Aluminum_199999__35_off_w/20%Monthly2017-07-20 05:13
http://www.hotnewdeal.com/2017/07/20/197623_Vena_Smartphone_Cases_for_iPhone_77_Plus6S6S_Pl/20%Monthly2017-07-20 04:13
http://www.hotnewdeal.com/2017/07/20/197622_1399_with_46_off_on_Magnetic_Building_Blocks_3/20%Monthly2017-07-20 03:37
http://www.hotnewdeal.com/2017/07/20/197621_Crank_Brothers_Multi_Bicycle_Tools_17Function_fo/20%Monthly2017-07-20 03:37
http://www.hotnewdeal.com/2017/07/20/197620_Orajel_SpiderMan_Anticavity_Fluoride_Toothpaste_i/20%Monthly2017-07-20 03:36
http://www.hotnewdeal.com/2017/07/20/197619_010_digital_movie_rentals__Amazon_Video__The_D/20%Monthly2017-07-20 02:34
http://www.hotnewdeal.com/2017/07/20/197617_Shogun_Asian_Saga_Book_1_Kindle_Edition_2/20%Monthly2017-07-20 02:34
http://www.hotnewdeal.com/2017/07/20/197616_Add_on_item__Little_Tikes_Tumble_train_for_733/20%Monthly2017-07-20 02:13
http://www.hotnewdeal.com/2017/07/20/197615_Massdrop_x_Sennheiser_PC37X_Gaming_Headset_for_11/20%Monthly2017-07-20 02:13
http://www.hotnewdeal.com/2017/07/20/197614_TMobile_Tuesday_72517_Week_60_Free_Disney_eb/20%Monthly2017-07-20 02:05
http://www.hotnewdeal.com/2017/07/20/197613_Epson_Home_Cinema_2045_1080p_3LCD_Projector_White/20%Monthly2017-07-20 01:34
http://www.hotnewdeal.com/2017/07/20/197612_4TB_WD_Easystore_External_USB_30_Hard_Drive__25/20%Monthly2017-07-20 01:34
http://www.hotnewdeal.com/2017/07/20/197611_Best_Buy_Free_25_Gift_Card_with_Select_WD_Intern/20%Monthly2017-07-20 01:34
http://www.hotnewdeal.com/2017/07/20/197610_Mjx_Bugs_3_Brushless_Motors_Quadcopter_RC_Drone_wi/20%Monthly2017-07-20 01:26
http://www.hotnewdeal.com/2017/07/20/197609_walmartcom_price_mistaketitle_error_case_prices/20%Monthly2017-07-20 01:13
http://www.hotnewdeal.com/2017/07/20/197608_Intel_Core_i37350K_Kaby_Lake_42_GHz_Desktop_CPU_/20%Monthly2017-07-20 01:13
http://www.hotnewdeal.com/2017/07/20/197607_Fitness_Reality_810XLT_Super_Max_Power_Cage_with_8/20%Monthly2017-07-20 01:13
http://www.hotnewdeal.com/2017/07/20/197606_Lego_Star_Wars_Poes_XWing_Fighter_75102_49_at_W/20%Monthly2017-07-20 01:13
http://www.hotnewdeal.com/2017/07/20/197605_DOOM_for_Xbox_One__Digital_Version__1499__Fre/20%Monthly2017-07-20 00:21
http://www.hotnewdeal.com/2017/07/20/197604_5_and_6_Port_Desktop_Charging_Stations_for_831_o/20%Monthly2017-07-20 00:21
http://www.hotnewdeal.com/2017/07/20/197603_Amazon_Fire_HD_6_8GB_WiFi_Tablet_25_RFB/20%Monthly2017-07-20 00:13
http://www.hotnewdeal.com/2017/07/20/197602_Logitech_C920_1080p_Pro_Webcam_4999_or_Logitech_/20%Monthly2017-07-20 00:13
http://www.hotnewdeal.com/2017/07/20/197601_Mens_Adidas_UltraBOOST_ST_Running_Shoe_90__FS/20%Monthly2017-07-20 00:05
http://www.hotnewdeal.com/2017/07/20/197600_RiceSelect_Texmati_Light_Brown_Rice_Long_Grain_Am/20%Monthly2017-07-20 00:05
http://www.hotnewdeal.com/2017/07/20/197599_CraZArt_Super_Coloring_Tub_1199_wfree_store_p/20%Monthly2017-07-20 00:05
http://www.hotnewdeal.com/2017/07/19/197598_Free_50_Best_Buy_Gift_Card_with_Nespresso_Coffee_/20%Monthly2017-07-19 23:48
http://www.hotnewdeal.com/2017/07/19/197597_Nerf_NStike_Thunderblast_Launcher__free_store_pi/20%Monthly2017-07-19 23:48
http://www.hotnewdeal.com/2017/07/19/197596_Houston__50_Off_Your_Next_5_UBER_Rides_Up_to_6/20%Monthly2017-07-19 23:48
http://www.hotnewdeal.com/2017/07/19/197595_Doom_DLCSeason_Pass_Free_After_Update__PS4XB1P/20%Monthly2017-07-19 23:23
http://www.hotnewdeal.com/2017/07/19/197594_Pepsi_Cola_1893_Original_Cola_Certified_Fair_Tra/20%Monthly2017-07-19 23:16
http://www.hotnewdeal.com/2017/07/19/197592_Dominos_Giftcard_at_Groupon_20_GC_for_10__By_I/20%Monthly2017-07-19 22:56
http://www.hotnewdeal.com/2017/07/19/197591_still_available_50_Off_Underwear_Socks_and_/20%Monthly2017-07-19 22:47
http://www.hotnewdeal.com/2017/07/19/197590_Bestbuy_Elite_Members_only_hp_27_inch_led_monitor/20%Monthly2017-07-19 22:47
http://www.hotnewdeal.com/2017/07/19/197589_Stainless_Steel_Travel_Mug_Thermos_897_Various_/20%Monthly2017-07-19 22:38
http://www.hotnewdeal.com/2017/07/19/197588_Sony_Playstation_VR_Core_Bundle_PSVR__PS4_Camera/20%Monthly2017-07-19 22:37
http://www.hotnewdeal.com/2017/07/19/197587_Game_Controller_for_NES_Classic_With_10Feet_Attac/20%Monthly2017-07-19 22:37
http://www.hotnewdeal.com/2017/07/19/197585_Rokinon_85mm_T15_Cine_Lens_for_Sony_E_Mount_or_Ca/20%Monthly2017-07-19 22:16
http://www.hotnewdeal.com/2017/07/19/197584_Philips_L2BO27_Fidelio_High_Fidelity_Headphones_w/20%Monthly2017-07-19 22:08
http://www.hotnewdeal.com/2017/07/19/197583_MERRILL_Visa_Signature_Credit_Card_Phone_Apply_O/20%Monthly2017-07-19 22:07
http://www.hotnewdeal.com/2017/07/19/197582_Durable_Lightweight_Packable_Travel_Hiking_Backpac/20%Monthly2017-07-19 21:48
http://www.hotnewdeal.com/2017/07/19/197581_New_Trent_Bluetooth_V41_Sport_HD_Stereo_Headset_I/20%Monthly2017-07-19 21:17
http://www.hotnewdeal.com/2017/07/19/197580_Titanfall_2_PC_Origin_Standard_1999__Deluxe_/20%Monthly2017-07-19 21:17
http://www.hotnewdeal.com/2017/07/19/197579_Under_5_Amazon_SS_15_or_add_on_item_Grove_Sq/20%Monthly2017-07-19 20:25
http://www.hotnewdeal.com/2017/07/19/197578_Lego_Batman_Movie_The_2017_BD_Bluray__15_/20%Monthly2017-07-19 20:25
http://www.hotnewdeal.com/2017/07/19/197577_Sony_HDRCX900_Full_HD_Handycam_Camcorder__650_C/20%Monthly2017-07-19 20:06
http://www.hotnewdeal.com/2017/07/19/197576_Brother_MFCL2700DW_Wireless_Monochrome_AllInOne/20%Monthly2017-07-19 20:06
http://www.hotnewdeal.com/2017/07/19/197575_1_Year_Playstation_PS_Plus_Membership_Card_48_FS/20%Monthly2017-07-19 19:47
http://www.hotnewdeal.com/2017/07/19/197574_super_cheap_lunch_box_from_amaozn_for_27/20%Monthly2017-07-19 19:41
http://www.hotnewdeal.com/2017/07/19/197573_Injustice_2_PS4XBO__Best_Buy_EliteElite_Plus_/20%Monthly2017-07-19 19:30
http://www.hotnewdeal.com/2017/07/19/197572_Samsung_S2_tab_80_Gold_Color_24999_at_Best_Buy/20%Monthly2017-07-19 19:26
http://www.hotnewdeal.com/2017/07/19/197571_True_Vacuum_Seal_Coffee_Container_1297_free_prim/20%Monthly2017-07-19 19:26
http://www.hotnewdeal.com/2017/07/19/197570_HomefrontThe_Revolution_Goliath_Edition__PlaySta/20%Monthly2017-07-19 19:25
http://www.hotnewdeal.com/2017/07/19/197569_Lego_Ghostbusters_Ecto_1_and_Ecto_2_2016_75828_YMM/20%Monthly2017-07-19 19:25
http://www.hotnewdeal.com/2017/07/19/197568_6_Pack_of_05W_Plugin_LED_Night_Light_Lamp_with_S/20%Monthly2017-07-19 19:15
http://www.hotnewdeal.com/2017/07/19/197567_LG_65UJ6300__65_Super_UHD_4K_HDR_Smart_LED_TV_2/20%Monthly2017-07-19 19:01
http://www.hotnewdeal.com/2017/07/19/197566_Polk_Audio_Atrium_5_Outdoor_Speakers_pair_130_/20%Monthly2017-07-19 19:00
http://www.hotnewdeal.com/2017/07/19/197565_Rosewill_1500_watt_15_L_Insulated_Stainless_steel/20%Monthly2017-07-19 19:00
http://www.hotnewdeal.com/2017/07/19/197564_SHARKK_BEAST_45W_Bluetooth_Speaker_21_Channel_Wir/20%Monthly2017-07-19 18:31
http://www.hotnewdeal.com/2017/07/19/197563_Bayonetta_Digital_Code_PC__1339__Bundlestars/20%Monthly2017-07-19 18:31
http://www.hotnewdeal.com/2017/07/19/197562_Window_Air_Conditioners_LG_6000_BTU_134__LG_8/20%Monthly2017-07-19 18:15
http://www.hotnewdeal.com/2017/07/19/197561_2017_Uppababy_Cruz_29999__32999/20%Monthly2017-07-19 17:57
http://www.hotnewdeal.com/2017/07/19/197560_2Pack_66_ICONIC_USBC_to_USB_20_Braided_Nylon_/20%Monthly2017-07-19 17:57
http://www.hotnewdeal.com/2017/07/19/197559_HP__27_IPS_LED_FHD_Monitor__Natural_silver__1/20%Monthly2017-07-19 17:19
http://www.hotnewdeal.com/2017/07/19/197558_VicTsing_garden_Hose_Nozzle_spray_75_free_shippi/20%Monthly2017-07-19 17:07
http://www.hotnewdeal.com/2017/07/19/197556_Mega_Man_Legacy_Collection_digital_Mega_Man_16_/20%Monthly2017-07-19 17:05
http://www.hotnewdeal.com/2017/07/19/197555_Audeze_EL8_Titanium_Planar_Magnetic_Closed_Headph/20%Monthly2017-07-19 16:42
http://www.hotnewdeal.com/2017/07/19/197554_Beyerdynamic_DT1350_Gold_Edition_Onear_Headphones/20%Monthly2017-07-19 16:42
http://www.hotnewdeal.com/2017/07/19/197553_Texas_Instruments_TI84_CE_Color_Screen_Graphing_C/20%Monthly2017-07-19 16:42
http://www.hotnewdeal.com/2017/07/19/197552_WEN_6502_4_x_36Inch_Belt_and_6Inch_Disc_Sander_w/20%Monthly2017-07-19 16:41
http://www.hotnewdeal.com/2017/07/19/197551_Samsung_Pay_Get_10_Amazon_Gift_card_for_using_Ca/20%Monthly2017-07-19 16:14
http://www.hotnewdeal.com/2017/07/19/197550_50Ct_Playtex_Sport_Tampons_w_FlexFit_Technology/20%Monthly2017-07-19 16:08
http://www.hotnewdeal.com/2017/07/19/197549_BEST_BUY_LCD_Screen_cleaning_wand_099_free_stor/20%Monthly2017-07-19 16:08
http://www.hotnewdeal.com/2017/07/19/197547_Tillys_Red_Tag_Sale_Mens_Levis_511_Slim_Cut_Off/20%Monthly2017-07-19 15:45
http://www.hotnewdeal.com/2017/07/19/197545_Certified_Refurbished_Microsoft_Surface_Book__sta/20%Monthly2017-07-19 15:23
http://www.hotnewdeal.com/2017/07/19/197544_Stansport_12_egg_container_for_153_wfree_pickup/20%Monthly2017-07-19 15:23
http://www.hotnewdeal.com/2017/07/19/197543_Chemical_Guys_MIC_493_Chenille_Microfiber_Premium_/20%Monthly2017-07-19 15:17
http://www.hotnewdeal.com/2017/07/19/197542_LG_29UB55B_Black_29_IPS_219_UltraWide_IPS_Monit/20%Monthly2017-07-19 15:02
http://www.hotnewdeal.com/2017/07/19/197541_Cat6_Flat_Ethernet_Cable_start_at_693_Upto_42_/20%Monthly2017-07-19 14:56
http://www.hotnewdeal.com/2017/07/19/197540_3899_Lifewit_Genuine_Leather_Vintage_156_Lapto/20%Monthly2017-07-19 14:56
http://www.hotnewdeal.com/2017/07/19/197539_Runners_World__550year/20%Monthly2017-07-19 14:56
http://www.hotnewdeal.com/2017/07/19/197538_3_Case_of_12Pack_of_BALL_WIDE_MOUTH_QUART_32_OZ/20%Monthly2017-07-19 14:55
http://www.hotnewdeal.com/2017/07/19/197537_Peets_Coffee_and_Tea__Peetnik_Rewards_Mobile_App/20%Monthly2017-07-19 14:55
http://www.hotnewdeal.com/2017/07/19/197536_Rocket_League_PC_Digital_Download_959_via_Gree/20%Monthly2017-07-19 14:55
http://www.hotnewdeal.com/2017/07/19/197535_Fcolor_10Ft_Apple_Certified_Braided_8_Pin_Lightni/20%Monthly2017-07-19 14:48
http://www.hotnewdeal.com/2017/07/19/197534_Samsung_Gear_VR_Vitual_Reality_Headset_BlackWhit/20%Monthly2017-07-19 14:40
http://www.hotnewdeal.com/2017/07/19/197533_Tide_PODS_Original_81_count_13_with_SS_or_11/20%Monthly2017-07-19 14:40
http://www.hotnewdeal.com/2017/07/19/197532_Original_Apple_Smart_Cover_for_Apple_iPad_AirAir_/20%Monthly2017-07-19 14:40
http://www.hotnewdeal.com/2017/07/19/197531_Freud_8_inch_stacked_dado_blade_for_6280_free_sh/20%Monthly2017-07-19 14:26
http://www.hotnewdeal.com/2017/07/19/197530_Windex_Outdoor_Refill_Pads_at_Target_Pay_5_receiv/20%Monthly2017-07-19 14:25
http://www.hotnewdeal.com/2017/07/19/197529_Greenworks_24012_7_Amp_Single_Speed_Electric_160_M/20%Monthly2017-07-19 14:25
http://www.hotnewdeal.com/2017/07/19/197528_Master_Lock_2866DATSC_Swivel_Head_Receiver_Lock_fo/20%Monthly2017-07-19 14:25
http://www.hotnewdeal.com/2017/07/19/197527_MSC_Cruises_Caribbean__Mediterranean_2For1_Prom/20%Monthly2017-07-19 14:25
http://www.hotnewdeal.com/2017/07/19/197526_1121_Nintendo_Switch_Premium_Console_Case__Zeld/20%Monthly2017-07-19 14:25
http://www.hotnewdeal.com/2017/07/19/197525_Kindle_Paperwhite_EReader_Wifi_w_3_months_Kindle/20%Monthly2017-07-19 14:25
http://www.hotnewdeal.com/2017/07/19/197524_Kohls_Cardholders_4_Sets_of_Food_Network_4_Piece_/20%Monthly2017-07-19 14:14
http://www.hotnewdeal.com/2017/07/19/197523_Verizon_Smart_Rewards_Members_5_Starbucks_Gift_C/20%Monthly2017-07-19 14:10
http://www.hotnewdeal.com/2017/07/19/197522_Myprotein_2_x_55lb_Impact_Whey_Protein_4999__F/20%Monthly2017-07-19 14:10
http://www.hotnewdeal.com/2017/07/19/197521_BestOffice_54_Steel_Wire_4Tier_Metal_Shelving_Ra/20%Monthly2017-07-19 14:10
http://www.hotnewdeal.com/2017/07/19/197520_Playstation_VR_Headset_with_Free_Playstation_Camer/20%Monthly2017-07-19 14:05
http://www.hotnewdeal.com/2017/07/19/197519_Possible_Amex_platinum_30k_MR_retention_offer/20%Monthly2017-07-19 13:47
http://www.hotnewdeal.com/2017/07/19/197518_20_off_clearance_on_Nikecom/20%Monthly2017-07-19 13:47
http://www.hotnewdeal.com/2017/07/19/197517_Abu_Garcia_Ultra_Max__Vengeance_Baitcasting_Combo/20%Monthly2017-07-19 13:40
http://www.hotnewdeal.com/2017/07/19/197516_iPhone_CaseDrop_Protection_Scratch_Resistant_Rug/20%Monthly2017-07-19 13:34
http://www.hotnewdeal.com/2017/07/19/197515_Apple_Watch_Band_42mm_iWatch_Band_StrapPremium_Vi/20%Monthly2017-07-19 13:34
http://www.hotnewdeal.com/2017/07/19/197514_Apple_iPhone_Lightning_Dock_Space_Gray_2499/20%Monthly2017-07-19 13:34
http://www.hotnewdeal.com/2017/07/19/197513_Browning_Wet_Work_Folder_Knife_1275_AC__Free_Sh/20%Monthly2017-07-19 13:22
http://www.hotnewdeal.com/2017/07/19/197512_iDsonix_2535_SATA_HDDSSD_DualBay_USB_30_Do/20%Monthly2017-07-19 13:16
http://www.hotnewdeal.com/2017/07/19/197511_550W_SeaSonic_G_Series_SSR550RM_80_Gold_Modular_/20%Monthly2017-07-19 13:15
http://www.hotnewdeal.com/2017/07/19/197509_Bat_Hand_Spinner_Fidget_Toy_010__free_shipping/20%Monthly2017-07-19 13:01
http://www.hotnewdeal.com/2017/07/19/197508_TCL_40_Inch_LED_TV_40S305_HDTV_with_builtin_ROKU_/20%Monthly2017-07-19 13:01
http://www.hotnewdeal.com/2017/07/19/197507_JBL_ITX1000_Signature_Series_Sport_Earphones_10/20%Monthly2017-07-19 12:49
http://www.hotnewdeal.com/2017/07/19/197506_720p_Wireless_Home_Security_Camera_with_iOSAndroi/20%Monthly2017-07-19 12:37
http://www.hotnewdeal.com/2017/07/19/197505_Kids_Drum_Set__25_with_Prime/20%Monthly2017-07-19 12:37
http://www.hotnewdeal.com/2017/07/19/197504_Orlando_to_Frankfurt_Germany_500_RT_on_American_A/20%Monthly2017-07-19 11:56
http://www.hotnewdeal.com/2017/07/19/197503_Microsoft_Kinect_Sensor_for_Xbox_One_Black_419/20%Monthly2017-07-19 11:55
http://www.hotnewdeal.com/2017/07/19/197502_Epiphone_Limited_Edition_Les_Paul_Traditional_PRO/20%Monthly2017-07-19 11:55
http://www.hotnewdeal.com/2017/07/19/197501_Fly_fromto_Tampa_3439_ow_and_up_to_11_NEW_Front/20%Monthly2017-07-19 11:55
http://www.hotnewdeal.com/2017/07/19/197500_Fitbit_Charge_2_Bands_B1g1_for_14_on_amazon_via_s/20%Monthly2017-07-19 11:24
http://www.hotnewdeal.com/2017/07/19/197499_LG_OLED65C7P__65_C7_OLED_4K_HDR_Smart_TV_2017_M/20%Monthly2017-07-19 11:23
http://www.hotnewdeal.com/2017/07/19/197498_HP_Omen_REFURB_17quot_4K_Laptop_with_GTX_1070_i/20%Monthly2017-07-19 11:16
http://www.hotnewdeal.com/2017/07/19/197497_Sunglass_Warehouse_Coupon_40_Off_Mens__Womens/20%Monthly2017-07-19 10:56
http://www.hotnewdeal.com/2017/07/19/197496_Vera_Bradley_Extra_40_off_AlreadyReduced_Sale_It/20%Monthly2017-07-19 10:56
http://www.hotnewdeal.com/2017/07/19/197495_Best_Buy_Elite_Members__Macbook_Air_69999__849/20%Monthly2017-07-19 10:56
http://www.hotnewdeal.com/2017/07/19/197494_Hugger_52_in_LED_Brushed_Nickel_Ceiling_Fan_Model/20%Monthly2017-07-19 10:32
http://www.hotnewdeal.com/2017/07/19/197493_Metal_LED_Flashlight_Rugged_w_rechargeable_batter/20%Monthly2017-07-19 10:32
http://www.hotnewdeal.com/2017/07/19/197492_Ideal_15_in_1_wooden_game_cabinet_2073_with_76_/20%Monthly2017-07-19 10:32
http://www.hotnewdeal.com/2017/07/19/197491_Samsung_70_KU6300_4K_UHD_TV__999__Walmart_YMMV/20%Monthly2017-07-19 10:32
http://www.hotnewdeal.com/2017/07/19/197490_Sony_HTCT390_Ultra_Slim_Sound_Bar_w_Bluetooth__5/20%Monthly2017-07-19 10:31
http://www.hotnewdeal.com/2017/07/19/197489_Apple_Watch_Band_42mm_with_Shockproof_Protective_/20%Monthly2017-07-19 10:16
http://www.hotnewdeal.com/2017/07/19/197488_10_ft_HDMI_to_HDMI_High_Speed_Cable_wEthernet__G/20%Monthly2017-07-19 10:16
http://www.hotnewdeal.com/2017/07/19/197487_Star_Wars_dart_board_with_cabinet_now_2497_was/20%Monthly2017-07-19 10:16
http://www.hotnewdeal.com/2017/07/19/197486_Save_42_Royal_Reusable_Microfiber_Cleaning_Cloth_/20%Monthly2017-07-19 10:07
http://www.hotnewdeal.com/2017/07/19/197485_Amazon_Prime_Members_3Pack_48oz_Tide_Liquid_Laun/20%Monthly2017-07-19 10:06
http://www.hotnewdeal.com/2017/07/19/197484_Nostalgia_Electrics_PopUp_Hot_Dog_Toaster__Red_/20%Monthly2017-07-19 10:06
http://www.hotnewdeal.com/2017/07/19/197483_Plush_Toys_Floppy_Monkey_Plush_Animal_Toy_XL_44_/20%Monthly2017-07-19 10:06
http://www.hotnewdeal.com/2017/07/19/197482_ASUS_156_i7_8GB_RAM_FX_Series_Gaming_Notebook_7/20%Monthly2017-07-19 10:06
http://www.hotnewdeal.com/2017/07/19/197481_Refurbished_Jabra_Step_SweatProof_Bluetooth_Spor/20%Monthly2017-07-19 10:06
http://www.hotnewdeal.com/2017/07/19/197480_Caseology_Cases_for_Galaxy_S8S8_Plus_iPhone_77_/20%Monthly2017-07-19 09:48
http://www.hotnewdeal.com/2017/07/19/197479_4Yards_of_Curad_4_Stretch_Rolled_Gauze_163_or_/20%Monthly2017-07-19 09:48
http://www.hotnewdeal.com/2017/07/19/197478_Chicco_KeyFit_30_infant_Car_seat/20%Monthly2017-07-19 09:48
http://www.hotnewdeal.com/2017/07/19/197476_Select_Nintendo_3DS_Games_Buy_One_Get_One_50_Of/20%Monthly2017-07-19 09:47
http://www.hotnewdeal.com/2017/07/19/197475_Best_Buy_Elite_early_access_Online_Only__GOW_4_an/20%Monthly2017-07-19 09:47
http://www.hotnewdeal.com/2017/07/19/197474_96_Pack_Twinings_Lemon_and_Ginger_Herbal_Tea_Only/20%Monthly2017-07-19 09:47
http://www.hotnewdeal.com/2017/07/19/197473_Free_refreshe_Ice_or_Clear_Sparkling_Water_at_Safe/20%Monthly2017-07-19 09:15
http://www.hotnewdeal.com/2017/07/19/197472_DSW_FREE_future_25_bonus_card_wstore_pickup_/20%Monthly2017-07-19 08:38
http://www.hotnewdeal.com/2017/07/19/197471_MacBook_Air_Latest_Model__133_Display__Intel/20%Monthly2017-07-19 08:38
http://www.hotnewdeal.com/2017/07/19/197470_Space_Engineers_PC_Digital_Download_760_via_Gr/20%Monthly2017-07-19 08:23
http://www.hotnewdeal.com/2017/07/19/197469_Swash_Express_Clothing_Care_System__Shadow_Black/20%Monthly2017-07-19 08:23
http://www.hotnewdeal.com/2017/07/19/197467_Chipotle_BOGO_exp_831_mobile__required/20%Monthly2017-07-19 07:54
http://www.hotnewdeal.com/2017/07/19/197466_ZTE_AXON_7_64GB_4G_LTE_Quartz_Gray_Dual_SIM_Unlock/20%Monthly2017-07-19 07:38
http://www.hotnewdeal.com/2017/07/19/197465_Best_Buy_Elite_Members__WD__easystore_4TB_Exter/20%Monthly2017-07-19 07:24
http://www.hotnewdeal.com/2017/07/19/197464_Office_Depot_OfficeMax_Back_to_School_sales_thru_0/20%Monthly2017-07-19 07:24
http://www.hotnewdeal.com/2017/07/19/197463_Day_of_the_Tentacle_and_Grim_Fandango_199_each_o/20%Monthly2017-07-19 07:15
http://www.hotnewdeal.com/2017/07/19/197462_Video_Games_PS4XB1Switch_Dragonball_Ball_Xeno/20%Monthly2017-07-19 06:12
http://www.hotnewdeal.com/2017/07/19/197461_Hitman__Complete_First_Season_Steelbook_PS4XBO/20%Monthly2017-07-19 06:12
http://www.hotnewdeal.com/2017/07/19/197460_Prime_Exclusive_Qnap_TS653A8G_6Bay_24TB6x_/20%Monthly2017-07-19 05:34
http://www.hotnewdeal.com/2017/07/19/197458_Dorco_Pace_6_Mens_Razor_Handle_w_2x_Cartridges/20%Monthly2017-07-19 05:34
http://www.hotnewdeal.com/2017/07/19/197457_Prime_w_Alexa_Neutrogena_Microdermabrasion_Syste/20%Monthly2017-07-19 05:33
http://www.hotnewdeal.com/2017/07/19/197456_Channel_Master_DVR_16gb_14444_plus_Free_Shippin/20%Monthly2017-07-19 05:12
http://www.hotnewdeal.com/2017/07/19/197455_100_BP_Gas_Gift_Card_for_93_on_Ebay/20%Monthly2017-07-19 05:12
http://www.hotnewdeal.com/2017/07/19/197454_10999_Philips_Norelco__7300_Clean__Charge_Wet/20%Monthly2017-07-19 04:13
http://www.hotnewdeal.com/2017/07/19/197453_CVS_1st_Time_Curbside_Pickup_Customers_Get_10_Off/20%Monthly2017-07-19 04:13
http://www.hotnewdeal.com/2017/07/19/197452_Goodyear_Wrangler_Authority_Tire_Clearance_at_Walm/20%Monthly2017-07-19 03:31
http://www.hotnewdeal.com/2017/07/19/197451_Amazon_Add_on__The_Board_Dudes_Magnetic_DryErase/20%Monthly2017-07-19 03:13
http://www.hotnewdeal.com/2017/07/19/197450_The_Complete_Die_Hard_Collection_Nakatomi_Plaza_E/20%Monthly2017-07-19 02:33
http://www.hotnewdeal.com/2017/07/19/197449_Bestbuy_elight_mem_only_iPad_Pro_32gb_39999/20%Monthly2017-07-19 02:33
http://www.hotnewdeal.com/2017/07/19/197447_Walmart_has_some_great_deals_on_Nokian_eNTYRE_tire/20%Monthly2017-07-19 01:34
http://www.hotnewdeal.com/2017/07/19/197446_Everybodys_Golf_for_PS4__Preorder__30__Walmar/20%Monthly2017-07-19 01:34
http://www.hotnewdeal.com/2017/07/19/197445_Digital_HD_Movie_Rentals_The_Dark_Knight_Incepti/20%Monthly2017-07-19 01:13
http://www.hotnewdeal.com/2017/07/19/197444_50Count_Cellucor_CorSport_Protein_Bars_Chocolat/20%Monthly2017-07-19 01:13
http://www.hotnewdeal.com/2017/07/19/197443_Dolica_ST500_68_tripod_1955_at_Amazon/20%Monthly2017-07-19 01:13
http://www.hotnewdeal.com/2017/07/19/197442_Uoobag_KT01_Slim_Business_Laptop_Backpack_Antith/20%Monthly2017-07-19 01:13
http://www.hotnewdeal.com/2017/07/19/197441_Stanley_8Piece_Premium_Paint_Kit_552__Amazonc/20%Monthly2017-07-19 00:20
http://www.hotnewdeal.com/2017/07/19/197440_DEAD__Price_Mistake_Pack_of_12_Hain_Pure_Foods/20%Monthly2017-07-19 00:04
http://www.hotnewdeal.com/2017/07/18/197439_Papa_Johns_Large_or_Pan_5Topping_Pizza_999_Cod/20%Monthly2017-07-18 23:30
http://www.hotnewdeal.com/2017/07/18/197438_Funko_Pop_buy_one_get_one_40_off/20%Monthly2017-07-18 23:30
http://www.hotnewdeal.com/2017/07/18/197437_Oakland_or_San_Jose_to_Honolulu_Roundtrip_39640/20%Monthly2017-07-18 23:30
http://www.hotnewdeal.com/2017/07/18/197436_GTA_V_ps4__xb1_27AC/20%Monthly2017-07-18 23:17
http://www.hotnewdeal.com/2017/07/18/197435_Samsung_Gear_Fit2_Fitness_Watch_w_Heart_Rate_lar/20%Monthly2017-07-18 23:01
http://www.hotnewdeal.com/2017/07/18/197434_MartinLogan__Motion_2_312_Bookshelf_Speaker__/20%Monthly2017-07-18 22:53
http://www.hotnewdeal.com/2017/07/18/197433_Free_Redbox_DVD_BluRay_or_Game_Rental__Text_GAM/20%Monthly2017-07-18 22:46
http://www.hotnewdeal.com/2017/07/18/197432_adidas_Mens_Climacool_1_Laceless_Shoes/20%Monthly2017-07-18 22:39
http://www.hotnewdeal.com/2017/07/18/197431_Frys_Email_Exclusive_Samsung_Xpress_M2070W_Wirel/20%Monthly2017-07-18 22:39
http://www.hotnewdeal.com/2017/07/18/197430_Kohls_Cardholders_Stride_Rite_Made_2_Play_Tilly_/20%Monthly2017-07-18 22:39
http://www.hotnewdeal.com/2017/07/18/197429_Sonic_Drive_in_1_Pure_Beef_All_American__Chili_C/20%Monthly2017-07-18 22:24
http://www.hotnewdeal.com/2017/07/18/197428_Craftsman_62_Utility_Knife_with_Soft_Grip_269_/20%Monthly2017-07-18 21:56
http://www.hotnewdeal.com/2017/07/18/197427_Adidas_Performance_Mens_Cloudfoam_Ultra_Zen_Cross/20%Monthly2017-07-18 21:56
http://www.hotnewdeal.com/2017/07/18/197426_CyberPower_AVR_825VA_450Watt_8Outlet_UPS_3999_/20%Monthly2017-07-18 21:50
http://www.hotnewdeal.com/2017/07/18/197425_iFi_S50_Tube_Amplifier__Dac_1050_or_w_Speakers_/20%Monthly2017-07-18 21:50
http://www.hotnewdeal.com/2017/07/18/197424_40W_Smart_5Port_High_Speed_Desktop_USB_Charger_3/20%Monthly2017-07-18 21:49
http://www.hotnewdeal.com/2017/07/18/197423_Aukey_1080p_Sony_Exmor_Dashcam_w_Night_Vision_49/20%Monthly2017-07-18 21:49
http://www.hotnewdeal.com/2017/07/18/197422_CyberPower_GX1325U_1325_VA_810_Watts_10_Outlets_UP/20%Monthly2017-07-18 21:32
http://www.hotnewdeal.com/2017/07/18/197421_Prostar_Clevo_N855HJ_Gaming_Laptop_156_FHD_i7/20%Monthly2017-07-18 21:31
http://www.hotnewdeal.com/2017/07/18/197420_Crystal_Dynamics_25th_Anniversary_Game_Bundles_wit/20%Monthly2017-07-18 21:30
http://www.hotnewdeal.com/2017/07/18/197419_CharGriller_Akorn_Smokin_Stone_2055_at_Amazon_o/20%Monthly2017-07-18 21:24
http://www.hotnewdeal.com/2017/07/18/197418_Amazon_has_Durex_Condom_Variety_Fish_Bowl_144_Cou/20%Monthly2017-07-18 21:24
http://www.hotnewdeal.com/2017/07/18/197417_3Pack_Duck_Brand_Weatherstrip_Seal_for_ExtraLarg/20%Monthly2017-07-18 21:24
http://www.hotnewdeal.com/2017/07/18/197416_152_Netgear_Orbi_RBR50_HighPerformance_AC3000_Ro/20%Monthly2017-07-18 21:16
http://www.hotnewdeal.com/2017/07/18/197415_Catit_Play_n_Scratch_Cat_Toy_487__FS_wPrime/20%Monthly2017-07-18 21:00
http://www.hotnewdeal.com/2017/07/18/197414_Los_Angeles__New_Delhi_India_455_RT_on_Air_Chin/20%Monthly2017-07-18 20:47
http://www.hotnewdeal.com/2017/07/18/197413_300_lb_Olympic_Weight_Set__Walmart_18999__Free/20%Monthly2017-07-18 20:47
http://www.hotnewdeal.com/2017/07/18/197412_XCom_2_War_of_the_Chosen_30_Preorder/20%Monthly2017-07-18 20:20
http://www.hotnewdeal.com/2017/07/18/197411_Ghost_in_the_Shell_1995_Original_or_Version_20/20%Monthly2017-07-18 20:15
http://www.hotnewdeal.com/2017/07/18/197410_Samsung_HWK950_Dolby_Atmos_514__Jetcom_766/20%Monthly2017-07-18 20:05
http://www.hotnewdeal.com/2017/07/18/197409_Acer_Spin_3_2in1_156_FHD_IPS_Touch_i36100U/20%Monthly2017-07-18 19:53
http://www.hotnewdeal.com/2017/07/18/197408_Stardew_Vally_Collectors_Edition_physical_for_P/20%Monthly2017-07-18 19:40
http://www.hotnewdeal.com/2017/07/18/197407_McCormick_Cayenne_Pepper_14_oz_339_fs_wSS__1/20%Monthly2017-07-18 19:40
http://www.hotnewdeal.com/2017/07/18/197406_Addon_Item_4M_Kitchen_Science_Kit_5__Amazon/20%Monthly2017-07-18 19:39
http://www.hotnewdeal.com/2017/07/18/197405_TCL_40S305_40Inch_1080p_Roku_Smart_LED_TV_2017_M/20%Monthly2017-07-18 19:39
http://www.hotnewdeal.com/2017/07/18/197404_Walmart__Little_Tikes_Garden_Chair_Orange_for_4/20%Monthly2017-07-18 19:24
http://www.hotnewdeal.com/2017/07/18/197403_Kohls_Cardholders_Simply_Vera_Vera_Wang_Tranquil/20%Monthly2017-07-18 19:24
http://www.hotnewdeal.com/2017/07/18/197402_LG_60UH7700_60Inch_Super_UHD_4K_Smart_TV_w_webOS/20%Monthly2017-07-18 19:24
http://www.hotnewdeal.com/2017/07/18/197400_Prime_Members_CleanWell_Natural_Antibacterial_Foa/20%Monthly2017-07-18 18:56
http://www.hotnewdeal.com/2017/07/18/197399_Kohls_Cardholders_Set_of_5_KitchenAid_Aqua_Sky_N/20%Monthly2017-07-18 18:56
http://www.hotnewdeal.com/2017/07/18/197398_Jetblue_Flash_Fares__as_low_as_20_OW_Select_Flig/20%Monthly2017-07-18 18:56
http://www.hotnewdeal.com/2017/07/18/197397_Pantene_ProV_Color_Revival_Shine_2in1_ShampooCon/20%Monthly2017-07-18 18:21
http://www.hotnewdeal.com/2017/07/18/197396_Home_Depot_LaView_8Channel_Full_HD_IP_IndoorOut/20%Monthly2017-07-18 17:56
http://www.hotnewdeal.com/2017/07/18/197395_Microsoft_Xbox_One_Kinect_Sensor_Bar_NEW_for_44/20%Monthly2017-07-18 17:56
http://www.hotnewdeal.com/2017/07/18/197394_Wild_Planet__Sustainable_Seas_Brands_Canned_Tuna_/20%Monthly2017-07-18 17:56
http://www.hotnewdeal.com/2017/07/18/197393_Sears_50_back_in_SYW_points_on_select_shoes_Shoe/20%Monthly2017-07-18 17:56
http://www.hotnewdeal.com/2017/07/18/197392_Kuman_Project_Complete_Starter_Kit_with_Tutorial_a/20%Monthly2017-07-18 17:37
http://www.hotnewdeal.com/2017/07/18/197391_Pack_of_3__360_TriSpinner_Fidget_Hand_Spinner_3/20%Monthly2017-07-18 17:28
http://www.hotnewdeal.com/2017/07/18/197390_1231__Duck_Brand_HP260_High_Performance_31_Mil/20%Monthly2017-07-18 17:16
http://www.hotnewdeal.com/2017/07/18/197389_Linksys_EA7300_MAXSTREAM_AC1750_MUMIMO_Gigabit_W/20%Monthly2017-07-18 17:16
http://www.hotnewdeal.com/2017/07/18/197388_Zero_Tolerance_0220_Anso_TI_KVT_Flipper_Knife_185/20%Monthly2017-07-18 16:56
http://www.hotnewdeal.com/2017/07/18/197387_2Pack_V4INK_TN450_or_TN660_Brother_Compatible_Ton/20%Monthly2017-07-18 16:56
http://www.hotnewdeal.com/2017/07/18/197386_Onkyo_SKSHT594_512Channel_Home_Theater_Speaker/20%Monthly2017-07-18 16:55
http://www.hotnewdeal.com/2017/07/18/197385_10oz_Ozark_Trail_Lowball_Tumbler_In_store_Walmart_/20%Monthly2017-07-18 16:47
http://www.hotnewdeal.com/2017/07/18/197384_Black__Decker_BDCDD12C_12V_MAX_Lithium_Drill_for_/20%Monthly2017-07-18 16:37
http://www.hotnewdeal.com/2017/07/18/197383_Xbox_One_S_Battlefield_1_Special_Edition_Bundle_S/20%Monthly2017-07-18 16:37
http://www.hotnewdeal.com/2017/07/18/197382_Whirlpool_Energy_Star_70pint_Dehumidifier_With_Pu/20%Monthly2017-07-18 16:37
http://www.hotnewdeal.com/2017/07/18/197381_ReadyNAS_Sale_on_NEW_Business_Models__229_to_1/20%Monthly2017-07-18 16:37
http://www.hotnewdeal.com/2017/07/18/197380_Philips_Hue_White_Ambiance_Starter_Kit_2_A19_Bulb/20%Monthly2017-07-18 16:36
http://www.hotnewdeal.com/2017/07/18/197379_Robocop_HDX_499_Vudu__UltraViolet__MGMNo_D2D/20%Monthly2017-07-18 16:36
http://www.hotnewdeal.com/2017/07/18/197378_Samsung_EPPG950_Fast_Charge_Convertible_Charging_/20%Monthly2017-07-18 16:36
http://www.hotnewdeal.com/2017/07/18/197376_Denon_AVRX4300H_Receiver_92_Channel_99998__Fr/20%Monthly2017-07-18 16:36
http://www.hotnewdeal.com/2017/07/18/197375_Polk_Audio_65_WeatherResistant_Outdoor_Loudspea/20%Monthly2017-07-18 16:35
http://www.hotnewdeal.com/2017/07/18/197374_ESET_Internet_Security_2017__3_PCs_25AC/20%Monthly2017-07-18 16:35
http://www.hotnewdeal.com/2017/07/18/197373_ASRock_G10_AC2600_DualBand_Wireless_Gigabit_Gamin/20%Monthly2017-07-18 16:35
http://www.hotnewdeal.com/2017/07/18/197372_129_shipped_100ct_BAZIC_Jumbo_Color_Paper_Clips/20%Monthly2017-07-18 15:51
http://www.hotnewdeal.com/2017/07/18/197371_Microsoft_850_USB_Keyboard__Mouse_Combo_001_w_/20%Monthly2017-07-18 15:51
http://www.hotnewdeal.com/2017/07/18/197370_LONG_ISLAND_ISP_TO_ORLANDOMCO_from_39_ow_on_FRON/20%Monthly2017-07-18 15:51
http://www.hotnewdeal.com/2017/07/18/197368_Quest_Nutrition_Bar__Rocky_Road_1099_Per_box_1/20%Monthly2017-07-18 15:30
http://www.hotnewdeal.com/2017/07/18/197367_Anker_SoundCore_2_Portable_Bluetooth_Speaker__36/20%Monthly2017-07-18 15:30
http://www.hotnewdeal.com/2017/07/18/197366_Injustice_2_PS4_or_XB1_35AC/20%Monthly2017-07-18 15:30
http://www.hotnewdeal.com/2017/07/18/197365_Microcenter_AMD_Ryzen_1600_CPU__Gigabyte_Gaming_3/20%Monthly2017-07-18 15:20
http://www.hotnewdeal.com/2017/07/18/197364_Free_10_JCPenney_Rewards_for_Downloading_Mobile_A/20%Monthly2017-07-18 15:20
http://www.hotnewdeal.com/2017/07/18/197363_KOBRA_OBD2_Scanner_Bluetooth_Scan_Tool_Adapter_Ca/20%Monthly2017-07-18 15:00
http://www.hotnewdeal.com/2017/07/18/197362_Dr_Seuss_Thing_Two_and_Thing_One_Whirly_Fun_Game/20%Monthly2017-07-18 15:00
http://www.hotnewdeal.com/2017/07/18/197361_Motorcycle_Tires__Nankang_Roadiac_Front_and_Rear_/20%Monthly2017-07-18 14:54
http://www.hotnewdeal.com/2017/07/18/197360_Paul_Frederick_3_x_Mens_Dress_Shirts_Various_St/20%Monthly2017-07-18 14:54
http://www.hotnewdeal.com/2017/07/18/197359_Starts_July_24th_Lorex_8_4MP_cameras_2TB_DVR_and/20%Monthly2017-07-18 14:46
http://www.hotnewdeal.com/2017/07/18/197358_Humble_Telltale_Bundle/20%Monthly2017-07-18 14:33
http://www.hotnewdeal.com/2017/07/18/197357_Myprotein_24_Chocolate_Protein_Brownie_206oz_1/20%Monthly2017-07-18 14:33
http://www.hotnewdeal.com/2017/07/18/197356_10_for_20_of_Dominos_eGift_Card_at_Groupon__Ta/20%Monthly2017-07-18 14:32
http://www.hotnewdeal.com/2017/07/18/197355_Inside__Limbo_PC_Digital_Download_957_via_Gre/20%Monthly2017-07-18 14:32
http://www.hotnewdeal.com/2017/07/18/197354_Adam_Audio_A77X_7_Left__Right_Active_Nearfield_M/20%Monthly2017-07-18 14:22
http://www.hotnewdeal.com/2017/07/18/197353_PrideSports_Practice_Foam_Golf_Balls_12_count__/20%Monthly2017-07-18 14:20
http://www.hotnewdeal.com/2017/07/18/197352_Mosquito_Repellent_Bracelet_Natural_Plant_Oil_Infu/20%Monthly2017-07-18 14:14
http://www.hotnewdeal.com/2017/07/18/197351_USA_to_Europe_from_only_406_roundtrip/20%Monthly2017-07-18 14:03
http://www.hotnewdeal.com/2017/07/18/197350_2__PCDD_Amazon__Grey_Goo_Definitive_Edition_O/20%Monthly2017-07-18 13:47
http://www.hotnewdeal.com/2017/07/18/197349_Kohls_Cardholders_Bissell_CrossWave_MultiSurface/20%Monthly2017-07-18 13:35
http://www.hotnewdeal.com/2017/07/18/197348_Hyatt_Hyatt_Regency_New_Orleans_for_25_USD__ta/20%Monthly2017-07-18 13:15
http://www.hotnewdeal.com/2017/07/18/197347_DJI_MAVIC_PRO_2_Batteries_Charging_Hub_20_Newe/20%Monthly2017-07-18 13:15
http://www.hotnewdeal.com/2017/07/18/197346_Black_Diamond_RockLock_Screwgate_Carabiner__799/20%Monthly2017-07-18 13:14
http://www.hotnewdeal.com/2017/07/18/197345_20_off_100_REI_Garage_and_Up_to_50_Off_Rain_Fl/20%Monthly2017-07-18 13:14
http://www.hotnewdeal.com/2017/07/18/197344_Double_Hammock_With_Space_Saving_Steel_Stand_Incl/20%Monthly2017-07-18 13:06
http://www.hotnewdeal.com/2017/07/18/197343_Nintendo_Cloud_Player_2_Amiibo_Back_Up_for_PreOrd/20%Monthly2017-07-18 13:00
http://www.hotnewdeal.com/2017/07/18/197342_PSN_Totally_Digital_Sale__Dear_Ester_3_Salt_an/20%Monthly2017-07-18 13:00
http://www.hotnewdeal.com/2017/07/18/197341_Kohls_Cardholders_24Piece_Reagan_Bedding_Set_qu/20%Monthly2017-07-18 13:00
http://www.hotnewdeal.com/2017/07/18/197340_Polk_Audio_10_PSW10_Powered_Subwoofer_6999_AC_/20%Monthly2017-07-18 13:00
http://www.hotnewdeal.com/2017/07/18/197339_Rosewill_CULLINAN_Red_Tempered_Glass_Windowed_ATX_/20%Monthly2017-07-18 13:00
http://www.hotnewdeal.com/2017/07/18/197338_30_off_Contact_Lenses__10_off_Orders_50_Plus_/20%Monthly2017-07-18 12:52
http://www.hotnewdeal.com/2017/07/18/197337_Pit_Boss_Kamado_BBQ_Ceramic_Grill_Cooker_22__4/20%Monthly2017-07-18 12:47
http://www.hotnewdeal.com/2017/07/18/197336_EVGA_GeForce_GTX_1060_3GB_SC_GAMING__210_at_amaz/20%Monthly2017-07-18 12:39
http://www.hotnewdeal.com/2017/07/18/197335_Allclad_Seconds_Sale_14_Stainless_Steel_Fry_Pan/20%Monthly2017-07-18 12:39
http://www.hotnewdeal.com/2017/07/18/197334_27_HP_Pavilion_27C_Curved_Full_HD_Monitor_199__/20%Monthly2017-07-18 12:39
http://www.hotnewdeal.com/2017/07/18/197333_GL_Limited_Edition_Tribute_Legacy_Electric_Guitar/20%Monthly2017-07-18 12:39
http://www.hotnewdeal.com/2017/07/18/197332_StackOn_IWC22_InWall_Cabinet_3387/20%Monthly2017-07-18 12:38
http://www.hotnewdeal.com/2017/07/18/197331_HGST_8TB_Deskstar_NAS_7200RPM_Hard_Drive_Kit_239/20%Monthly2017-07-18 12:25
http://www.hotnewdeal.com/2017/07/18/197330_Pokken_Tournament_Dx__Nintendo_Switch_PreOrder_/20%Monthly2017-07-18 12:13
http://www.hotnewdeal.com/2017/07/18/197329_6_Tempered_Glass_Screen_Protectors_for_IPhone_6S_P/20%Monthly2017-07-18 12:13
http://www.hotnewdeal.com/2017/07/18/197328_Nintendo_Switch_Super_Bomberman_R_Preowned_2015_/20%Monthly2017-07-18 12:07
http://www.hotnewdeal.com/2017/07/18/197326_Downy_Fresh_Protect_April_Fresh_InWash_Odor_Defen/20%Monthly2017-07-18 11:55
http://www.hotnewdeal.com/2017/07/18/197325_Monoprice_HDTV_Antennas_25_mile_281_35_Mile_4/20%Monthly2017-07-18 11:46
http://www.hotnewdeal.com/2017/07/18/197324_Office_Depot_OfficeMax_Rewards_100_back_in_Rewar/20%Monthly2017-07-18 11:45
http://www.hotnewdeal.com/2017/07/18/197323_Houston_to_Amsterdam_431_RT_on_Finnair_American_/20%Monthly2017-07-18 11:45
http://www.hotnewdeal.com/2017/07/18/197322_5_in_1_wooden_game_set_at_Walmart_1471_was_499/20%Monthly2017-07-18 11:45
http://www.hotnewdeal.com/2017/07/18/197321_TPLink_Routers_few_of_them_10_off_with_coupon_/20%Monthly2017-07-18 11:26
http://www.hotnewdeal.com/2017/07/18/197320_New_Dell_Outlet_coupon_codespromotions__Alienwar/20%Monthly2017-07-18 11:23
http://www.hotnewdeal.com/2017/07/18/197319_Grand_Theft_Auto_V_PC_Digital_Download_for_239/20%Monthly2017-07-18 11:22
http://www.hotnewdeal.com/2017/07/18/197318_Purelux_Morning_Glory_3_Function_Handheld_Shower_H/20%Monthly2017-07-18 11:07
http://www.hotnewdeal.com/2017/07/18/197317_100_Lowes_eGift_Card_Email_Delivery_for_90/20%Monthly2017-07-18 10:59
http://www.hotnewdeal.com/2017/07/18/197316_LIFETIME_senior_pass_to_federal_parks_increase_to_/20%Monthly2017-07-18 10:59
http://www.hotnewdeal.com/2017/07/18/197315_Kaspersky_AntiVirus_2017__3_PCs_Key_Card_Free_/20%Monthly2017-07-18 10:59
http://www.hotnewdeal.com/2017/07/18/197313_SZONE_Canvas_Travel_Toiletry_Organizer_Shaving_Do/20%Monthly2017-07-18 10:46
http://www.hotnewdeal.com/2017/07/18/197312_Waterpik_Complete_Care_Water_Flosser_and_Sonic_Too/20%Monthly2017-07-18 10:38
http://www.hotnewdeal.com/2017/07/18/197311_Dyson_Ball_Multi_Floor_Origin__3x_Bonus_Tools_for/20%Monthly2017-07-18 10:37
http://www.hotnewdeal.com/2017/07/18/197310_DJI_Spark_Drone_for_439/20%Monthly2017-07-18 09:56
http://www.hotnewdeal.com/2017/07/18/197309_Levoit_Cora_Himalayan_Salt_Lamp_479_at_Amazon_70/20%Monthly2017-07-18 09:56
http://www.hotnewdeal.com/2017/07/18/197308_Camelbak_Lobo_3_liter_Hydration_pack_30_free_sto/20%Monthly2017-07-18 09:56
http://www.hotnewdeal.com/2017/07/18/197307_50_Off_Underwear_Socks_and_Apparel_at_Hanescom/20%Monthly2017-07-18 09:56
http://www.hotnewdeal.com/2017/07/18/197306_Kingdom_Hearts_HD_15__25_ReMIX_PS4_30AC/20%Monthly2017-07-18 09:56
http://www.hotnewdeal.com/2017/07/18/197304_Beyerdynamic_Custom_i_OnEar_Headphones_2999__f/20%Monthly2017-07-18 09:30
http://www.hotnewdeal.com/2017/07/18/197303_Kershaw_Shield_Knife_w_SpeedSafe_3920_1799_vi/20%Monthly2017-07-18 09:30
http://www.hotnewdeal.com/2017/07/18/197302_Taco_Bell_Mild_Sauce_159__Free_Prime_Shipping_/20%Monthly2017-07-18 09:00
http://www.hotnewdeal.com/2017/07/18/197301_JBL_Charge_2_Refurbished_Splashproof_Bluetooth_Sp/20%Monthly2017-07-18 08:52
http://www.hotnewdeal.com/2017/07/18/197300_Munchkin_Miracle_10Ounce_360_Sippy_Cups_orangep/20%Monthly2017-07-18 08:45
http://www.hotnewdeal.com/2017/07/18/197299_Dell_Inspiron_7579_2in1_156_FHD_IPS_Touch_i/20%Monthly2017-07-18 08:44
http://www.hotnewdeal.com/2017/07/18/197298_Monoprice_Palette_Series_20_Cables_various_color/20%Monthly2017-07-18 08:30
http://www.hotnewdeal.com/2017/07/18/197297_12Pack_185oz_Pure_Leaf_Real_Brewed_Unsweetened_I/20%Monthly2017-07-18 08:30
http://www.hotnewdeal.com/2017/07/18/197296_500GB_WD_Blue_M2_SSD_130AC/20%Monthly2017-07-18 08:12
http://www.hotnewdeal.com/2017/07/18/197294_Free_Cables__Stuff_w_Rebates_at_Newegg/20%Monthly2017-07-18 07:51
http://www.hotnewdeal.com/2017/07/18/197293_55_Avera_55EQX10_Black_2160p_4K_LED_HDTV_for_289/20%Monthly2017-07-18 07:18
http://www.hotnewdeal.com/2017/07/18/197292_100_iTunes_Code_for_only_85__Fast_Email_Deliver/20%Monthly2017-07-18 07:17
http://www.hotnewdeal.com/2017/07/18/197291_Skullcandy_Hesh_2_Bluetooth_Wireless_Headphones_wi/20%Monthly2017-07-18 07:17
http://www.hotnewdeal.com/2017/07/18/197290_Gigabyte_Motherboard_Sale_Intel_Z270_LGA_1151_ATX/20%Monthly2017-07-18 07:17
http://www.hotnewdeal.com/2017/07/18/197289_Work_Sharp_WSKTS_Knife_and_Tool_Sharpener_52_Amaz/20%Monthly2017-07-18 07:17
http://www.hotnewdeal.com/2017/07/18/197288_Maxxhaul_12v_led_trailer_light_kit/20%Monthly2017-07-18 07:17
http://www.hotnewdeal.com/2017/07/18/197287_Baby_Jogger_City_Premier_169/20%Monthly2017-07-18 06:36
http://www.hotnewdeal.com/2017/07/18/197286_Animal_Crossing_Amiibo_Figures_Buy_One_Get_Two_F/20%Monthly2017-07-18 06:35
http://www.hotnewdeal.com/2017/07/18/197285_ABO_Gear_Maralinga_Rope_Chair_21/20%Monthly2017-07-18 06:10
http://www.hotnewdeal.com/2017/07/18/197283_Easehold_Essential_Oil_Aroma_Diffuser/20%Monthly2017-07-18 04:32
http://www.hotnewdeal.com/2017/07/18/197282_32GB_Apple_iPhone_6s_Smartphone_for_Sprint_1041/20%Monthly2017-07-18 04:05
http://www.hotnewdeal.com/2017/07/18/197281_WEN_10_Sliding_Compound_Miter_Saw_8684_store_pi/20%Monthly2017-07-18 03:29
http://www.hotnewdeal.com/2017/07/18/197280_5_Off_Valerian_and_the_City_of_a_Thousand_Planets/20%Monthly2017-07-18 03:12
http://www.hotnewdeal.com/2017/07/18/197279_Withings_Activite_59/20%Monthly2017-07-18 03:12
http://www.hotnewdeal.com/2017/07/18/197278_Xbox_Live_Gold_Members_Xbox_360_Asuras_Wrath_Di/20%Monthly2017-07-18 02:33
http://www.hotnewdeal.com/2017/07/18/197277_Amazon_New_Summer_Infant_3Dlite_Convenience_Strol/20%Monthly2017-07-18 02:33
http://www.hotnewdeal.com/2017/07/18/197276_First_3_Redwall_Kindle_ebooks_Redwall_Mossflower/20%Monthly2017-07-18 02:28
http://www.hotnewdeal.com/2017/07/18/197275_Subaru__Test_Drive_a_Car__Get_25_Prepaid_Reward/20%Monthly2017-07-18 02:12
http://www.hotnewdeal.com/2017/07/18/197274_Volvo__Test_Drive_Any_Car__Get_50_Amazon_Nords/20%Monthly2017-07-18 02:12
http://www.hotnewdeal.com/2017/07/18/197273_Sony_Xperia_X_F5121_32GB_Smartphone_Unlocked_Gra/20%Monthly2017-07-18 02:12
http://www.hotnewdeal.com/2017/07/18/197272_KOHLs_Cardholders__Simple_By_Design_4Drawer_Rol/20%Monthly2017-07-18 02:12
http://www.hotnewdeal.com/2017/07/18/197271_Kindle_Paperwhite_Wifi_2nd_Generation_Refurbishe/20%Monthly2017-07-18 01:12
http://www.hotnewdeal.com/2017/07/18/197270_7_for_16_Expo_Assorted_Dry_Erase_Markers/20%Monthly2017-07-18 01:12
http://www.hotnewdeal.com/2017/07/18/197269_Microsoft_Surface_Pro_4_Bundle__Intel_Core_i5__2/20%Monthly2017-07-18 01:12
http://www.hotnewdeal.com/2017/07/18/197268_100_ft_Garden_Hose_with_Solid_Brass_Connector_30/20%Monthly2017-07-18 01:12
http://www.hotnewdeal.com/2017/07/18/197267_Storks_Bluray__DVD__Digital_HD_10/20%Monthly2017-07-18 01:05
http://www.hotnewdeal.com/2017/07/18/197266_Microphone_Cable_with_Silver_Plated_Connector_for_/20%Monthly2017-07-18 00:19
http://www.hotnewdeal.com/2017/07/18/197265_Star_Wars_X_Wing_6V_BatteryPowered_Electric_Ride/20%Monthly2017-07-18 00:19
http://www.hotnewdeal.com/2017/07/18/197264_Sears_Craftsman__HP_Chain_Drive_Garage_Door_Open/20%Monthly2017-07-18 00:04
http://www.hotnewdeal.com/2017/07/18/197263_Spectracide_Weed__Grass_Killer2_ReadytoUse_H/20%Monthly2017-07-18 00:04
http://www.hotnewdeal.com/2017/07/17/197262_Jetcom_20_Off_Luxury_Beauty_Deals_75__Free_S/20%Monthly2017-07-17 23:39
http://www.hotnewdeal.com/2017/07/17/197261_Nikon_7540_MONARCH_3_8x42_Binocular_11971_wPD_/20%Monthly2017-07-17 23:26
http://www.hotnewdeal.com/2017/07/17/197259_AMD_FX_8350__Walmart_for_9783__YMMV/20%Monthly2017-07-17 23:25
http://www.hotnewdeal.com/2017/07/17/197258_Wen_Pole_8in_pole_saw_with_ship_to_store__3934_/20%Monthly2017-07-17 23:02
http://www.hotnewdeal.com/2017/07/17/197257_Set_of_4_NCAA_Tervis_Cups_16oz_with_lids_as_low_as/20%Monthly2017-07-17 23:01
http://www.hotnewdeal.com/2017/07/17/197256_Xiaomi_Mi_Pad_3_79_Tablet_2048x1536_IPS__MT817/20%Monthly2017-07-17 23:01
http://www.hotnewdeal.com/2017/07/17/197255_Target_Toddler_Costumes_from_450_Save_70_Ast/20%Monthly2017-07-17 22:39
http://www.hotnewdeal.com/2017/07/17/197254_Neutrogena_3Pk_Cooldry_SPF_50_Spray__SPF_70_Loti/20%Monthly2017-07-17 22:30
http://www.hotnewdeal.com/2017/07/17/197253_Harry_Potter_Gringotts_Bank_Coin_Collection_175/20%Monthly2017-07-17 22:04
http://www.hotnewdeal.com/2017/07/17/197252_Nutri_Ninja_1200W_Nutri_Bowl_DUO_with_AutoIQ_Boos/20%Monthly2017-07-17 22:04
http://www.hotnewdeal.com/2017/07/17/197251_50_PlayStation_Store_gift_card_3946/20%Monthly2017-07-17 21:39
http://www.hotnewdeal.com/2017/07/17/197250_Lipton_Tea_Bags_312_ct__699_Amazon_Add_On/20%Monthly2017-07-17 21:39
http://www.hotnewdeal.com/2017/07/17/197249_32GB_Apple_iPad_97_WiFi_Tablet_2017_274_w_Vi/20%Monthly2017-07-17 21:25
http://www.hotnewdeal.com/2017/07/17/197248_Brand_New_Mophie_Juice_Pack_Helium_Battery_Case_fo/20%Monthly2017-07-17 21:13
http://www.hotnewdeal.com/2017/07/17/197247_Iris_Windows_sensor_3_for_3328_at_Lowes_or_515/20%Monthly2017-07-17 21:01
http://www.hotnewdeal.com/2017/07/17/197246_Mens_New_Balance_classic_993_81_Joesnewblanace/20%Monthly2017-07-17 20:47
http://www.hotnewdeal.com/2017/07/17/197245_AVIOS_Bonus_Get_40_Bonus_Points_when_you_transfe/20%Monthly2017-07-17 20:47
http://www.hotnewdeal.com/2017/07/17/197244_4TB_Seagate_Ironwolf_NAS_Hard_Drive_119AC/20%Monthly2017-07-17 20:46
http://www.hotnewdeal.com/2017/07/17/197243_Chemical_Guys_Cyclone_Dirt_Trap_Bucket_Insert_Car_/20%Monthly2017-07-17 20:30
http://www.hotnewdeal.com/2017/07/17/197242_TCL_55_4k_HDR_55S403_TV__BMYMMV_399_Costco/20%Monthly2017-07-17 20:16
http://www.hotnewdeal.com/2017/07/17/197241_McCormick_Gourmet_Wood_Spice_Rack__24_Different_S/20%Monthly2017-07-17 20:07
http://www.hotnewdeal.com/2017/07/17/197240_Fender_PM1_Paramount_Deluxe_Dreadnought_Acoustic_/20%Monthly2017-07-17 19:48
http://www.hotnewdeal.com/2017/07/17/197239_Pecham_XXL_Gaming_Mousepad__639_Even_lower_tha/20%Monthly2017-07-17 19:42
http://www.hotnewdeal.com/2017/07/17/197238_Barbie_Food_Truck_20__Free_Store_Pickup_at_Walma/20%Monthly2017-07-17 19:41
http://www.hotnewdeal.com/2017/07/17/197237_Lenovo_IdeaPad_110_156_Laptop_Intel_Pentium_440/20%Monthly2017-07-17 19:41
http://www.hotnewdeal.com/2017/07/17/197236_The_Complete_Calvin_and_Hobbes_Box_Set_Paperback/20%Monthly2017-07-17 19:34
http://www.hotnewdeal.com/2017/07/17/197235_Schumacher_PC6_120V_AC_to_12V_DC_Power_Converter_/20%Monthly2017-07-17 19:24
http://www.hotnewdeal.com/2017/07/17/197234_48_Pack_Electronic_Screwdriver_for_Iphone_Xbox_i/20%Monthly2017-07-17 19:03
http://www.hotnewdeal.com/2017/07/17/197231_The_Evil_Within_2_PS4_for_4298__walmart/20%Monthly2017-07-17 19:03
http://www.hotnewdeal.com/2017/07/17/197230_Cooler_Master_N200__mATXMiniITX_Mini_Tower_Case/20%Monthly2017-07-17 18:58
http://www.hotnewdeal.com/2017/07/17/197229_Planet_Of_The_Apes_Trilogy_4KUHD__Bluray__DVD/20%Monthly2017-07-17 18:56
http://www.hotnewdeal.com/2017/07/17/197228_Samsung_BDJ6300ZA_3D_WiFi_Bluray_Player_for_6/20%Monthly2017-07-17 18:15
http://www.hotnewdeal.com/2017/07/17/197227_Kohls_Cardholders_Star_Wars_Episode_7_The_Force_/20%Monthly2017-07-17 18:15
http://www.hotnewdeal.com/2017/07/17/197226_Amazon__Wilson_Evolution_Basketball_4399_FSSS_o/20%Monthly2017-07-17 18:04
http://www.hotnewdeal.com/2017/07/17/197225_Masterbuilt_30_Electric_Smoker__139__Amazon/20%Monthly2017-07-17 18:03
http://www.hotnewdeal.com/2017/07/17/197224_APC_BackUPS_BN900M_Battery_Backup__Surge_Protect/20%Monthly2017-07-17 17:52
http://www.hotnewdeal.com/2017/07/17/197223_New_Beats_By_Dre_Solo_3_On_Ear_Wireless_Headphones/20%Monthly2017-07-17 17:52
http://www.hotnewdeal.com/2017/07/17/197222_Knorr_Cube_Bouillon_Beef_31_oz_8_ct_074_or_l/20%Monthly2017-07-17 17:42
http://www.hotnewdeal.com/2017/07/17/197221_Costco_Wholesale_Schick_Hydro_5_Sensitive_Razor_/20%Monthly2017-07-17 17:32
http://www.hotnewdeal.com/2017/07/17/197220_Synology_DS1517_2GB_59999__TAX__Free_Shipp/20%Monthly2017-07-17 17:32
http://www.hotnewdeal.com/2017/07/17/197219_Diamondback_Laurito_Womens_Recreational_Mountain_/20%Monthly2017-07-17 17:25
http://www.hotnewdeal.com/2017/07/17/197218_Staples_Crayola_UltraClean_Markers_10_per_Pack/20%Monthly2017-07-17 17:25
http://www.hotnewdeal.com/2017/07/17/197217_Prime_Members_Radiance_Flexible_Light_Strip_16_f/20%Monthly2017-07-17 17:25
http://www.hotnewdeal.com/2017/07/17/197216_25_in_1_Screwdriver_Repair_Kit_275__free_shippi/20%Monthly2017-07-17 17:24
http://www.hotnewdeal.com/2017/07/17/197215_Klipsch_Reference_R14S_Surround_Sound_Speakers_p/20%Monthly2017-07-17 17:24
http://www.hotnewdeal.com/2017/07/17/197214_Tronsmart_Presto_10000mAh_Portable_External_Batter/20%Monthly2017-07-17 17:14
http://www.hotnewdeal.com/2017/07/17/197213_FREE__16_Count_Mucinex_Max_Strength_Liquid_Gels_/20%Monthly2017-07-17 17:00
http://www.hotnewdeal.com/2017/07/17/197212_Target_Pink_GlowintheDark_Acrylic_Paint_087_/20%Monthly2017-07-17 16:46
http://www.hotnewdeal.com/2017/07/17/197211_2349_LGOLED65C6P_Curved65Inch4K3D_OLEDTV_ie/20%Monthly2017-07-17 16:46
http://www.hotnewdeal.com/2017/07/17/197210_Angelcare_Movement_and_Sound_Baby_Monitor_Set_10/20%Monthly2017-07-17 16:37
http://www.hotnewdeal.com/2017/07/17/197209_Tide_Washing_Machine_Cleaner_5_Count_624__Amazo/20%Monthly2017-07-17 16:36
http://www.hotnewdeal.com/2017/07/17/197208_Canon_PIXMA_MX492_WiFi_AllInOne_Compact_Size_Pri/20%Monthly2017-07-17 16:36
http://www.hotnewdeal.com/2017/07/17/197207_12Month_Xbox_Live_Gold_Membership_Physical_Card/20%Monthly2017-07-17 16:21
http://www.hotnewdeal.com/2017/07/17/197206_Acer_X34_new_999__MicroCenter_shipping_allowed/20%Monthly2017-07-17 15:47
http://www.hotnewdeal.com/2017/07/17/197205_Glucerna_Mini_Treat_Bars_To_Help_Manage_Blood_Sug/20%Monthly2017-07-17 15:40
http://www.hotnewdeal.com/2017/07/17/197203_RAVPower_20100mAh_USB_AC_Qualcomm_Quick_Charge_QC/20%Monthly2017-07-17 15:31
http://www.hotnewdeal.com/2017/07/17/197201_4pack_4_9w_Dimmable_LED_Ceiling_Downlight_5000K/20%Monthly2017-07-17 15:22
http://www.hotnewdeal.com/2017/07/17/197200_Save_up_to_70_on_Altec_Lansing_LifeJacket_iMW575_/20%Monthly2017-07-17 15:11
http://www.hotnewdeal.com/2017/07/17/197199_Yoga_Journal_499yr/20%Monthly2017-07-17 15:11
http://www.hotnewdeal.com/2017/07/17/197198_Dell_XPS_8910_Tower_Desktop_i5_6400_8GB_DDR4_1T/20%Monthly2017-07-17 15:11
http://www.hotnewdeal.com/2017/07/17/197197_Downton_Abbey_The_Complete_Collection_21Disc_Bl/20%Monthly2017-07-17 14:59
http://www.hotnewdeal.com/2017/07/17/197196_1_Gallon_Franks_Original_Red_Hot_Cayenne_Pepper_S/20%Monthly2017-07-17 14:52
http://www.hotnewdeal.com/2017/07/17/197195_Buy_a_100_Staples_Gift_Card__get_a_bonus_15_eBa/20%Monthly2017-07-17 14:52
http://www.hotnewdeal.com/2017/07/17/197194_Prime_Members_24pk_169oz_Perrier_Sparkling_Natu/20%Monthly2017-07-17 14:44
http://www.hotnewdeal.com/2017/07/17/197193_JBL_Charge_2_Splashproof_Bluetooth_Speaker_Recer/20%Monthly2017-07-17 14:44
http://www.hotnewdeal.com/2017/07/17/197192_Prime_Members_New_Sample_Box_Dog_Food_and_Treats/20%Monthly2017-07-17 14:44
http://www.hotnewdeal.com/2017/07/17/197191_Stanley_66039_6Piece_Jewelers_Precision_Screwdri/20%Monthly2017-07-17 14:27
http://www.hotnewdeal.com/2017/07/17/197190_JBL_Charge_2_Brand_New_for_6796_AC_Shipped/20%Monthly2017-07-17 14:26
http://www.hotnewdeal.com/2017/07/17/197189_Coleman_Camping_Folding_Double_Wash_Basin_AddOn_I/20%Monthly2017-07-17 14:08
http://www.hotnewdeal.com/2017/07/17/197188_8TB_Seagate_Backup_Plus_Hub_159_wemailed_code_/20%Monthly2017-07-17 14:08
http://www.hotnewdeal.com/2017/07/17/197187_Xiaomi_Mi_Robot_Vacuum_300__free_shipping/20%Monthly2017-07-17 13:42
http://www.hotnewdeal.com/2017/07/17/197186_Dockers_Polarized_Mens_Slim_Aviator_Sunglasses_4/20%Monthly2017-07-17 13:42
http://www.hotnewdeal.com/2017/07/17/197185_Outdoor_Waterproof_Motion_Sensor_LED_Security_Floo/20%Monthly2017-07-17 13:42
http://www.hotnewdeal.com/2017/07/17/197184_JCrew__Extra_60_off_Sale_Items_Online_Only/20%Monthly2017-07-17 13:41
http://www.hotnewdeal.com/2017/07/17/197183_Staples__WD_WD40EFRX_4_TB_Red_NAS_Internal_Hard_D/20%Monthly2017-07-17 13:35
http://www.hotnewdeal.com/2017/07/17/197182_Prime_Members_24Count_of_115oz_V8_100_Vegetabl/20%Monthly2017-07-17 13:35
http://www.hotnewdeal.com/2017/07/17/197181_DJI_Mavic_Pro_899_at_Abt__Free_Shipping/20%Monthly2017-07-17 13:35
http://www.hotnewdeal.com/2017/07/17/197180_JBL_Synchros_E30_Refurbished_OnEar_Wired_Headphon/20%Monthly2017-07-17 13:35
http://www.hotnewdeal.com/2017/07/17/197179_Frys_Denon_2017_Deals_AVRS730H_299_AVRS930H_/20%Monthly2017-07-17 13:27
http://www.hotnewdeal.com/2017/07/17/197178_12Pack_of_65oz_Starbucks_Doubleshot_Espresso__C/20%Monthly2017-07-17 13:19
http://www.hotnewdeal.com/2017/07/17/197177_ASUS_TMAC1900_WirelessAC1900_DualBand_Gigabit_R/20%Monthly2017-07-17 13:10
http://www.hotnewdeal.com/2017/07/17/197176_2699_Craftsman_34845_42_piece_14_and_38inch_D/20%Monthly2017-07-17 13:09
http://www.hotnewdeal.com/2017/07/17/197175_Suitsupply_Semi_Annual_Outlet_Sale/20%Monthly2017-07-17 12:57
http://www.hotnewdeal.com/2017/07/17/197174_Bat_Spinner_Fidget_Toy_010__free_shipping/20%Monthly2017-07-17 12:50
http://www.hotnewdeal.com/2017/07/17/197173_Gladiator_ReadytoAssemble_11Piece_Steel_Garag/20%Monthly2017-07-17 12:50
http://www.hotnewdeal.com/2017/07/17/197171_YETI_Roadie_20_Cooler__180_SHIPPED_20_Dollars_O/20%Monthly2017-07-17 12:27
http://www.hotnewdeal.com/2017/07/17/197169_Matcha_DNA_Certified_Organic_Matcha_Green_Tea_12_o/20%Monthly2017-07-17 12:08
http://www.hotnewdeal.com/2017/07/17/197168_New_York_to_Mumbai_India_606_RT_on_Air_China_lim/20%Monthly2017-07-17 12:00
http://www.hotnewdeal.com/2017/07/17/197167_Red_Mars_Kindle_eBook_for_199/20%Monthly2017-07-17 11:55
http://www.hotnewdeal.com/2017/07/17/197166_Apple_Watch_Band__Milanese_Loop_Mesh_Smooth_Stain/20%Monthly2017-07-17 11:49
http://www.hotnewdeal.com/2017/07/17/197165_Bosch_4Tool_18Volt_Lithium_Ion_Liion_Brushed_/20%Monthly2017-07-17 11:48
http://www.hotnewdeal.com/2017/07/17/197164_100_Exxon_Mobil_GC_for_93_100_Barnes__NobleA/20%Monthly2017-07-17 11:33
http://www.hotnewdeal.com/2017/07/17/197163_Prime_Wire_100_123_SJTW_Yellow_Jobsite_with_Pri/20%Monthly2017-07-17 11:33
http://www.hotnewdeal.com/2017/07/17/197162_2in1_Solar_Powered_Wall_Light_and_Other_Motion_S/20%Monthly2017-07-17 11:33
http://www.hotnewdeal.com/2017/07/17/197161_Easehold_Upgraded_Essential_Oil_Diffuser_300ml_Tou/20%Monthly2017-07-17 11:18
http://www.hotnewdeal.com/2017/07/17/197160_Douglas_AdamsThe_Hitchhikers_Guide_to_the_Galaxy/20%Monthly2017-07-17 11:10
http://www.hotnewdeal.com/2017/07/17/197159_Adidas_Mens_ZNE_9010_Jacket_4550_Supernova/20%Monthly2017-07-17 11:10
http://www.hotnewdeal.com/2017/07/17/197158_Microsoft_Surface_Pro_4_i7__Type_Cover__Micro_Ce/20%Monthly2017-07-17 10:58
http://www.hotnewdeal.com/2017/07/17/197157_Ozark_Trail_4_person_foldable_camping_bench_IN_RED/20%Monthly2017-07-17 10:58
http://www.hotnewdeal.com/2017/07/17/197156_Amazing_Crib_Deal__Great_Value_79/20%Monthly2017-07-17 10:50
http://www.hotnewdeal.com/2017/07/17/197155_YUNEEC_Q500_4K_Typhoon_Quadcopter_with_CGO3_Camera/20%Monthly2017-07-17 10:50
http://www.hotnewdeal.com/2017/07/17/197154_Western_Digital_4TB_My_Cloud_Mirror_Gigabit_NAS_1/20%Monthly2017-07-17 10:43
http://www.hotnewdeal.com/2017/07/17/197152_New_Balance_860v4_Stability_Running_Shoes_Mens_o/20%Monthly2017-07-17 10:18
http://www.hotnewdeal.com/2017/07/17/197151_Melissa__Doug_Stackable_Discounts_24Piece_Dinos/20%Monthly2017-07-17 10:00
http://www.hotnewdeal.com/2017/07/17/197150_Motorola_Men_46mm_Leather_Moto_360_Smartwatch_2nd/20%Monthly2017-07-17 09:51
http://www.hotnewdeal.com/2017/07/17/197149_Logitech_G602_Gaming_Wireless_Mouse_with_250_Hour_/20%Monthly2017-07-17 09:51
http://www.hotnewdeal.com/2017/07/17/197148_JCrew_Factory_Extra_60_Off_Clearance_Mens_Slim/20%Monthly2017-07-17 09:37
http://www.hotnewdeal.com/2017/07/17/197147_Home_Depot_NewAge_Products_Performance_96_in_L_x_/20%Monthly2017-07-17 09:37
http://www.hotnewdeal.com/2017/07/17/197146_Black_Butler_II__season_1__anime__FREE_to_own_i/20%Monthly2017-07-17 09:27
http://www.hotnewdeal.com/2017/07/17/197145_Nespresso_Compatible_Organic_Coffee_Capsules_by_Ki/20%Monthly2017-07-17 09:19
http://www.hotnewdeal.com/2017/07/17/197144_Isaac_Asimovs_Foundation_Kindle_Edition_2/20%Monthly2017-07-17 09:19
http://www.hotnewdeal.com/2017/07/17/197143_GCU_Members_Kingdom_Hearts_HD_28_Final_Chapter_P/20%Monthly2017-07-17 09:19
http://www.hotnewdeal.com/2017/07/17/197142_YMMV_Nike_30_Factory_Store_store_deals_720724/20%Monthly2017-07-17 08:58
http://www.hotnewdeal.com/2017/07/17/197141_Prime_Members_Milestar_MS932_Sport_AS_Radial_Tire/20%Monthly2017-07-17 08:58
http://www.hotnewdeal.com/2017/07/17/197140_Xbox_One_S_Minecraft_500GB_Bundle__Xbox_Wireless_/20%Monthly2017-07-17 08:51
http://www.hotnewdeal.com/2017/07/17/197139_Craftsman_1_HP_Belt_Drive_Garage_Door_Opener_w_Cr/20%Monthly2017-07-17 08:44
http://www.hotnewdeal.com/2017/07/17/197138_Today_Only__Buy_Any_The_Emoji_Movie_Ticket_for_/20%Monthly2017-07-17 08:37
http://www.hotnewdeal.com/2017/07/17/197137_Kohls_Cardholders_Mens_Champion_Fleece_Powerblen/20%Monthly2017-07-17 08:37
http://www.hotnewdeal.com/2017/07/17/197136_Maybelline_New_York_Eyestudio_Lasting_Drama_Waterp/20%Monthly2017-07-17 08:21
http://www.hotnewdeal.com/2017/07/17/197135_Target_July_baby_box__7__FS/20%Monthly2017-07-17 08:11
http://www.hotnewdeal.com/2017/07/17/197134_Samsung_CF398_Series_Curved_27Inch_FHD_Monitor_C/20%Monthly2017-07-17 08:02
http://www.hotnewdeal.com/2017/07/17/197132_Cervical_Neck_Traction_Device__2599__Free_Ship/20%Monthly2017-07-17 07:39
http://www.hotnewdeal.com/2017/07/17/197131_100Pack_Velcro_Reusable_SelfGripping_Cable_Ties_/20%Monthly2017-07-17 05:29
http://www.hotnewdeal.com/2017/07/17/197130_Arteck_HB030B_Bluetooth_7Color_Backlit_Keyboard_/20%Monthly2017-07-17 05:29
http://www.hotnewdeal.com/2017/07/17/197129_Lenovo_Flex_5_2in1_Laptop_Intel_i57200U_14_1/20%Monthly2017-07-17 05:14
http://www.hotnewdeal.com/2017/07/17/197128_Kaspersky_Internet_Security_2017__1_PC_Key_Card/20%Monthly2017-07-17 05:14
http://www.hotnewdeal.com/2017/07/17/197127_Farberware_kitchen_items_starting_at_140_KOHLS/20%Monthly2017-07-17 05:14
http://www.hotnewdeal.com/2017/07/17/197126_Swagbucks_Spend_50_or_more_instore_at_Kohls_an/20%Monthly2017-07-17 05:14
http://www.hotnewdeal.com/2017/07/17/197125_FoodSaver_GameSaver_Vacuum_Seal_Rolls__Bags_BOGO/20%Monthly2017-07-17 04:29
http://www.hotnewdeal.com/2017/07/17/197124_Amex_offer_spend_75_or_more_get_25_back_at_boxe/20%Monthly2017-07-17 04:07
http://www.hotnewdeal.com/2017/07/17/197123_Dunkin_Donuts_DDPerks_Rewards_Reload_10_Balance_/20%Monthly2017-07-17 03:31
http://www.hotnewdeal.com/2017/07/17/197122_PowerA_Nintendo_Switch_JoyCon_Charging_Dock_239/20%Monthly2017-07-17 02:29
http://www.hotnewdeal.com/2017/07/17/197121_Logitech_MK235_Wireless_Keyboard_and_Mouse_Set_for/20%Monthly2017-07-17 01:31
http://www.hotnewdeal.com/2017/07/17/197120_Prime_Members_36Ct_Swiffer_Sweeper_Wet_Mopping_P/20%Monthly2017-07-17 01:31
http://www.hotnewdeal.com/2017/07/17/197119_The_North_Face_Mens_HalfDome_Graphic_Hoodie_L_o/20%Monthly2017-07-17 01:31
http://www.hotnewdeal.com/2017/07/17/197118_YMMV_Masterbuilt_30_Electric_Smoker_100/20%Monthly2017-07-17 01:31
http://www.hotnewdeal.com/2017/07/17/197117_Star_Deal__Skullgirls_Pack__1__Bundle_Stars/20%Monthly2017-07-17 01:31
http://www.hotnewdeal.com/2017/07/17/197115_Vita_Coco_Coconut_Water_Pure_111_Fl_Oz_Pack_of/20%Monthly2017-07-17 01:09
http://www.hotnewdeal.com/2017/07/17/197114_Black_or_Bronze_Solar_LED_Pathway_Outdoor_Light_6/20%Monthly2017-07-17 01:09
http://www.hotnewdeal.com/2017/07/17/197113_Set_of_2_Melissa__Doug_Jigsaw_Puzzles_On_the_Far/20%Monthly2017-07-17 01:09
http://www.hotnewdeal.com/2017/07/17/197112_Uncharted_The_Lost_Legacy_PS4__PreOrder__31/20%Monthly2017-07-17 00:17
http://www.hotnewdeal.com/2017/07/17/197111_Ace_Double_Six_Dominoes_Card_Game_333__Walmart/20%Monthly2017-07-17 00:17
http://www.hotnewdeal.com/2017/07/16/197110_Belkin_Watch_Valet_Charging_Dock__35_Free_Shippi/20%Monthly2017-07-16 23:50
http://www.hotnewdeal.com/2017/07/16/197109_Fitbit_Blaze_Smart_Fitness_Watch__Blue_SL__99/20%Monthly2017-07-16 23:35
http://www.hotnewdeal.com/2017/07/16/197108_CharGriller_Akorn_6520_on_the_Kart_GrillSmoker/20%Monthly2017-07-16 23:19
http://www.hotnewdeal.com/2017/07/16/197106_FisherPrice_Little_People_Big_Animal_Zoo_for_14/20%Monthly2017-07-16 22:28
http://www.hotnewdeal.com/2017/07/16/197105_Addon_Item_2_pack_Woods_50007WD_Indoor_24Hour_D/20%Monthly2017-07-16 22:09
http://www.hotnewdeal.com/2017/07/16/197104_Nintendo_switch_antiscratch_hard_back_case_for_2/20%Monthly2017-07-16 22:00
http://www.hotnewdeal.com/2017/07/16/197103_2Pack_Glade_Air_Freshener_Plugins_Scented_Oil_War/20%Monthly2017-07-16 22:00
http://www.hotnewdeal.com/2017/07/16/197102_Marvel_Super_Hero_Mashers_Hulkbuster_Fury_Force_Fi/20%Monthly2017-07-16 21:39
http://www.hotnewdeal.com/2017/07/16/197101_Fitbit_Charge_2_Heart_Rate__Fitness_Wristband_Se/20%Monthly2017-07-16 21:30
http://www.hotnewdeal.com/2017/07/16/197100_Lenovo_IdeaPad_320S_80X4000WUS_14_Laptop_Computer/20%Monthly2017-07-16 21:10
http://www.hotnewdeal.com/2017/07/16/197099_AmazonBasics_OverEar_Headphones__635_Amazon_w/20%Monthly2017-07-16 21:10
http://www.hotnewdeal.com/2017/07/16/197098_Blade_Runner_30th_Anniversary_Collectors_Edition/20%Monthly2017-07-16 21:10
http://www.hotnewdeal.com/2017/07/16/197097_Walmart_Clearance_Diamond_Crystal_Bright__Soft_/20%Monthly2017-07-16 20:04
http://www.hotnewdeal.com/2017/07/16/197096_13_Inch_Beaucarnea_Ponytail_Palm_Bonsai_Tree_120/20%Monthly2017-07-16 19:55
http://www.hotnewdeal.com/2017/07/16/197095_Fitbit_Charge_Wireless_Activity_Wristband_3998_F/20%Monthly2017-07-16 19:55
http://www.hotnewdeal.com/2017/07/16/197094_30_IPS_2560_X_1600_refurbished__monorprice_moni/20%Monthly2017-07-16 19:48
http://www.hotnewdeal.com/2017/07/16/197093_DuroMax_XP4850EH_Hybrid_Portable_Dual_Fuel_Propane/20%Monthly2017-07-16 19:48
http://www.hotnewdeal.com/2017/07/16/197092_Apple_iPad_Pro_97_Smart_Cover__Charcoal_Grey__/20%Monthly2017-07-16 19:48
http://www.hotnewdeal.com/2017/07/16/197091_3Tier_TV_Stand_for_Flat_Panel_Television_Up_to_32/20%Monthly2017-07-16 19:48
http://www.hotnewdeal.com/2017/07/16/197090_Kohls_Cardholders_Ninja_Coffee_Bar_SingleServe_C/20%Monthly2017-07-16 19:47
http://www.hotnewdeal.com/2017/07/16/197089_Used_Jensen_CD490_Sport_Stereo_CD_Player_with_AM/20%Monthly2017-07-16 19:00
http://www.hotnewdeal.com/2017/07/16/197088_Today_only_Anker_PowerCore_Speed_10000_QC_Qualcom/20%Monthly2017-07-16 19:00
http://www.hotnewdeal.com/2017/07/16/197087_500gb_Usenet_block_account_for_7__UsenetExpress/20%Monthly2017-07-16 19:00
http://www.hotnewdeal.com/2017/07/16/197086_Furinno_11180DBR_Simple_Design_EndSide_Table_Dar/20%Monthly2017-07-16 18:59
http://www.hotnewdeal.com/2017/07/16/197085_3M_813_Bondo_Tack_Cloth__146_Free_Ship_Amazon_S/20%Monthly2017-07-16 18:59
http://www.hotnewdeal.com/2017/07/16/197084_10_Amazon_credit_FREE_with_Alexa_reorder/20%Monthly2017-07-16 18:59
http://www.hotnewdeal.com/2017/07/16/197083_KV25G0XSL_KitchenAid__Professional_5_Plus_Series_/20%Monthly2017-07-16 18:59
http://www.hotnewdeal.com/2017/07/16/197082_Deus_Ex_Game_of_the_Year_PC_Digital_125__Ama/20%Monthly2017-07-16 17:29
http://www.hotnewdeal.com/2017/07/16/197081_GF_7Piece_Ergonomic_Stainless_Steel_Garden_Tool_/20%Monthly2017-07-16 17:20
http://www.hotnewdeal.com/2017/07/16/197080_Xbox_One_S_500GB_Minecraft_Edition__additional_Xb/20%Monthly2017-07-16 17:10
http://www.hotnewdeal.com/2017/07/16/197079_Magic_Chef_35_cu_ft_Chest_Freezer_9900__Fre/20%Monthly2017-07-16 17:10
http://www.hotnewdeal.com/2017/07/16/197078_Pronto_and_Peel_App_Smart_Universal_Remote_Contro/20%Monthly2017-07-16 16:28
http://www.hotnewdeal.com/2017/07/16/197077_UPPAbaby_2017_MESA_Infant_Car_Seat__23999_after/20%Monthly2017-07-16 16:21
http://www.hotnewdeal.com/2017/07/16/197076_Target_Cromwell_Convertible_Sofa_with_Ottoman_37/20%Monthly2017-07-16 16:10
http://www.hotnewdeal.com/2017/07/16/197075_48Pack_Martinson_Coffee_Single_Serve_RealCup_KCu/20%Monthly2017-07-16 16:02
http://www.hotnewdeal.com/2017/07/16/197074_Anker_Direct_1020_discounts_stack_with_eBay_20_/20%Monthly2017-07-16 16:02
http://www.hotnewdeal.com/2017/07/16/197073_Sparkling_Ice_17_Ounce_Bottles_Pack_of_12_850_/20%Monthly2017-07-16 16:01
http://www.hotnewdeal.com/2017/07/16/197072_Lowes__Garden_Treasures_Porch_Swing_130/20%Monthly2017-07-16 16:01
http://www.hotnewdeal.com/2017/07/16/197071_PB2_Bell_Plantation_Roasted_Peanut_Oil_123_Fluid/20%Monthly2017-07-16 15:49
http://www.hotnewdeal.com/2017/07/16/197070_DEWALT_DCK283D2_MAX_XR_Lithium_Ion_Brushless_Compa/20%Monthly2017-07-16 15:21
http://www.hotnewdeal.com/2017/07/16/197069_Apple_Watch_Series_2_70_off_at_Best_Buy/20%Monthly2017-07-16 15:10
http://www.hotnewdeal.com/2017/07/16/197068_Fujitsu_Smart_CutOff_Charger_Kit_w12x_AA__12x_A/20%Monthly2017-07-16 15:00
http://www.hotnewdeal.com/2017/07/16/197067_LG_PF1000UW_Ultra_Short_Throw_Projector_899_Free_/20%Monthly2017-07-16 14:43
http://www.hotnewdeal.com/2017/07/16/197066_LG_Rebel_45_4G_LTE_Android_TracFone_Smartphone_w/20%Monthly2017-07-16 14:33
http://www.hotnewdeal.com/2017/07/16/197065_Ridgid_13_Amp_10_in_Professional_Cast_Iron_Table_/20%Monthly2017-07-16 14:13
http://www.hotnewdeal.com/2017/07/16/197064_Logitech_K360_Wireless_Keyboard__Amazon__1517/20%Monthly2017-07-16 13:56
http://www.hotnewdeal.com/2017/07/16/197063_NEW_Dell_XPS_13_9360_i77500U_7th_Gen_16GB_256GB_P/20%Monthly2017-07-16 13:30
http://www.hotnewdeal.com/2017/07/16/197062_The_Martian_Kindle_eBook_for_399_Amazoncom/20%Monthly2017-07-16 13:12
http://www.hotnewdeal.com/2017/07/16/197061_Grand_Theft_Auto_5__PS4Xbox_One_2999_GCU_2/20%Monthly2017-07-16 12:58
http://www.hotnewdeal.com/2017/07/16/197060_RhinoGear_11909ABMI_RhinoRamps_Vehicle_Ramp__Pair/20%Monthly2017-07-16 12:58
http://www.hotnewdeal.com/2017/07/16/197059_Lowes_Save_50_on_Pots__Planters_from_4/20%Monthly2017-07-16 12:49
http://www.hotnewdeal.com/2017/07/16/197058_Military_Only_at_Shopmyexchangecom_Bose_Revolve_/20%Monthly2017-07-16 12:49
http://www.hotnewdeal.com/2017/07/16/197057_10_off_40_Mens_Basics_Adidas_Fruit_of_the_Loo/20%Monthly2017-07-16 12:48
http://www.hotnewdeal.com/2017/07/16/197056_Pei_Wei_33_off_entrees_716_only/20%Monthly2017-07-16 12:40
http://www.hotnewdeal.com/2017/07/16/197055_24Piece_Stansport_Enamel_Camping_Tableware_Set_1/20%Monthly2017-07-16 12:40
http://www.hotnewdeal.com/2017/07/16/197054_San_Francisco_to_Las_Vegas_or_Vice_Versa_for_29_O/20%Monthly2017-07-16 12:40
http://www.hotnewdeal.com/2017/07/16/197053_Disneyland_Grand_Californian__Disneyland_Hotel__/20%Monthly2017-07-16 12:39
http://www.hotnewdeal.com/2017/07/16/197052_Rubbermaid_32_Gallon_Resin_Patio_Storage_Bench_65/20%Monthly2017-07-16 12:39
http://www.hotnewdeal.com/2017/07/16/197051_Lowes_Kobalt_24Volt_Max_12in_Cordless_Brushle/20%Monthly2017-07-16 12:22
http://www.hotnewdeal.com/2017/07/16/197050_Intel_Core_i77700K_Kaby_Lake_42_GHz_LGA_1151_Box/20%Monthly2017-07-16 12:05
http://www.hotnewdeal.com/2017/07/16/197049_A_Game_of_Thrones_A_Song_of_Ice_and_Fire_Book_1/20%Monthly2017-07-16 12:03
http://www.hotnewdeal.com/2017/07/16/197048_KirklandSignatureMensTailoredFitDressShirt_/20%Monthly2017-07-16 12:03
http://www.hotnewdeal.com/2017/07/16/197047_20_inch_Samsonite_Bartlett_Spinner__Luggage_48_/20%Monthly2017-07-16 11:56
http://www.hotnewdeal.com/2017/07/16/197046_Kohls_Cardholders_Jumbo_15_x_20_AirInsulated_/20%Monthly2017-07-16 11:55
http://www.hotnewdeal.com/2017/07/16/197045_WORX_WA0010_Replacement_10Foot_Grass_TrimmerEdge/20%Monthly2017-07-16 11:29
http://www.hotnewdeal.com/2017/07/16/197044_Hellboy_Best_Buy_Exclusive_Steelbook_Bluray__Di/20%Monthly2017-07-16 11:29
http://www.hotnewdeal.com/2017/07/16/197043_Lowes__Schumacher_Electric_1200Amp_Car_Battery/20%Monthly2017-07-16 11:20
http://www.hotnewdeal.com/2017/07/16/197042_Triloga_de_Guillermo_del_Toro_Cronos__The_Devil/20%Monthly2017-07-16 10:27
http://www.hotnewdeal.com/2017/07/16/197041_Boostmobile__Samsung_Galaxy_S8_for_500/20%Monthly2017-07-16 10:19
http://www.hotnewdeal.com/2017/07/16/197040_4TB_Seagate_Backup_Plus_Portable_USB_30_Hard_Driv/20%Monthly2017-07-16 10:09
http://www.hotnewdeal.com/2017/07/16/197039_Studio_Ghibli_Bluray__DVD_The_Secret_World_of/20%Monthly2017-07-16 09:44
http://www.hotnewdeal.com/2017/07/16/197037_Dell_E525W_Color_Wireless_Laser_AllinOne_Printer/20%Monthly2017-07-16 09:36
http://www.hotnewdeal.com/2017/07/16/197036_4TB_WD_Red_Boxed__NAS_Internal_SATA_Hard_Drive_/20%Monthly2017-07-16 09:36
http://www.hotnewdeal.com/2017/07/16/197035_Buy_a_Cricket_Phone_or_SIM_Kit_Get_a_Cricket_Refi/20%Monthly2017-07-16 09:10
http://www.hotnewdeal.com/2017/07/16/197034_Lowes_Garden_Treasures_75Ft_Patio_Umbrella_24/20%Monthly2017-07-16 09:10
http://www.hotnewdeal.com/2017/07/16/197033_PlayerUnknowns_Battlegrounds_Green_Man_Gaming_/20%Monthly2017-07-16 08:56
http://www.hotnewdeal.com/2017/07/16/197032_Rocket_Copters__The_Amazing_Slingshot_LED_Helicop/20%Monthly2017-07-16 08:29
http://www.hotnewdeal.com/2017/07/16/197031_PNY_7800mAh_1_A24_A_PowerPack__Portable_Recharg/20%Monthly2017-07-16 08:19
http://www.hotnewdeal.com/2017/07/16/197030_Newsdemon_70_off_on_ALL_plans__Unlimited_monthl/20%Monthly2017-07-16 07:41
http://www.hotnewdeal.com/2017/07/16/197029_Bluray_Movies_The_Worlds_End_Bluray__DVD__D/20%Monthly2017-07-16 07:27
http://www.hotnewdeal.com/2017/07/16/197028_Dell_Inspiron_15_7579_2in1_156_FHD_IPS_Touch/20%Monthly2017-07-16 07:19
http://www.hotnewdeal.com/2017/07/16/197027_King_of_the_Beach_Official_Volleyball_x_3_9342_/20%Monthly2017-07-16 07:10
http://www.hotnewdeal.com/2017/07/16/197026_Lowes_Garden_Treasures_Wind_Chimes_250_YMMV/20%Monthly2017-07-16 06:31
http://www.hotnewdeal.com/2017/07/16/197025_Seagate_5TB_Expansion_Desktop_External_Hard_Drive_/20%Monthly2017-07-16 06:09
http://www.hotnewdeal.com/2017/07/16/197024_Samsung__Galaxy_Book__106__64GB__With_keyboa/20%Monthly2017-07-16 05:09
http://www.hotnewdeal.com/2017/07/16/197023_208Piece_Craftsman_Ultimate_Screwdriver_Bit_Set_/20%Monthly2017-07-16 05:09
http://www.hotnewdeal.com/2017/07/16/197021_Brita_Pitcher_Filter_Refills_8_Quantity__Target_/20%Monthly2017-07-16 03:31
http://www.hotnewdeal.com/2017/07/16/197020_Dynex_Accessories_3_Dynex_MFi_Certified_Lightnin/20%Monthly2017-07-16 03:09
http://www.hotnewdeal.com/2017/07/16/197019_HP_DeskJet_1112_Compact_Photo_Printer__1499/20%Monthly2017-07-16 03:09
http://www.hotnewdeal.com/2017/07/16/197018_Lenovo_Yoga_720_2in1_133_Touchscreen_Laptop_i/20%Monthly2017-07-16 02:29
http://www.hotnewdeal.com/2017/07/16/197017_Guardian_Zelda_Wolf_Link_Dr_Mario_and_other_r/20%Monthly2017-07-16 02:29
http://www.hotnewdeal.com/2017/07/16/197016_Staples_Additional_Savings_25_Off_100_w_VISA_/20%Monthly2017-07-16 02:09
http://www.hotnewdeal.com/2017/07/16/197015_Rise_Of_The_Planet_Of_The_Apes__Dawn_Of_The_Plane/20%Monthly2017-07-16 02:08
http://www.hotnewdeal.com/2017/07/16/197014_Trident_Dual_Pack_Gum_White_Peppermint_16_Pieces/20%Monthly2017-07-16 02:08
http://www.hotnewdeal.com/2017/07/16/197013_Nextbit_Robin_is_105/20%Monthly2017-07-16 01:29
http://www.hotnewdeal.com/2017/07/16/197011_Essentials_Racing_Style_Leather_Gaming_Chair__Ama/20%Monthly2017-07-16 01:08
http://www.hotnewdeal.com/2017/07/16/197010_Battery_Operated_Starry_String_Light_100_LED_33FT_/20%Monthly2017-07-16 01:08
http://www.hotnewdeal.com/2017/07/16/197009_MSI_Z270_CAMO_SQUAD_LGA_1151_Intel_Z270_HDMI_USB_3/20%Monthly2017-07-16 01:08
http://www.hotnewdeal.com/2017/07/16/197008_Bounty_12_Huge_Rolls_30_22/20%Monthly2017-07-16 00:16
http://www.hotnewdeal.com/2017/07/16/197007_20_for_216_Mr_Sketch_Markers/20%Monthly2017-07-16 00:16
http://www.hotnewdeal.com/2017/07/16/197006_Big_Piano_Box__099_MP3_album__Amazon__over_17/20%Monthly2017-07-16 00:00
http://www.hotnewdeal.com/2017/07/15/197005_Scott_ChooseASheet_Paper_Towels_6_rolls__497/20%Monthly2017-07-15 23:42
http://www.hotnewdeal.com/2017/07/15/197004_282oz_Amazing_Grass_Green_Superfood_Original_/20%Monthly2017-07-15 23:19
http://www.hotnewdeal.com/2017/07/15/197003_Prime_Members_Nesquik_Ready_To_Drink_Milk_Chocol/20%Monthly2017-07-15 23:10
http://www.hotnewdeal.com/2017/07/15/197001_Staples_weekly_ad_716722__750_sheet_reams_10_/20%Monthly2017-07-15 22:43
http://www.hotnewdeal.com/2017/07/15/197000_ExOfficio_Mens_GiveNGo_underwear_Briefs_1199/20%Monthly2017-07-15 22:26
http://www.hotnewdeal.com/2017/07/15/196999_40__Cuisinart_Baby_Food_Maker__Bottle_Warmer_wi/20%Monthly2017-07-15 22:18
http://www.hotnewdeal.com/2017/07/15/196998_Johnnys_Garlic_Spread_and_Seasoning_569_or_less/20%Monthly2017-07-15 22:09
http://www.hotnewdeal.com/2017/07/15/196997_Scott_1000_Bathroom_Tissue_20_Rolls__4_Bonus_Rol/20%Monthly2017-07-15 22:09
http://www.hotnewdeal.com/2017/07/15/196996_Sony_PS_VR_34999_fs_no_tax/20%Monthly2017-07-15 21:39
http://www.hotnewdeal.com/2017/07/15/196992_Thermaltake_Versa_N21_Windowed_SPCC_Mid_Tower_Case/20%Monthly2017-07-15 21:11
http://www.hotnewdeal.com/2017/07/15/196991_The_Elder_Scrolls_Online_Morrowind__Discovery_Pa/20%Monthly2017-07-15 21:00
http://www.hotnewdeal.com/2017/07/15/196990_Aberlour_12_Double_Cask_Single_Malt_Scotch_on_clea/20%Monthly2017-07-15 20:43
http://www.hotnewdeal.com/2017/07/15/196989_Oyama_TRO110C_Turbo_Convection_Oven_12_L_White_/20%Monthly2017-07-15 20:21
http://www.hotnewdeal.com/2017/07/15/196988_New_HTC_10_32GB_Silver_for_TMobile_300_after_20/20%Monthly2017-07-15 20:01
http://www.hotnewdeal.com/2017/07/15/196987_JBL_Flip_3_Splashproof_Portable_Bluetooth_Speaker_/20%Monthly2017-07-15 20:01
http://www.hotnewdeal.com/2017/07/15/196986_Advion_Syngenta_Cockroach_Gel_Bait_1_Box_4_Tubes/20%Monthly2017-07-15 19:51
http://www.hotnewdeal.com/2017/07/15/196985_Target_Free_20_Gift_Card_with_100_Baby_Departme/20%Monthly2017-07-15 19:43
http://www.hotnewdeal.com/2017/07/15/196984_BRAND_NEW_LG_G5_H830T_32GB_TMobile__GSM_Unlocked/20%Monthly2017-07-15 19:43
http://www.hotnewdeal.com/2017/07/15/196983_TRELAB_RF100_Bluetooth_Headphones_960_FSAmazon_/20%Monthly2017-07-15 19:32
http://www.hotnewdeal.com/2017/07/15/196982_5757_Rockland_Luggage_20_Inch_and_28_Inch_2_Piec/20%Monthly2017-07-15 19:23
http://www.hotnewdeal.com/2017/07/15/196981_HP_156_touchscreen_i37100U_12GB_DDR4_1TB_HD/20%Monthly2017-07-15 19:23
http://www.hotnewdeal.com/2017/07/15/196980_Global_G46__7_inch_18cm_Santoku_Knife_for_800/20%Monthly2017-07-15 19:11
http://www.hotnewdeal.com/2017/07/15/196979_Nature_Made_Adult_Chewable_D3_1000_IU_Tablets_/20%Monthly2017-07-15 18:38
http://www.hotnewdeal.com/2017/07/15/196977_CharGriller_Akorn_Jr_Kooker_Charcoal_GrillSmoker/20%Monthly2017-07-15 18:10
http://www.hotnewdeal.com/2017/07/15/196976_AAFES_Military__Deals_on_TVsSony_XBR49X700D_39/20%Monthly2017-07-15 18:10
http://www.hotnewdeal.com/2017/07/15/196973_klipsch_Groove_Portable_Bluetooth_Speaker_Amazon_d/20%Monthly2017-07-15 18:01
http://www.hotnewdeal.com/2017/07/15/196972_96ct_812pk_Barrie_House_Kcups_Hawaiian_Kona_Ha/20%Monthly2017-07-15 17:43
http://www.hotnewdeal.com/2017/07/15/196971_Nerds_Treat_Size_Lemonade_and_Strawberry_Mix_187/20%Monthly2017-07-15 17:30
http://www.hotnewdeal.com/2017/07/15/196970_Acer_G7_Series_G247HYL_bmidx_Black_238_4ms_IPS_L/20%Monthly2017-07-15 16:57
http://www.hotnewdeal.com/2017/07/15/196969_Dollar_Tree_July_16_10_off_printable_voucher__co/20%Monthly2017-07-15 16:09
http://www.hotnewdeal.com/2017/07/15/196968_Ozeri_Pro_Digital_Kitchen_Food_Scale_1g_to_12_lbs/20%Monthly2017-07-15 16:00
http://www.hotnewdeal.com/2017/07/15/196967_Amazon__Xbox_One_Kinect__4999/20%Monthly2017-07-15 16:00
http://www.hotnewdeal.com/2017/07/15/196966_Logitech_MK570_Comfort_Wave_Wireless_KeyboardMous/20%Monthly2017-07-15 15:49
http://www.hotnewdeal.com/2017/07/15/196965_Munchkin_Miracle_360_Sippy_Cup_GreenBlue_10_Oun/20%Monthly2017-07-15 15:30
http://www.hotnewdeal.com/2017/07/15/196964_Adidas_Womens_Alphabounce_Grey__40_fs/20%Monthly2017-07-15 15:30
http://www.hotnewdeal.com/2017/07/15/196963_5Head_Floor_Lamp_1199_at_TARGET/20%Monthly2017-07-15 15:21
http://www.hotnewdeal.com/2017/07/15/196962_Select_Video_Games_PreOrder_Fire_Emblem_Warriors/20%Monthly2017-07-15 15:12
http://www.hotnewdeal.com/2017/07/15/196961_Huawei_watch_stainless_steel_with_black_leather_su/20%Monthly2017-07-15 15:12
http://www.hotnewdeal.com/2017/07/15/196959_YMMV__3TB_Western_Digital_Portable_Hard_Drive__/20%Monthly2017-07-15 15:11
http://www.hotnewdeal.com/2017/07/15/196958_The_Classic_BabyLit_Collection_8_Board_Book_Box_S/20%Monthly2017-07-15 14:49
http://www.hotnewdeal.com/2017/07/15/196956_Gorilla_Garden_Dump_Cart_4724_Kmart__YMMV_Clear/20%Monthly2017-07-15 14:11
http://www.hotnewdeal.com/2017/07/15/196955_Prime_Members_GoodSense_Advantage_MilkBased_Powd/20%Monthly2017-07-15 14:10
http://www.hotnewdeal.com/2017/07/15/196954_109_shipped_Sparco_86000_Staple_Remover_w_Prime/20%Monthly2017-07-15 14:10
http://www.hotnewdeal.com/2017/07/15/196953_Britax_Frontier_Clicktight_Multicolor_20568/20%Monthly2017-07-15 13:50
http://www.hotnewdeal.com/2017/07/15/196952_AC_PRO_R134_Refrigerant_Recharge_198_after_rebat/20%Monthly2017-07-15 13:39
http://www.hotnewdeal.com/2017/07/15/196951_10Cup_Drip_Coffee_Maker_Thermal_Coffee_Machine_1/20%Monthly2017-07-15 13:31
http://www.hotnewdeal.com/2017/07/15/196950_Amazon__BLACKDECKER_LHT2436_40V_Cordless_Hedge_T/20%Monthly2017-07-15 13:12
http://www.hotnewdeal.com/2017/07/15/196949_WEN_3410_3Speed_RemoteControlled_Air_Filtration_/20%Monthly2017-07-15 12:59
http://www.hotnewdeal.com/2017/07/15/196948_Apple_MacBook_Air__133__128GB__750_at_Best_/20%Monthly2017-07-15 12:25
http://www.hotnewdeal.com/2017/07/15/196947_iPhone_CaseAntiscratch_Protective_Cases_for_iPh/20%Monthly2017-07-15 12:05
http://www.hotnewdeal.com/2017/07/15/196945_Scott_TubeFree_Toilet_Paper_48_Count_1097_Ama/20%Monthly2017-07-15 12:05
http://www.hotnewdeal.com/2017/07/15/196944_Butterball_XL_Indoor_Electric_Turkey_Fryer_20_lbs/20%Monthly2017-07-15 12:05
http://www.hotnewdeal.com/2017/07/15/196943_up_to_220_off_with_purchase_of_select_Rokinon_and/20%Monthly2017-07-15 12:04
http://www.hotnewdeal.com/2017/07/15/196942_Chicco_NextFit_Convertible_Car_Seat_Target_Cleara/20%Monthly2017-07-15 12:04
http://www.hotnewdeal.com/2017/07/15/196941_HotelSpa_Combination_Shower_Heads__Your_Choice_/20%Monthly2017-07-15 10:32
http://www.hotnewdeal.com/2017/07/15/196940_Arm__Hammer_Plus_Oxiclean_3in1_Laundry_Detergen/20%Monthly2017-07-15 10:10
http://www.hotnewdeal.com/2017/07/15/196939_Marmot_End_of_Season_Sale__up_to_60_off__Free_S/20%Monthly2017-07-15 10:10
http://www.hotnewdeal.com/2017/07/15/196938_Metal_Gear_Solid_V_Phantom_Pain_Xbox_One_499__/20%Monthly2017-07-15 09:51
http://www.hotnewdeal.com/2017/07/15/196937_Kobalt_13Amp_21in_Deck_Width_Corded_Electric_Pus/20%Monthly2017-07-15 09:51
http://www.hotnewdeal.com/2017/07/15/196936_BarrettJackson_Car_Spray_Wax_22_oz__250__Amaz/20%Monthly2017-07-15 09:51
http://www.hotnewdeal.com/2017/07/15/196935_Downy_Unstopables_InWash_Scent_Booster_Beads__FR/20%Monthly2017-07-15 09:36
http://www.hotnewdeal.com/2017/07/15/196934_Electric_Blue_Nintendo_2DS_Mario_Kart_Bundle_60_/20%Monthly2017-07-15 09:01
http://www.hotnewdeal.com/2017/07/15/196933_Victorinox_10_Inch_Fibrox_Pro_Chefs_Knife_for_31/20%Monthly2017-07-15 09:01
http://www.hotnewdeal.com/2017/07/15/196932_Kreg_Tool_Company_KMA3200_6mm_Shelf_Pin_Jig_2499/20%Monthly2017-07-15 08:50
http://www.hotnewdeal.com/2017/07/15/196931_The_Big_One_Gel_Memory_Foam_15_Mattress_Topper_/20%Monthly2017-07-15 08:33
http://www.hotnewdeal.com/2017/07/15/196930_Cheap_R134A_12oz_refrigerant_for_488_at_Walmart/20%Monthly2017-07-15 08:32
http://www.hotnewdeal.com/2017/07/15/196929_Street_Fighter_V__PlayStation_4_10AC/20%Monthly2017-07-15 08:21
http://www.hotnewdeal.com/2017/07/15/196928_Amazon_5_gift_card_for_6250_points_half_off_71/20%Monthly2017-07-15 08:06
http://www.hotnewdeal.com/2017/07/15/196927_adidas_Golf_Extra_40_Off_Mens__Womens_Sale_Ap/20%Monthly2017-07-15 07:47
http://www.hotnewdeal.com/2017/07/15/196926_Amazon_Vega_Protein__Greens_Vanilla_167_lb_2/20%Monthly2017-07-15 07:47
http://www.hotnewdeal.com/2017/07/15/196925_BathSense_Pedestal_Mirror_Chrome_only__429_free/20%Monthly2017-07-15 07:21
http://www.hotnewdeal.com/2017/07/15/196924_AmazonBasics_OverEar_Headphones_651/20%Monthly2017-07-15 06:35
http://www.hotnewdeal.com/2017/07/15/196923_Target__40_off_Torchiere_Floor_Lamp_7/20%Monthly2017-07-15 06:35
http://www.hotnewdeal.com/2017/07/15/196922_ATYME_50_Class_AM_Series_Full_HD_LED_TV__1080p_/20%Monthly2017-07-15 06:13
http://www.hotnewdeal.com/2017/07/15/196921_Intex_Challenger_K1_Inflatable_Kayak_Set_w_Alumin/20%Monthly2017-07-15 05:11
http://www.hotnewdeal.com/2017/07/15/196920_NBA_2K18__Early_TipOff_Edition_PreOrder_for_PS4/20%Monthly2017-07-15 05:06
http://www.hotnewdeal.com/2017/07/15/196919_Adidas_Adizero_II_Hat__Costco_BM_YMMV__1199/20%Monthly2017-07-15 04:31
http://www.hotnewdeal.com/2017/07/15/196918_Castrol_03057_GTX_Magnatec_5W30_Motor_Oil__5_Qua/20%Monthly2017-07-15 03:29
http://www.hotnewdeal.com/2017/07/15/196917_Apple__Macbook__12_Display__Intel_Core_M5_11/20%Monthly2017-07-15 02:31
http://www.hotnewdeal.com/2017/07/15/196916_2Years_of_Windscribe_Pro_VPN__Browser_Based_Priv/20%Monthly2017-07-15 02:31
http://www.hotnewdeal.com/2017/07/15/196915_WEme_Mini_DisplayPort_DP_to_HDMI_VGA_Converter_Ada/20%Monthly2017-07-15 02:31
http://www.hotnewdeal.com/2017/07/15/196914_Hisense_55_Class_546_Diag_LED_2160p_Smart_4K/20%Monthly2017-07-15 02:11
http://www.hotnewdeal.com/2017/07/15/196913_Petco_Up_to_30_off_50_Online_Only_15_EGiftca/20%Monthly2017-07-15 02:11
http://www.hotnewdeal.com/2017/07/15/196912_Sony_PlayStation_4_Slim_500GB_Console__Uncharted_/20%Monthly2017-07-15 02:11
http://www.hotnewdeal.com/2017/07/15/196911_Pit_Boss_Competition_Blend_Wood_Pellets_40lbs_15/20%Monthly2017-07-15 02:11
http://www.hotnewdeal.com/2017/07/15/196910_Nine_Stars_DZT804_Infrared_Touchless_Stainless_S/20%Monthly2017-07-15 01:32
http://www.hotnewdeal.com/2017/07/15/196909_Graco_Modes_Travel_System_Francesca_18960_for_P/20%Monthly2017-07-15 01:15
http://www.hotnewdeal.com/2017/07/15/196908_AcuRite_00850A2_5Inch_Capacity_EasyRead_Magnifyi/20%Monthly2017-07-15 01:15
http://www.hotnewdeal.com/2017/07/15/196907_Walmart__Finish_All_In_1_Gelpacs_Orange_54_Tabs_/20%Monthly2017-07-15 01:14
http://www.hotnewdeal.com/2017/07/15/196906_Asus_Prime_Z170AR_50_AR/20%Monthly2017-07-15 01:14
http://www.hotnewdeal.com/2017/07/15/196905_Anker_Premium_Bluetooth_Speaker_20W__36/20%Monthly2017-07-15 01:14
http://www.hotnewdeal.com/2017/07/15/196904_30days_free_subscription_to_game_fly_with_two_game/20%Monthly2017-07-15 01:14
http://www.hotnewdeal.com/2017/07/15/196903_MyProtein_Impact_Whey_Isolate_YMMV__22lbs_from_/20%Monthly2017-07-15 01:14
http://www.hotnewdeal.com/2017/07/15/196902_Jackery_New_Spark_800A_Peak_18000mAh_Portable_Car_/20%Monthly2017-07-15 00:06
http://www.hotnewdeal.com/2017/07/15/196901_Kershaw_1620C_Ken_Onion_Camo_Scallion_Folding_Knif/20%Monthly2017-07-15 00:06
http://www.hotnewdeal.com/2017/07/15/196900_Mackie_Professional_Mixers_ProFX8v2_120_ProFX12/20%Monthly2017-07-15 00:06
http://www.hotnewdeal.com/2017/07/14/196899_Onkyo_TXNR575_72Channel_Network_AV_Receiver__/20%Monthly2017-07-14 23:55
http://www.hotnewdeal.com/2017/07/14/196898_Dell_E515dw_Mono_Laser_Printer_6999/20%Monthly2017-07-14 23:33
http://www.hotnewdeal.com/2017/07/14/196897_Annies_Variety_pack_7/20%Monthly2017-07-14 23:33
http://www.hotnewdeal.com/2017/07/14/196896_Logitech_G710_Mechanical_Gaming_Keyboard_Blue_or/20%Monthly2017-07-14 23:33
http://www.hotnewdeal.com/2017/07/14/196895_Kohls_has_Samsonite_Omni_PC_Hardside_Spinner_Lugg/20%Monthly2017-07-14 23:18
http://www.hotnewdeal.com/2017/07/14/196894_Desk_Chair_Study_Chair_Low_Back_Swivel_Office_Hom/20%Monthly2017-07-14 23:18
http://www.hotnewdeal.com/2017/07/14/196893_Nikon_AFS_DX_NIKKOR_35mm_f18G_Lens_with_Auto_Fo/20%Monthly2017-07-14 23:17
http://www.hotnewdeal.com/2017/07/14/196892_Craftsman_Programmable_Digital_Tire_Gauge_1349/20%Monthly2017-07-14 23:04
http://www.hotnewdeal.com/2017/07/14/196891_Sun_Joe_LJ10M_Logger_Joe_10_Ton_Hydraulic_Log_Spli/20%Monthly2017-07-14 22:51
http://www.hotnewdeal.com/2017/07/14/196890_Securify_Smart_WiFi_Outlet_Plug_Socket_999_free_/20%Monthly2017-07-14 22:29
http://www.hotnewdeal.com/2017/07/14/196889_Roku_Premiere_Certified_Refurbished_5999__FR/20%Monthly2017-07-14 22:10
http://www.hotnewdeal.com/2017/07/14/196888_adidas_Next_Level_Speed_5_Shoes_Mens_White_28_fr/20%Monthly2017-07-14 21:53
http://www.hotnewdeal.com/2017/07/14/196887_Logitech_G602_Gaming_Wireless_Mouse_Manuf_Refurb/20%Monthly2017-07-14 21:53
http://www.hotnewdeal.com/2017/07/14/196886_Klipsch_R26F_Floorstanding_Speaker_140_each__fr/20%Monthly2017-07-14 21:37
http://www.hotnewdeal.com/2017/07/14/196885_AllSaints_Paradise_North_South_Tote_Bag_30_Off_/20%Monthly2017-07-14 20:23
http://www.hotnewdeal.com/2017/07/14/196884_TOMY_John_Deere_Big_Scoop_21_Inch_Dump_Truck_159/20%Monthly2017-07-14 20:23
http://www.hotnewdeal.com/2017/07/14/196883_iPhone_SE_32GB_Verizon_PrePiad__19999/20%Monthly2017-07-14 20:13
http://www.hotnewdeal.com/2017/07/14/196882_Dorco_Pace_6_Plus_Mens_Razor_Handle_w_2x_Cartri/20%Monthly2017-07-14 20:03
http://www.hotnewdeal.com/2017/07/14/196881_Sears_Groupon_up_to_38_Off/20%Monthly2017-07-14 20:03
http://www.hotnewdeal.com/2017/07/14/196880_Big_Hero_6_FigurePlush_Deluxe_Flying_Baymax_Figu/20%Monthly2017-07-14 20:03
http://www.hotnewdeal.com/2017/07/14/196879_Kohls_Cardholders_Instant_Pot_Ultra_10in1_6qt/20%Monthly2017-07-14 19:57
http://www.hotnewdeal.com/2017/07/14/196878_JetBlue_Mosaic_Status_Match_with_Elite_Status_wAn/20%Monthly2017-07-14 19:47
http://www.hotnewdeal.com/2017/07/14/196877_Klipsch_Bundle_pair_RP280FA_Atmos_Floors__RP4/20%Monthly2017-07-14 19:38
http://www.hotnewdeal.com/2017/07/14/196876_3month_USMLE_Step_1_Qmax_79_with_Promo_Code_UAMS/20%Monthly2017-07-14 19:38
http://www.hotnewdeal.com/2017/07/14/196875_12Pairs_of_Womens_Seamless_Capri_Legging_2399_/20%Monthly2017-07-14 19:38
http://www.hotnewdeal.com/2017/07/14/196874_55_LG_55UJ6300_4K_HDR_TV__200_Dell_eGift_Card_/20%Monthly2017-07-14 19:38
http://www.hotnewdeal.com/2017/07/14/196873_Levis_Mens_541_Athletic_Fit_Stretch_Jean__299/20%Monthly2017-07-14 19:00
http://www.hotnewdeal.com/2017/07/14/196872_South_Park_The_Complete_19th_Season_Bluray_9_/20%Monthly2017-07-14 18:46
http://www.hotnewdeal.com/2017/07/14/196871_Asus_Q324UA_2in1_133_TouchScreen_Laptop_i71/20%Monthly2017-07-14 18:42
http://www.hotnewdeal.com/2017/07/14/196870_Super_Bomber_Man_R_Pre_Owned_For_Nintendo_Switch/20%Monthly2017-07-14 18:02
http://www.hotnewdeal.com/2017/07/14/196869_Anker_21W_Dual_USB_Solar_Charger_PowerPort_Solar_f/20%Monthly2017-07-14 17:51
http://www.hotnewdeal.com/2017/07/14/196868_2Pack_Tile_Slim_2999__FS_wPrime/20%Monthly2017-07-14 17:15
http://www.hotnewdeal.com/2017/07/14/196867_Nike_Mens_Swingman_Baseball_Hoodie_Med_or_Large/20%Monthly2017-07-14 17:15
http://www.hotnewdeal.com/2017/07/14/196865_Hobbit_The_Battle_of_the_Five_Armies_Includes_Di/20%Monthly2017-07-14 17:02
http://www.hotnewdeal.com/2017/07/14/196863_Many_US__Canadian_Cities_to_Turks__Caicos_Island/20%Monthly2017-07-14 16:55
http://www.hotnewdeal.com/2017/07/14/196862_JCpenney_Giveaway_for_10_Off_10_or_More_for_Free/20%Monthly2017-07-14 16:55
http://www.hotnewdeal.com/2017/07/14/196861_Graco_4Ever_AllinOne_Convertible_Car_Seat_vario/20%Monthly2017-07-14 16:54
http://www.hotnewdeal.com/2017/07/14/196860_Canon_5D_Mark_III_DSLR_Body__Pro100_Printer__Zo/20%Monthly2017-07-14 16:44
http://www.hotnewdeal.com/2017/07/14/196859_Apple_Airpods_1277_nebraska_furniture_mart/20%Monthly2017-07-14 16:38
http://www.hotnewdeal.com/2017/07/14/196858_Parrot_Mini_Drone_Jumping_Sumo_for_3999__Free_S/20%Monthly2017-07-14 16:38
http://www.hotnewdeal.com/2017/07/14/196857_Intel_i7_7700K_Kaby_Lake_QuadCore_42GHz_Processo/20%Monthly2017-07-14 16:37
http://www.hotnewdeal.com/2017/07/14/196856_Parfums_Belcam_Classic_Match_Version_of_Polo_Blue_/20%Monthly2017-07-14 16:03
http://www.hotnewdeal.com/2017/07/14/196855_Citi_ThankYou_Premier_50000_Points_after_4000_s/20%Monthly2017-07-14 16:03
http://www.hotnewdeal.com/2017/07/14/196854_Rosewill_3770_Full_Motion_TV_Wall_Mount_2599/20%Monthly2017-07-14 15:39
http://www.hotnewdeal.com/2017/07/14/196853_Mugig_Musical_Instrument_Stand_with_Two_Y_Shaped_P/20%Monthly2017-07-14 15:39
http://www.hotnewdeal.com/2017/07/14/196852_Rachel_Ray_Every_Day495yr_Family_Handyman8/20%Monthly2017-07-14 15:26
http://www.hotnewdeal.com/2017/07/14/196851_Moto_G5_Plus_XT1867_64GB_4G_LTE_Unlocked_Phone__/20%Monthly2017-07-14 15:14
http://www.hotnewdeal.com/2017/07/14/196850_Wifi_Air_Purifier_10680_Ordering_w_Amazon_Echo_/20%Monthly2017-07-14 15:14
http://www.hotnewdeal.com/2017/07/14/196849_Star_Wars_Chewbacca_Christmas_Stocking_097_via_/20%Monthly2017-07-14 15:13
http://www.hotnewdeal.com/2017/07/14/196848_JBL_Flip_4_Bluetooth_Speaker_70_wemailed_code_s/20%Monthly2017-07-14 15:07
http://www.hotnewdeal.com/2017/07/14/196847_Kohls_Cardholders_15_Big_One_Solid_Bath_Towels_/20%Monthly2017-07-14 14:59
http://www.hotnewdeal.com/2017/07/14/196846_Accessories_for_AllNew_Fire_7__HD_8_Tablet_start/20%Monthly2017-07-14 14:50
http://www.hotnewdeal.com/2017/07/14/196844_Gear_Fit2_Refurbished_for_5596_Gear_S2_Verizo/20%Monthly2017-07-14 14:39
http://www.hotnewdeal.com/2017/07/14/196843_Columbia_Fall_River_10_Person_Instant_Tent__240_/20%Monthly2017-07-14 14:39
http://www.hotnewdeal.com/2017/07/14/196842_Aluminum_Apple_Watch_Stand_or_Premium_Crazy_Horse_/20%Monthly2017-07-14 14:29
http://www.hotnewdeal.com/2017/07/14/196841_BeyerDynamic_T1_2nd_Gen_Headphones__Sennheiser_HD/20%Monthly2017-07-14 14:29
http://www.hotnewdeal.com/2017/07/14/196840_Kohls_Cardholders_14Piece_Rachael_Ray_Brights_N/20%Monthly2017-07-14 14:29
http://www.hotnewdeal.com/2017/07/14/196839_Yuneec_Breeze_4K_WiFi_Drone_29999/20%Monthly2017-07-14 14:22
http://www.hotnewdeal.com/2017/07/14/196838_Kmart_NERF_Alien_Menace_Ravager_Blaster__1849_/20%Monthly2017-07-14 14:15
http://www.hotnewdeal.com/2017/07/14/196836_Sony_PlayStation_Gold_Wireless_Stereo_Headset_59/20%Monthly2017-07-14 14:15
http://www.hotnewdeal.com/2017/07/14/196835_Kohls_Cardholders_Melissa__Doug_60_Plush_Giraf/20%Monthly2017-07-14 14:06
http://www.hotnewdeal.com/2017/07/14/196834_San_Francisco_Bay_OneCup_Decaf_French_Roast_80_C/20%Monthly2017-07-14 13:49
http://www.hotnewdeal.com/2017/07/14/196833_Hitachi_10_Compound_Miter_Saw_Grade_A_Reconditio/20%Monthly2017-07-14 13:49
http://www.hotnewdeal.com/2017/07/14/196832_Philips_Hue_Warm_White_A19_60W_Equivalent_Dimmab/20%Monthly2017-07-14 13:49
http://www.hotnewdeal.com/2017/07/14/196831_Craftsman_Professional_4_Ton_Jack_Stands__1999/20%Monthly2017-07-14 13:49
http://www.hotnewdeal.com/2017/07/14/196830_OXO_Salad_Spinner__2pc_Burts_Bees_Lip_Balms__10/20%Monthly2017-07-14 13:49
http://www.hotnewdeal.com/2017/07/14/196829_Xiaomi_Smart_Mi_Air_Purifier_2nd_Gen_w_HEPA_Fil/20%Monthly2017-07-14 13:37
http://www.hotnewdeal.com/2017/07/14/196828_DJI_Mavic_Pro_Drone__2nd_Battery__Charging_Hub_/20%Monthly2017-07-14 13:37
http://www.hotnewdeal.com/2017/07/14/196827_Urbini_Reversi_Stroller__Red_3988__Free_Store_/20%Monthly2017-07-14 13:30
http://www.hotnewdeal.com/2017/07/14/196826_Roku_Express_Media_Streamer_1999/20%Monthly2017-07-14 13:29
http://www.hotnewdeal.com/2017/07/14/196825_AMD_Ryzen_1600x_for_199_after_20_coupon/20%Monthly2017-07-14 13:15
http://www.hotnewdeal.com/2017/07/14/196824_Jotun_Valhalla_Edition_PC_Digital_Download_FREE/20%Monthly2017-07-14 13:15
http://www.hotnewdeal.com/2017/07/14/196822_SamsoniteOmniPC_3PC_Hardsize_SpinnerSetLuggag/20%Monthly2017-07-14 13:15
http://www.hotnewdeal.com/2017/07/14/196821_Creativebug_1_month_of_free_Do_It_Yourself_DIY_/20%Monthly2017-07-14 13:14
http://www.hotnewdeal.com/2017/07/14/196820_DeWalt_Standard_Electrician_BiMetal_holesaw_kit/20%Monthly2017-07-14 12:59
http://www.hotnewdeal.com/2017/07/14/196819_Sams_Club_Cracker_Barrel_75GC_wMagnetic_Sock_Mo/20%Monthly2017-07-14 12:48
http://www.hotnewdeal.com/2017/07/14/196818_LED_Automobile_Headlight_Bulbs_with_Advanced_LED_C/20%Monthly2017-07-14 12:48
http://www.hotnewdeal.com/2017/07/14/196817_Andrew_Jones_Pioneer_Atmos_Bookshelf_Speakers_200/20%Monthly2017-07-14 12:48
http://www.hotnewdeal.com/2017/07/14/196816_Samsung_200W_21_Channel_Soundbar_with_Wireless_Su/20%Monthly2017-07-14 12:40
http://www.hotnewdeal.com/2017/07/14/196815_Blackberry_Priv_Smartphone_for_Verizon_21499_FS/20%Monthly2017-07-14 12:40
http://www.hotnewdeal.com/2017/07/14/196814_MIXX_2_Stroller_System__PIPA_Car_Seat_Set_675_Lo/20%Monthly2017-07-14 12:39
http://www.hotnewdeal.com/2017/07/14/196813_Nitecore_TUBE_LED_Keychain_Light_4__free_shippin/20%Monthly2017-07-14 12:39
http://www.hotnewdeal.com/2017/07/14/196812_Toys_R_Us_20_GC_for_10_at_Groupon__For_email_In/20%Monthly2017-07-14 12:39
http://www.hotnewdeal.com/2017/07/14/196811_Verizon_Smart_Rewards__Free_Magazines_including/20%Monthly2017-07-14 12:25
http://www.hotnewdeal.com/2017/07/14/196810_Sades_SA801_OverEar_Stereo_Gaming_Headset_with_Mi/20%Monthly2017-07-14 12:24
http://www.hotnewdeal.com/2017/07/14/196809_Fryscom_Samsung_UN65KU6290_65_4K_Smart_TV_with_e/20%Monthly2017-07-14 12:14
http://www.hotnewdeal.com/2017/07/14/196808_WEme_Mini_DisplayPort_DP_to_HDMI_VGA_Converter_Ada/20%Monthly2017-07-14 12:08
http://www.hotnewdeal.com/2017/07/14/196807_Sterilite_Small_5_Drawer_Unit_White_case_of_4_/20%Monthly2017-07-14 12:06
http://www.hotnewdeal.com/2017/07/14/196806_DJI_SPARK_FSLabs_Drone_Accessories_Sale_Camera_Gi/20%Monthly2017-07-14 12:05
http://www.hotnewdeal.com/2017/07/14/196805_22Piece_Pyrex_Food_Storage_Set__10_Macys_eGift_/20%Monthly2017-07-14 11:52
http://www.hotnewdeal.com/2017/07/14/196804_Beyerdynamic_MMX_102_iE_Black_Neodymium_Mic__Remo/20%Monthly2017-07-14 11:52
http://www.hotnewdeal.com/2017/07/14/196803_Aquaphor_Baby_Healing_Ointment__14_Ounce__9_usi/20%Monthly2017-07-14 11:52
http://www.hotnewdeal.com/2017/07/14/196802_MS_Office_Pro_2016_for_995_Perksatwork_only/20%Monthly2017-07-14 11:39
http://www.hotnewdeal.com/2017/07/14/196800_Kohls_Cardholders_Sealy_Posturepedic_Every_Positi/20%Monthly2017-07-14 11:25
http://www.hotnewdeal.com/2017/07/14/196799_ADATA_SU800_512GB_ssd_13669_amazon/20%Monthly2017-07-14 11:16
http://www.hotnewdeal.com/2017/07/14/196798_Kohls_Cardholders_The_Big_One_Down_Alternative_Re/20%Monthly2017-07-14 11:16
http://www.hotnewdeal.com/2017/07/14/196797_Asus_RTAC3100_AC3100_Dual_Band_Router_RFB_108/20%Monthly2017-07-14 11:15
http://www.hotnewdeal.com/2017/07/14/196795_Vudu_Weekend_Sale_HDX_Movies_Warrior_We_Were_So/20%Monthly2017-07-14 11:02
http://www.hotnewdeal.com/2017/07/14/196794_Prime_Members_24Pk_169oz_Perrier_Sparkling_Mine/20%Monthly2017-07-14 10:47
http://www.hotnewdeal.com/2017/07/14/196793_2Pack_LINKYO_Replacement_Toner_Cartridges_for_Bro/20%Monthly2017-07-14 10:47
http://www.hotnewdeal.com/2017/07/14/196792_eBay__20_Off_25_Purchase_of_Select_Fashion_Te/20%Monthly2017-07-14 10:30
http://www.hotnewdeal.com/2017/07/14/196790_Leadership__SelfDeception_Getting_Out_of_the_Bo/20%Monthly2017-07-14 10:21
http://www.hotnewdeal.com/2017/07/14/196789_Moto_G_4th_Generation__Black__32_GB__Unlocked/20%Monthly2017-07-14 10:20
http://www.hotnewdeal.com/2017/07/14/196787_3Piece_NuMax_Finish_Nailer_Kit_Grade_A_Reconditi/20%Monthly2017-07-14 09:59
http://www.hotnewdeal.com/2017/07/14/196786_Kobalt_11Blade_Utility_Knife_498_at_lowes/20%Monthly2017-07-14 09:59
http://www.hotnewdeal.com/2017/07/14/196785_Belkin_Surge_Protectors_12Outlet_6_Power_Strip_/20%Monthly2017-07-14 09:32
http://www.hotnewdeal.com/2017/07/14/196783_Home_Depot_Milwaukee_M18_18Volt_LithiumIon_Cordl/20%Monthly2017-07-14 09:04
http://www.hotnewdeal.com/2017/07/14/196782_Rosewill_FBMX1_Black_SteelPlastic_ATX_Mini_Tower/20%Monthly2017-07-14 08:58
http://www.hotnewdeal.com/2017/07/14/196781_Witcher_3_Wild_Hunt_Complete_Edition__PC__XBox_/20%Monthly2017-07-14 08:47
http://www.hotnewdeal.com/2017/07/14/196778_Get_50_backas_statement_credit_on_spotify_premi/20%Monthly2017-07-14 08:46
http://www.hotnewdeal.com/2017/07/14/196777_Kohls_Cardholders_Mens_LS_SONOMA_Goods_for_Life/20%Monthly2017-07-14 08:26
http://www.hotnewdeal.com/2017/07/14/196776_ASUS_PRIME_B350PLUS_AM4_AMD_B350_Ryzen_Motherboar/20%Monthly2017-07-14 08:26
http://www.hotnewdeal.com/2017/07/14/196775_3TB_HGST_Ultrastar_7K4000_35_Hard_Drive_RFB_4/20%Monthly2017-07-14 07:46
http://www.hotnewdeal.com/2017/07/14/196774_GIGABYTE_GAAB350GAMING_3_AM4_ATX_AMD_B350_Ryzen_/20%Monthly2017-07-14 07:46
http://www.hotnewdeal.com/2017/07/14/196773_Kwikset_SmartCode_SmartKey_909_Motorized_Electroni/20%Monthly2017-07-14 07:34
http://www.hotnewdeal.com/2017/07/14/196772_CyberPower_Intelligent_LCD_1000VA_600W_AVR_Mini_UP/20%Monthly2017-07-14 07:22
http://www.hotnewdeal.com/2017/07/14/196771_Swiss_Gear_student_backpacks_10_Limit_3_Office_/20%Monthly2017-07-14 07:22
http://www.hotnewdeal.com/2017/07/14/196770_First_Alert_SA320CN_Dual_Sensor_BatteryPowered_Sm/20%Monthly2017-07-14 05:13
http://www.hotnewdeal.com/2017/07/14/196769_Bestway_10_x_30_Inflatable_Fast_Set_Pool_Kit_40/20%Monthly2017-07-14 05:05
http://www.hotnewdeal.com/2017/07/14/196768_Amex_Offer_Walmartcom_Spend_50_or_more_get_10_/20%Monthly2017-07-14 04:13
http://www.hotnewdeal.com/2017/07/14/196767_Best_Buy__Sony__Portable_Bluetooth_Speaker__Bla/20%Monthly2017-07-14 04:13
http://www.hotnewdeal.com/2017/07/14/196766_5Pack_Etekcity_Wireless_Outlet_Light_Switch_w_2_/20%Monthly2017-07-14 04:13
http://www.hotnewdeal.com/2017/07/14/196765_Iconic_5000_mAh_Rechargeable_External_Battery_Case/20%Monthly2017-07-14 03:31
http://www.hotnewdeal.com/2017/07/14/196764_Asics_Mens_Surge_WarmUp_Jacket_RoyalWhite_or_C/20%Monthly2017-07-14 02:33
http://www.hotnewdeal.com/2017/07/14/196763_Scotts_WIZZ_Broadcast_Spreader_9__Walmart_YMMV/20%Monthly2017-07-14 02:33
http://www.hotnewdeal.com/2017/07/14/196762_Kohls_Cardholders_Instant_Pot_Duo_7in1_6_Qt_P/20%Monthly2017-07-14 02:13
http://www.hotnewdeal.com/2017/07/14/196761_4Pack_Philips_60W_Equivalent_Soft_White_A19_LED_L/20%Monthly2017-07-14 02:13
http://www.hotnewdeal.com/2017/07/14/196760_Amazoncom_has_Various_6Pack_of_6oz_Beanitos_Chi/20%Monthly2017-07-14 02:13
http://www.hotnewdeal.com/2017/07/14/196759_Treasure_Hunters_for_AndroidiOS_for_099/20%Monthly2017-07-14 02:13
http://www.hotnewdeal.com/2017/07/14/196758_Cobra_CX335_Two_Way_Radio_1999_shipped_with_20_/20%Monthly2017-07-14 01:33
http://www.hotnewdeal.com/2017/07/14/196757_10499HISTORIC_LOW_NEW_MSI_Z270_SLI_PLUS_LG/20%Monthly2017-07-14 01:12
http://www.hotnewdeal.com/2017/07/14/196756_Reebok_Mens_Yourflex_Train_90_MT_Shoes_2449_AC/20%Monthly2017-07-14 01:12
http://www.hotnewdeal.com/2017/07/14/196755_20Pack_of_16Oz_Monster_Energy_Drinks_LoCarb_/20%Monthly2017-07-14 01:12
http://www.hotnewdeal.com/2017/07/14/196753_65_LG_65UH6150_4K_UHD_HDR_WebOS_30_Smart_LED_HDT/20%Monthly2017-07-14 01:11
http://www.hotnewdeal.com/2017/07/14/196752_LG_43UJ6300_43_4K_Smart_TV__100_Dell_eGift_Car/20%Monthly2017-07-14 01:11
http://www.hotnewdeal.com/2017/07/14/196751_Amazon_Lightning_Deal_Casio_Mens_Edifice_Stainle/20%Monthly2017-07-14 00:03
http://www.hotnewdeal.com/2017/07/13/196750_Seagate_Backup_Plus_4TB_USB_30_External_Hard_Driv/20%Monthly2017-07-13 23:52
http://www.hotnewdeal.com/2017/07/13/196749_Argo_HD_Movie_Rental_010/20%Monthly2017-07-13 23:47
http://www.hotnewdeal.com/2017/07/13/196748_Walmart__Barbie_Dancin_Fun_Horse__20_w_Free_St/20%Monthly2017-07-13 23:15
http://www.hotnewdeal.com/2017/07/13/196747_Bose_SoundLink_AroundEar_Wireless_Headphones_II_/20%Monthly2017-07-13 23:02
http://www.hotnewdeal.com/2017/07/13/196746_8_oz_Water_Based_Personal_Lubricant__Free_Womens/20%Monthly2017-07-13 22:48
http://www.hotnewdeal.com/2017/07/13/196745_Samsung_65_4K_Ultra_HD_Smart_LED_TV_2017_Model/20%Monthly2017-07-13 22:35
http://www.hotnewdeal.com/2017/07/13/196744_Giant_Window_Bird_Feeder__Clear_Acrylic_House_for/20%Monthly2017-07-13 22:34
http://www.hotnewdeal.com/2017/07/13/196743_Iris_Contact_Sensor_Buy_2_get_1_Free_1666_each/20%Monthly2017-07-13 22:06
http://www.hotnewdeal.com/2017/07/13/196742_Samsung_65_8000_series_4K_refurb_for_1049__Grou/20%Monthly2017-07-13 21:51
http://www.hotnewdeal.com/2017/07/13/196741_Black__Decker_Liion_Hand_Vacuum__2Pc_Burts_Be/20%Monthly2017-07-13 21:40
http://www.hotnewdeal.com/2017/07/13/196740_Dr_Browns_Original_Bottle_Newborn_Feeding_Set_1/20%Monthly2017-07-13 21:24
http://www.hotnewdeal.com/2017/07/13/196739_Aztec_Secret_Indian_Healing_Clay_Deep_Pore_Cleansi/20%Monthly2017-07-13 21:14
http://www.hotnewdeal.com/2017/07/13/196738_YMMV_Lowes_has_Caseta_Lamp_Kit_for_1249_and_Cas/20%Monthly2017-07-13 21:01
http://www.hotnewdeal.com/2017/07/13/196737_Complete_set_of_BBS_Wheels_700_for_ChargerChall/20%Monthly2017-07-13 20:52
http://www.hotnewdeal.com/2017/07/13/196736_3count_Glad_Food_Storage_Disney_Sandwich_Contain/20%Monthly2017-07-13 20:33
http://www.hotnewdeal.com/2017/07/13/196735_Los_Angeles_to_Indonesia__566_RT_to_Jakarta_or_/20%Monthly2017-07-13 20:32
http://www.hotnewdeal.com/2017/07/13/196733_Indomie_Mi_Goreng_Instant_Noodle_Pack_of_30152/20%Monthly2017-07-13 20:05
http://www.hotnewdeal.com/2017/07/13/196732_Prime_Members_204Ct_U_by_Kotex_Sleek_Unscented_T/20%Monthly2017-07-13 19:48
http://www.hotnewdeal.com/2017/07/13/196731_Eddie_Bauer_Womens_MicroTherm_StormDown_Field_V/20%Monthly2017-07-13 19:37
http://www.hotnewdeal.com/2017/07/13/196730_Splatoon_2_Prima_Official_Guide_Paperback_946_/20%Monthly2017-07-13 19:37
http://www.hotnewdeal.com/2017/07/13/196729_Camp_Chef_Pro_SE_Pellet_Grill_YMMV/20%Monthly2017-07-13 19:15
http://www.hotnewdeal.com/2017/07/13/196728_Pink_Floyd__The_Wall_2cds_3_used_like_new/20%Monthly2017-07-13 19:01
http://www.hotnewdeal.com/2017/07/13/196727_36count_Brown_Gold_Coffee_Variety_Pack_RealCups/20%Monthly2017-07-13 18:52
http://www.hotnewdeal.com/2017/07/13/196726_Logitech_Harmony_Elite_Remote_Control__Hub_Refur/20%Monthly2017-07-13 18:52
http://www.hotnewdeal.com/2017/07/13/196725_Weber_Genesis_II_E310_499__Spirit_E210_299_Wa/20%Monthly2017-07-13 18:38
http://www.hotnewdeal.com/2017/07/13/196724_7night_cruise_for_a_family_of_4_to_Alaska_from_Se/20%Monthly2017-07-13 18:38
http://www.hotnewdeal.com/2017/07/13/196723_Viofo_wr1_dash_cam_69/20%Monthly2017-07-13 18:38
http://www.hotnewdeal.com/2017/07/13/196722_Prime_Members_New_Sample_Box_KCups_Coffee_Sampl/20%Monthly2017-07-13 18:24
http://www.hotnewdeal.com/2017/07/13/196721_Fender_Squier_Modified_Baritone_Jazzmaster_Electri/20%Monthly2017-07-13 18:24
http://www.hotnewdeal.com/2017/07/13/196720_HoMedics_NMS375_Shiatsu_Neck_and_Shoulder_Massage/20%Monthly2017-07-13 18:16
http://www.hotnewdeal.com/2017/07/13/196719_Sawtooth_STETSGRWKIT3_Electric_Guitar_Surf_Gr/20%Monthly2017-07-13 18:14
http://www.hotnewdeal.com/2017/07/13/196718_Diamondback_2017_Trace_Mountain_Bike__24999_on_/20%Monthly2017-07-13 17:50
http://www.hotnewdeal.com/2017/07/13/196717_Promix_Grass_Fed_Whey_Protein_different_flavors_5/20%Monthly2017-07-13 17:50
http://www.hotnewdeal.com/2017/07/13/196716_GIGABYTE_G1_Gaming_GAZ170XGaming_7_rev_10_1/20%Monthly2017-07-13 17:50
http://www.hotnewdeal.com/2017/07/13/196715_32GB_Samsung_Galaxy_Tab_S3_97_WiFi_Tablet__100/20%Monthly2017-07-13 17:30
http://www.hotnewdeal.com/2017/07/13/196713_A118C__B40C_1080p_Car_Dash_Cam_33__free_shippin/20%Monthly2017-07-13 17:15
http://www.hotnewdeal.com/2017/07/13/196712_Amazon_Razor_A3_Kick_Scooter_for_1074/20%Monthly2017-07-13 17:02
http://www.hotnewdeal.com/2017/07/13/196711_Price_Mistake__YMMV__Escort_Passport_8500_X50_Re/20%Monthly2017-07-13 16:53
http://www.hotnewdeal.com/2017/07/13/196710_San_Francisco_to_Israel_Roundtrip_from_500/20%Monthly2017-07-13 16:47
http://www.hotnewdeal.com/2017/07/13/196709_Costway_Adjustable_Exercise_Bicycle_Indoor_105_/20%Monthly2017-07-13 16:47
http://www.hotnewdeal.com/2017/07/13/196708_Amazon_Edifier_Exclaim_BiAmped_20_Speaker_Syste/20%Monthly2017-07-13 16:35
http://www.hotnewdeal.com/2017/07/13/196707_Lowes__11_off_at_participating_Lowes_Stores_7/20%Monthly2017-07-13 16:16
http://www.hotnewdeal.com/2017/07/13/196706_Cuisinart_DCC2750_Extreme_Brew_10Cup_Thermal_Pro/20%Monthly2017-07-13 15:57
http://www.hotnewdeal.com/2017/07/13/196705_CHANNELLOCK_94_Piece_Mechanics_Tool_Set_2010_w/20%Monthly2017-07-13 15:55
http://www.hotnewdeal.com/2017/07/13/196704_WD_Education_Store_500GB_WD_Blue_SSD_120_1TB_2/20%Monthly2017-07-13 15:55
http://www.hotnewdeal.com/2017/07/13/196703_YI_88001_16MP_Action_Camera_with_HighResolution_W/20%Monthly2017-07-13 15:54
http://www.hotnewdeal.com/2017/07/13/196702_Samsung_55quot_Class_4K__UN55KU6290__449_at_W/20%Monthly2017-07-13 15:42
http://www.hotnewdeal.com/2017/07/13/196701_Cooper_discoverer__Walmart_24560r18_/20%Monthly2017-07-13 15:42
http://www.hotnewdeal.com/2017/07/13/196700_Alfa_Long_Range_AC_1200_Dual_Band_Wifi_USB_Dongle_/20%Monthly2017-07-13 15:28
http://www.hotnewdeal.com/2017/07/13/196699_Keurig_Rivo_Cappuccino_and_Latte_System_9999_l/20%Monthly2017-07-13 15:14
http://www.hotnewdeal.com/2017/07/13/196698_MSI_GL62M_156in_i77700HQ_NVIDIA_GeForce_GTX_105/20%Monthly2017-07-13 15:14
http://www.hotnewdeal.com/2017/07/13/196697_My_USPS_Free_Upgrade_Offers_Preview_of_Incoming_M/20%Monthly2017-07-13 15:00
http://www.hotnewdeal.com/2017/07/13/196696_12_LBS_Cellucor_Whey_Protein__6498/20%Monthly2017-07-13 14:56
http://www.hotnewdeal.com/2017/07/13/196695_Prime_Members_10Ct_of_8Oz_Nesquik_Ready_To_Drin/20%Monthly2017-07-13 14:56
http://www.hotnewdeal.com/2017/07/13/196694_Gears_of_war_4_Ultimate_Edition_Steel_book__Seas/20%Monthly2017-07-13 14:44
http://www.hotnewdeal.com/2017/07/13/196693_Charlotte_to_Barcelona_436_RT_on_United_Air_Cana/20%Monthly2017-07-13 14:44
http://www.hotnewdeal.com/2017/07/13/196692_40_Servings_C4_Ultimate_for_3494__90ct_Fish_Oil/20%Monthly2017-07-13 14:30
http://www.hotnewdeal.com/2017/07/13/196691_GAP_Extra_40_Off_Clearance_Baby_Boy_Americana_He/20%Monthly2017-07-13 14:30
http://www.hotnewdeal.com/2017/07/13/196690_29_LG_29UC88B_UltraWide_219_FHD_2560x1080_IPS/20%Monthly2017-07-13 14:30
http://www.hotnewdeal.com/2017/07/13/196689_This_Old_House__5_per_year/20%Monthly2017-07-13 14:30
http://www.hotnewdeal.com/2017/07/13/196688_29_LG_29UM59AP_2560x1080_UltraWide_Freesync_IPS_/20%Monthly2017-07-13 14:30
http://www.hotnewdeal.com/2017/07/13/196687_Fifth_Element_4k_UHD__Blu_Ray__Digital_Copy_Stee/20%Monthly2017-07-13 14:29
http://www.hotnewdeal.com/2017/07/13/196686_Verizon_Smart_Rewards_Members_10_Verizon_Wireles/20%Monthly2017-07-13 14:15
http://www.hotnewdeal.com/2017/07/13/196685_Verizon_Smart_Rewards_Members_10_Verizon_Wireles/20%Monthly2017-07-13 14:15
http://www.hotnewdeal.com/2017/07/13/196684_Live_again_walmart_has_LEGO_Creator_Ocean_Explorer/20%Monthly2017-07-13 14:15
http://www.hotnewdeal.com/2017/07/13/196683_Brenthaven_Collins_Sleeve_Plus_Shoulder_Bag_for_Up/20%Monthly2017-07-13 14:14
http://www.hotnewdeal.com/2017/07/13/196682_Multi_Jointed_Fishing_Lure_Bass_Bait_6inch_Rainbo/20%Monthly2017-07-13 14:08
http://www.hotnewdeal.com/2017/07/13/196681_8499_Dell_C1760nw_Color_Laser_Printer_STPCGFY/20%Monthly2017-07-13 13:57
http://www.hotnewdeal.com/2017/07/13/196680_New_Sony_XB650BT_Extra_Bass_Bluetooth_Headphones_/20%Monthly2017-07-13 13:51
http://www.hotnewdeal.com/2017/07/13/196679_Apple_Macbook_Pro_133_Mid2017_Latest_Model_12/20%Monthly2017-07-13 13:47
http://www.hotnewdeal.com/2017/07/13/196678_Lenovo_HW01_Smart_Wristband_w_HRM_18__free_ship/20%Monthly2017-07-13 13:47
http://www.hotnewdeal.com/2017/07/13/196676_6TB_Seagate_Surveillance_Internal_Desktop_HDD_159/20%Monthly2017-07-13 13:46
http://www.hotnewdeal.com/2017/07/13/196675_Amazon_Gillette_Series_3X_Action_Shave_Gel_Sensi/20%Monthly2017-07-13 13:46
http://www.hotnewdeal.com/2017/07/13/196674_Fujitsu_Battery_Chargers_with_8_AA__4_AAA_batteri/20%Monthly2017-07-13 13:24
http://www.hotnewdeal.com/2017/07/13/196673_Target_12_count_of_St_Ives_Oatmeal_Scrub_and_Mas/20%Monthly2017-07-13 13:20
http://www.hotnewdeal.com/2017/07/13/196672_Prime_Members_ScotchBrite_Nonscratch_Scrub_Spon/20%Monthly2017-07-13 13:20
http://www.hotnewdeal.com/2017/07/13/196671_Flotool_RhinoRamp_12000_lb_Ramps_2Pack_20__ta/20%Monthly2017-07-13 13:20
http://www.hotnewdeal.com/2017/07/13/196670_Vilano_C1_Womens_Comfort_Road_Bike_11550__Fre/20%Monthly2017-07-13 13:19
http://www.hotnewdeal.com/2017/07/13/196669_MeFOTO_58mm_Wild_Blue_Yonder_Circular_Polarizer_Fi/20%Monthly2017-07-13 13:08
http://www.hotnewdeal.com/2017/07/13/196668_Refurb_HTC_One_M9_32GB_4G_LTE_Verizon_GSM_Unloc/20%Monthly2017-07-13 13:04
http://www.hotnewdeal.com/2017/07/13/196667_Philosophy_Miracle_Worker_4Pc_Kit_23_Shipped/20%Monthly2017-07-13 13:04
http://www.hotnewdeal.com/2017/07/13/196666_Tempered_Glass_Screen_Protector_for_Iphone5S_2pac/20%Monthly2017-07-13 12:52
http://www.hotnewdeal.com/2017/07/13/196665_RCA_55_Class_4K_2160P_LED_TV_RTU5540/20%Monthly2017-07-13 12:52
http://www.hotnewdeal.com/2017/07/13/196664_Mainstays_Stanton_Cushioned_4Piece_Patio_Conversa/20%Monthly2017-07-13 12:37
http://www.hotnewdeal.com/2017/07/13/196663_Unlocked_Samsung_Galaxy_S8_on_Groupon_for_57499/20%Monthly2017-07-13 12:37
http://www.hotnewdeal.com/2017/07/13/196662_8999_44_off_Seagate_Backup_Plus_4TB_External_/20%Monthly2017-07-13 12:14
http://www.hotnewdeal.com/2017/07/13/196661_Amazon__Walmart__MTM_ACR572_Crate_Utility_Box_w/20%Monthly2017-07-13 12:14
http://www.hotnewdeal.com/2017/07/13/196660_ASICS_Womens_GELCorrido_Running_Shoes_T796N__2/20%Monthly2017-07-13 12:14
http://www.hotnewdeal.com/2017/07/13/196659_Spectrum_Organic_Virgin_Coconut_Oil_Unrefined_54/20%Monthly2017-07-13 12:13
http://www.hotnewdeal.com/2017/07/13/196658_Little_Golden_Books_on_Amazon_from_188_to_209_/20%Monthly2017-07-13 12:13
http://www.hotnewdeal.com/2017/07/13/196657_250_Netgear_Orbi_AC2200_TriBand_Whole_Home_WiFi/20%Monthly2017-07-13 12:12
http://www.hotnewdeal.com/2017/07/13/196656_Linksys_EA9200_AC3200_TriBand_Smart_WiFi_Router_/20%Monthly2017-07-13 11:56
http://www.hotnewdeal.com/2017/07/13/196655_Monoprice_Adapters_USB_30_to_4K_DisplayPort_USB/20%Monthly2017-07-13 11:55
http://www.hotnewdeal.com/2017/07/13/196654_3Pack_of_270Count_Playtex_Diaper_Genie_Refill__/20%Monthly2017-07-13 11:44
http://www.hotnewdeal.com/2017/07/13/196653_4Pack_FisherPrice_Thomas_and_Friends_Minis_DC_Su/20%Monthly2017-07-13 11:43
http://www.hotnewdeal.com/2017/07/13/196652_F1_2016_299_Usually_649/20%Monthly2017-07-13 11:43
http://www.hotnewdeal.com/2017/07/13/196651_Amazon_Stacys_Parmesan_Garlic__Herb_Flavored_Pi/20%Monthly2017-07-13 11:28
http://www.hotnewdeal.com/2017/07/13/196650_12Pack_of_18Count_Trident_Sugar_Free_Gum_Tropic/20%Monthly2017-07-13 11:28
http://www.hotnewdeal.com/2017/07/13/196649_ViewSonic_PJD7828HDL_3200_Lumens_1080p_HDMI_Home_T/20%Monthly2017-07-13 11:20
http://www.hotnewdeal.com/2017/07/13/196648_Princess_Cruises__Sun_Drenched_Deals__Up_to_30_/20%Monthly2017-07-13 11:19
http://www.hotnewdeal.com/2017/07/13/196647_Litter_Genie_Plus_Pail_993__Free_Shipping_with/20%Monthly2017-07-13 11:08
http://www.hotnewdeal.com/2017/07/13/196646_Slow_Fun_Interactive_AntiBloat_Dog_Bowl_Feeder__/20%Monthly2017-07-13 11:08
http://www.hotnewdeal.com/2017/07/13/196645_Amazon_Samsung_s8_case_on_sale_20_off_only_/20%Monthly2017-07-13 11:07
http://www.hotnewdeal.com/2017/07/13/196644_Home_Depot_Hampton_Bay_25_Poppy_Garden_Stakes_5_P/20%Monthly2017-07-13 10:57
http://www.hotnewdeal.com/2017/07/13/196643_JayBird_X3_Wireless_InEar_Headphones_8999_w_da/20%Monthly2017-07-13 10:57
http://www.hotnewdeal.com/2017/07/13/196641_Dyson_V6_Motorhead_Cord_Free_Vacuum_Certified_Ref/20%Monthly2017-07-13 10:44
http://www.hotnewdeal.com/2017/07/13/196640_Feiyu_Tech_FYG4S_3Axis_Handheld_Gimbal_For_GoPro/20%Monthly2017-07-13 10:43
http://www.hotnewdeal.com/2017/07/13/196639_Logitech_M325_or_M310_Wireless_Mice_10/20%Monthly2017-07-13 10:43
http://www.hotnewdeal.com/2017/07/13/196638_Disney_Store_Friends__Family_Sale_Sleepwear_from/20%Monthly2017-07-13 10:38
http://www.hotnewdeal.com/2017/07/13/196637_Logitech_G930_Wireless_Headset__3499/20%Monthly2017-07-13 10:37
http://www.hotnewdeal.com/2017/07/13/196636_Annies_Microwavable_White_Cheddar_Mac_and_Cheese/20%Monthly2017-07-13 10:37
http://www.hotnewdeal.com/2017/07/13/196634_HP_Pavilion_156_inch_Laptop_AMD_A12_Quad_Core_1/20%Monthly2017-07-13 10:11
http://www.hotnewdeal.com/2017/07/13/196633_Samsung_65_9000_series_tv_refurb_1199_wfree_shi/20%Monthly2017-07-13 10:11
http://www.hotnewdeal.com/2017/07/13/196632_Monster_Hunter_International_by_Larry_Correia/20%Monthly2017-07-13 10:06
http://www.hotnewdeal.com/2017/07/13/196631_7_Minute_Workout_Pro_99_Android_Usually_299/20%Monthly2017-07-13 10:06
http://www.hotnewdeal.com/2017/07/13/196630_Anker_SoundCore_Bluetooth_Speaker_with_24Hour_Pla/20%Monthly2017-07-13 10:06
http://www.hotnewdeal.com/2017/07/13/196629_Dremel_EZ68601_EZ_Lock_Sanding_and_Grinding_Acces/20%Monthly2017-07-13 09:51
http://www.hotnewdeal.com/2017/07/13/196628_Anker_SoundCore_Bluetooth_Speaker__2699_this_i/20%Monthly2017-07-13 09:44
http://www.hotnewdeal.com/2017/07/13/196627_Monoprice_Mechanical_Keyboards_Full_Size_Enthusia/20%Monthly2017-07-13 09:43
http://www.hotnewdeal.com/2017/07/13/196626_Ozark_Trail_2Person_4Season_Backpacking_Tent_Bei/20%Monthly2017-07-13 09:26
http://www.hotnewdeal.com/2017/07/13/196625_PIzza_Hut_50_off_deal_starts_713/20%Monthly2017-07-13 09:24
http://www.hotnewdeal.com/2017/07/13/196624_Apple_Watch_38mm_Series_1_16898_or_Apple_Watch_4/20%Monthly2017-07-13 09:05
http://www.hotnewdeal.com/2017/07/13/196623_Samsung_POWERbot_Robotic_Vacuum__29900/20%Monthly2017-07-13 09:05
http://www.hotnewdeal.com/2017/07/13/196622_3TB_WD_RED_NAS_Hard_Drive_90/20%Monthly2017-07-13 09:04
http://www.hotnewdeal.com/2017/07/13/196621_Light_In_The_Box_Xiaomi_Mi_Band_2_Heart_Rate_Moni/20%Monthly2017-07-13 09:04
http://www.hotnewdeal.com/2017/07/13/196620_Black_Magic_Intense_Tire_Wet_23_Oz_Free_After_R/20%Monthly2017-07-13 08:58
http://www.hotnewdeal.com/2017/07/13/196619_AMD_CPU_Desktop_Processor_AMD_Ryzen_7_1800X_Proce/20%Monthly2017-07-13 08:58
http://www.hotnewdeal.com/2017/07/13/196618_315Count_Avery_34_Round_ColorCoding_Labels__/20%Monthly2017-07-13 08:58
http://www.hotnewdeal.com/2017/07/13/196617_Mega_Man_Legacy_Collection_2_PreOrder_PS4_or_Xb/20%Monthly2017-07-13 08:58
http://www.hotnewdeal.com/2017/07/13/196616_Amazon_HD_Digital_Movie_Rentals_Lord_of_War_Full/20%Monthly2017-07-13 08:20
http://www.hotnewdeal.com/2017/07/13/196615_Google_Play_Toca_Life_City__FREE_Kids_App/20%Monthly2017-07-13 08:18
http://www.hotnewdeal.com/2017/07/13/196614_Graduated_Compression_Socks_For_Men__Women_599_/20%Monthly2017-07-13 07:07
http://www.hotnewdeal.com/2017/07/13/196613_7pack_Neutrogena_Makeup_Remover_Cleansing_towelet/20%Monthly2017-07-13 06:14
http://www.hotnewdeal.com/2017/07/13/196612_Tetra_Cube_Aquarium_Kit_3_Gallon_40_Off_w_Alexa_/20%Monthly2017-07-13 04:15
http://www.hotnewdeal.com/2017/07/13/196611_Crackpot_6_quart_programmable_cooker_with_timer__/20%Monthly2017-07-13 04:15
http://www.hotnewdeal.com/2017/07/13/196610_8Pounds_Optimum_Nutrition_Gold_100_Whey_Protein_/20%Monthly2017-07-13 04:07
http://www.hotnewdeal.com/2017/07/13/196609_Prime_Members_Crest_3D_White_Sample_Kit__499_F/20%Monthly2017-07-13 03:14
http://www.hotnewdeal.com/2017/07/13/196608_Red_Camel_clothing_as_low_as_999_for_3_plus_4_s/20%Monthly2017-07-13 03:14
http://www.hotnewdeal.com/2017/07/13/196607_Norpro_18Inch_Aluminum_Magnetic_Knife_Bar_for_6/20%Monthly2017-07-13 02:36
http://www.hotnewdeal.com/2017/07/13/196606_20_off_Namecheap_domains_inc_renewals_hosting/20%Monthly2017-07-13 02:15
http://www.hotnewdeal.com/2017/07/13/196605_Red_Camel_Jeans_1499_for_3_plus_400_Shipping_Bel/20%Monthly2017-07-13 02:15
http://www.hotnewdeal.com/2017/07/13/196604_TaylorMade_TP5x_Golf_Balls__3149Dz_for_3_or_3/20%Monthly2017-07-13 02:15
http://www.hotnewdeal.com/2017/07/13/196603_Levis_Mens_511_SlimFit_Jeans_1498__Spring/20%Monthly2017-07-13 02:15
http://www.hotnewdeal.com/2017/07/13/196602_VIOFO_A118C2_1080p_5695_or_Spy_Tec_A119__GPS_Lo/20%Monthly2017-07-13 01:15
http://www.hotnewdeal.com/2017/07/13/196601_Target_Double_Dip_On_Gift_Cards_With_Purchase_Of_S/20%Monthly2017-07-13 01:15
http://www.hotnewdeal.com/2017/07/13/196600_Game_studio_tycoon_2_free_on_Google_play/20%Monthly2017-07-13 01:15
http://www.hotnewdeal.com/2017/07/13/196599_Bundle_Stars_Killer_Bundle_X_10_games_including_T/20%Monthly2017-07-13 01:15
http://www.hotnewdeal.com/2017/07/13/196598_Polk_Audio_RM705_51_Home_Theater_System_12999_/20%Monthly2017-07-13 01:14
http://www.hotnewdeal.com/2017/07/13/196597_AmazonBasics_Wood_Suit_Hangers__30_Pack_Natural_/20%Monthly2017-07-13 00:22
http://www.hotnewdeal.com/2017/07/12/196596_QNAP_TS2512GUS_with_Controller_2Bay_Personal_/20%Monthly2017-07-12 23:45
http://www.hotnewdeal.com/2017/07/12/196595_Natural_Care_Flea_and_Tick_Spray_for_Dogs_and_Cats/20%Monthly2017-07-12 23:33
http://www.hotnewdeal.com/2017/07/12/196594_25L_Farberware_Air_Fryer_White__3999tax_Fre/20%Monthly2017-07-12 23:33
http://www.hotnewdeal.com/2017/07/12/196593_VIZIO_E55E1_55_4K_HDR_SMART_TV__200_Dell_eGif/20%Monthly2017-07-12 23:22
http://www.hotnewdeal.com/2017/07/12/196592_Graco_Contender_65_Convertible_Car_Seat_Glacier_/20%Monthly2017-07-12 23:22
http://www.hotnewdeal.com/2017/07/12/196591_Himalayan_Natural_Crystal_Rock_Salt_Lamp_Night_Lig/20%Monthly2017-07-12 23:07
http://www.hotnewdeal.com/2017/07/12/196590_Return_to_PopoloCrois_A_STORY_OF_SEASONS_Fairytal/20%Monthly2017-07-12 22:58
http://www.hotnewdeal.com/2017/07/12/196589_Walmart_Stores_Free_Scholastic_Book_with_Kellogg/20%Monthly2017-07-12 22:46
http://www.hotnewdeal.com/2017/07/12/196588_Sears_has_42Piece_Craftsman_14_and_38inch_Driv/20%Monthly2017-07-12 22:46
http://www.hotnewdeal.com/2017/07/12/196587_Adata_su8001tb_230/20%Monthly2017-07-12 22:46
http://www.hotnewdeal.com/2017/07/12/196586_KinderMat_Kids_Rest_Mat_RedBlue_1x19x45_611_/20%Monthly2017-07-12 22:23
http://www.hotnewdeal.com/2017/07/12/196585_Zhiyun_SmoothQ_Black_3Axis_Handheld_Gimbal_Sta/20%Monthly2017-07-12 22:23
http://www.hotnewdeal.com/2017/07/12/196584_3Pack_Outdoor_Solar_Wall_Lights_Motion_Sensor_De/20%Monthly2017-07-12 22:07
http://www.hotnewdeal.com/2017/07/12/196583_5_Free_Items_at_Kroger_with_Clicklist_order/20%Monthly2017-07-12 21:49
http://www.hotnewdeal.com/2017/07/12/196582_Lowes__Energizer_350Lumen_LED_Handheld_Battery_F/20%Monthly2017-07-12 21:49
http://www.hotnewdeal.com/2017/07/12/196581_10oz_Kitchens_Of_India_Ready_To_Eat_Rajma_Masala/20%Monthly2017-07-12 21:49
http://www.hotnewdeal.com/2017/07/12/196580_Boost_Mobile__4_x_Unlimited_Lines_for_100/20%Monthly2017-07-12 21:49
http://www.hotnewdeal.com/2017/07/12/196579_Just_Released_Harman_Kardon_Onyx_Studio_4__1449/20%Monthly2017-07-12 21:49
http://www.hotnewdeal.com/2017/07/12/196578_DuroMax10000Watt18hpPortableGasElectricStar/20%Monthly2017-07-12 21:19
http://www.hotnewdeal.com/2017/07/12/196577_OtterBox_Defender_Series_Case_for_iPad_MiniMini_2/20%Monthly2017-07-12 21:19
http://www.hotnewdeal.com/2017/07/12/196576_Husky_Pneumatic_Air_Tools_14_Ratchet_Wrench_15/20%Monthly2017-07-12 21:18
http://www.hotnewdeal.com/2017/07/12/196575_Dell_New_Inspiron_5000_Gaming_i77700HQ_8GB_128/20%Monthly2017-07-12 21:18
http://www.hotnewdeal.com/2017/07/12/196574_Foscam_R4_2K_UltraHD_40_MP_WiFi_Security_IP_Cam/20%Monthly2017-07-12 21:18
http://www.hotnewdeal.com/2017/07/12/196573_3D_Bluray_Movies_Warcraft_Digital_Copy_3D_Bl/20%Monthly2017-07-12 20:57
http://www.hotnewdeal.com/2017/07/12/196572_Suede_Thinsulate_Thermal_Insulation_MittensGloves/20%Monthly2017-07-12 20:56
http://www.hotnewdeal.com/2017/07/12/196571_USAFilament_1kg_PLA_3D_Printer_Filament_White_175/20%Monthly2017-07-12 20:56
http://www.hotnewdeal.com/2017/07/12/196570_Prime_Members_w_Alexa_Rachio_8Zone_Smart_Sprink/20%Monthly2017-07-12 20:56
http://www.hotnewdeal.com/2017/07/12/196569_Monolith_M560_Planar_Headphones_16999_On_Sale_1/20%Monthly2017-07-12 20:48
http://www.hotnewdeal.com/2017/07/12/196568_Schlage_ZWave_Camelot_Touchscreen_Deadbolt_with_B/20%Monthly2017-07-12 20:38
http://www.hotnewdeal.com/2017/07/12/196567_Logitech__MK530_Advanced_Wireless_Keyboard_and_Op/20%Monthly2017-07-12 20:22
http://www.hotnewdeal.com/2017/07/12/196566_Valvoline_FullService_Conventional_Oil_Change_1/20%Monthly2017-07-12 20:11
http://www.hotnewdeal.com/2017/07/12/196565_HP_61_Black_and_Tricolor_Ink_2Pack_1999_AC__Ne/20%Monthly2017-07-12 20:11
http://www.hotnewdeal.com/2017/07/12/196563_Lenovo_Ideapad_510S_14_FHD_IPS_i76500U_8GB_DD/20%Monthly2017-07-12 19:54
http://www.hotnewdeal.com/2017/07/12/196562_61_Best_price_NOCO_Genius_G7200_12V24V_72A_Ult/20%Monthly2017-07-12 19:54
http://www.hotnewdeal.com/2017/07/12/196560_Samsung_UN55MU6300_55_4K_HDR_Smart_TV__579_at_/20%Monthly2017-07-12 19:44
http://www.hotnewdeal.com/2017/07/12/196559_Papa_Johns_50_off_Regular_Menu_Pizzas__Code_SUM/20%Monthly2017-07-12 19:37
http://www.hotnewdeal.com/2017/07/12/196558_Amazon__Uncharted_The_Lost_Legacy__Preorder_36/20%Monthly2017-07-12 19:36
http://www.hotnewdeal.com/2017/07/12/196557_30Day_Amazon_Music_Unlimited_Trial__10_Promo_Cr/20%Monthly2017-07-12 19:18
http://www.hotnewdeal.com/2017/07/12/196556_Zojirushi_Micom_3Cup_Rice_Cooker__Warmer_8997_/20%Monthly2017-07-12 19:17
http://www.hotnewdeal.com/2017/07/12/196555_Rosewill_Infrared_Halogen_Convection_Oven_with_Sta/20%Monthly2017-07-12 19:17
http://www.hotnewdeal.com/2017/07/12/196554_Sony_MDR100ABN_Hear_On_Wireless_Noise_Canceling_/20%Monthly2017-07-12 19:17
http://www.hotnewdeal.com/2017/07/12/196553_eBay_Uncharted_4_Playstation_4_Bundle_Referbished/20%Monthly2017-07-12 18:59
http://www.hotnewdeal.com/2017/07/12/196552_OfficeSuite_Pro__PDF_Android_App_99_usually_/20%Monthly2017-07-12 18:59
http://www.hotnewdeal.com/2017/07/12/196551_6Pack_of_9oz_Prego_Ready_Meals_Creamy_Three_Chee/20%Monthly2017-07-12 18:54
http://www.hotnewdeal.com/2017/07/12/196550_Dell_Inspiron_5675_Desktop_Ryzen_5_1400__8GB_DDR/20%Monthly2017-07-12 18:54
http://www.hotnewdeal.com/2017/07/12/196549_12Pack_of_12oz_Kerr_Quilted_Crystal_Regular_Mout/20%Monthly2017-07-12 18:45
http://www.hotnewdeal.com/2017/07/12/196547_Lots_of_Sailner_brand_compatible_ink_FAR__shippin/20%Monthly2017-07-12 18:45
http://www.hotnewdeal.com/2017/07/12/196546_2TB_Seagate_Backup_Plus_Slim_USB_30_Portable_Exte/20%Monthly2017-07-12 18:16
http://www.hotnewdeal.com/2017/07/12/196545_Vizio_P50C1_50inch_4K_UHD_Smart_TV__300_Dell_G/20%Monthly2017-07-12 18:09
http://www.hotnewdeal.com/2017/07/12/196543_16gb_2x8gb_GeIL_DDR43000_RAM_EVO_POTENZA_for_/20%Monthly2017-07-12 18:07
http://www.hotnewdeal.com/2017/07/12/196542_BARSKA_Biometric_Keypad_Safe_87/20%Monthly2017-07-12 18:07
http://www.hotnewdeal.com/2017/07/12/196541_HART_QuickTatch_Storage_Box_389__Free_Store_Pi/20%Monthly2017-07-12 18:07
http://www.hotnewdeal.com/2017/07/12/196540_Saveur_or_AllRecipes__495yr/20%Monthly2017-07-12 18:06
http://www.hotnewdeal.com/2017/07/12/196539_3Pack_Combo_Elegance_Plus_Shaving_Gel_Earth_Jup/20%Monthly2017-07-12 18:06
http://www.hotnewdeal.com/2017/07/12/196538_8699_AR__ASUS_ROG_STRIX_B350F_GAMING_AM4_AMD_B/20%Monthly2017-07-12 17:30
http://www.hotnewdeal.com/2017/07/12/196537_Moto_G5_Plus_64_GB_no_ads_at_Frys_with_promo_co/20%Monthly2017-07-12 17:30
http://www.hotnewdeal.com/2017/07/12/196536_ZOTAC_GeForce_GTX_1070_Mini_8GB_36377__Amazon/20%Monthly2017-07-12 17:30
http://www.hotnewdeal.com/2017/07/12/196535_105__Mens_Mountain_BIke_Stowabike_26_MTB_V2_Fo/20%Monthly2017-07-12 17:29
http://www.hotnewdeal.com/2017/07/12/196534_Roland_FP30_88_Keys_SuperNATURAL_Digital_Portable/20%Monthly2017-07-12 17:29
http://www.hotnewdeal.com/2017/07/12/196533_35_Pantum_P2502W_1200_x_1200_DPI_Wireless__USB_M/20%Monthly2017-07-12 17:29
http://www.hotnewdeal.com/2017/07/12/196531_Assorted_Dehydrated_Cereal_Marshmallow_Bits_3_lb_b/20%Monthly2017-07-12 17:28
http://www.hotnewdeal.com/2017/07/12/196530_Mario_Kart_8_Deluxe__Nintendo_Switch_4999__Fr/20%Monthly2017-07-12 17:07
http://www.hotnewdeal.com/2017/07/12/196529_Prime_Members_via_Alexa_TPLink_HS100_WiFiEnable/20%Monthly2017-07-12 17:07
http://www.hotnewdeal.com/2017/07/12/196528_16_XL_Rolls_Brawny_PickASize_Paper_Towels_1859/20%Monthly2017-07-12 17:07
http://www.hotnewdeal.com/2017/07/12/196527_Express_Next_Earn_upto_20_in_bonus_rewards_YMMV/20%Monthly2017-07-12 17:06
http://www.hotnewdeal.com/2017/07/12/196526_Jetcom_Extra_25_Off_100_on_Sporting_Goods_2x_/20%Monthly2017-07-12 17:06
http://www.hotnewdeal.com/2017/07/12/196525_Unlimited_Data_for_6_months_for_existing_Sprint_cu/20%Monthly2017-07-12 17:06
http://www.hotnewdeal.com/2017/07/12/196524_Flashlight_Sale_Nitecore_TUBE_LED_Keychain_Light_/20%Monthly2017-07-12 17:05
http://www.hotnewdeal.com/2017/07/12/196523_Earthwise_TC70025_75Inch_25Amp_Corded_Electric/20%Monthly2017-07-12 17:05
http://www.hotnewdeal.com/2017/07/12/196522_Roland_DJ99_2Channel_DJ_Mixer_139__free_shippi/20%Monthly2017-07-12 17:05
http://www.hotnewdeal.com/2017/07/12/196520_Bundle_Nitecore_D2_Battery_Charger_with_2PCs_700m/20%Monthly2017-07-12 16:59
http://www.hotnewdeal.com/2017/07/12/196518_DJI_Mavic_Pro_FSLabs_Drone_Accessories_Sale_Sunho/20%Monthly2017-07-12 16:14
http://www.hotnewdeal.com/2017/07/12/196517_Exxon_Mobil_Speedpass_app__Plenti_Rewards__3_fil/20%Monthly2017-07-12 15:57
http://www.hotnewdeal.com/2017/07/12/196516_GE_ZWave_100watt_Single_Pole_3way4way_Wireles/20%Monthly2017-07-12 15:51
http://www.hotnewdeal.com/2017/07/12/196514_303_Aerospace_30320_UV_Protectant_Gallon_128oz_/20%Monthly2017-07-12 15:51
http://www.hotnewdeal.com/2017/07/12/196513_Lara_Croft_and_the_Temple_of_Osiris_for_PS4_550_/20%Monthly2017-07-12 15:51
http://www.hotnewdeal.com/2017/07/12/196512_Pioneer_AVIC8200NEX_Navigation_Receiver_515_afte/20%Monthly2017-07-12 15:51
http://www.hotnewdeal.com/2017/07/12/196511_CraZArt_10_ct_Washable_Markers_or_12_ct_Colored_/20%Monthly2017-07-12 15:51
http://www.hotnewdeal.com/2017/07/12/196510_3_Pack_Echo_Dot_Gen_2_for_9997_before_tax_free_/20%Monthly2017-07-12 15:37
http://www.hotnewdeal.com/2017/07/12/196509_Sale_on_Hiking_Boots_for_Men__Women_at_Sierra_Tra/20%Monthly2017-07-12 15:37
http://www.hotnewdeal.com/2017/07/12/196508_Target_Stores_Free_2Count_Schwarzkopf_Gliss_Hair/20%Monthly2017-07-12 15:36
http://www.hotnewdeal.com/2017/07/12/196507_Syba_25_SATA_HDDSSD_USB_31_Gen_2_Micro_USB_Enc/20%Monthly2017-07-12 15:36
http://www.hotnewdeal.com/2017/07/12/196506_NBA_2K17__PlayStation_4_20AC/20%Monthly2017-07-12 15:36
http://www.hotnewdeal.com/2017/07/12/196505_1198__Borderlands_Game_of_The_Year__Borderlan/20%Monthly2017-07-12 15:25
http://www.hotnewdeal.com/2017/07/12/196504_Extra_20_Off_Sale_Items_at_Lands_End_Prices_Sta/20%Monthly2017-07-12 15:10
http://www.hotnewdeal.com/2017/07/12/196503_FactoryRenewedBoseQuietComfort35WirelessActi/20%Monthly2017-07-12 15:10
http://www.hotnewdeal.com/2017/07/12/196502_Anker_PowerCore_20100_Ultra_High_Capacity_Power_Ba/20%Monthly2017-07-12 15:10
http://www.hotnewdeal.com/2017/07/12/196501_Easehold_Hand_Crank_Burr_Coffee_Grinder_7/20%Monthly2017-07-12 14:48
http://www.hotnewdeal.com/2017/07/12/196500_MEdge_Universal_XL_Stealth_PRO_Keyboard_for_10_D/20%Monthly2017-07-12 14:48
http://www.hotnewdeal.com/2017/07/12/196499_3M_08579_Leather__Vinyl_Repair_Kit_4__Amazon_FS/20%Monthly2017-07-12 14:48
http://www.hotnewdeal.com/2017/07/12/196498_4Piece_HideASquirrel_Plush_Toy_for_Dogs_Large/20%Monthly2017-07-12 14:48
http://www.hotnewdeal.com/2017/07/12/196497_Calvin_Klein_Eternity_Gift_Set__10_Macys_egift_c/20%Monthly2017-07-12 14:47
http://www.hotnewdeal.com/2017/07/12/196496_The_Hobbit_3D_Blu_Ray_Trilogy_UK_on_Amazon_US_25/20%Monthly2017-07-12 14:47
http://www.hotnewdeal.com/2017/07/12/196495_Segas_Virtua_Tennis_Challenge_for_iOS_FREE_Reg_/20%Monthly2017-07-12 14:09
http://www.hotnewdeal.com/2017/07/12/196494_100_Monoprice_Circle_cable_clips_with_steel_nail_/20%Monthly2017-07-12 14:09
http://www.hotnewdeal.com/2017/07/12/196493_Kolcraft_Cloud_Umbrella_Stroller__17_w_Free_shi/20%Monthly2017-07-12 14:09
http://www.hotnewdeal.com/2017/07/12/196492_Set_of_5_Exercise_Resistance_Loop_Bands_Home_Fitne/20%Monthly2017-07-12 14:08
http://www.hotnewdeal.com/2017/07/12/196491_PS_Members_Serial_Cleaner_Dynamic_Theme_PS4_/20%Monthly2017-07-12 13:52
http://www.hotnewdeal.com/2017/07/12/196490_Dell_D1000_Dual_Video_USB_30_Docking_Station_69/20%Monthly2017-07-12 13:52
http://www.hotnewdeal.com/2017/07/12/196488_Moto_G_Plus_5th_Generation__Lunar_Gray__64_GB_/20%Monthly2017-07-12 13:51
http://www.hotnewdeal.com/2017/07/12/196487_Timberland_Earthkeepers_Original_Leather_Boots_/20%Monthly2017-07-12 13:51
http://www.hotnewdeal.com/2017/07/12/196486_Amazon_Alexa_Deal_w_SS__Gatorade_Sports_Drink_O/20%Monthly2017-07-12 13:51
http://www.hotnewdeal.com/2017/07/12/196485_TPLink_16Port_Gigabit_Switch__4999_AC_or_TPL/20%Monthly2017-07-12 13:50
http://www.hotnewdeal.com/2017/07/12/196484_Prime_Members_Green_Mountain_Coffee_Caramel_Vanil/20%Monthly2017-07-12 13:17
http://www.hotnewdeal.com/2017/07/12/196483_Fandango_Movie_Ticket_5_Off_with_Code_Fandango_A/20%Monthly2017-07-12 13:16
http://www.hotnewdeal.com/2017/07/12/196482_Dell_XPS_13_9360_i77560U_16GB_RAM_133_3200x18/20%Monthly2017-07-12 13:16
http://www.hotnewdeal.com/2017/07/12/196481_ASICS_Cumulus_18_only_5997_and_ASICS_DynaFlyte_o/20%Monthly2017-07-12 13:16
http://www.hotnewdeal.com/2017/07/12/196480_Jack_Links_Beef_Sticks_Original_20_count_092_/20%Monthly2017-07-12 13:16
http://www.hotnewdeal.com/2017/07/12/196479_IRIS_4Drawer_Storage_Cart_with_Organizer_Top_Gra/20%Monthly2017-07-12 12:53
http://www.hotnewdeal.com/2017/07/12/196478_Tfal_Performa_12Pc_Stainless_Steel_Cookware_Se/20%Monthly2017-07-12 12:53
http://www.hotnewdeal.com/2017/07/12/196477_Ryzen_5_1600__18499_19999__1500_w_Promo/20%Monthly2017-07-12 12:53
http://www.hotnewdeal.com/2017/07/12/196476_FILSON_48hr_Duffel__Rarely_ever_on_sale_40_off_/20%Monthly2017-07-12 12:53
http://www.hotnewdeal.com/2017/07/12/196475_Microcenter_instore_Supermicro_S5_gaming_case_4/20%Monthly2017-07-12 12:35
http://www.hotnewdeal.com/2017/07/12/196474_Hyper_212_LED_120mm_CPU_Cooler_with_PWM_Fan_20_AR/20%Monthly2017-07-12 12:34
http://www.hotnewdeal.com/2017/07/12/196473_Craftsman_Extreme_Grip_5Piece_Wrench_Set_2499_/20%Monthly2017-07-12 12:34
http://www.hotnewdeal.com/2017/07/12/196472_TPLink_8Port_Gigabit_Ethernet_124W_PoE_Switch_/20%Monthly2017-07-12 12:15
http://www.hotnewdeal.com/2017/07/12/196471_Jomashop_75_OFF_500_with_Amazon_Pay/20%Monthly2017-07-12 12:15
http://www.hotnewdeal.com/2017/07/12/196470_Tonka_93931_Classic_Steel_Backhoe_Vehicle_24__Am/20%Monthly2017-07-12 12:08
http://www.hotnewdeal.com/2017/07/12/196467_Panasonic_KXTG7875S_Bluetooth_Cordless_Phone_with/20%Monthly2017-07-12 12:00
http://www.hotnewdeal.com/2017/07/12/196466_Bayview_Reversible_12Pc_Comforter_Set_3999/20%Monthly2017-07-12 12:00
http://www.hotnewdeal.com/2017/07/12/196465_Free_Beats_x_or_Beats_Solo3_with_Purchase_of_iPad_/20%Monthly2017-07-12 11:42
http://www.hotnewdeal.com/2017/07/12/196464_Seneo_10W_Qi_Wireless_Fast_Charging_Stand_for_Sams/20%Monthly2017-07-12 11:42
http://www.hotnewdeal.com/2017/07/12/196463_Hyperdimension_Neptunia_U_Action_Unleashed__PC_S/20%Monthly2017-07-12 11:42
http://www.hotnewdeal.com/2017/07/12/196462_GreenWorks_Corded_Tools_14_10Amp_Dethatcher_79/20%Monthly2017-07-12 11:41
http://www.hotnewdeal.com/2017/07/12/196461_Best_Buy__Dell__Inspiron_156_Laptop__Intel_Co/20%Monthly2017-07-12 11:41
http://www.hotnewdeal.com/2017/07/12/196460_TPLink_EAP245_AC1750_POE_Access_point_6499_in_a/20%Monthly2017-07-12 11:25
http://www.hotnewdeal.com/2017/07/12/196459_Mead_10_Envelopes_Press_it_Seal_it_White_50box/20%Monthly2017-07-12 11:23
http://www.hotnewdeal.com/2017/07/12/196458_64_GB_Huawei_Honor_8_Unlocked_Android_Smartphone_/20%Monthly2017-07-12 11:23
http://www.hotnewdeal.com/2017/07/12/196457_Lowest_Price_Ever_WE_Furniture_44_Coronado_TV_St/20%Monthly2017-07-12 11:23
http://www.hotnewdeal.com/2017/07/12/196456_Battlefield_1_Collectors_Set_No_Game__1799/20%Monthly2017-07-12 11:23
http://www.hotnewdeal.com/2017/07/12/196455_Philips_Hue_White_and_Color_A19_Starter_Kit__111/20%Monthly2017-07-12 10:56
http://www.hotnewdeal.com/2017/07/12/196454_Philips_Hue_White_and_Color_Ambiance_A19_60W_Equiv/20%Monthly2017-07-12 10:56
http://www.hotnewdeal.com/2017/07/12/196453_HP_Star_Wars_156_Touchscreen_Laptop_A10_12GB_1/20%Monthly2017-07-12 10:56
http://www.hotnewdeal.com/2017/07/12/196452_AF_summer_sale__70_off_clearance/20%Monthly2017-07-12 10:56
http://www.hotnewdeal.com/2017/07/12/196451_Foodsaver_resealable_vacuum_bags_26_count_qt_bags_/20%Monthly2017-07-12 10:55
http://www.hotnewdeal.com/2017/07/12/196450_30_off_AudioTechnica_Bluetooth_turntable_Now_1/20%Monthly2017-07-12 10:55
http://www.hotnewdeal.com/2017/07/12/196449_Lowes_LuxPro_350_Lumen_LED_Handheld_Flashlight_/20%Monthly2017-07-12 10:55
http://www.hotnewdeal.com/2017/07/12/196448_Ergobaby_360_Baby_Carrier_blacktan__152_incl_/20%Monthly2017-07-12 10:55
http://www.hotnewdeal.com/2017/07/12/196447_Seafall_A_Legacy_Game__Boardgame_at_Amazon_for_/20%Monthly2017-07-12 10:55
http://www.hotnewdeal.com/2017/07/12/196446_iPhone_66s7_Wallet_Case_Tempered_Glass_Screen_P/20%Monthly2017-07-12 10:50
http://www.hotnewdeal.com/2017/07/12/196445_Hanes_Womens_Seamless_Sports_Bra_5_Just_My_Size/20%Monthly2017-07-12 10:05
http://www.hotnewdeal.com/2017/07/12/196444_Alexa_Voice_Shopping_5000_Prime_Day_Giveaway__A/20%Monthly2017-07-12 09:51
http://www.hotnewdeal.com/2017/07/12/196443_Celestron_NexStar_90_GT_v2_90mm_f10_GoTo_Refract/20%Monthly2017-07-12 09:51
http://www.hotnewdeal.com/2017/07/12/196442_ESET_Smart_Security_2016__3_PCs_20AC/20%Monthly2017-07-12 09:05
http://www.hotnewdeal.com/2017/07/12/196441_Arrival__1_digital_movie_rental__Amazon_Video/20%Monthly2017-07-12 09:05
http://www.hotnewdeal.com/2017/07/12/196440_Collapsible_Coffee_Mug_HIFI_Surround_Stereo_Wire/20%Monthly2017-07-12 08:48
http://www.hotnewdeal.com/2017/07/12/196439_Xbox_Digital_Games_Sonic_The_Hedgehog_2_3_Soni/20%Monthly2017-07-12 08:27
http://www.hotnewdeal.com/2017/07/12/196438_Intex_Challenger_K1_Inflatable_Kayak_Set_w_Alumin/20%Monthly2017-07-12 08:27
http://www.hotnewdeal.com/2017/07/12/196437_Amazon_Echo_Dot_2nd_Gen_for_3499_Still_Availa/20%Monthly2017-07-12 07:58
http://www.hotnewdeal.com/2017/07/12/196436_8999_Seagate_Backup_Plus_4TB_Desktop_External_Ha/20%Monthly2017-07-12 07:58
http://www.hotnewdeal.com/2017/07/12/196435_AudioTechnica_ATHM30x_for_5175_M40x_for_742/20%Monthly2017-07-12 07:57
http://www.hotnewdeal.com/2017/07/12/196434_699_Lauren_Ralph_Lauren_Logo_Pillow/20%Monthly2017-07-12 07:57
http://www.hotnewdeal.com/2017/07/12/196433_Advanced_Nonstick_14_Covered_Wok_2999__fs/20%Monthly2017-07-12 07:57
http://www.hotnewdeal.com/2017/07/12/196432_Crayola_Ultra_Clean_Washable_Markers_8_ct_97__/20%Monthly2017-07-12 07:57
http://www.hotnewdeal.com/2017/07/12/196431_Prime_Day_Deal__CPR_V5000_Call_Blocker__Block_Al/20%Monthly2017-07-12 06:32
http://www.hotnewdeal.com/2017/07/12/196430_XYZprinting_Da_Vinci_PLA_3D_Pen_999_AR__Free_Sh/20%Monthly2017-07-12 06:19
http://www.hotnewdeal.com/2017/07/12/196429_ATT_Prepaid_iPhone_6_32_GB_Gophone_24559_at_Wal/20%Monthly2017-07-12 05:20
http://www.hotnewdeal.com/2017/07/12/196428_100_Lowes_eGift_Card_Digital_Delivery_for_90_/20%Monthly2017-07-12 04:41
http://www.hotnewdeal.com/2017/07/12/196427_Bioshock_The_Collection_or_XCOM_2_PS4_or_Xbox_On/20%Monthly2017-07-12 04:41
http://www.hotnewdeal.com/2017/07/12/196426_First_100_Words_Board_book_265/20%Monthly2017-07-12 04:40
http://www.hotnewdeal.com/2017/07/12/196425_BIC_PL200_Acoustech_Platinum_Series_Subwoofer_24/20%Monthly2017-07-12 04:20
http://www.hotnewdeal.com/2017/07/12/196424_Quntis_Universal_Phone_Mount_Car_Air_Vent_Cell_Ph/20%Monthly2017-07-12 03:47
http://www.hotnewdeal.com/2017/07/12/196423_010_digital_movie_rentals__VUDU__Argo_Live_Di/20%Monthly2017-07-12 03:47
http://www.hotnewdeal.com/2017/07/12/196422_Amazon_Prime_Day__Coleman_Classic_Propane_Stove_3/20%Monthly2017-07-12 03:37
http://www.hotnewdeal.com/2017/07/12/196421_Bosch_GLM_35_120ft_Laser_Measure_4830_Prime_Day/20%Monthly2017-07-12 02:48
http://www.hotnewdeal.com/2017/07/12/196420_90Count_Charmin_Ultra_Soft_or_Strong_Double_Plus_/20%Monthly2017-07-12 02:48
http://www.hotnewdeal.com/2017/07/12/196419_Amazon_Warehouse_Motorola_Moto_G_4th_Gen_Unlock/20%Monthly2017-07-12 02:27
http://www.hotnewdeal.com/2017/07/12/196418_Acer_G7_Series_G277HL_bid_Black_27_IPS_Black_Wide/20%Monthly2017-07-12 02:27
http://www.hotnewdeal.com/2017/07/12/196417_40_off_Amazon_Smart_Home_Services_on_Prime_Day_2/20%Monthly2017-07-12 02:27
http://www.hotnewdeal.com/2017/07/12/196416_iPhone_7_Plus_Battery_Case_Alpatronix_BX180plus_/20%Monthly2017-07-12 02:19
http://www.hotnewdeal.com/2017/07/12/196415_Prime_Members_Black__Decker_16V_LithiumIon_Cord/20%Monthly2017-07-12 02:06
http://www.hotnewdeal.com/2017/07/12/196414_Kohls_Coupon_5_Off_your_purchase_of_25_or_more/20%Monthly2017-07-12 01:48
http://www.hotnewdeal.com/2017/07/12/196413_Prime_Day_Weber_6492_Original_InstantRead_Thermo/20%Monthly2017-07-12 01:48
http://www.hotnewdeal.com/2017/07/12/196411_Samsonite_5_Piece_Nested_Luggage_Set_8900__free/20%Monthly2017-07-12 01:38
http://www.hotnewdeal.com/2017/07/12/196410_Brother_XM1010_Sewing_Machine__NEW__3913_FS_O/20%Monthly2017-07-12 01:26
http://www.hotnewdeal.com/2017/07/12/196409_Prime_Members_Aukey_6Port_USB_Charger_w_Dual_Qu/20%Monthly2017-07-12 01:25
http://www.hotnewdeal.com/2017/07/12/196407_Prime_Day_Lavatools_PT12_Javelin_Digital_Instant_/20%Monthly2017-07-12 01:25
http://www.hotnewdeal.com/2017/07/12/196406_Toys_R_Us_has_the_E300_electric_scooter_for_1279/20%Monthly2017-07-12 01:25
http://www.hotnewdeal.com/2017/07/12/196405_Prime_Day_Deal_Eshow_Mens_Casual_Canvas_Messenger/20%Monthly2017-07-12 01:24
http://www.hotnewdeal.com/2017/07/12/196404_QNAP_TS431P_4bay_Personal_Cloud_NAS_219_AC__Ta/20%Monthly2017-07-12 01:24
http://www.hotnewdeal.com/2017/07/12/196403_Car_Jump_Starter_RAVPower_600A_Peak_4799/20%Monthly2017-07-12 01:18
http://www.hotnewdeal.com/2017/07/12/196402_Standing_Desk_Dual_Monitor_Riser_SitStand_Worksta/20%Monthly2017-07-12 01:18
http://www.hotnewdeal.com/2017/07/12/196401_25Piece_Cooks_Stainless_Steel_Cookware_Set_35__/20%Monthly2017-07-12 01:13
http://www.hotnewdeal.com/2017/07/12/196400_Prime_Members_Cottonelle_FreshCare_Flushable_Clea/20%Monthly2017-07-12 00:33
http://www.hotnewdeal.com/2017/07/12/196399_Oculus_Rift__Oculus_Touch_Virtual_Reality_Headset/20%Monthly2017-07-12 00:33
http://www.hotnewdeal.com/2017/07/12/196398_Prepworks_by_Progressive_Brown_Sugar_ProKeeper_7/20%Monthly2017-07-12 00:33
http://www.hotnewdeal.com/2017/07/12/196397_Prime_Members_TPLink_AC1200_Dual_Band_WiFi_Range/20%Monthly2017-07-12 00:33
http://www.hotnewdeal.com/2017/07/12/196396_Prime_Members_SpiderMan_Trilogy_Limited_Edition_/20%Monthly2017-07-12 00:33
http://www.hotnewdeal.com/2017/07/12/196395_Lexar_MultiCard_25In1_USB_30_Reader__1499/20%Monthly2017-07-12 00:33
http://www.hotnewdeal.com/2017/07/12/196394_Total_War_Warhammer_PCSteam__Amazon_1800__A/20%Monthly2017-07-12 00:33
http://www.hotnewdeal.com/2017/07/12/196393_Bright_Tab_9_Android_44_KitKat_16GB_13GHz_WiFi_/20%Monthly2017-07-12 00:33
http://www.hotnewdeal.com/2017/07/12/196392_5Pc_Little_Kids_Backpack_and_Accessories_Set_15/20%Monthly2017-07-12 00:24
http://www.hotnewdeal.com/2017/07/12/196391_Amazon_Prime_Members_12Count_of_Orontas_Plant_Ba/20%Monthly2017-07-12 00:09
http://www.hotnewdeal.com/2017/07/12/196390_Primeday15999__TPLink_AC3150_Wireless_WiFi_Ro/20%Monthly2017-07-12 00:08
http://www.hotnewdeal.com/2017/07/12/196389_Garmin_Forerunner_630_with_HR_Bundle__BlackWhite/20%Monthly2017-07-12 00:08
http://www.hotnewdeal.com/2017/07/12/196388_Prime_Day_Lightning_Deal__Premium_Guitar_Capos_B/20%Monthly2017-07-12 00:08
http://www.hotnewdeal.com/2017/07/12/196387_10299__Team_TForce_Night_Hawk_16GB_2_x_8GB_2/20%Monthly2017-07-12 00:08
http://www.hotnewdeal.com/2017/07/12/196386_Papa_Johns_50_off_Regular_Menu_Pizzas__Code_TMO/20%Monthly2017-07-12 00:08
http://www.hotnewdeal.com/2017/07/12/196385_Zinus_12_Inch_GelInfused_Green_Tea_Memory_Foam_Ma/20%Monthly2017-07-12 00:02
http://www.hotnewdeal.com/2017/07/11/196384_Bella_Stainless_Steel_Rotary_Waffle_Maker_10_aft/20%Monthly2017-07-11 23:53
http://www.hotnewdeal.com/2017/07/11/196383_Kleenex_Facial_Tissue_2Ply_White_95_Per_Box_C/20%Monthly2017-07-11 23:49
http://www.hotnewdeal.com/2017/07/11/196382_Perrier_Sparkling_Natural_Mineral_Water_LOrange/20%Monthly2017-07-11 23:45
http://www.hotnewdeal.com/2017/07/11/196381_Barnes__Noble_Semiannual_50_off_Criterion_Colle/20%Monthly2017-07-11 23:44
http://www.hotnewdeal.com/2017/07/11/196380_Prime_Members_35_Bosch_GLM_10_Compact_Laser_Meas/20%Monthly2017-07-11 23:33
http://www.hotnewdeal.com/2017/07/11/196379_Samsung_UN75MU6300_75_4K_HDR_Smart_LED_TV_2017_/20%Monthly2017-07-11 23:33
http://www.hotnewdeal.com/2017/07/11/196378_Prime_Members_Waste_King_Legend_Series_13_HP_Con/20%Monthly2017-07-11 23:32
http://www.hotnewdeal.com/2017/07/11/196377_Amazon_prime_members_only__Huawei_Honor_6X_Dual_C/20%Monthly2017-07-11 23:32
http://www.hotnewdeal.com/2017/07/11/196376_Sandisk_Ultra_Dual_OTG_128_GB_Flash_Drive_26_Prim/20%Monthly2017-07-11 23:32
http://www.hotnewdeal.com/2017/07/11/196375_Prime_Members_3Pack_8GB_Amazon_Fire_7_7_Tablet_/20%Monthly2017-07-11 23:32
http://www.hotnewdeal.com/2017/07/11/196374_Dyson_Ball_Multi_Floor_Bagless_Upright_Best_Buy_1/20%Monthly2017-07-11 23:32
http://www.hotnewdeal.com/2017/07/11/196372_Remington_PG6170_The_Crafter_Beard_Boss_Style_and_/20%Monthly2017-07-11 23:32
http://www.hotnewdeal.com/2017/07/11/196371_Prime_Day_Samsung_UN55MU6300_599/20%Monthly2017-07-11 23:31
http://www.hotnewdeal.com/2017/07/11/196370_Asus_GL702VM_Gaming_laptop_173_1080p_GSync_i/20%Monthly2017-07-11 23:31
http://www.hotnewdeal.com/2017/07/11/196369_Black_Wii_U_32GB_Deluxe__Refurbished__25_eBay_G/20%Monthly2017-07-11 23:31
http://www.hotnewdeal.com/2017/07/11/196368_Acer_Switch_Alpha_12_2in1_12_QHD_Touch_Intel_/20%Monthly2017-07-11 23:31
http://www.hotnewdeal.com/2017/07/11/196367_Shark_DuoClean_Rocket_HV382_17999_PRIME_DAY_DEAL/20%Monthly2017-07-11 23:31
http://www.hotnewdeal.com/2017/07/11/196366_Kohls_The_Big_One_6_x_3_Beach_Towel_Or_Disney_/20%Monthly2017-07-11 23:31
http://www.hotnewdeal.com/2017/07/11/196365_Apple_Watch_and_Phone_Solid_Aluminum_Charging_Hold/20%Monthly2017-07-11 22:52
http://www.hotnewdeal.com/2017/07/11/196364_Slim_Wireless_Mouse_24G_with_Nano_Receiver_Black/20%Monthly2017-07-11 22:52
http://www.hotnewdeal.com/2017/07/11/196363_Outdoor_Hanging_Chair_Solid_Wood_Various_Colors/20%Monthly2017-07-11 22:51
http://www.hotnewdeal.com/2017/07/11/196362_Zyxel_NAS326_Personal_NAS_Cloud_Storage_2Bay_Disk/20%Monthly2017-07-11 22:51
http://www.hotnewdeal.com/2017/07/11/196361_Air_Powered_Hover_Soccer_Football_Disc_Ball_893_/20%Monthly2017-07-11 22:50
http://www.hotnewdeal.com/2017/07/11/196360_Prime_Day_Deal_SanDisk_Ultra_UHSI_SDXC_128GB_3/20%Monthly2017-07-11 22:29
http://www.hotnewdeal.com/2017/07/11/196359_Lightning_Deal_95999_LG_Electronics_PF1000UW_Ul/20%Monthly2017-07-11 22:23
http://www.hotnewdeal.com/2017/07/11/196358_Prime_members_Champion_Mens_Powertrain_Vapor_Per/20%Monthly2017-07-11 22:23
http://www.hotnewdeal.com/2017/07/11/196357_Sonos_Play_3_Certified_Refurbished__229/20%Monthly2017-07-11 22:22
http://www.hotnewdeal.com/2017/07/11/196355_Prime_Members_with_Alexa__KIND_Bars_Nuts_and_Spi/20%Monthly2017-07-11 22:03
http://www.hotnewdeal.com/2017/07/11/196353_Amazon_Alexa_Deal_w_SS__Zico_Coconut_Water_Nat/20%Monthly2017-07-11 22:02
http://www.hotnewdeal.com/2017/07/11/196352_Coldplay_A_Rush_of_Blood_to_the_Head_Vinyl_95/20%Monthly2017-07-11 22:02
http://www.hotnewdeal.com/2017/07/11/196351_Philips_SHP9500S_OverEar_Headphones_Black_499/20%Monthly2017-07-11 22:02
http://www.hotnewdeal.com/2017/07/11/196350_Steam_Fairy_Fencer_F_Advent_Dark_Force_749_/20%Monthly2017-07-11 22:01
http://www.hotnewdeal.com/2017/07/11/196349_OralB_Pro_5000_SmartSeries_Power_Rechargeable_Ele/20%Monthly2017-07-11 21:52
http://www.hotnewdeal.com/2017/07/11/196348_Wootcom_Save_10_off_using_Amazon_Pay_with_Code_/20%Monthly2017-07-11 21:52
http://www.hotnewdeal.com/2017/07/11/196347_Prime_Members_Power_Wheels_Dune_Racer_19999_FS/20%Monthly2017-07-11 21:52
http://www.hotnewdeal.com/2017/07/11/196346_Outdoors_Solar_LED_String_Lights_Dragonfly_Fair_L/20%Monthly2017-07-11 21:52
http://www.hotnewdeal.com/2017/07/11/196345_Philosophy_Cleanse_Refine_And_Renew_Kit__10_Mac/20%Monthly2017-07-11 21:52
http://www.hotnewdeal.com/2017/07/11/196344_FoodSaver_FSFSBF0226FFP_Bags_Vacuum_Sealers_44_Q/20%Monthly2017-07-11 21:40
http://www.hotnewdeal.com/2017/07/11/196341_Overwatch__Origins_Edition__PS4_2999_Prime_D/20%Monthly2017-07-11 21:39
http://www.hotnewdeal.com/2017/07/11/196340_3TB_HGSTHitachi_Ultrastar_7K4000_Hard_Drive_refur/20%Monthly2017-07-11 21:39
http://www.hotnewdeal.com/2017/07/11/196339_Prime_Members_Rokinon_FE14MC_14mm_F28_Ultra_Wid/20%Monthly2017-07-11 21:39
http://www.hotnewdeal.com/2017/07/11/196338_Staples_32GB_USB_20_flash_drive_2Pack_1199/20%Monthly2017-07-11 21:39
http://www.hotnewdeal.com/2017/07/11/196337_Lansky_BladeMedic_Knife_Sharpener_PSMED01_771/20%Monthly2017-07-11 21:39
http://www.hotnewdeal.com/2017/07/11/196335_LG_G6_H870DS_64GB_FACTORY_UNLOCKED_57_QHD_Dual/20%Monthly2017-07-11 21:38
http://www.hotnewdeal.com/2017/07/11/196334_Tenergy_Battery_Charger__4_Pack_37V_650mAh_RCR12/20%Monthly2017-07-11 21:38
http://www.hotnewdeal.com/2017/07/11/196333_Webroot_Internet_Security_Complete__Antivirus_201/20%Monthly2017-07-11 21:38
http://www.hotnewdeal.com/2017/07/11/196332_Refurbished_Shark_NV341_Rotator_SlimLight_LiftAw/20%Monthly2017-07-11 21:38
http://www.hotnewdeal.com/2017/07/11/196331_Google_Home_8999_at_newegg/20%Monthly2017-07-11 21:06
http://www.hotnewdeal.com/2017/07/11/196330_SanDisk_Ultra_128GB_Dual_Drive_microUSB__USB_30_/20%Monthly2017-07-11 20:59
http://www.hotnewdeal.com/2017/07/11/196329_Prime_Members_23andMe_Health__Ancestry_DNA_Kit_/20%Monthly2017-07-11 20:49
http://www.hotnewdeal.com/2017/07/11/196328_Prime_Members_Price_glitch_80_off_Handyman_servi/20%Monthly2017-07-11 20:49
http://www.hotnewdeal.com/2017/07/11/196327_WOLF_Double_Watch_Winder_Heritage_113/20%Monthly2017-07-11 20:49
http://www.hotnewdeal.com/2017/07/11/196326_Deal_w_Alexa_901_Isopure_Low_Carb_Protein_Powd/20%Monthly2017-07-11 20:25
http://www.hotnewdeal.com/2017/07/11/196325_Champion_Mens_Long_Mesh_Short_with_Pockets_699_/20%Monthly2017-07-11 20:25
http://www.hotnewdeal.com/2017/07/11/196324_Anova_Culinary_Bluetooth_Sous_Vide_Precision_Cooke/20%Monthly2017-07-11 20:24
http://www.hotnewdeal.com/2017/07/11/196323_Prime_Members_Graco_Simple_Sway_Baby_Swing_4599/20%Monthly2017-07-11 19:58
http://www.hotnewdeal.com/2017/07/11/196322_2Pack_Universal_Portable_Wall_Charger_48A_24W_D/20%Monthly2017-07-11 19:58
http://www.hotnewdeal.com/2017/07/11/196320_Sennheiser_598Cs_for_9995_Prime_Lightning_Deal/20%Monthly2017-07-11 19:57
http://www.hotnewdeal.com/2017/07/11/196319_Crane_Drop_Humidifier__GreenWhite_only_for_239/20%Monthly2017-07-11 19:57
http://www.hotnewdeal.com/2017/07/11/196318_Zelda_Breath_of_the_Wild_Wii_U_Prime_Day__4799/20%Monthly2017-07-11 19:57
http://www.hotnewdeal.com/2017/07/11/196317_Gretsch_9220_steel_resonator_guitar_113_free_ship/20%Monthly2017-07-11 19:56
http://www.hotnewdeal.com/2017/07/11/196316_Costco_BM_YMMV__BOB_Revolution_Pro_Jogging_Strol/20%Monthly2017-07-11 19:56
http://www.hotnewdeal.com/2017/07/11/196315_Mugig_Guitar_Speaker_for_Acoustic_Guitar_and_Ukule/20%Monthly2017-07-11 19:56
http://www.hotnewdeal.com/2017/07/11/196314_IKEA_College_Life_Your_Way_Event_25_OFF_150_or_m/20%Monthly2017-07-11 19:56
http://www.hotnewdeal.com/2017/07/11/196313_Samsung_Bluetooth_Headset_w_NoiseReduction_and_E/20%Monthly2017-07-11 19:55
http://www.hotnewdeal.com/2017/07/11/196312_Fossill_Smartwatch_40_and_25__amazon_prime_membe/20%Monthly2017-07-11 19:25
http://www.hotnewdeal.com/2017/07/11/196311_Prime_Day_Deal_Eshow_14_Inch_laptop_Mens_Casual_C/20%Monthly2017-07-11 19:05
http://www.hotnewdeal.com/2017/07/11/196310_Victoria_12_Cast_Iron_Skillet__10_Grill_Pan__/20%Monthly2017-07-11 18:56
http://www.hotnewdeal.com/2017/07/11/196309_Prime_Members_Huawei_Watch_2_Black_Carbon__Concr/20%Monthly2017-07-11 18:55
http://www.hotnewdeal.com/2017/07/11/196308_Samsung__65_4k_UN65MU8000__LED__240hz__Smar/20%Monthly2017-07-11 18:44
http://www.hotnewdeal.com/2017/07/11/196307_PlayStation_VR__VR_Worlds_Bundle__PlayStation_4_/20%Monthly2017-07-11 18:44
http://www.hotnewdeal.com/2017/07/11/196305_Motion_Activated_Bed_Light_kit_warm_Soft_Glow_49f/20%Monthly2017-07-11 18:44
http://www.hotnewdeal.com/2017/07/11/196304_Prime_with_Alexa_LEGO_Ideas_Caterham_Seven_620R_21/20%Monthly2017-07-11 18:44
http://www.hotnewdeal.com/2017/07/11/196303_DeWalt_Flexvolt_60V_Max_Reciprocating_Saw__2x_60/20%Monthly2017-07-11 18:43
http://www.hotnewdeal.com/2017/07/11/196302_Amazon_today_only_prime_deal_DEWALT_DCK277C2_20V_M/20%Monthly2017-07-11 18:43
http://www.hotnewdeal.com/2017/07/11/196301_Kurutoga_Roulette_Model_789_free_shipping_for_pr/20%Monthly2017-07-11 18:43
http://www.hotnewdeal.com/2017/07/11/196300_Fisher_Price_Music_Giraffe_Guitar__6__FSS/20%Monthly2017-07-11 18:42
http://www.hotnewdeal.com/2017/07/11/196299_Microsoft_Surface_3_108_128GB_Atom_x7_Z8700_GSM_/20%Monthly2017-07-11 18:42
http://www.hotnewdeal.com/2017/07/11/196298_LG_Electronics_LG_34UC79GB_34Inch_219_Curved_Ul/20%Monthly2017-07-11 18:41
http://www.hotnewdeal.com/2017/07/11/196297_Caza_Trail_Coffee_Dark_Roast_or_Kona_Blend_100_S/20%Monthly2017-07-11 18:40
http://www.hotnewdeal.com/2017/07/11/196296_Amazon_Prime_Day_Deal__August_Smart_Lock_2nd_Gene/20%Monthly2017-07-11 18:37
http://www.hotnewdeal.com/2017/07/11/196295_Prime_Members_Yamaha_THR10_Mini_Guitar_Amplifier_/20%Monthly2017-07-11 18:28
http://www.hotnewdeal.com/2017/07/11/196294_iOttie_Easy_One_Touch_2_Car_Mount_Holder_for_iPhon/20%Monthly2017-07-11 18:05
http://www.hotnewdeal.com/2017/07/11/196293_Prime_Members_Save_35_or_more_on_your_first_subs/20%Monthly2017-07-11 18:00
http://www.hotnewdeal.com/2017/07/11/196292_Prime_Members_3Pack_Google_Home_WiFi_System_239/20%Monthly2017-07-11 17:52
http://www.hotnewdeal.com/2017/07/11/196291_Rainbow_Six_Siege_PS4_and_XBOX_One_1545__1585/20%Monthly2017-07-11 17:52
http://www.hotnewdeal.com/2017/07/11/196290_Razer_Blade_Stealth_Ultrabook_4k_i7_16GB_RAM_512/20%Monthly2017-07-11 17:52
http://www.hotnewdeal.com/2017/07/11/196289_LUVS_size_4_diapers_160_for_1358_w_SS_Amazon_F/20%Monthly2017-07-11 17:52
http://www.hotnewdeal.com/2017/07/11/196288_Assorted_Kids_Backpacks_247__Free_In_Store_Pick/20%Monthly2017-07-11 17:51
http://www.hotnewdeal.com/2017/07/11/196287_Gears_of_War_4_Ultimate_Ed_Inc_SteelBook_Season/20%Monthly2017-07-11 17:51
http://www.hotnewdeal.com/2017/07/11/196286_Amazon_Prime_Day_Waterproof_RFID_Blocking_Casual_D/20%Monthly2017-07-11 17:51
http://www.hotnewdeal.com/2017/07/11/196285_Fishing_Deal_Shakespeare_Ugly_Stick_Elite_Spinnin/20%Monthly2017-07-11 17:51
http://www.hotnewdeal.com/2017/07/11/196284_22_off_SanDisk_Ultra_128GB_MicroSD_with_Adapter/20%Monthly2017-07-11 17:51
http://www.hotnewdeal.com/2017/07/11/196283_Hanes_Mens_FullZip_EcoSmart_Fleece_Hoodie_Colors/20%Monthly2017-07-11 17:51
http://www.hotnewdeal.com/2017/07/11/196282_Black__Decker_Floor_Care_Lithiumion_Hand_Vac_10/20%Monthly2017-07-11 17:51
http://www.hotnewdeal.com/2017/07/11/196281_50_off_select_Beauty__Macys__FS__Philosophy_/20%Monthly2017-07-11 17:51
http://www.hotnewdeal.com/2017/07/11/196280_Callaway_Womens_Strata_Complete_Golf_Set__Amazon/20%Monthly2017-07-11 17:30
http://www.hotnewdeal.com/2017/07/11/196279_Bestbuycom_200_Dyson__Ball_Multi_Floor_Bagless_/20%Monthly2017-07-11 17:22
http://www.hotnewdeal.com/2017/07/11/196278_Ti6_Advance_Mini_PC_Andriod_Quad_Core_2GB16GB4K/20%Monthly2017-07-11 17:22
http://www.hotnewdeal.com/2017/07/11/196277_Squatty_Potty_7_order_by_Alexa_device/20%Monthly2017-07-11 17:15
http://www.hotnewdeal.com/2017/07/11/196275_Amazon_Aquaphor_Advanced_Therapy_Healing_Ointment_/20%Monthly2017-07-11 17:14
http://www.hotnewdeal.com/2017/07/11/196274_Hopkins_16511_Subzero_23_Ice_Hammer_Snowbrush__/20%Monthly2017-07-11 17:14
http://www.hotnewdeal.com/2017/07/11/196272_Prime_Members_ChefSteps_Joule_Sous_Vide_All_Whit/20%Monthly2017-07-11 17:13
http://www.hotnewdeal.com/2017/07/11/196270_Assassins_Creed_The_Ezio_Collection_X1_1999/20%Monthly2017-07-11 17:13
http://www.hotnewdeal.com/2017/07/11/196269_Staub_Cocottes_starting_at_3999/20%Monthly2017-07-11 17:13
http://www.hotnewdeal.com/2017/07/11/196268_55_LG_55SJ8500_UHD_4K_HDR_Smart_LED_TV_799__fre/20%Monthly2017-07-11 17:12
http://www.hotnewdeal.com/2017/07/11/196267_6_Packs_of_26_Cups_Dixie_To_Go_Disposable_Paper_Cu/20%Monthly2017-07-11 17:12
http://www.hotnewdeal.com/2017/07/11/196266_GoPro_Session_with_GoPro_Handler_Samusung_32GB_SD/20%Monthly2017-07-11 17:07
http://www.hotnewdeal.com/2017/07/11/196265_Under_Armour_Storm_Recruit_backpack_2183_with_am/20%Monthly2017-07-11 17:06
http://www.hotnewdeal.com/2017/07/11/196264_TOYS_R_US_kids_bikes_from_32_with_Free_store_pick/20%Monthly2017-07-11 16:58
http://www.hotnewdeal.com/2017/07/11/196263_Aeropostale_Free_Shipping_no_min__Extra_40_off/20%Monthly2017-07-11 16:57
http://www.hotnewdeal.com/2017/07/11/196262_Norton_Security_Premium__Utilties__TuneUp_Bundl/20%Monthly2017-07-11 16:57
http://www.hotnewdeal.com/2017/07/11/196261_10Pack_of_39oz_SkinnyPop_Popcorn_Skinny_Pack_Or/20%Monthly2017-07-11 16:52
http://www.hotnewdeal.com/2017/07/11/196260_Up_to_60_off_Babyganics_diapers_40_off_coupon_/20%Monthly2017-07-11 16:52
http://www.hotnewdeal.com/2017/07/11/196259_Amazon_Alexa_Schlage_Connect_BE469NX_CAM_619_Touc/20%Monthly2017-07-11 16:51
http://www.hotnewdeal.com/2017/07/11/196258_PRIME_DEAL_2015_Graco_Fastaction_Fold_Sport_Click/20%Monthly2017-07-11 16:51
http://www.hotnewdeal.com/2017/07/11/196256_MAXOAK_12V_11000mAh_Portable_Car_Jump_Starter_and_/20%Monthly2017-07-11 16:48
http://www.hotnewdeal.com/2017/07/11/196255_48Count_Quaker_Instant_Oatmeal_Variety_Pack_660/20%Monthly2017-07-11 16:48
http://www.hotnewdeal.com/2017/07/11/196254_newegg_10_and_20_off_select_sonicare_electric_to/20%Monthly2017-07-11 16:40
http://www.hotnewdeal.com/2017/07/11/196253_Timberland_Mens_Kiawah_Bay_Leather_Boat_Shoes_32/20%Monthly2017-07-11 16:40
http://www.hotnewdeal.com/2017/07/11/196252_Monoprice_MFi_Certified_Lightning_Cable_on_sale_fo/20%Monthly2017-07-11 16:40
http://www.hotnewdeal.com/2017/07/11/196251_Sony__55_Class_546_Diag__LED__2160p__Sma/20%Monthly2017-07-11 16:39
http://www.hotnewdeal.com/2017/07/11/196250_Amazon_Prime_Day_Philips_BDM3270QP2_32_inch_class/20%Monthly2017-07-11 16:39
http://www.hotnewdeal.com/2017/07/11/196249_Quick_Charge_Anker_PowerCore_26800_Premium_Port/20%Monthly2017-07-11 16:39
http://www.hotnewdeal.com/2017/07/11/196248_Los_Angeles_to_Cook_Islands_551_RT_on_Air_New_Zea/20%Monthly2017-07-11 16:39
http://www.hotnewdeal.com/2017/07/11/196247_Fandango_Buy_one_get_one_for_PNC_visa_checkout/20%Monthly2017-07-11 16:38
http://www.hotnewdeal.com/2017/07/11/196246_Lodge_12_Cast_Iron_Skillet_PreSeasoned_L10SK3_6/20%Monthly2017-07-11 16:38
http://www.hotnewdeal.com/2017/07/11/196245_Capcom_Rising_Humble_Bundle/20%Monthly2017-07-11 16:38
http://www.hotnewdeal.com/2017/07/11/196244_Outdoor_Offset_10_Hanging_Patio_Umbrella_Multipl/20%Monthly2017-07-11 16:38
http://www.hotnewdeal.com/2017/07/11/196243_save_30_on_Squatty_Potty/20%Monthly2017-07-11 16:37
http://www.hotnewdeal.com/2017/07/11/196242_SAVE_36_on_Chinet_10_38_Dinner_Plate_100count_B/20%Monthly2017-07-11 16:37
http://www.hotnewdeal.com/2017/07/11/196240_Prime_members_1798_Maxboost_300W_Power_Inverter/20%Monthly2017-07-11 16:37
http://www.hotnewdeal.com/2017/07/11/196239_War_for_the_Planet_of_the_Apes__4_for_2x_Tickets/20%Monthly2017-07-11 16:37
http://www.hotnewdeal.com/2017/07/11/196238_Amazon_Prime_Deal_ASTRO_Gaming_A40_TR_Headset__M/20%Monthly2017-07-11 16:36
http://www.hotnewdeal.com/2017/07/11/196237_Samsung_50_Smart_4K_UHD_TV_2017_Model_UN50MU6300/20%Monthly2017-07-11 16:36
http://www.hotnewdeal.com/2017/07/11/196236_Frys_Email_Exclusive_Deals_Zojirushi_Micom_3Cup/20%Monthly2017-07-11 16:36
http://www.hotnewdeal.com/2017/07/11/196235_Prime_Members_LG_29_Ultrawide_219_FHD_IPS__Sp/20%Monthly2017-07-11 16:35
http://www.hotnewdeal.com/2017/07/11/196233_OralB_Genius_Pro_8000_Electronic_Power_Rechargeab/20%Monthly2017-07-11 16:35
http://www.hotnewdeal.com/2017/07/11/196232_Nespresso_Vertuoline_Pods_Buy_8_Sleeves_Get_2_Fre/20%Monthly2017-07-11 16:34
http://www.hotnewdeal.com/2017/07/11/196231_Disney_Princess_Magical_Play_Kitchen_15/20%Monthly2017-07-11 16:34
http://www.hotnewdeal.com/2017/07/11/196230_Amazon_Prime_Members_4181_amazon_ss__3_packs_/20%Monthly2017-07-11 16:34
http://www.hotnewdeal.com/2017/07/11/196229_Prime_Members_uniball_207_Retractable_Gel_Pens_/20%Monthly2017-07-11 16:33
http://www.hotnewdeal.com/2017/07/11/196228_Amazon_lightning_deal_with_Alexa_discount__437_/20%Monthly2017-07-11 16:33
http://www.hotnewdeal.com/2017/07/11/196227_Mentos_Gum_50Count_Pack_of_6_844_with_stacki/20%Monthly2017-07-11 16:33
http://www.hotnewdeal.com/2017/07/11/196226_VIZIO_50_Class_D50UD1_and_SmartCast_38_21_Soun/20%Monthly2017-07-11 16:32
http://www.hotnewdeal.com/2017/07/11/196225_DualShock_4_Wireless_Controller_for_PlayStation_4_/20%Monthly2017-07-11 16:32
http://www.hotnewdeal.com/2017/07/11/196224_Newsdemon_Unlimited_Usenet_for_500/20%Monthly2017-07-11 16:32
http://www.hotnewdeal.com/2017/07/11/196223_Seagate_Slim_2TB_Portable_External_Hard_Drive_USB_/20%Monthly2017-07-11 16:31
http://www.hotnewdeal.com/2017/07/11/196222_Prime_Day_Deal__OxiClean_Versatile_Stain_Remover/20%Monthly2017-07-11 16:22
http://www.hotnewdeal.com/2017/07/11/196220_iGelComfort_Coccyx_Orthopedic_Breathable_Gel_Seat_/20%Monthly2017-07-11 16:08
http://www.hotnewdeal.com/2017/07/11/196219_New_Dell_PowerEdge_T30_Mini_Tower_Server__329_be/20%Monthly2017-07-11 16:08
http://www.hotnewdeal.com/2017/07/11/196218_SanDisk_Ultra_II_500GB_SATA_III_SSD__13699/20%Monthly2017-07-11 16:07
http://www.hotnewdeal.com/2017/07/11/196217_YI_Home_Camera_US_Edition_2899/20%Monthly2017-07-11 15:33
http://www.hotnewdeal.com/2017/07/11/196216_30_OFF_Reynolds_Kitchens_Wax_Paper_Sandwich_Bags_/20%Monthly2017-07-11 15:32
http://www.hotnewdeal.com/2017/07/11/196215_YI_88001_16MP_Action_Camera_with_HighResolution_W/20%Monthly2017-07-11 15:15
http://www.hotnewdeal.com/2017/07/11/196214_Garden_of_Life_Meal_Replacement__Organic_Raw_Plan/20%Monthly2017-07-11 15:07
http://www.hotnewdeal.com/2017/07/11/196213_ADDON_146_Star_Wars_Millennium_Falcon_Die_Cast/20%Monthly2017-07-11 15:07
http://www.hotnewdeal.com/2017/07/11/196212_Free_4pc_Makeup_or_Skincare_Gift_with_Any_Clinique/20%Monthly2017-07-11 14:48
http://www.hotnewdeal.com/2017/07/11/196211_Amazon__Uncharted_4_PS4_Slim__The_Last_of_Us__/20%Monthly2017-07-11 14:30
http://www.hotnewdeal.com/2017/07/11/196210_RAVPower__TaoTronics_Prime_Day_Deals_Starting_at_/20%Monthly2017-07-11 14:30
http://www.hotnewdeal.com/2017/07/11/196209_Logitech_G610_Cherry_MX_Brown_6999/20%Monthly2017-07-11 14:30
http://www.hotnewdeal.com/2017/07/11/196208_Amazon_Prime_07112017_Only_Seagate_Backup_Plus_/20%Monthly2017-07-11 14:14
http://www.hotnewdeal.com/2017/07/11/196207_Tools_of_the_Trade_Cookware_10_each__10_Macys_e/20%Monthly2017-07-11 14:14
http://www.hotnewdeal.com/2017/07/11/196206_Prime_Members_Braun_Series_9_9093s_Wet_and_Dry_Wa/20%Monthly2017-07-11 14:14
http://www.hotnewdeal.com/2017/07/11/196205_Fitbit_Blaze__Amazon_Prime__138/20%Monthly2017-07-11 14:06
http://www.hotnewdeal.com/2017/07/11/196204_Mr_Heater_Buddy_Portable_Heater_4739__Amazon/20%Monthly2017-07-11 13:53
http://www.hotnewdeal.com/2017/07/11/196203_Soylent_Cafe_Coffiest_2730_Prime_Day/20%Monthly2017-07-11 13:53
http://www.hotnewdeal.com/2017/07/11/196202_Vantrue_X2_25K_Dash_Cam_Super_HD_1440p_2560x1440_/20%Monthly2017-07-11 13:53
http://www.hotnewdeal.com/2017/07/11/196201_Bluetooth_FM_Car_Transmitter__1259_AC/20%Monthly2017-07-11 13:53
http://www.hotnewdeal.com/2017/07/11/196200_La_La_Land_Bluray__DVD__Digital_HD_999_at_B/20%Monthly2017-07-11 13:53
http://www.hotnewdeal.com/2017/07/11/196199_Prime_Members_with_Alexa__Plum_Organics_Stage_2_B/20%Monthly2017-07-11 13:53
http://www.hotnewdeal.com/2017/07/11/196198_Rexing_V1_24_LCD_1080p_Wide_Angle_Dash_Cam_749/20%Monthly2017-07-11 13:52
http://www.hotnewdeal.com/2017/07/11/196197_Anker_PowerCore_26800_Portable_Charger_26800mAh_E/20%Monthly2017-07-11 13:52
http://www.hotnewdeal.com/2017/07/11/196196_Amazon_Prime_Coleman_roadtrip_grill_for_99/20%Monthly2017-07-11 13:52
http://www.hotnewdeal.com/2017/07/11/196195_Amazon_Prime_Day_Deal__Progress_Lighting__Get_20/20%Monthly2017-07-11 13:39
http://www.hotnewdeal.com/2017/07/11/196194_Overwatch_PC_Digital_Download_on_Amazon_2999__t/20%Monthly2017-07-11 13:39
http://www.hotnewdeal.com/2017/07/11/196193_Pebble_2_Smartwatch_SE_Includes_Pebble_Timeline_/20%Monthly2017-07-11 13:39
http://www.hotnewdeal.com/2017/07/11/196192_Logitech_wireless_keyboard_k800_4859_PRIME_sale/20%Monthly2017-07-11 13:39
http://www.hotnewdeal.com/2017/07/11/196191_Prime_Members_Optoma_HD29Darbee_1080p_3200_Lumens/20%Monthly2017-07-11 13:39
http://www.hotnewdeal.com/2017/07/11/196190_4Pc_620Thread_Count_Combed_100_Cotton_Easton_Sh/20%Monthly2017-07-11 13:38
http://www.hotnewdeal.com/2017/07/11/196189_2TB_WD_EasyStore_USB_30_Portable_Hard_Drive_599/20%Monthly2017-07-11 13:31
http://www.hotnewdeal.com/2017/07/11/196188_Frys_Email_Exclusive_Deals_27_LG_27MP38VQB_108/20%Monthly2017-07-11 13:31
http://www.hotnewdeal.com/2017/07/11/196187_Philips_Hue_Starter_Kit_and_Amazon_Echo_Dot_8475/20%Monthly2017-07-11 13:31
http://www.hotnewdeal.com/2017/07/11/196186_Prime_Day_Deal_Baby_Forehead_Thermometer_2199_AC/20%Monthly2017-07-11 13:31
http://www.hotnewdeal.com/2017/07/11/196185_Peppa_Pig__1299yr_w_Code/20%Monthly2017-07-11 13:16
http://www.hotnewdeal.com/2017/07/11/196184_WESTERN_80768_Pecan_Smoking_Chips__160_addon_i/20%Monthly2017-07-11 13:16
http://www.hotnewdeal.com/2017/07/11/196182_Coleman_Montana_8Person_Tent_6799__Amazon_Pri/20%Monthly2017-07-11 13:16
http://www.hotnewdeal.com/2017/07/11/196180_Portable_Handheld_Car_Wet_Dry_Vacuum_2299_AC_FS_/20%Monthly2017-07-11 13:16
http://www.hotnewdeal.com/2017/07/11/196179_Play_Station_4_Slim_500GB_console_Uncharted_4_bun/20%Monthly2017-07-11 13:15
http://www.hotnewdeal.com/2017/07/11/196178_ANNKE_HD_720p_WiFi_Wireless_IP_Security_Camera_w/20%Monthly2017-07-11 13:15
http://www.hotnewdeal.com/2017/07/11/196177_Instant_PopUp_Privacy_Tent_2299_AC_FS/20%Monthly2017-07-11 13:15
http://www.hotnewdeal.com/2017/07/11/196176_Frontier_Airlines__75_Off_Promo_Code__Today_Onl/20%Monthly2017-07-11 13:15
http://www.hotnewdeal.com/2017/07/11/196175_Sony_PlayStation_Gold_Wireless_Headset_5999_Prim/20%Monthly2017-07-11 13:15
http://www.hotnewdeal.com/2017/07/11/196174_Blue_Yeti_USB_MIcrophone__All_colors__Amazon_Pri/20%Monthly2017-07-11 13:15
http://www.hotnewdeal.com/2017/07/11/196172_Wolverine_Mens_Wellington_Work_Boot_4299_Wolve/20%Monthly2017-07-11 13:15
http://www.hotnewdeal.com/2017/07/11/196170_Prime_Members_Waterpik_Aquarius_Water_Flosser_WP_/20%Monthly2017-07-11 13:09
http://www.hotnewdeal.com/2017/07/11/196169_27_Dell_S2716DG_2560x1440_144Hz_GSync_Gaming_Moni/20%Monthly2017-07-11 13:03
http://www.hotnewdeal.com/2017/07/11/196166_Teeter_EP960_Ltd_Inversion_Table_249__5_sh_/20%Monthly2017-07-11 12:53
http://www.hotnewdeal.com/2017/07/11/196165_LG_SH3K__21Channel_Soundbar_System_wSubwoofer_/20%Monthly2017-07-11 12:53
http://www.hotnewdeal.com/2017/07/11/196164_KN_High_Performance_Air_filters_for_multiple_moto/20%Monthly2017-07-11 12:53
http://www.hotnewdeal.com/2017/07/11/196163_SIMILAC_Go__Grow_15_lbs_Pack_of_4_6592_or_l/20%Monthly2017-07-11 12:40
http://www.hotnewdeal.com/2017/07/11/196162_Amazon__Razer_Naga_Chroma_Mouse__Razer_Naga_Hex_/20%Monthly2017-07-11 12:38
http://www.hotnewdeal.com/2017/07/11/196161_Intel_Core_i57600K_LGA_1151_Processor_188__Free/20%Monthly2017-07-11 12:37
http://www.hotnewdeal.com/2017/07/11/196160_FoodSaver_11_Roll_3_Pack__1273_with_SS_plus_P/20%Monthly2017-07-11 12:37
http://www.hotnewdeal.com/2017/07/11/196158_Prime_Members_w_Alexa_Wemo_Mini_Wifi_Smart_Plug_/20%Monthly2017-07-11 12:37
http://www.hotnewdeal.com/2017/07/11/196157_Microsoft_Groove_Music_Subscription__Buy_one_mont/20%Monthly2017-07-11 12:36
http://www.hotnewdeal.com/2017/07/11/196156_BLF_A6_XPL_1600_Lumens_LED_Flashlight__1886__F/20%Monthly2017-07-11 12:36
http://www.hotnewdeal.com/2017/07/11/196155_SanDisk_Ultra_64GB_microSDXC_UHSI_Card_with_Adapt/20%Monthly2017-07-11 12:35
http://www.hotnewdeal.com/2017/07/11/196153_Epson_2040_for_499_Amazon_Prime_Day_Deal__Epson_/20%Monthly2017-07-11 12:35
http://www.hotnewdeal.com/2017/07/11/196152_Prime_Day_Deal_Callaway_Mens_Strata_Ultimate_Co/20%Monthly2017-07-11 12:34
http://www.hotnewdeal.com/2017/07/11/196151_PizzaQue_Deluxe_Kit__54__Prime_Day/20%Monthly2017-07-11 12:34
http://www.hotnewdeal.com/2017/07/11/196150_Apple_Watch_1M_Magnetic_Charging_Cable__White_for/20%Monthly2017-07-11 12:34
http://www.hotnewdeal.com/2017/07/11/196149_SiliconDust_HDHomeRun_Connect__6999__FS__Best/20%Monthly2017-07-11 12:34
http://www.hotnewdeal.com/2017/07/11/196148_Lifewit_Baby_Carrier_Soft_Front_baby_Backpack_5_Ca/20%Monthly2017-07-11 12:33
http://www.hotnewdeal.com/2017/07/11/196147_Prime_Members_Get_10_off_60_in_Prime_Pantry/20%Monthly2017-07-11 12:33
http://www.hotnewdeal.com/2017/07/11/196146_Ancestrycom_AncestryDNA_Test__Amazon_Prime_for_/20%Monthly2017-07-11 12:33
http://www.hotnewdeal.com/2017/07/11/196145_7Piece_Summer_Beauty_Sampler_Gift_Set_8__free_s/20%Monthly2017-07-11 12:32
http://www.hotnewdeal.com/2017/07/11/196144_Prime_Members_SkyBell_HD_Silver_WiFi_Video_Doorbe/20%Monthly2017-07-11 12:32
http://www.hotnewdeal.com/2017/07/11/196143_Get_a_free_echo_dot_when_you_register_for_an_Amazo/20%Monthly2017-07-11 12:32
http://www.hotnewdeal.com/2017/07/11/196142_Prime_Day_GrownUp_Board_Games/20%Monthly2017-07-11 12:31
http://www.hotnewdeal.com/2017/07/11/196141_Eufy_RoboVac_11Robotic_Vacuum_Amazon_18999_wpr/20%Monthly2017-07-11 12:31
http://www.hotnewdeal.com/2017/07/11/196140_AMD_Ryzen_7_1700__26999__Newegg_and_Amazon/20%Monthly2017-07-11 12:31
http://www.hotnewdeal.com/2017/07/11/196139_Epson_Home_Cinema_Projector_300_Instant_Rebate_En/20%Monthly2017-07-11 12:30
http://www.hotnewdeal.com/2017/07/11/196138_BPI_Sports_Best_BCAA_Shredded_Caffeine_Free_Thermo/20%Monthly2017-07-11 12:30
http://www.hotnewdeal.com/2017/07/11/196137_Prime_Members_New_Nintendo_3DS_XL_Console_Galaxy/20%Monthly2017-07-11 12:30
http://www.hotnewdeal.com/2017/07/11/196136_Panasonic_Lumix_DMCFZ1000_4K_QFHDHD_16X_Long_Zoo/20%Monthly2017-07-11 12:30
http://www.hotnewdeal.com/2017/07/11/196135_Lorex_8Channel_4Camera_4MP_Security_System_with_/20%Monthly2017-07-11 12:29
http://www.hotnewdeal.com/2017/07/11/196134_6Pack_Tommy_Hilfiger_All_American_II_Cotton_Bath_/20%Monthly2017-07-11 12:29
http://www.hotnewdeal.com/2017/07/11/196133_Leviton_ZWave_Universal_Switch_or_Dimmer_Switch_/20%Monthly2017-07-11 12:28
http://www.hotnewdeal.com/2017/07/11/196132_Denon_AVRX3300W_72_Channel_Full_4K_Ultra_HD_AV_R/20%Monthly2017-07-11 12:28
http://www.hotnewdeal.com/2017/07/11/196131_AMD_Ryzen_7_1700_AM4_CPU__ASRock_ATX_AB350_Gaming/20%Monthly2017-07-11 12:27
http://www.hotnewdeal.com/2017/07/11/196130_Philips_Hue_white_Starter_Kit_4898_Or_3rd_gen_Am/20%Monthly2017-07-11 11:58
http://www.hotnewdeal.com/2017/07/11/196129_Omron_10_Series_Wireless_Upper_Arm_Blood_Pressure_/20%Monthly2017-07-11 11:58
http://www.hotnewdeal.com/2017/07/11/196128_HAM_Radio_BaofengBTech_UV5X3_triband_UV82HP_F/20%Monthly2017-07-11 11:49
http://www.hotnewdeal.com/2017/07/11/196127_Craftsman_3_pc_Adjustable_Wrench_Set_2399__shi/20%Monthly2017-07-11 11:49
http://www.hotnewdeal.com/2017/07/11/196126_Prime_Members_Philips_Hue_Starter_Kit_3rd_Genera/20%Monthly2017-07-11 11:26
http://www.hotnewdeal.com/2017/07/11/196125_Deep_Blue_diver_watch__Military_Dive_Watch_Swiss_/20%Monthly2017-07-11 11:26
http://www.hotnewdeal.com/2017/07/11/196124_Amope_Pedi_Perfect_Foot_File_for_2312_AC_FS_wP/20%Monthly2017-07-11 11:26
http://www.hotnewdeal.com/2017/07/11/196123_Prime_Members_35_or_more_on_your_first_subscript/20%Monthly2017-07-11 11:26
http://www.hotnewdeal.com/2017/07/11/196122_Pecham_XXL_Gaming_Mouse_Pad_799_AC__FS_w_Prime/20%Monthly2017-07-11 11:18
http://www.hotnewdeal.com/2017/07/11/196121_Crayola_Markers_Broad_or_Fine_Line_10ct_99_w_f/20%Monthly2017-07-11 11:18
http://www.hotnewdeal.com/2017/07/11/196120_Make_Up_Brush_Cleaning_Mat__419_fs_wprime/20%Monthly2017-07-11 11:14
http://www.hotnewdeal.com/2017/07/11/196118_InnoGear_Solar_Lights_30_LED_Outdoor_Security_Lig/20%Monthly2017-07-11 11:14
http://www.hotnewdeal.com/2017/07/11/196117_Microsoft_Docking_Station_for_Surface_3_1696__F/20%Monthly2017-07-11 11:14
http://www.hotnewdeal.com/2017/07/11/196116_Southwest_Airlines__Nationwide_Fare_Sale__OW_Far/20%Monthly2017-07-11 11:13
http://www.hotnewdeal.com/2017/07/11/196115_Prime_Members_Netgear_CM500_Cable_Modem__3999/20%Monthly2017-07-11 11:13
http://www.hotnewdeal.com/2017/07/11/196113_Stanley_123_pc_Black_Chrome_Socket_Set_2494__Me/20%Monthly2017-07-11 11:13
http://www.hotnewdeal.com/2017/07/11/196112_MSI_GL62M_7RD265_laptop_156_FHD_i57300HQ_8/20%Monthly2017-07-11 11:12
http://www.hotnewdeal.com/2017/07/11/196111_PNC_Cardholders_Order_2_or_more_movie_tickets_ge/20%Monthly2017-07-11 11:12
http://www.hotnewdeal.com/2017/07/11/196110_Western_Digital_WD_1TB_BLUE_Hard_Drive_WD10EZEX_4/20%Monthly2017-07-11 11:12
http://www.hotnewdeal.com/2017/07/11/196108_Prime_Members_TP_Link_TC7650_Cable_Modem__6499/20%Monthly2017-07-11 11:11
http://www.hotnewdeal.com/2017/07/11/196107_Xbox_Liquid_Metal_Sidekick_Wired_Controller__Xbox/20%Monthly2017-07-11 11:11
http://www.hotnewdeal.com/2017/07/11/196106_Samsung_C34F791_34_Silver_Curved_FreeSync_Gaming_/20%Monthly2017-07-11 11:11
http://www.hotnewdeal.com/2017/07/11/196105_SanDisk_Ultra_II_500GB_SATA_III_SSD__25Inch_7mm/20%Monthly2017-07-11 11:10
http://www.hotnewdeal.com/2017/07/11/196104_Bluray_Movies_Walking_With_Dinosaurs_Bluray__/20%Monthly2017-07-11 10:41
http://www.hotnewdeal.com/2017/07/11/196103_Sears__Craftsman_108_piece_Mechanics_Tools_Set__/20%Monthly2017-07-11 10:41
http://www.hotnewdeal.com/2017/07/11/196102_USBNOVEL_AC600Mbps_80211ac_Dual_Band_24G5G_Wire/20%Monthly2017-07-11 10:40
http://www.hotnewdeal.com/2017/07/11/196101_Godiva_Chocolatier_Wrapped_Dessert_Truffles_Assor/20%Monthly2017-07-11 10:04
http://www.hotnewdeal.com/2017/07/11/196100_Simple_Mobile_Samsung_Galaxy_ON5_Prepaid_Smartphon/20%Monthly2017-07-11 10:03
http://www.hotnewdeal.com/2017/07/11/196098_Prime_Members_HyperX_Cloud_Pro_Gaming_Headset_w_/20%Monthly2017-07-11 10:03
http://www.hotnewdeal.com/2017/07/11/196097_Sandisk_16GB_Flash_Drive_399__Free_Prime_Shippi/20%Monthly2017-07-11 10:02
http://www.hotnewdeal.com/2017/07/11/196096_Amazon_Prime_Day_iRobot_Roomba_652_Robotic_Vacuum/20%Monthly2017-07-11 10:02
http://www.hotnewdeal.com/2017/07/11/196095_Cedar_Point__Buy_One_One_Free_admission__Sale_en/20%Monthly2017-07-11 10:01
http://www.hotnewdeal.com/2017/07/11/196094_Samsung_128GB_USB_30_Bar_Flash_Drive__2499_FS_/20%Monthly2017-07-11 10:01
http://www.hotnewdeal.com/2017/07/11/196093_Yi_1080p_Home_Camera_Wireless_IP_Security_Surveill/20%Monthly2017-07-11 10:01
http://www.hotnewdeal.com/2017/07/11/196092_PetFusion_Ultimate_Cat_Scratcher_Lounge_save_20_/20%Monthly2017-07-11 10:00
http://www.hotnewdeal.com/2017/07/11/196091_Refurb_DJI_Phantom_3_Standard_Quadcopter_w20_GC_/20%Monthly2017-07-11 10:00
http://www.hotnewdeal.com/2017/07/11/196090_Prime_Deal__MiiR_Stainless_Steel_Insulated_Growle/20%Monthly2017-07-11 09:52
http://www.hotnewdeal.com/2017/07/11/196089_Classic_Brands_Cool_Gel_Ultimate_Gel_Memory_Foam_1/20%Monthly2017-07-11 09:51
http://www.hotnewdeal.com/2017/07/11/196088_Amazon_Prime_Day_deal_DEWALT_DW716XPS_Compound_Mi/20%Monthly2017-07-11 09:10
http://www.hotnewdeal.com/2017/07/11/196087_Corsair_Gaming_K70_LUX_RGB_Mechanical_Keyboard_Ba/20%Monthly2017-07-11 09:10
http://www.hotnewdeal.com/2017/07/11/196086_Acer_Aspire_TC780_Desktop_i57400_8GB_DDR4_2TB/20%Monthly2017-07-11 09:00
http://www.hotnewdeal.com/2017/07/11/196085_Amazon_Extra_30_off_Clothing_Shoes__More/20%Monthly2017-07-11 09:00
http://www.hotnewdeal.com/2017/07/11/196084_Bella_54Quart_Plastic_Locking_Lid_Container_3_wi/20%Monthly2017-07-11 08:47
http://www.hotnewdeal.com/2017/07/11/196083_Yi_4K_Action_Camera_4K_60FPS_for_272_20_off/20%Monthly2017-07-11 08:22
http://www.hotnewdeal.com/2017/07/11/196082_Seiko_SNKK27_for_57_free_shipping_with_Prime_Pri/20%Monthly2017-07-11 08:21
http://www.hotnewdeal.com/2017/07/11/196081_Double_Dip_As_low_as_1259_Tide_Amazing_Laundr/20%Monthly2017-07-11 08:00
http://www.hotnewdeal.com/2017/07/11/196080_Prime_Members_8TB_Seagate_Expansion_USB_30_Deskt/20%Monthly2017-07-11 08:00
http://www.hotnewdeal.com/2017/07/11/196079_Prime_Members_AMD_Ryzen_7_1700X_Desktop_Processor/20%Monthly2017-07-11 08:00
http://www.hotnewdeal.com/2017/07/11/196078_TCL_S305_720p_Roku_Smart_LED_TV_2017_Model__28/20%Monthly2017-07-11 07:48
http://www.hotnewdeal.com/2017/07/11/196077_Prime_Members_New_Balance_Womens_Running_Shoes_/20%Monthly2017-07-11 07:48
http://www.hotnewdeal.com/2017/07/11/196075_Prime_Members_Netgear_Nighthawk_X4_AC2350_Gigabit/20%Monthly2017-07-11 07:47
http://www.hotnewdeal.com/2017/07/11/196074_Prime_Members_GreenWorks_GMax_40V_20_Cordless_L/20%Monthly2017-07-11 07:47
http://www.hotnewdeal.com/2017/07/11/196072_Starcraft_II_Legacy_of_the_Void_Heart_of_the_Swa/20%Monthly2017-07-11 06:30
http://www.hotnewdeal.com/2017/07/11/196071_Micro_Pico_Home_Cinema_Theater_Projector__29/20%Monthly2017-07-11 06:29
http://www.hotnewdeal.com/2017/07/11/196070_Amazon_Prime_Day_PS4_slim_500_gb__uncharted_4__/20%Monthly2017-07-11 06:29
http://www.hotnewdeal.com/2017/07/11/196069_Prime_Members_Ninja_Professional_BL660_Blender__/20%Monthly2017-07-11 06:29
http://www.hotnewdeal.com/2017/07/11/196068_NETGEAR_ProSAFE_5Port_Fast_Ethernet_Switch_FS205/20%Monthly2017-07-11 05:39
http://www.hotnewdeal.com/2017/07/11/196066_Graco_Fastaction_Fold_Jogger_Click_Connect_Baby_Tr/20%Monthly2017-07-11 05:39
http://www.hotnewdeal.com/2017/07/11/196065_Great_Monitor_Deals/20%Monthly2017-07-11 05:33
http://www.hotnewdeal.com/2017/07/11/196063_Amazon_Prime_Day_Deal_Huawei_Mate_9_64gb_Unlocked_/20%Monthly2017-07-11 05:33
http://www.hotnewdeal.com/2017/07/11/196062_Amazon_Prime_07112017_Only_Schlage_ZWave_Conne/20%Monthly2017-07-11 05:32
http://www.hotnewdeal.com/2017/07/11/196061_Prime_Members_20_OFF_ALL_CHEMICAL_GUYS_PRODUCTS_/20%Monthly2017-07-11 05:32
http://www.hotnewdeal.com/2017/07/11/196059_PetSmart_Additional_20_Off_Hills_Science_Diet_D/20%Monthly2017-07-11 05:15
http://www.hotnewdeal.com/2017/07/11/196058_Corsair_Hydro_Series_H100i_v2_8499/20%Monthly2017-07-11 04:39
http://www.hotnewdeal.com/2017/07/11/196057_Prime_Members_Black__Decker_BDCD120VA_20V_Lithiu/20%Monthly2017-07-11 04:39
http://www.hotnewdeal.com/2017/07/11/196056_Prime_Members_Up_to_30_Off_Beauty__Grooming_Wa/20%Monthly2017-07-11 04:39
http://www.hotnewdeal.com/2017/07/11/196055_Xbox_One_S_Bundle_extra_controller_and_3_games_/20%Monthly2017-07-11 04:39
http://www.hotnewdeal.com/2017/07/11/196054_5999_Logitech__Harmony_Smart_Control__Black/20%Monthly2017-07-11 04:39
http://www.hotnewdeal.com/2017/07/11/196053_No_Stress_Chess_12/20%Monthly2017-07-11 04:39
http://www.hotnewdeal.com/2017/07/11/196052_Seagate_FireCuda_Gaming_SSHD_2TB_SATA_60Gbs_25/20%Monthly2017-07-11 04:19
http://www.hotnewdeal.com/2017/07/11/196051_Prime_Members_Game_of_Thrones_The_Complete_Seaso/20%Monthly2017-07-11 04:18
http://www.hotnewdeal.com/2017/07/11/196050_Prime_Members_8Quart_Instant_Pot_DUO80_1200W_7i/20%Monthly2017-07-11 04:18
http://www.hotnewdeal.com/2017/07/11/196049_Prime_Members_Anova_Sous_Vide_WifiBluetooth_Prec/20%Monthly2017-07-11 04:18
http://www.hotnewdeal.com/2017/07/11/196047_Amazon_Prime_Deal__Huggies_Snug__Dry_Diapers_Si/20%Monthly2017-07-11 04:14
http://www.hotnewdeal.com/2017/07/11/196046_JBL_Synchros_ReflectI_Sweatproof_Wired_Inear_Sp/20%Monthly2017-07-11 04:14
http://www.hotnewdeal.com/2017/07/11/196044_Refurbished_Laptop_Acer_Aspire_156_I5_7200U_8/20%Monthly2017-07-11 03:41
http://www.hotnewdeal.com/2017/07/11/196043_ARRIS_SURFboard_SB6183_DOCSIS_30_Cable_Modem_Ref/20%Monthly2017-07-11 03:41
http://www.hotnewdeal.com/2017/07/11/196042_Mountain_House_Just_In_Case_14Day_Emergency_Food_/20%Monthly2017-07-11 03:41
http://www.hotnewdeal.com/2017/07/11/196040_Prime_Day_Deal_64GB_Motorola_Moto_G5_Plus_Unlocke/20%Monthly2017-07-11 03:26
http://www.hotnewdeal.com/2017/07/11/196039_Frys_Email_Exclusive_Deals_Klipsch_RC62_II_65_/20%Monthly2017-07-11 03:26
http://www.hotnewdeal.com/2017/07/11/196038_Letv_13400_mAh_Dual_USB_Portable_External_Aluminu/20%Monthly2017-07-11 03:26
http://www.hotnewdeal.com/2017/07/11/196037_Prime_Members_16Pack_Philips_60W_Equivalent_A19_/20%Monthly2017-07-11 03:25
http://www.hotnewdeal.com/2017/07/11/196036_Dell_Inspiron_156_Touchscreen_Laptop_Intel_Core/20%Monthly2017-07-11 03:25
http://www.hotnewdeal.com/2017/07/11/196035_2017_Fiat_500e__Lease__79_per_month__tax__fee/20%Monthly2017-07-11 03:25
http://www.hotnewdeal.com/2017/07/11/196034_Bestbuycom_9999_Shark__Rotator_Bagless_Upright/20%Monthly2017-07-11 03:24
http://www.hotnewdeal.com/2017/07/11/196033_Prime_Members_Logitech_MK270_Wireless_Keyboard_an/20%Monthly2017-07-11 03:24
http://www.hotnewdeal.com/2017/07/11/196031_Amazon_Prime_Day_Deal__HighBack_Executive_Chair_/20%Monthly2017-07-11 03:23
http://www.hotnewdeal.com/2017/07/11/196030_IRIS_3_Drawer_Rolling_Cart_at_Walmart_1421_afte/20%Monthly2017-07-11 03:15
http://www.hotnewdeal.com/2017/07/11/196029_Bose_SoundLink_Mini_Bluetooth_Speaker_II_Carbon_o/20%Monthly2017-07-11 02:41
http://www.hotnewdeal.com/2017/07/11/196028_Samsung__55_Class_546_Diag__LED__2160p__/20%Monthly2017-07-11 02:41
http://www.hotnewdeal.com/2017/07/11/196027_Pepsi_Cola_1893_Ginger_Cola_12pk_and_other_flavor/20%Monthly2017-07-11 02:36
http://www.hotnewdeal.com/2017/07/11/196026_Passengers_4K_Ultra_HD__Bluray_3D__Bluray__D/20%Monthly2017-07-11 02:19
http://www.hotnewdeal.com/2017/07/11/196025_Star_Wars_The_Force_Awakens_Steelbook_Bluray_/20%Monthly2017-07-11 02:19
http://www.hotnewdeal.com/2017/07/11/196024_Epson_2045_Projector_549_at_Best_Buy/20%Monthly2017-07-11 02:19
http://www.hotnewdeal.com/2017/07/11/196023_AAA_batteries_100_ct_amazon_deal_of_the_day_1569/20%Monthly2017-07-11 02:19
http://www.hotnewdeal.com/2017/07/11/196022_Sonifresh_DiamondClean_Sonic_Replacement_Heads_For/20%Monthly2017-07-11 02:10
http://www.hotnewdeal.com/2017/07/11/196021_32GB_SanDisk_Ultra_Fit_USB_30_Flash_Drive_799_/20%Monthly2017-07-11 01:40
http://www.hotnewdeal.com/2017/07/11/196020_Ubisoft_Store_PC_Xbox_One_PS4_Game_Sale_Tom_Cla/20%Monthly2017-07-11 01:40
http://www.hotnewdeal.com/2017/07/11/196019_Apple_watch_Series_2nd_gen__70_off__bestbuy/20%Monthly2017-07-11 01:40
http://www.hotnewdeal.com/2017/07/11/196018_Bose_SoundLink_Mini_Bluetooth_Wireless_Speaker_II/20%Monthly2017-07-11 01:40
http://www.hotnewdeal.com/2017/07/11/196017_Prime_Day_Deal__Logitech_Bluetooth_Illuminated_Ke/20%Monthly2017-07-11 01:40
http://www.hotnewdeal.com/2017/07/11/196016_Prime_Members_24Pack_1115oz_San_Pellegrino_fro/20%Monthly2017-07-11 01:20
http://www.hotnewdeal.com/2017/07/11/196014_Dewalt_DCS331B_20V_MAX_Jigsaw_109/20%Monthly2017-07-11 01:19
http://www.hotnewdeal.com/2017/07/11/196013_Taste_of_the_Wild_GrainFree_Dry_Dog_Food_Only_Nat/20%Monthly2017-07-11 01:19
http://www.hotnewdeal.com/2017/07/11/196012_Soylent_Meal_Replacement_Drink_Cacao_Pack_of_12_/20%Monthly2017-07-11 01:19
http://www.hotnewdeal.com/2017/07/11/196011_Eddie_Bauer_Coupon_50_Off_Sitewide_36Oz_Stanley/20%Monthly2017-07-11 01:19
http://www.hotnewdeal.com/2017/07/11/196010_Prime_Day_Deal__Amazon_Tap__AlexaEnabled_Portab/20%Monthly2017-07-11 01:19
http://www.hotnewdeal.com/2017/07/11/196009_Prime_Members_ASUS_ZenBook_UX330UAAH54_133inch/20%Monthly2017-07-11 01:19
http://www.hotnewdeal.com/2017/07/11/196008_Prime_Members__Graco_Pack_n_Play_with_Reversible/20%Monthly2017-07-11 01:19
http://www.hotnewdeal.com/2017/07/11/196007_Amazon_Prime_Day_Deal_Linksys_MaxStream_AC4000_M/20%Monthly2017-07-11 01:19
http://www.hotnewdeal.com/2017/07/11/196006_Omron_10_Series_Blood_Pressure_Monitor_30_Off__/20%Monthly2017-07-11 01:19
http://www.hotnewdeal.com/2017/07/11/196005_VIZIO_D43NE1_43_1080p_HD_TV__150_Dell_eGift_Ca/20%Monthly2017-07-11 01:14
http://www.hotnewdeal.com/2017/07/11/196004_LEGO_Creator_Expert_10247_Ferris_Wheel_Building_Ki/20%Monthly2017-07-11 00:27
http://www.hotnewdeal.com/2017/07/11/196003_Amazon_Prime_Member_Huffy_Disney_Frozen_Bike_Fro/20%Monthly2017-07-11 00:27
http://www.hotnewdeal.com/2017/07/11/196002_Cottonelle_CleanCare_Family_Roll_Toilet_Paper_Bat/20%Monthly2017-07-11 00:27
http://www.hotnewdeal.com/2017/07/11/196001_Frys_Email_Exclusive_Deals_Samsung_Xpress_C480FW/20%Monthly2017-07-11 00:27
http://www.hotnewdeal.com/2017/07/11/196000_Frys_Email_Exclusive_Deals_Logitech_M325c_Wirele/20%Monthly2017-07-11 00:27
http://www.hotnewdeal.com/2017/07/11/195999_Prime_Day_20_off_60_Household_PurchaseAmazon_I/20%Monthly2017-07-11 00:27
http://www.hotnewdeal.com/2017/07/11/195998_Fit__Fresh_Insulated_Lunch_Bag_various_750_L/20%Monthly2017-07-11 00:27
http://www.hotnewdeal.com/2017/07/11/195997_Amazon_Prime_hot_wheels_ai_starter_kit_25/20%Monthly2017-07-11 00:14
http://www.hotnewdeal.com/2017/07/11/195996_Serta_Perfect_Sleeper_Pillows_2_for_8_4_each_/20%Monthly2017-07-11 00:14
http://www.hotnewdeal.com/2017/07/11/195995_Ring_Video_Doorbell_Pro_186_Amazon/20%Monthly2017-07-11 00:14
http://www.hotnewdeal.com/2017/07/11/195994_Prime_Members_Philips_Hue_White_and_Color_A19_LED_/20%Monthly2017-07-11 00:14
http://www.hotnewdeal.com/2017/07/11/195993_Prime_Day_TPLink_Archer_C9__7999/20%Monthly2017-07-11 00:13
http://www.hotnewdeal.com/2017/07/11/195992_Frys_Email_Exclusive_Deals_Intel_Core_i57600K_L/20%Monthly2017-07-11 00:13
http://www.hotnewdeal.com/2017/07/11/195990_Amazon_Warehouse_Deals_For_Prime_Members_Huawei_H/20%Monthly2017-07-11 00:13
http://www.hotnewdeal.com/2017/07/11/195989_Chemical_Guys_Buttery_Wet_Wax_1_gal_32_SS__Prim/20%Monthly2017-07-11 00:13
http://www.hotnewdeal.com/2017/07/11/195988_Mugig_Guitar_Cable_for_Bass__Keyboard_Instrument_/20%Monthly2017-07-11 00:13
http://www.hotnewdeal.com/2017/07/11/195987_KF_Concept_66_Lightweight_tripod_and_60_lightwe/20%Monthly2017-07-11 00:13
http://www.hotnewdeal.com/2017/07/11/195986_20615__Logitech_Z906_51_Surround_Sound_Speaker/20%Monthly2017-07-11 00:12
http://www.hotnewdeal.com/2017/07/11/195985_Prime_members_Bose_SoundLink_Bluetooth_Speaker_II/20%Monthly2017-07-11 00:12
http://www.hotnewdeal.com/2017/07/11/195984_iPhone_7_charger_cable__10_Pack___Amazon_Price/20%Monthly2017-07-11 00:12
http://www.hotnewdeal.com/2017/07/11/195983_Sony_PlayStation_4_DualShock_Wireless_Controller_/20%Monthly2017-07-11 00:12
http://www.hotnewdeal.com/2017/07/11/195982_Free_Slurpee_at_7Eleven_for_711_Day/20%Monthly2017-07-11 00:02
http://www.hotnewdeal.com/2017/07/10/195981_Oculus_Rift__Touch__7_Free_Games__Free_SH__Fr/20%Monthly2017-07-10 23:56
http://www.hotnewdeal.com/2017/07/10/195980_Emarth_Double_Edge_Safety_Razor__11__FSS_Silv/20%Monthly2017-07-10 23:45
http://www.hotnewdeal.com/2017/07/10/195979_NVIDIA_SHIELD_TV_Streaming_Media_Player_2017_Vers/20%Monthly2017-07-10 23:32
http://www.hotnewdeal.com/2017/07/10/195978_Acer_Chromebook_R_11_ConvertibleCB5132TC1LK_219/20%Monthly2017-07-10 23:32
http://www.hotnewdeal.com/2017/07/10/195977_Amazon_Prime_Day_Deal_TPLink_Smart_Plug_1999t/20%Monthly2017-07-10 23:25
http://www.hotnewdeal.com/2017/07/10/195976_Nvidia_shield_179_shipped_for_Amazon_prime/20%Monthly2017-07-10 23:25
http://www.hotnewdeal.com/2017/07/10/195975_YMMV_Purchase_a_qualifying_Samsung_TV_and_receive/20%Monthly2017-07-10 23:25
http://www.hotnewdeal.com/2017/07/10/195974_garmin_fenix_3_HR_for_38499_Amazon_prime_deal/20%Monthly2017-07-10 23:24
http://www.hotnewdeal.com/2017/07/10/195973_Bedtime_Originals_Choo_Choo_Express_Plush_Elephant/20%Monthly2017-07-10 23:24
http://www.hotnewdeal.com/2017/07/10/195972_LG_34UM60P_34Inch_IPS_WFHD_2560_x_1080_Ultrawi/20%Monthly2017-07-10 23:24
http://www.hotnewdeal.com/2017/07/10/195971_Yazer_Wool_Dryer_Balls__From_859__FSw_Amazon_/20%Monthly2017-07-10 23:17
http://www.hotnewdeal.com/2017/07/10/195970_Crest_3D_Luxe_Whitestrips_Professional_Effects_20_/20%Monthly2017-07-10 23:17
http://www.hotnewdeal.com/2017/07/10/195969_Oregon_Scientific_4_Zone_Multi_Room_Temperature_St/20%Monthly2017-07-10 23:05
http://www.hotnewdeal.com/2017/07/10/195968_Citizen_Mens_AT802003L_Blue_Angels_World_AT_Eco/20%Monthly2017-07-10 23:05
http://www.hotnewdeal.com/2017/07/10/195967_Microsoft_One_Day_Sale_Save_Up_to_50_Off__Free_/20%Monthly2017-07-10 23:05
http://www.hotnewdeal.com/2017/07/10/195966_Prime_day_deal_Rockland_Luggage_Melbourne_20_Inch/20%Monthly2017-07-10 22:59
http://www.hotnewdeal.com/2017/07/10/195965_Power_Strip_RAVPower_8Outlet_700_Joule_Surge_Prot/20%Monthly2017-07-10 22:59
http://www.hotnewdeal.com/2017/07/10/195964_Warehouse_Deals_Very_Good__Ninja_Coffee_Bar_Cof/20%Monthly2017-07-10 22:59
http://www.hotnewdeal.com/2017/07/10/195963_YI_4K_Sports_and_Action_Video_Camera_US_Edition_/20%Monthly2017-07-10 22:59
http://www.hotnewdeal.com/2017/07/10/195962_OxyLED_36_LED_Cabinet_LightStickon_Anywhere_2in/20%Monthly2017-07-10 22:59
http://www.hotnewdeal.com/2017/07/10/195961_GE_5_Burner_Electric_Slidein_Range_wConvection_/20%Monthly2017-07-10 22:59
http://www.hotnewdeal.com/2017/07/10/195960_Acer_Predator_Helios_300_Gaming_Laptop_Intel_Core/20%Monthly2017-07-10 22:50
http://www.hotnewdeal.com/2017/07/10/195959_Amazon_Prime_Day_Deal_14999_Philips_464479_Hue_/20%Monthly2017-07-10 22:50
http://www.hotnewdeal.com/2017/07/10/195958_20_Back_for_Amazon_Store_Card_Members_on_4000_I/20%Monthly2017-07-10 22:50
http://www.hotnewdeal.com/2017/07/10/195957_100_Chevron_Texaco_Gas_Gift_Card_For_94_ebay/20%Monthly2017-07-10 22:49
http://www.hotnewdeal.com/2017/07/10/195956_55_VIZIO_M55D0_4K_HDR_GoogleCast_Home_Theater_Di/20%Monthly2017-07-10 22:49
http://www.hotnewdeal.com/2017/07/10/195955_5_Hour_Energy_Drink__12_Pack_for_250__Berry__/20%Monthly2017-07-10 22:45
http://www.hotnewdeal.com/2017/07/10/195954_Amazon_Prime_Day_ARRIS_SURFboard_SB6183_DOCSIS_3/20%Monthly2017-07-10 22:44
http://www.hotnewdeal.com/2017/07/10/195953_Prime_Members_Sony_XB950B1_Extra_Bass_Wireless_He/20%Monthly2017-07-10 22:44
http://www.hotnewdeal.com/2017/07/10/195952_Acer_Predator_Helios_300_Gaming_Laptop_Intel_Core/20%Monthly2017-07-10 22:44
http://www.hotnewdeal.com/2017/07/10/195951_Amazon__blendtec_blender_230/20%Monthly2017-07-10 22:44
http://www.hotnewdeal.com/2017/07/10/195950_Coleman_Butane_Stove__1212_for_Prime_members_at/20%Monthly2017-07-10 22:43
http://www.hotnewdeal.com/2017/07/10/195949_FoodSaver_V3259_Vacuum_Sealer__4599__Free_Ship/20%Monthly2017-07-10 22:43
http://www.hotnewdeal.com/2017/07/10/195948_90_oz_Lysol_Laundry_Sanitizer_for_713_AC_on_firs/20%Monthly2017-07-10 22:43
http://www.hotnewdeal.com/2017/07/10/195947_Alexa_Deal_WaterWipes_Sensitive_Baby_Wipes_12_Pa/20%Monthly2017-07-10 22:43
http://www.hotnewdeal.com/2017/07/10/195946_PRIME_DEAL_Breville_BOV800XL_Smart_Oven_1800Watt/20%Monthly2017-07-10 22:23
http://www.hotnewdeal.com/2017/07/10/195945_Breville_BOV800XL_Smart_Oven_1800Watt_Convection_/20%Monthly2017-07-10 22:23
http://www.hotnewdeal.com/2017/07/10/195944_Prime_Day_Samsung_S8_unlocked__2017_Gear_VR_w_co/20%Monthly2017-07-10 22:23
http://www.hotnewdeal.com/2017/07/10/195942_Women_Mother_Pearl_Dress_Watches_Music_Note_Diamon/20%Monthly2017-07-10 22:22
http://www.hotnewdeal.com/2017/07/10/195941_Prime_Day_Deal__Fire_HD_8_Kids_Edition_Tablet_8i/20%Monthly2017-07-10 22:12
http://www.hotnewdeal.com/2017/07/10/195940_Zinus_Memory_Green_Mattress__Queen_Size__132/20%Monthly2017-07-10 22:01
http://www.hotnewdeal.com/2017/07/10/195938_Prime_Day_23andMe_Health_AND_Ancestry_DNA_Kit_99/20%Monthly2017-07-10 22:01
http://www.hotnewdeal.com/2017/07/10/195937_NETGEAR_Nighthawk_AC1750_Smart_Dual_Band_WiFi_Rout/20%Monthly2017-07-10 22:00
http://www.hotnewdeal.com/2017/07/10/195936_Amazon_Prime_Deal__Huggies_Snug__Dry_Diapers_Si/20%Monthly2017-07-10 22:00
http://www.hotnewdeal.com/2017/07/10/195933_Prime_Members_Acer_Aspire_E_156_Laptop_1080p_D/20%Monthly2017-07-10 22:00
http://www.hotnewdeal.com/2017/07/10/195931_Prime_Members_Exploding_Kittens_Regular_or_NSFW_/20%Monthly2017-07-10 22:00
http://www.hotnewdeal.com/2017/07/10/195930_Prime_Day_Deal_with_Alexa_Device__Philips_Hue_Go_/20%Monthly2017-07-10 22:00
http://www.hotnewdeal.com/2017/07/10/195929_Prime_Members_Digital_HD_Movies_to_Own_Hell_or_H/20%Monthly2017-07-10 22:00
http://www.hotnewdeal.com/2017/07/10/195928_Womens_Nike_Roshe_Two_Shoes_Black_4050_or_Lower/20%Monthly2017-07-10 22:00
http://www.hotnewdeal.com/2017/07/10/195926_Foldable_Wireless_Bluetooth_Headphones_Sports_Nec/20%Monthly2017-07-10 21:47
http://www.hotnewdeal.com/2017/07/10/195925_Packable_Lightweight_Hiking_Daypack_Various_Color/20%Monthly2017-07-10 21:31
http://www.hotnewdeal.com/2017/07/10/195924_Greenworks_24012_7_Amp_Single_Speed_Electric_160_M/20%Monthly2017-07-10 21:23
http://www.hotnewdeal.com/2017/07/10/195923_Thorfire_Flashlight_60_Off_TA13_8TS07_Keychain/20%Monthly2017-07-10 21:06
http://www.hotnewdeal.com/2017/07/10/195922_PNY_Technologies_GeForce_GTX_1080__Graphics_card_/20%Monthly2017-07-10 21:06
http://www.hotnewdeal.com/2017/07/10/195921_Kindle_Fire_HD_8_Black__40_using_Alexa_after_di/20%Monthly2017-07-10 20:54
http://www.hotnewdeal.com/2017/07/10/195920_Samsung_U28E590D_28Inch_UHD_4K_1ms_Monitor_Prime_/20%Monthly2017-07-10 20:54
http://www.hotnewdeal.com/2017/07/10/195919_Sur_La_Table_up_to_75_Off_Lime_Day_Specials_Trop/20%Monthly2017-07-10 20:47
http://www.hotnewdeal.com/2017/07/10/195918_Prime_w_Alexa_Deals_Dash_Buttons_for_099_each_/20%Monthly2017-07-10 20:37
http://www.hotnewdeal.com/2017/07/10/195917_Prime_Day_Deal_with_Alexa_Device__Fire_HD_8__8in/20%Monthly2017-07-10 20:37
http://www.hotnewdeal.com/2017/07/10/195916_must_buy_2_Visonic_MCT340_E_Window__Door_Sens/20%Monthly2017-07-10 20:37
http://www.hotnewdeal.com/2017/07/10/195915_Straight_Talk_Coupon_Extra_15_Off_Phone__Airtim/20%Monthly2017-07-10 20:37
http://www.hotnewdeal.com/2017/07/10/195914_Amazon_echo_8999__echo_dot_3499_order_by_alex/20%Monthly2017-07-10 20:09
http://www.hotnewdeal.com/2017/07/10/195913_Mpow_Bluetooth_Headphones_Over_Ear_HiFi_Stereo_W/20%Monthly2017-07-10 20:09
http://www.hotnewdeal.com/2017/07/10/195912_Splatoon_2_Nintendo_Switch_back_at_Amazon_save_20/20%Monthly2017-07-10 20:09
http://www.hotnewdeal.com/2017/07/10/195911_Prime_members__Alexa_10_Amazon_credit__Tap_for/20%Monthly2017-07-10 19:56
http://www.hotnewdeal.com/2017/07/10/195910_Titan_Fitness_86_Barbell_Solid_2_Bar_Bench_Press/20%Monthly2017-07-10 19:56
http://www.hotnewdeal.com/2017/07/10/195908_Addon_Item_9Piece_Stanley_PTST03939_Whole_Room_/20%Monthly2017-07-10 19:34
http://www.hotnewdeal.com/2017/07/10/195907_30_OFF_Reynolds_Wrap_Aluminum_Foil_200_Square_Fo/20%Monthly2017-07-10 19:34
http://www.hotnewdeal.com/2017/07/10/195906_Solar_Eclipse_Viewing_Glasses_5Pack__399__F/20%Monthly2017-07-10 19:04
http://www.hotnewdeal.com/2017/07/10/195905_Syntha_6_Protien_Shake_20_OFF/20%Monthly2017-07-10 19:04
http://www.hotnewdeal.com/2017/07/10/195904_Prime_Day_Deal__Amazon_Echo__8999__Starts_at_/20%Monthly2017-07-10 18:58
http://www.hotnewdeal.com/2017/07/10/195903_300_off_Razer_Blade_Stealth_Ultrabook__4K_125_/20%Monthly2017-07-10 18:48
http://www.hotnewdeal.com/2017/07/10/195902_Fender_Limited_Edition_120V_68_Custom_Deluxe_Reve/20%Monthly2017-07-10 18:48
http://www.hotnewdeal.com/2017/07/10/195901_Samsung_Fast_Charge_Wireless_Charging_Stand__Fast/20%Monthly2017-07-10 18:48
http://www.hotnewdeal.com/2017/07/10/195900_Black__Decker_DB1002B_DoubleBurner_Portable_Buff/20%Monthly2017-07-10 18:48
http://www.hotnewdeal.com/2017/07/10/195899_Prime_Members_KIND_Bars_Blueberry_Pecan__Fiber_/20%Monthly2017-07-10 18:48
http://www.hotnewdeal.com/2017/07/10/195898_OralB_White_Pro_1000_Power_Rechargeable_Toothbrus/20%Monthly2017-07-10 18:48
http://www.hotnewdeal.com/2017/07/10/195897_2_Pack_35mm_to_35mm_Auxiliary_Music_Cables_247/20%Monthly2017-07-10 18:29
http://www.hotnewdeal.com/2017/07/10/195896_Harman_Kardon_Aura_Plus_or_Go__Play_Mini_Bluetoot/20%Monthly2017-07-10 18:29
http://www.hotnewdeal.com/2017/07/10/195895_Final_Fantasy_XIV_A_Realm_Reborn_PC_or_Fallout_/20%Monthly2017-07-10 18:22
http://www.hotnewdeal.com/2017/07/10/195894_Inateck_Protection_Case_for_Amazon_Kindle_Paperwhi/20%Monthly2017-07-10 18:09
http://www.hotnewdeal.com/2017/07/10/195893_Tonka_Classic_Steel_Mighty_Dump_Truck_Vehicle__Am/20%Monthly2017-07-10 18:00
http://www.hotnewdeal.com/2017/07/10/195892_KitchenAid__Professional_500_Series_Stand_Mixer_f/20%Monthly2017-07-10 17:45
http://www.hotnewdeal.com/2017/07/10/195891_MSI_GS63VR_Stealth_Pro422_156_Gaming_Laptop_i7/20%Monthly2017-07-10 17:30
http://www.hotnewdeal.com/2017/07/10/195890_Optimum_Nutrition_Gold_Standard_100_Whey_Protein_/20%Monthly2017-07-10 17:30
http://www.hotnewdeal.com/2017/07/10/195889_4Pack_Master_Lock_4701DCOM_No_1_Laminated_Steel/20%Monthly2017-07-10 17:30
http://www.hotnewdeal.com/2017/07/10/195888_Brainwavz_Replacement_Memory_Foam_Earpads_For_Larg/20%Monthly2017-07-10 17:30
http://www.hotnewdeal.com/2017/07/10/195887_Anker_PowerCore_26800_Portable_Charger_4199/20%Monthly2017-07-10 17:24
http://www.hotnewdeal.com/2017/07/10/195886_1699_Craftsman_12_in_Drive_Flex_Head_Quick_Rel/20%Monthly2017-07-10 17:09
http://www.hotnewdeal.com/2017/07/10/195885_Extreme_X_Gaming_Rocker_2000__ship_walmartcom/20%Monthly2017-07-10 17:07
http://www.hotnewdeal.com/2017/07/10/195884_Huffy_26_Panama_Jack_Womens_Cruiser_Bike_Pink/20%Monthly2017-07-10 17:05
http://www.hotnewdeal.com/2017/07/10/195883_Dell_Inspiron_15_5000__FX9800p_wR7_AMD_GPU_108/20%Monthly2017-07-10 17:05
http://www.hotnewdeal.com/2017/07/10/195882_The_Childrens_Place_All_Basic_Jeans_699_Girl_B/20%Monthly2017-07-10 17:05
http://www.hotnewdeal.com/2017/07/10/195881_Yamaha_RXV683_72Ch_Receiver__Klipsch_R26F_pa/20%Monthly2017-07-10 17:05
http://www.hotnewdeal.com/2017/07/10/195880_Dell__Inspiron_156_Laptop__Intel_Core_i3__6GB/20%Monthly2017-07-10 17:05
http://www.hotnewdeal.com/2017/07/10/195879_Rolgear_15_in_1_Multi_bit_SILENT_Ratchet_Screwdriv/20%Monthly2017-07-10 17:05
http://www.hotnewdeal.com/2017/07/10/195878_Primos_Bullet_Proof_HD_Game_Cam__66_Off/20%Monthly2017-07-10 17:05
http://www.hotnewdeal.com/2017/07/10/195877_12MP_1080p_Night_Vision_Wildlife_Camera_for_52AC_/20%Monthly2017-07-10 17:05
http://www.hotnewdeal.com/2017/07/10/195876_amily_Tree_DNA_Genetic_Ancestry_Test_Kit__Worlds_/20%Monthly2017-07-10 17:04
http://www.hotnewdeal.com/2017/07/10/195875_Vudu_MixandMatch_2_select_films_for_999/20%Monthly2017-07-10 16:55
http://www.hotnewdeal.com/2017/07/10/195874_Logitech__Harmony_Smart_Control__Black_5999__/20%Monthly2017-07-10 16:43
http://www.hotnewdeal.com/2017/07/10/195873_Airport_Parking__The_Parking_Spot_at_George_Bush_/20%Monthly2017-07-10 16:43
http://www.hotnewdeal.com/2017/07/10/195872_MyProtein_Casein_Protein_11lb__29__More/20%Monthly2017-07-10 16:43
http://www.hotnewdeal.com/2017/07/10/195871_DualShock_4_Wireless_Controller_for_PlayStation_4_/20%Monthly2017-07-10 16:36
http://www.hotnewdeal.com/2017/07/10/195870_Bluetooth_FM_Transmitter_Wireless_InCar_FM_Adapt/20%Monthly2017-07-10 16:36
http://www.hotnewdeal.com/2017/07/10/195868_IN_STORE_ONLY_51_Pc_SAE__Metric_Socket_Set_399/20%Monthly2017-07-10 16:24
http://www.hotnewdeal.com/2017/07/10/195867_Oculus_Rift__Touch_Bundle_399__Neweggcom/20%Monthly2017-07-10 16:02
http://www.hotnewdeal.com/2017/07/10/195866_Segway_miniPRO_Smart_Self_Balancing_Personal_Trans/20%Monthly2017-07-10 15:54
http://www.hotnewdeal.com/2017/07/10/195865_Prime_Members_Survivor_HK106320_Series_Fixed_Bla/20%Monthly2017-07-10 15:54
http://www.hotnewdeal.com/2017/07/10/195864_3199__iphone_7_battery_case/20%Monthly2017-07-10 15:54
http://www.hotnewdeal.com/2017/07/10/195863_Tronsmart_Presto_10400mAh_USBCTypeC_External_Ba/20%Monthly2017-07-10 15:54
http://www.hotnewdeal.com/2017/07/10/195862_People__6_Months_20_Issues_for_1999_or_1_Year/20%Monthly2017-07-10 15:53
http://www.hotnewdeal.com/2017/07/10/195861_TCL_43_1080p_Roku_LED_LCD_TV__19999/20%Monthly2017-07-10 15:53
http://www.hotnewdeal.com/2017/07/10/195860_OralB_Genius_Pro_8000_Electric_Toothbrush_with_Bl/20%Monthly2017-07-10 15:53
http://www.hotnewdeal.com/2017/07/10/195859_6Pack_of_4ft_SHINE_HAI_T8_LED_Tube_Light_4000K_/20%Monthly2017-07-10 15:53
http://www.hotnewdeal.com/2017/07/10/195858_Twenty_pounds_of_Merrick_Backcountry_Dog_Food_for_/20%Monthly2017-07-10 15:53
http://www.hotnewdeal.com/2017/07/10/195856_Samsung_Level_U_Pro_Wireless_InEar_Headphones_Bl/20%Monthly2017-07-10 15:35
http://www.hotnewdeal.com/2017/07/10/195855_Duck_Brand_240867_MAX_Strength_Duct_Tape_188_Inc/20%Monthly2017-07-10 15:30
http://www.hotnewdeal.com/2017/07/10/195854_Stork_Craft_Hoop_Glider_and_Ottoman_WhiteDenim_/20%Monthly2017-07-10 15:30
http://www.hotnewdeal.com/2017/07/10/195853_Amazon_Warehouse_Deals_Breaking_Bad_The_Complete/20%Monthly2017-07-10 15:30
http://www.hotnewdeal.com/2017/07/10/195852_Harman_Kardon_Adapt_HD_Audio_Wireless_Adaptor_with/20%Monthly2017-07-10 15:29
http://www.hotnewdeal.com/2017/07/10/195851_Yokohama_AVID_Ascend_94V_Tire_P21560R16__5580/20%Monthly2017-07-10 15:29
http://www.hotnewdeal.com/2017/07/10/195850_Palmolive_Dish_Soap_Crisp_Orchard_Burst__28_flui/20%Monthly2017-07-10 15:24
http://www.hotnewdeal.com/2017/07/10/195849_Costcocom__Bose_SoundLink_Mini_Bluetooth_Speaker/20%Monthly2017-07-10 15:24
http://www.hotnewdeal.com/2017/07/10/195848_Apple_Watch_Band_Milanese_Loop_with_Unique_Magnet/20%Monthly2017-07-10 15:24
http://www.hotnewdeal.com/2017/07/10/195847_77mm_B__W_102_06_4x_Neutral_Density_Glass_Fil/20%Monthly2017-07-10 15:23
http://www.hotnewdeal.com/2017/07/10/195846_Danby_ArticAire_70_Pint_Energy_Star_Dehumidifier_/20%Monthly2017-07-10 15:23
http://www.hotnewdeal.com/2017/07/10/195845_YETI_Rambler_10oz_Lowball_or_18oz_Bottle_for_129/20%Monthly2017-07-10 15:06
http://www.hotnewdeal.com/2017/07/10/195844_Amazon_Books_Purchases_5_off_15/20%Monthly2017-07-10 15:06
http://www.hotnewdeal.com/2017/07/10/195843_OXO_5Pc_POP_Container_Set_35/20%Monthly2017-07-10 15:06
http://www.hotnewdeal.com/2017/07/10/195842_Ashley_Furniture_Mestler_Coffee_Table_Prime_Only_/20%Monthly2017-07-10 15:06
http://www.hotnewdeal.com/2017/07/10/195841_Price_Mistake_19_Oz_Gunk_GC1_Streak_Free_Glass_/20%Monthly2017-07-10 14:47
http://www.hotnewdeal.com/2017/07/10/195840_Vudu_10_off_purchase_or_rental/20%Monthly2017-07-10 14:47
http://www.hotnewdeal.com/2017/07/10/195839_Shun_Classic_Chefs_Knife_8_inch_model_DMO706_99/20%Monthly2017-07-10 14:47
http://www.hotnewdeal.com/2017/07/10/195838_Shine_Hai_Nintendo_Switch_Hard_Carrying_Case_w_10/20%Monthly2017-07-10 14:47
http://www.hotnewdeal.com/2017/07/10/195837_New_Xbox_One_S_500GB_Console__Minecraft_Favorites/20%Monthly2017-07-10 14:47
http://www.hotnewdeal.com/2017/07/10/195836_JBL_Extreme_Bluetooth_speaker_after_Frys_promo_co/20%Monthly2017-07-10 14:40
http://www.hotnewdeal.com/2017/07/10/195835_Slickdeals_Dell_Home_Tiered_Rebate_50_Off_2999/20%Monthly2017-07-10 14:29
http://www.hotnewdeal.com/2017/07/10/195834_Anker_Early_Prime_Day_Deals_Micro_USB_Braided_Cab/20%Monthly2017-07-10 14:29
http://www.hotnewdeal.com/2017/07/10/195833_Verizon_Smart_Rewards_Members_10_Verizon_Wireles/20%Monthly2017-07-10 14:15
http://www.hotnewdeal.com/2017/07/10/195832_Quest_Protein_Bars__10_for_10__MEIJER_INSTORE/20%Monthly2017-07-10 14:15
http://www.hotnewdeal.com/2017/07/10/195831_Alienware_Aurora_Desktop_i77700_16GB_DDR4_GTX_/20%Monthly2017-07-10 14:15
http://www.hotnewdeal.com/2017/07/10/195830_Myprotein_60_off__11lb_20_x_55lb_5440/20%Monthly2017-07-10 14:15
http://www.hotnewdeal.com/2017/07/10/195829_Black_Mobile_Computer_Desk_Portable__Adjustable_L/20%Monthly2017-07-10 14:14
http://www.hotnewdeal.com/2017/07/10/195827_Robert_L_Forward_Dragons_Egg_Del_Rey_Impact_K/20%Monthly2017-07-10 14:14
http://www.hotnewdeal.com/2017/07/10/195826_Rosewill_HIMARS_Windowed_ATX_Mid_Tower_Gaming_Case/20%Monthly2017-07-10 14:00
http://www.hotnewdeal.com/2017/07/10/195825_Amazon_Prime_Day_3rd_Party_Gift_Card_Lightning_Dea/20%Monthly2017-07-10 13:50
http://www.hotnewdeal.com/2017/07/10/195823_Microsoft_Surface_Pro_4_i5_6300U4_GB_Memory_128_/20%Monthly2017-07-10 13:50
http://www.hotnewdeal.com/2017/07/10/195822_iPhone_Case_Slim_AntiScratch_Rugged_Case_Nonsli/20%Monthly2017-07-10 13:50
http://www.hotnewdeal.com/2017/07/10/195821_Home_Design_Mattress_Pads_Queen_King_Cal_King_/20%Monthly2017-07-10 13:50
http://www.hotnewdeal.com/2017/07/10/195820_Dorco_USA_Mens_Pace_6_Plus_Combo_Set_1_Handle_/20%Monthly2017-07-10 13:50
http://www.hotnewdeal.com/2017/07/10/195819_Nike_Mens_Kaishi_20_SE_Shoes_red_36__free_sh/20%Monthly2017-07-10 13:50
http://www.hotnewdeal.com/2017/07/10/195818_Sears__Craftsman_214_ton_Floor_Jack__2999_Fr/20%Monthly2017-07-10 13:50
http://www.hotnewdeal.com/2017/07/10/195817_Rubbermaid_Modular_Cereal_Keeper_Container_22_Cup/20%Monthly2017-07-10 13:49
http://www.hotnewdeal.com/2017/07/10/195816_Amex_offers__Five_Guys_spend_25_and_get_5_back/20%Monthly2017-07-10 13:49
http://www.hotnewdeal.com/2017/07/10/195815_JetBeam_JetII_MK_small_510_lumen_flashlight_at_Ge/20%Monthly2017-07-10 13:43
http://www.hotnewdeal.com/2017/07/10/195814_29999__FS_Insignia__43_Class_425_Diag_/20%Monthly2017-07-10 13:15
http://www.hotnewdeal.com/2017/07/10/195813_Dell_XPS_8910_Desktop_i76700_8GB_DDR4_1TB_HDD/20%Monthly2017-07-10 13:07
http://www.hotnewdeal.com/2017/07/10/195812_Dell_U3415W_Black_34_ultrawide_59999_Adorama_Ca/20%Monthly2017-07-10 13:06
http://www.hotnewdeal.com/2017/07/10/195811_Gumout_One_and_Done_Free_after_online_rebate_19/20%Monthly2017-07-10 13:06
http://www.hotnewdeal.com/2017/07/10/195810_CyberPower_850VA_510W_10Outlet_AVR_LCD_UPS_Mini_T/20%Monthly2017-07-10 13:05
http://www.hotnewdeal.com/2017/07/10/195809_Nike_Flyknit_Racers_for_90__7_Shipping__Tax_at/20%Monthly2017-07-10 13:05
http://www.hotnewdeal.com/2017/07/10/195808_AVAILABLE_Nintendo_Switch_Yellow_Joy_Cons_for_79/20%Monthly2017-07-10 12:59
http://www.hotnewdeal.com/2017/07/10/195807_Walmartcom_Set_of_4_Cooper_CS5_Ultra_Touring_All_/20%Monthly2017-07-10 12:59
http://www.hotnewdeal.com/2017/07/10/195806_Otium_Bluetooth_Headphones_On_Ear_w_Builtin_Mic_/20%Monthly2017-07-10 12:58
http://www.hotnewdeal.com/2017/07/10/195805_YYMV__Kenmore_Elite_65_4K_LED__37997_at_Sears/20%Monthly2017-07-10 12:58
http://www.hotnewdeal.com/2017/07/10/195803_50_Sony_PSN_Card_for_44_50_Nintendo_card_for_/20%Monthly2017-07-10 12:58
http://www.hotnewdeal.com/2017/07/10/195800_Starbucks_Doubleshot_Espresso__Cream_Light_65_/20%Monthly2017-07-10 12:39
http://www.hotnewdeal.com/2017/07/10/195799_BV_Bicycle_Panniers_with_Adjustable_Hooks_and_Carr/20%Monthly2017-07-10 12:39
http://www.hotnewdeal.com/2017/07/10/195798_4Pack_Snowkids_USB_Type_C_to_microUSB_Adapter_5/20%Monthly2017-07-10 12:31
http://www.hotnewdeal.com/2017/07/10/195797_Heads_up_Macys_Home_Pop_Up_Sale_Today_12pm4pm_E/20%Monthly2017-07-10 12:31
http://www.hotnewdeal.com/2017/07/10/195796_Sealy_Optimum_Posturepedic_Inspiration_Gold_Plush_/20%Monthly2017-07-10 12:31
http://www.hotnewdeal.com/2017/07/10/195795_PowerBlock_Sport_24_Pound_Dumbbell_Set__12799_w/20%Monthly2017-07-10 12:30
http://www.hotnewdeal.com/2017/07/10/195794_Aromatherapy_Essential_Oil_Humidifier_7_Color_Chan/20%Monthly2017-07-10 12:30
http://www.hotnewdeal.com/2017/07/10/195793_Dell__S2318HN_23_inch_IPS_LED_FHD_Monitor__Black/20%Monthly2017-07-10 12:30
http://www.hotnewdeal.com/2017/07/10/195791_Xbox_Wireless_Controller_w_35mm__Bluetooth_Bla/20%Monthly2017-07-10 12:02
http://www.hotnewdeal.com/2017/07/10/195790_Prime_Day_Deal__Fire_7_with_Alexa__7__8_GB_wS/20%Monthly2017-07-10 11:57
http://www.hotnewdeal.com/2017/07/10/195788_Amex_Offer_Boston_Market_5_Statement_Credit_Whe/20%Monthly2017-07-10 11:57
http://www.hotnewdeal.com/2017/07/10/195787_Classic_Accessories_Veranda_Barbecue_Grill_Cover_/20%Monthly2017-07-10 11:43
http://www.hotnewdeal.com/2017/07/10/195785_ELEPHAS_1500_Lumens_LED_Video_Home_Projector_Suppo/20%Monthly2017-07-10 11:30
http://www.hotnewdeal.com/2017/07/10/195784_DJI_Osmo_Mobile_Silver__Handheld_Stabilized_Gimba/20%Monthly2017-07-10 11:30
http://www.hotnewdeal.com/2017/07/10/195783_AllClad_TriPly_Stainless_Steel_7Piece_Cookware_/20%Monthly2017-07-10 11:24
http://www.hotnewdeal.com/2017/07/10/195782_Bluetooth_FM_Transmitter_for_Car_w_2x_USB_ports_/20%Monthly2017-07-10 11:24
http://www.hotnewdeal.com/2017/07/10/195781_Ultrasonic_Room_Humidifier_with_Adjustable_Time_M/20%Monthly2017-07-10 11:24
http://www.hotnewdeal.com/2017/07/10/195780_YI_4k_w_waterproof_case__280_Reg_339__YI_/20%Monthly2017-07-10 11:17
http://www.hotnewdeal.com/2017/07/10/195779_Merrell_Flash_Sale_Mens_Cedrus_Convertible_Sanda/20%Monthly2017-07-10 11:17
http://www.hotnewdeal.com/2017/07/10/195778_Ziploc_Slider_Storage_Bags_Gallon_Size_96_Count_/20%Monthly2017-07-10 10:56
http://www.hotnewdeal.com/2017/07/10/195777_CVS_30_off_sitewide__free_shipping_no_minumum/20%Monthly2017-07-10 10:56
http://www.hotnewdeal.com/2017/07/10/195776_Craftsman_6in1_Screwdriver_499_at_sears/20%Monthly2017-07-10 10:56
http://www.hotnewdeal.com/2017/07/10/195775_Lowes_Roomba_860_Vacuum_360_or_324_free_inst/20%Monthly2017-07-10 10:56
http://www.hotnewdeal.com/2017/07/10/195774_999_Craftsman_18_in_12in_Drive_Flex_Handle/20%Monthly2017-07-10 10:41
http://www.hotnewdeal.com/2017/07/10/195773_Buy_any_Kindle_book_get_40_back_towards_your_nex/20%Monthly2017-07-10 10:33
http://www.hotnewdeal.com/2017/07/10/195772_AMC_Classic_Theaters_1_Hot_Dogs_All_Summer/20%Monthly2017-07-10 10:09
http://www.hotnewdeal.com/2017/07/10/195771_Davis__Sanford_36_Traverse_Carbon_Fiber_Grounder/20%Monthly2017-07-10 10:09
http://www.hotnewdeal.com/2017/07/10/195770_Lego_Star_Wars_Tie_Striker__75154__3999__Amaz/20%Monthly2017-07-10 10:03
http://www.hotnewdeal.com/2017/07/10/195769_Dunkin_Donuts_Get_a_free_any_size_beverage_when_o/20%Monthly2017-07-10 10:02
http://www.hotnewdeal.com/2017/07/10/195768_Transformers_The_Movie_Limited_Edition_30th_Anni/20%Monthly2017-07-10 10:02
http://www.hotnewdeal.com/2017/07/10/195766_mophie_Juice_Pack_Helium_for_iPhone_55S5se_150/20%Monthly2017-07-10 10:01
http://www.hotnewdeal.com/2017/07/10/195765_Moscow_mule_fans_Fever_Tree_Ginger_Beer_or_Light_/20%Monthly2017-07-10 10:01
http://www.hotnewdeal.com/2017/07/10/195764_Prime_Exclusive_AmazonBasics_Big__Tall_Executive/20%Monthly2017-07-10 10:01
http://www.hotnewdeal.com/2017/07/10/195763_Insulated_Cooler_Lunch_Tote_Bag_for_360_AC/20%Monthly2017-07-10 10:00
http://www.hotnewdeal.com/2017/07/10/195761_Mpow_Seashell_V41_Bluetooth_Headphones_1199FS_/20%Monthly2017-07-10 09:47
http://www.hotnewdeal.com/2017/07/10/195760_GoNovate_G8_Bluetooth_Earbud_w_6H_Playtime__11/20%Monthly2017-07-10 09:26
http://www.hotnewdeal.com/2017/07/10/195759_GAP_40_off_with_code_HAPPY/20%Monthly2017-07-10 09:11
http://www.hotnewdeal.com/2017/07/10/195758_GameStop_Select_4_PreOwned_Video_Games_Titles_V/20%Monthly2017-07-10 08:59
http://www.hotnewdeal.com/2017/07/10/195757_APC_BN700MC_BackUPS_700_VA_8Outlet_Uninterruptib/20%Monthly2017-07-10 08:59
http://www.hotnewdeal.com/2017/07/10/195756_Prime_Day_Deal__New_Element_55inch_4K_Ultra_HD_s/20%Monthly2017-07-10 08:38
http://www.hotnewdeal.com/2017/07/10/195755_Amazon_Echo_Dot__3499__Amazoncom__Starts_at_/20%Monthly2017-07-10 08:37
http://www.hotnewdeal.com/2017/07/10/195754_Kaspersky_Internet_Security_2017__3_Device_Key_C/20%Monthly2017-07-10 08:37
http://www.hotnewdeal.com/2017/07/10/195751_Ematic_HDTV_Outdoor_Antenna_w_150Mile_Range_24/20%Monthly2017-07-10 07:40
http://www.hotnewdeal.com/2017/07/10/195750_100Count_of_16oz_Hefty_Assorted_Colors_Party_Cups/20%Monthly2017-07-10 07:40
http://www.hotnewdeal.com/2017/07/10/195749_24Pack_of_8oz_V8_Energy_Drinks_955_or_less_w/20%Monthly2017-07-10 07:18
http://www.hotnewdeal.com/2017/07/10/195748_Oculus_Rift_and_Touch_Controllers_Bundle_w_EVE_/20%Monthly2017-07-10 07:17
http://www.hotnewdeal.com/2017/07/10/195747_Yubico_PrimeDay_50_off_YubiKey_4_4_Nano_NEO_2/20%Monthly2017-07-10 07:17
http://www.hotnewdeal.com/2017/07/10/195746_Amazon_Alexa_Deal__Get_10_Credit_when_you_order_/20%Monthly2017-07-10 06:13
http://www.hotnewdeal.com/2017/07/10/195745_3Pack_of_80Count_Lysol_Disinfecting_Wipes_Lemon/20%Monthly2017-07-10 06:13
http://www.hotnewdeal.com/2017/07/10/195744_Insignia_36A_USB_Charger_Wall_Outlet_White_16/20%Monthly2017-07-10 06:13
http://www.hotnewdeal.com/2017/07/10/195743_Prime_Members_Zinus_12_Memory_Foam_Green_Tea_Mat/20%Monthly2017-07-10 05:13
http://www.hotnewdeal.com/2017/07/10/195742_Klipsch_R15M_Bookshelf_Pair__125/20%Monthly2017-07-10 05:07
http://www.hotnewdeal.com/2017/07/10/195741_Lowescom_My_Lowes_members_get_10_off_site_wide_/20%Monthly2017-07-10 04:33
http://www.hotnewdeal.com/2017/07/10/195740_BLACKDECKER_4Slice_Toaster_Oven_Stainless_Steel/20%Monthly2017-07-10 04:28
http://www.hotnewdeal.com/2017/07/10/195738_Oculus_Rift_with_Touch_Controllers_Bundle_399__M/20%Monthly2017-07-10 04:13
http://www.hotnewdeal.com/2017/07/10/195736_Amazon_Lightning_Deal_Watch_Dogs_2_PS4_or_Xbox_O/20%Monthly2017-07-10 04:13
http://www.hotnewdeal.com/2017/07/10/195735_HP_8300_Elite_Desktop__i5_3rd_gen__8GB_RAM__500/20%Monthly2017-07-10 04:08
http://www.hotnewdeal.com/2017/07/10/195734_AAFES_Sony_Premium_Noise_Cancelling_Bluetooth_He/20%Monthly2017-07-10 04:07
http://www.hotnewdeal.com/2017/07/10/195732_Otterbox_Defender_for_Galaxy_S8_2630_Galaxy_S8/20%Monthly2017-07-10 03:31
http://www.hotnewdeal.com/2017/07/10/195731_Air_Hogs__Star_Wars_Remote_Control_Millennium_Fal/20%Monthly2017-07-10 03:13
http://www.hotnewdeal.com/2017/07/10/195730_15Pound_MiracleGro_Tomato_Plant_Food_397__FS/20%Monthly2017-07-10 02:33
http://www.hotnewdeal.com/2017/07/10/195729_Amazoncom_18count_Clif_Bloks_Energy_Chews_wcaf/20%Monthly2017-07-10 02:33
http://www.hotnewdeal.com/2017/07/10/195728_Perky_Jerky_22_ounce_bags_x_8__27_17_w_sampl/20%Monthly2017-07-10 02:13
http://www.hotnewdeal.com/2017/07/10/195727_6531_Logitech_Z506_51_Channel_Surround_Sound_Sp/20%Monthly2017-07-10 02:13
http://www.hotnewdeal.com/2017/07/10/195726_iPad_Air_2iPad_Pro_97_Inch_Keyboard_Cover_1650/20%Monthly2017-07-10 02:13
http://www.hotnewdeal.com/2017/07/10/195725_6999__FS_Dell_E515dw_Mono_Laser_Printer/20%Monthly2017-07-10 02:08
http://www.hotnewdeal.com/2017/07/10/195724_Crayola_Adult_Coloring_40Ct_Fine_Line_Markers_Gr/20%Monthly2017-07-10 01:34
http://www.hotnewdeal.com/2017/07/10/195723_Crayola_Finding_Dory_Art_Kit_Buy_1_Get_1_Free_99/20%Monthly2017-07-10 01:33
http://www.hotnewdeal.com/2017/07/10/195722_Channellock_369_95_Linemans_HiLeverage_Pliers_/20%Monthly2017-07-10 01:14
http://www.hotnewdeal.com/2017/07/10/195721_Vangogo_180_degree_Full_Face_Snorkel_Mask_With_Gop/20%Monthly2017-07-10 01:14
http://www.hotnewdeal.com/2017/07/10/195720_Coleman_Northstar_Propane_Camping_Lantern_with_Car/20%Monthly2017-07-10 01:14
http://www.hotnewdeal.com/2017/07/10/195719_100Piece_Craftsman_SpeedLok_Impact_Drill_and_Dri/20%Monthly2017-07-10 01:08
http://www.hotnewdeal.com/2017/07/10/195718_45_OFF_on_any_Subscribe_and_Save_item_for_Prime_M/20%Monthly2017-07-10 01:08
http://www.hotnewdeal.com/2017/07/10/195717_ATT_Alcatel_Onetouch_Allura_Prepaid_GoPhone_Walma/20%Monthly2017-07-10 01:07
http://www.hotnewdeal.com/2017/07/10/195716_Risk_Captain_America_Civil_War_Edition_Game_wfree/20%Monthly2017-07-10 00:04
http://www.hotnewdeal.com/2017/07/10/195715_Roundhill_Furniture_Dark_Espresso_Wood_Shoe_Bench_/20%Monthly2017-07-10 00:03
http://www.hotnewdeal.com/2017/07/09/195714_Panera_Bread_Coupon_for_Online_Orders_at_Participa/20%Monthly2017-07-09 23:51
http://www.hotnewdeal.com/2017/07/09/195713_Sears_Craftsman_Router_Bit_Set_30pc_5999_reg/20%Monthly2017-07-09 23:39
http://www.hotnewdeal.com/2017/07/09/195711_Kroger_YMMV_10_off_when_you_buy_50_or_more_of_S/20%Monthly2017-07-09 23:16
http://www.hotnewdeal.com/2017/07/09/195710_Dicks_Sporting_goods_20_off_your_entire_ONLINE_p/20%Monthly2017-07-09 22:57
http://www.hotnewdeal.com/2017/07/09/195708_Lego_City_Undercover_2999/20%Monthly2017-07-09 22:06
http://www.hotnewdeal.com/2017/07/09/195707_Vivere_Double_Hammock_with_Space_Saving_Steel_Stan/20%Monthly2017-07-09 21:58
http://www.hotnewdeal.com/2017/07/09/195706_AC_Delco_100x_AA_or_AAA_30_off_coupon__Amazon__/20%Monthly2017-07-09 21:47
http://www.hotnewdeal.com/2017/07/09/195705_1_TB_Sony_Playstation_4_Pro_for_39999_plus_50_F/20%Monthly2017-07-09 21:47
http://www.hotnewdeal.com/2017/07/09/195704_Harbor_Freight__12_Pc_Assorted_Length_Elastic_Str/20%Monthly2017-07-09 21:16
http://www.hotnewdeal.com/2017/07/09/195703_Kohls_The_Big_One_DownAlternative_Reversible_Co/20%Monthly2017-07-09 21:08
http://www.hotnewdeal.com/2017/07/09/195702_Target_Crosby_Collection_Uplight_Sconce_Light_9_/20%Monthly2017-07-09 21:08
http://www.hotnewdeal.com/2017/07/09/195701_Apple_iPad_97_WiFi_Tablet_5th_gen_32GB_289_or/20%Monthly2017-07-09 21:08
http://www.hotnewdeal.com/2017/07/09/195700_Under_Armour_Drainster_shoes_4299__Academy/20%Monthly2017-07-09 21:08
http://www.hotnewdeal.com/2017/07/09/195699_The_First_Years_Star_Teething_Blanket_277__ADD/20%Monthly2017-07-09 20:59
http://www.hotnewdeal.com/2017/07/09/195697_35lb_Purina_Pro_Plan_Focus_Cat_Food_Salmon_and_/20%Monthly2017-07-09 20:18
http://www.hotnewdeal.com/2017/07/09/195696_Craftsman_50lb_Sandblaster_Kit_w_14_Ceramic_Noz/20%Monthly2017-07-09 20:05
http://www.hotnewdeal.com/2017/07/09/195695_BalanceFrom_BFPM01BLK_Puzzle_Exercise_Mat_with_Hi/20%Monthly2017-07-09 20:05
http://www.hotnewdeal.com/2017/07/09/195694_HomeDepot_Winix_5500_Washable_TrueHEPA_Air_Clean/20%Monthly2017-07-09 19:58
http://www.hotnewdeal.com/2017/07/09/195693_Google_Home_and_Philips_Hue_LED_Starter_Kit_149_/20%Monthly2017-07-09 19:58
http://www.hotnewdeal.com/2017/07/09/195692_Bounce_Outdoor_Fresh_Fabric_Softener_and_Dryer_She/20%Monthly2017-07-09 19:48
http://www.hotnewdeal.com/2017/07/09/195691_Macys_Calvin_Klein_Eternity_Gift_Set_30__Free_/20%Monthly2017-07-09 19:48
http://www.hotnewdeal.com/2017/07/09/195690_GIGABYTE_GAAB350GAMING_3_AM4_ATX_AMD_B350_Ryzen_/20%Monthly2017-07-09 19:35
http://www.hotnewdeal.com/2017/07/09/195689_MyProtein_11lb_Impact_Whey_Protein__Bonus_055l/20%Monthly2017-07-09 19:15
http://www.hotnewdeal.com/2017/07/09/195688_Fallout_4_PC_1299/20%Monthly2017-07-09 19:08
http://www.hotnewdeal.com/2017/07/09/195687_Prime_Members_80Ct_13Gallon_Hefty_Ultra_Strong_/20%Monthly2017-07-09 18:56
http://www.hotnewdeal.com/2017/07/09/195686_Target_Keurig_K50_6299_in_store_only/20%Monthly2017-07-09 18:56
http://www.hotnewdeal.com/2017/07/09/195685_Target_Sabrina_Soto_Calypso_100_Cotton_Hotel_She/20%Monthly2017-07-09 18:48
http://www.hotnewdeal.com/2017/07/09/195683_Single_Ream_HP_Paper__Multipurpose_Ultra_Poly_Wra/20%Monthly2017-07-09 18:43
http://www.hotnewdeal.com/2017/07/09/195682_Klipsch_R26F_Floorstanding_Speaker_400W_Peak_Pow/20%Monthly2017-07-09 18:43
http://www.hotnewdeal.com/2017/07/09/195681_Target_Star_Wars_Darth_Vader_Humidifier_21__Get/20%Monthly2017-07-09 18:37
http://www.hotnewdeal.com/2017/07/09/195680_Prime_Members_Infantino_Sensory_Press_and_Stay_Se/20%Monthly2017-07-09 18:30
http://www.hotnewdeal.com/2017/07/09/195679_Frys__LG_PF1500W__Portable_1080p_DLP_Projector_/20%Monthly2017-07-09 18:16
http://www.hotnewdeal.com/2017/07/09/195678_Target_Graco_Car_Seat_Sale__20_off__50_Gift_car/20%Monthly2017-07-09 18:09
http://www.hotnewdeal.com/2017/07/09/195677_Google_Home_White__81_or_84_with_Lowes_Coupo/20%Monthly2017-07-09 18:09
http://www.hotnewdeal.com/2017/07/09/195675_Polarized_Swim_Goggles_w_UV_Protection_Watertight/20%Monthly2017-07-09 17:51
http://www.hotnewdeal.com/2017/07/09/195674_verizon_s7_edge_1299month_31176_bestbuycom/20%Monthly2017-07-09 17:51
http://www.hotnewdeal.com/2017/07/09/195673_ASUS_ZenPad_3S_10__97ampquot_64GB_Tablet_24/20%Monthly2017-07-09 17:32
http://www.hotnewdeal.com/2017/07/09/195672_Prime_Members_ScotchBrite_Nonscratch_Scrub_Spon/20%Monthly2017-07-09 17:32
http://www.hotnewdeal.com/2017/07/09/195671_Craftsman_Tamper_Proof_Security_Bit_Set_599/20%Monthly2017-07-09 16:54
http://www.hotnewdeal.com/2017/07/09/195670_Best_BuySanDisk__Ultra_128GB_USB_30_Flash_Drive/20%Monthly2017-07-09 16:47
http://www.hotnewdeal.com/2017/07/09/195669_Yamaha_YAS203_Sound_Bar_with_Wireless_Subwoofer/20%Monthly2017-07-09 16:42
http://www.hotnewdeal.com/2017/07/09/195668_Classic_Accessories_Ravenna_Black_Grill_Cover_18/20%Monthly2017-07-09 16:27
http://www.hotnewdeal.com/2017/07/09/195667_40oz_OxiClean_HD_Laundry_Detergent_For_99__Free/20%Monthly2017-07-09 16:19
http://www.hotnewdeal.com/2017/07/09/195666_Degree_Women_Antiperspirant_Deodorant_Stick_Berry/20%Monthly2017-07-09 16:03
http://www.hotnewdeal.com/2017/07/09/195665_36Ct_of_12oz_Nature_Valley_Granola_Bars_Dark_C/20%Monthly2017-07-09 15:59
http://www.hotnewdeal.com/2017/07/09/195664_Breitsamer_Creamy_Honey_in_Jar_Rapsflower_176_O/20%Monthly2017-07-09 15:50
http://www.hotnewdeal.com/2017/07/09/195663_Craftsman_16_Inch_Tool_Box_with_Tray_789/20%Monthly2017-07-09 15:43
http://www.hotnewdeal.com/2017/07/09/195662_Certain_Crayola_items_B1G1Free_at_Amazon/20%Monthly2017-07-09 15:37
http://www.hotnewdeal.com/2017/07/09/195661_36Ct_of_070oz_Glucerna_Mini_Treat_Bars_Chocola/20%Monthly2017-07-09 15:27
http://www.hotnewdeal.com/2017/07/09/195660_Digital_Voltmeter_Ammeter_Ohmmeter_Multimeter_Volt/20%Monthly2017-07-09 15:20
http://www.hotnewdeal.com/2017/07/09/195659_Kenmore_5_burner_Gas_Range__Stainless_Steel_45/20%Monthly2017-07-09 15:10
http://www.hotnewdeal.com/2017/07/09/195658_Bose_QuietComfort_35_Wireless_Headphones_Black_or/20%Monthly2017-07-09 14:56
http://www.hotnewdeal.com/2017/07/09/195657_Target_Brooklyn__Bond_100_Cotton_Sheet_Sets_Tw/20%Monthly2017-07-09 14:42
http://www.hotnewdeal.com/2017/07/09/195656_Moto_360_2nd_Gen_for_Men_42mm__Leather__9999_Ve/20%Monthly2017-07-09 14:27
http://www.hotnewdeal.com/2017/07/09/195655_New_BlackBerry_Priv_STV1002_32GB_GSM_Factory_Unlo/20%Monthly2017-07-09 14:27
http://www.hotnewdeal.com/2017/07/09/195654_Graco_4Ever_AllInOne_Convertible_Car_Seat_50_T/20%Monthly2017-07-09 14:19
http://www.hotnewdeal.com/2017/07/09/195653_Halo_Wars_2_Gears_of_War_4_Battlefield_1_Mass_E/20%Monthly2017-07-09 14:19
http://www.hotnewdeal.com/2017/07/09/195652_Nikon_Lens_Sale__4_Rewards_Nikon_AFS_NIKKOR_50/20%Monthly2017-07-09 14:19
http://www.hotnewdeal.com/2017/07/09/195651_500_OFF_Your_BJs_inClub_Purchase_of_50_or_Mor/20%Monthly2017-07-09 14:00
http://www.hotnewdeal.com/2017/07/09/195650_Babyganics_Insect_Repellent_2_Pack_6_oz_each_for_/20%Monthly2017-07-09 13:43
http://www.hotnewdeal.com/2017/07/09/195649_Denon_3300_599_amazon_Free_shipping/20%Monthly2017-07-09 13:28
http://www.hotnewdeal.com/2017/07/09/195648_Fiream_Little_Boys_Cotton_Clothing_Short_Sets_fro/20%Monthly2017-07-09 13:20
http://www.hotnewdeal.com/2017/07/09/195647_Akai_Professional_Project_50X__OverEar_Studio_Mo/20%Monthly2017-07-09 13:20
http://www.hotnewdeal.com/2017/07/09/195646_TEMPTATIONS_Classic_Cat_Treat_Variety_Pack_3_oz_pa/20%Monthly2017-07-09 13:20
http://www.hotnewdeal.com/2017/07/09/195645_Sealy_Healthy_Dream_Organic_Cotton_Cool_Gel_2_Stag/20%Monthly2017-07-09 13:10
http://www.hotnewdeal.com/2017/07/09/195644_Garden_Treasures_steel_plant_stand_29__lowes/20%Monthly2017-07-09 12:57
http://www.hotnewdeal.com/2017/07/09/195643_iPad_Pro_129__97_Premium_PU_Slim_Fit_Flip_Folio/20%Monthly2017-07-09 12:56
http://www.hotnewdeal.com/2017/07/09/195642_Haggar_Mens_Brighton_Military_FourPocket_X_Large/20%Monthly2017-07-09 12:56
http://www.hotnewdeal.com/2017/07/09/195641_100_Cabelas_Gift_Card_For_82__FREE_Mail_Delive/20%Monthly2017-07-09 12:44
http://www.hotnewdeal.com/2017/07/09/195640_12Light_MultiColor_Edison_Bulbs_Light_Set_10_R/20%Monthly2017-07-09 12:35
http://www.hotnewdeal.com/2017/07/09/195639_New_York_to_Hong_Kong_555_RT_on_5_Star_Asiana_Air/20%Monthly2017-07-09 12:26
http://www.hotnewdeal.com/2017/07/09/195638_Tools_of_the_Trade_13Pc_Cookware_Set__Stainless/20%Monthly2017-07-09 12:20
http://www.hotnewdeal.com/2017/07/09/195637_Walmart__Logitech_HD_Webcam_C525_Portable_HD_720/20%Monthly2017-07-09 12:00
http://www.hotnewdeal.com/2017/07/09/195636_Target_Threshold_100_Cotton_Monogram_Initial_Han/20%Monthly2017-07-09 11:50
http://www.hotnewdeal.com/2017/07/09/195635_Google_Home__Chromecast_Video_Bundle_for_9999/20%Monthly2017-07-09 11:42
http://www.hotnewdeal.com/2017/07/09/195634_Cuisinart_Ice_Cream_Maker_and_Bowl_Bundle_for_39/20%Monthly2017-07-09 11:37
http://www.hotnewdeal.com/2017/07/09/195633_5_off_a_book_over_5_at_Google_Play_Books/20%Monthly2017-07-09 11:37
http://www.hotnewdeal.com/2017/07/09/195632_Various_Seasonic_Prime_Series_Gold_and_Platinum_Fu/20%Monthly2017-07-09 11:37
http://www.hotnewdeal.com/2017/07/09/195631_AMD_Ryzen_5_1500X_CPU_and_Asus_Prime_X370_Pro_AM4_/20%Monthly2017-07-09 11:28
http://www.hotnewdeal.com/2017/07/09/195630_Matchbox_Stinky_Vehicle_Like_New__1350__Amaz/20%Monthly2017-07-09 11:19
http://www.hotnewdeal.com/2017/07/09/195629_Corelle_set_of_6_white_plates_or_bowls_999/20%Monthly2017-07-09 11:19
http://www.hotnewdeal.com/2017/07/09/195628_Prime_Members_KIND_Bars_Fruit__Nuts_in_Yogurt_/20%Monthly2017-07-09 11:10
http://www.hotnewdeal.com/2017/07/09/195627_Orlando_to_San_Francisco_176_RT_on_United_Airline/20%Monthly2017-07-09 10:56
http://www.hotnewdeal.com/2017/07/09/195626_Best_Buy__Keurig__Classic_Series_Coffeemaker__B/20%Monthly2017-07-09 10:48
http://www.hotnewdeal.com/2017/07/09/195625_AllNew_Fire_HD_8_Essentials_Bundle_with_Fire_HD_8/20%Monthly2017-07-09 10:42
http://www.hotnewdeal.com/2017/07/09/195624_WD__easystore_4TB_External_USB_30_Hard_Drive__/20%Monthly2017-07-09 10:41
http://www.hotnewdeal.com/2017/07/09/195623_Panasonic_PANNBG110PW_Flash_Xpress_Toaster_Oven/20%Monthly2017-07-09 10:25
http://www.hotnewdeal.com/2017/07/09/195622_Amazing_Laundry_Detergent_Bundle_68_Loads_Tide_/20%Monthly2017-07-09 10:12
http://www.hotnewdeal.com/2017/07/09/195621_SlaughterhouseFive_by_Kurt_Vonnegut_Kindle_Editi/20%Monthly2017-07-09 10:09
http://www.hotnewdeal.com/2017/07/09/195620_Calvin_Klein_Mens_Underwear_Body_Modal_Boxer_Brie/20%Monthly2017-07-09 10:09
http://www.hotnewdeal.com/2017/07/09/195619_Crayola_My_First_No_Mess_Double_Doodle_Wipe_Away_C/20%Monthly2017-07-09 10:09
http://www.hotnewdeal.com/2017/07/09/195618_1_month_of_MARVEL_UNLIMITED_Comics_membership_FRE/20%Monthly2017-07-09 10:09
http://www.hotnewdeal.com/2017/07/09/195617_LG_V20_US996_64GB_Smartphone_Unlocked_Titan_US_/20%Monthly2017-07-09 10:08
http://www.hotnewdeal.com/2017/07/09/195616_Panasonic_Mens_ES8103S_3Blade_Arc3_WetDry_Recha/20%Monthly2017-07-09 09:48
http://www.hotnewdeal.com/2017/07/09/195615_Home_depot_Sun_Joe_corded_14_in_lawn_mower_60_an/20%Monthly2017-07-09 09:40
http://www.hotnewdeal.com/2017/07/09/195614_Hitachi_SModel_W50_SMART_WIRELESS_SPEAKER_Walmart/20%Monthly2017-07-09 09:40
http://www.hotnewdeal.com/2017/07/09/195613_Bounty_Paper_Towels_24_rolls_equals_36_regular_ro/20%Monthly2017-07-09 08:56
http://www.hotnewdeal.com/2017/07/09/195612_refurbished_kindle_paper_white_80/20%Monthly2017-07-09 08:33
http://www.hotnewdeal.com/2017/07/09/195611_Poulan_Pro_21_136cc_SingleStage_Gas_Snow_Thrower/20%Monthly2017-07-09 08:08
http://www.hotnewdeal.com/2017/07/09/195610_ASUS_Vivo_PC_M32CD_Desktop_i77700_12GB_DDR4_12/20%Monthly2017-07-09 08:08
http://www.hotnewdeal.com/2017/07/09/195607_DYMO_LabelWriter_4XL_Thermal_Label_Printer__140_/20%Monthly2017-07-09 06:08
http://www.hotnewdeal.com/2017/07/09/195606_Office_Depot_OfficeMax_Rewards_100_back_in_Rewar/20%Monthly2017-07-09 06:08
http://www.hotnewdeal.com/2017/07/09/195604_Schwinn_12_Skip_2_Kids_Balance_Bike_wLifetime_Wa/20%Monthly2017-07-09 05:09
http://www.hotnewdeal.com/2017/07/09/195603_Yost_750E_Rotating_Bench_Vise__Amazon_wPRIME_fo/20%Monthly2017-07-09 05:09
http://www.hotnewdeal.com/2017/07/09/195602_Logitech_M535_Wireless_Bluetooth_Optical_Mouse_Bl/20%Monthly2017-07-09 04:08
http://www.hotnewdeal.com/2017/07/09/195601_Chromecast_Audio_25_at_Bestbuy_BHPVideo/20%Monthly2017-07-09 04:08
http://www.hotnewdeal.com/2017/07/09/195600_Craftsman_2_ton_Hydraulic_Jack_10_6_ton_15__fr/20%Monthly2017-07-09 03:25
http://www.hotnewdeal.com/2017/07/09/195597_Best_Buy__Titanfall_2_Deluxe_Edition__Xbox_One_/20%Monthly2017-07-09 03:08
http://www.hotnewdeal.com/2017/07/09/195596_100Piece_Craftsman_Drill_Bit_Accessory_Kit_1099/20%Monthly2017-07-09 02:30
http://www.hotnewdeal.com/2017/07/09/195595_Risk_Star_Wars_Edition_Game__997/20%Monthly2017-07-09 02:30
http://www.hotnewdeal.com/2017/07/09/195594_Google_Chromecast__25_at_Walmart_Priced_at_35_/20%Monthly2017-07-09 02:30
http://www.hotnewdeal.com/2017/07/09/195593_200_AC_AMD_RYZEN_5_1600_6Core_32_GHz_36_GHz_/20%Monthly2017-07-09 02:30
http://www.hotnewdeal.com/2017/07/09/195592_Price_Mistake_50_REDBARN_Beef_Straps_Treat_For_/20%Monthly2017-07-09 02:09
http://www.hotnewdeal.com/2017/07/09/195591_Google_Chromecast_2nd_Generation_Best_Buy__25/20%Monthly2017-07-09 02:09
http://www.hotnewdeal.com/2017/07/09/195589_Amazon_Razor_A3_Kick_Scooter_for_only_2664/20%Monthly2017-07-09 01:29
http://www.hotnewdeal.com/2017/07/09/195588_Nestea_Peach_Flavored_Iced_Tea_Pack_of_24__699/20%Monthly2017-07-09 01:29
http://www.hotnewdeal.com/2017/07/09/195587_Kernel_Seasons_Popcorn_Seasoning__Parmesan_Garli/20%Monthly2017-07-09 01:09
http://www.hotnewdeal.com/2017/07/09/195586_Nikon_Lens_Sale_Nikon_35mm_f18G_167_Nikon_50m/20%Monthly2017-07-09 01:09
http://www.hotnewdeal.com/2017/07/09/195585_Klipsch_2x_R26F_Floorstanding_WR15M_BookshelfR/20%Monthly2017-07-09 01:09
http://www.hotnewdeal.com/2017/07/09/195584_Dial_Antibacterial_Liquid_Hand_Soap_Aloe_75_Flu/20%Monthly2017-07-09 01:09
http://www.hotnewdeal.com/2017/07/09/195583_Bamboo_Charcoal_Infused_Ventilated_Orthopedic_Mem/20%Monthly2017-07-09 01:08
http://www.hotnewdeal.com/2017/07/09/195582_Similac_Advance_Infant_Formula_with_Iron_Powder_/20%Monthly2017-07-09 01:08
http://www.hotnewdeal.com/2017/07/09/195581_Fast__Furious_6Furious_7_4K_Ultra_HD_BluRay_/20%Monthly2017-07-09 00:17
http://www.hotnewdeal.com/2017/07/09/195580_Prime_Members__Alexa_Duckworth_Large_Yellow_Duck/20%Monthly2017-07-09 00:17
http://www.hotnewdeal.com/2017/07/08/195579_Hitachi_Deskstar_7K3000_3TB_Internal_Hard_Drive_M/20%Monthly2017-07-08 23:59
http://www.hotnewdeal.com/2017/07/08/195578_Tide_To_Go__3_count_Instant_Stain_Remover_Liquid/20%Monthly2017-07-08 23:10
http://www.hotnewdeal.com/2017/07/08/195577_Pottery_Barn_Nuna_Pipa_various_colors_230/20%Monthly2017-07-08 23:05
http://www.hotnewdeal.com/2017/07/08/195575_Planters_Peanuts_Honey_Roasted__Salted_345_Oun/20%Monthly2017-07-08 22:25
http://www.hotnewdeal.com/2017/07/08/195573_Prime_Members_80Count_13Gallon_Glad_Tall_Antimi/20%Monthly2017-07-08 21:48
http://www.hotnewdeal.com/2017/07/08/195572_Fitbit_Alta_and_Fitbit_Alta_HR_Cord_Bands_598__/20%Monthly2017-07-08 21:48
http://www.hotnewdeal.com/2017/07/08/195571_Brainwavz_Sheepskin_Leather_Memory_Foam_Earpad_for/20%Monthly2017-07-08 21:41
http://www.hotnewdeal.com/2017/07/08/195570_LG_65SJ8500_2017_Model__65_SUHD_Nano_Cell_WebO/20%Monthly2017-07-08 21:41
http://www.hotnewdeal.com/2017/07/08/195569_Allen_sports_bicycle_adaptor_bar__945/20%Monthly2017-07-08 21:33
http://www.hotnewdeal.com/2017/07/08/195568_Prime_Members_81Ct_Tide_Pods_HE_Laundry_Detergen/20%Monthly2017-07-08 21:10
http://www.hotnewdeal.com/2017/07/08/195567_10_credit_for_first_reorder_with_Alexa_of_10/20%Monthly2017-07-08 20:56
http://www.hotnewdeal.com/2017/07/08/195566_KIND_Dark_Chocolate_Whole_Grain_Clusters_11oz_fo/20%Monthly2017-07-08 20:47
http://www.hotnewdeal.com/2017/07/08/195565_AllClad_D5_Brushed_1810_Stainless_Steel_5Ply_Bo/20%Monthly2017-07-08 20:32
http://www.hotnewdeal.com/2017/07/08/195564_The_Red_House_Mystery_Free_Kindle_Book/20%Monthly2017-07-08 20:18
http://www.hotnewdeal.com/2017/07/08/195563_Steven_Raichlen_How_to_GrillThe_Barbecue_Bible/20%Monthly2017-07-08 20:08
http://www.hotnewdeal.com/2017/07/08/195562_Amazon_Warehouse_Deals_For_Prime_Members_ZTE_Axon/20%Monthly2017-07-08 19:48
http://www.hotnewdeal.com/2017/07/08/195561_Rog_strixgtx1080o8ggaming_50803_Plus_Tax/20%Monthly2017-07-08 19:41
http://www.hotnewdeal.com/2017/07/08/195560_Lavazza_Caffe_Espresso__Medium_Ground_Coffee_8O/20%Monthly2017-07-08 19:40
http://www.hotnewdeal.com/2017/07/08/195559_Dove_go_fresh_Body_Wash_Cucumber_and_Green_Tea_22_/20%Monthly2017-07-08 18:56
http://www.hotnewdeal.com/2017/07/08/195558_Reese_Towpower_8508211_Brake_Control_Proportional/20%Monthly2017-07-08 18:48
http://www.hotnewdeal.com/2017/07/08/195557_Withings_Activit_Steel_White_Used_Like_New__Am/20%Monthly2017-07-08 18:26
http://www.hotnewdeal.com/2017/07/08/195556_Maple_Grove_Maple_Syrup_Og_Gr_A_Glass_850_Oun/20%Monthly2017-07-08 18:18
http://www.hotnewdeal.com/2017/07/08/195555_Neutrogena_Microdermabrasion_System__as_low_as_7/20%Monthly2017-07-08 18:18
http://www.hotnewdeal.com/2017/07/08/195554_Nitecore_MT06MD_Nichia_219B_Pen_Flashlight_18_or_/20%Monthly2017-07-08 18:18
http://www.hotnewdeal.com/2017/07/08/195553_Disney_Finding_Dory_6V_Toddler_Quad_Ride_On__29_/20%Monthly2017-07-08 18:00
http://www.hotnewdeal.com/2017/07/08/195552_Walmart_Toy_deals_20_actions_figures_4_Star_wa/20%Monthly2017-07-08 17:59
http://www.hotnewdeal.com/2017/07/08/195551_Disney_Junior_Doc_McStuffins_Get_Better_Talking_Mo/20%Monthly2017-07-08 17:59
http://www.hotnewdeal.com/2017/07/08/195550_1059_Polaris_Ranger_Full_Suspension_Mountain_Bik/20%Monthly2017-07-08 17:48
http://www.hotnewdeal.com/2017/07/08/195549_Gain_Laundry_Scent_Bundle_with_Alexa_Coupon_SS_/20%Monthly2017-07-08 17:48
http://www.hotnewdeal.com/2017/07/08/195548_Pottery_Barn_Kids_Coupon_Additional_30_off_Clear/20%Monthly2017-07-08 17:48
http://www.hotnewdeal.com/2017/07/08/195546_PNY_CS2030_M2_PCIe_NVMe_Solid_State_Drive_for_16/20%Monthly2017-07-08 17:18
http://www.hotnewdeal.com/2017/07/08/195545_PNY_GeForce_GTX_1080_Ti_DirectX_12_VCGGTX1080T11PB/20%Monthly2017-07-08 17:09
http://www.hotnewdeal.com/2017/07/08/195544_New_York_to_Savannah_GA_or_Vice_Versa_156_RT__Se/20%Monthly2017-07-08 17:09
http://www.hotnewdeal.com/2017/07/08/195543_Perrier_Sparkling_Natural_Mineral_Water_Strawberr/20%Monthly2017-07-08 16:32
http://www.hotnewdeal.com/2017/07/08/195542_Milwaukee_M12_Fuel_SDS_Plus_Rotary_Hammer_Kit__Fr/20%Monthly2017-07-08 16:32
http://www.hotnewdeal.com/2017/07/08/195541_Prime_Members_Kleenex_Ultra_Soft__Strong_Facial_/20%Monthly2017-07-08 16:08
http://www.hotnewdeal.com/2017/07/08/195539_Sioux_Falls_to_Las_Vegas_or_Vice_Versa_88_RT_on_F/20%Monthly2017-07-08 16:08
http://www.hotnewdeal.com/2017/07/08/195537_Winix_5500_Washable_TrueHEPA_Air_Cleaner_98_at_H/20%Monthly2017-07-08 15:41
http://www.hotnewdeal.com/2017/07/08/195536_12Count_Natures_Bakery_Whole_Wheat_Fig_Bar_Blue/20%Monthly2017-07-08 15:34
http://www.hotnewdeal.com/2017/07/08/195535_Lenovo_Miix_320_2in1_Laptop_129/20%Monthly2017-07-08 15:34
http://www.hotnewdeal.com/2017/07/08/195534_Amazon_SS_PURELL_Advanced_Hand_Sanitizer_NATURAL/20%Monthly2017-07-08 15:19
http://www.hotnewdeal.com/2017/07/08/195533_240Ct_Bounce_Fabric_Softener_and_Dryer_Sheets_Ou/20%Monthly2017-07-08 15:18
http://www.hotnewdeal.com/2017/07/08/195532_Amazon_Gain_Flings_Original_Laundry_Detergent_Pac/20%Monthly2017-07-08 15:09
http://www.hotnewdeal.com/2017/07/08/195531_Suave_Essentials_Body_Wash_Everlasting_Sunshine_1/20%Monthly2017-07-08 14:56
http://www.hotnewdeal.com/2017/07/08/195530_Rosewill_Cable_Tester_RTK006_2AR/20%Monthly2017-07-08 14:56
http://www.hotnewdeal.com/2017/07/08/195529_Klipsch_RB10_Bookshelf_Speakers_70_ACpr_Newegg/20%Monthly2017-07-08 14:47
http://www.hotnewdeal.com/2017/07/08/195528_TekNmotion_Nibru_Messenger_Bag__PlayStation_4_10/20%Monthly2017-07-08 14:47
http://www.hotnewdeal.com/2017/07/08/195527_Chefs_Choice_15_Trizor_XV_EdgeSelect_Electric_Kni/20%Monthly2017-07-08 14:47
http://www.hotnewdeal.com/2017/07/08/195526_LG_65_SJ8500_4K_LED_TV_for_999_W_emailed_code_/20%Monthly2017-07-08 14:39
http://www.hotnewdeal.com/2017/07/08/195525_Wireless_Security_Camera_with_Motion_Detector_36/20%Monthly2017-07-08 14:24
http://www.hotnewdeal.com/2017/07/08/195524_Hotelscom__Up_to_100_REBATE_with_Promo_Code_and/20%Monthly2017-07-08 14:08
http://www.hotnewdeal.com/2017/07/08/195523_Lifetime_Youth_Wave_Kayak_7920_Amazon/20%Monthly2017-07-08 13:59
http://www.hotnewdeal.com/2017/07/08/195522_Sky_Devices_Platinum_45_with_8_GB_Memory_unlock/20%Monthly2017-07-08 13:44
http://www.hotnewdeal.com/2017/07/08/195521_ZTE__Axon_7_mini_4G_LTE_with_32GB_Memory_Cell_Pho/20%Monthly2017-07-08 13:44
http://www.hotnewdeal.com/2017/07/08/195520_Linksys_DPC3008_Advanced_DOCSIS_30_Cable_Modem_1/20%Monthly2017-07-08 13:41
http://www.hotnewdeal.com/2017/07/08/195519_Goo_Gone_Surface_Safe_Adhesive_Remover_8_oz_Addo/20%Monthly2017-07-08 13:34
http://www.hotnewdeal.com/2017/07/08/195518_Nintendo_Switch_Gray_on_Amazon_for_Prime_Members/20%Monthly2017-07-08 13:19
http://www.hotnewdeal.com/2017/07/08/195517_Crazy_Horse_Real_Leather_Apple_Watch_BandVintage_/20%Monthly2017-07-08 13:19
http://www.hotnewdeal.com/2017/07/08/195516_Roku_Ultra_4K_Streaming_Media_Player_RFB_70_w/20%Monthly2017-07-08 13:19
http://www.hotnewdeal.com/2017/07/08/195515_Lighted_50_foot_123_Extension_Cord_1242_or_less/20%Monthly2017-07-08 13:09
http://www.hotnewdeal.com/2017/07/08/195514_Winix_WAC5500_True_HEPA_Air_Cleaner_with_PlasmaWav/20%Monthly2017-07-08 12:43
http://www.hotnewdeal.com/2017/07/08/195512_YETI_Rambler_36oz_Vacuum_Insulated_Stainless_Steel/20%Monthly2017-07-08 12:43
http://www.hotnewdeal.com/2017/07/08/195511_Altec_Lansing_iMW577_Lifejacket_2_Bluetooth_Speake/20%Monthly2017-07-08 12:35
http://www.hotnewdeal.com/2017/07/08/195510_Samsung_55_Class_KU6300_Series_Smart_4K_UHD_TV_fo/20%Monthly2017-07-08 12:18
http://www.hotnewdeal.com/2017/07/08/195509_GoolRC_Syma_X8HC_Drone_with_20MP_HD_Camera_Altit/20%Monthly2017-07-08 12:18
http://www.hotnewdeal.com/2017/07/08/195508_70_off_of_60ft_Decoration_String_Lights_with_200_/20%Monthly2017-07-08 12:08
http://www.hotnewdeal.com/2017/07/08/195507_Apple_iPhone_6_32GB_Total_Wireless_Space_Gray_2/20%Monthly2017-07-08 12:00
http://www.hotnewdeal.com/2017/07/08/195506_Prime_Members_24Pack_of_169oz_Perrier_Sparkli/20%Monthly2017-07-08 12:00
http://www.hotnewdeal.com/2017/07/08/195505_Tide_PODS_Spring_Meadow_Scent_HE_Turbo_Laundry_Det/20%Monthly2017-07-08 11:50
http://www.hotnewdeal.com/2017/07/08/195504_Royal_Basmati_Rice_20_lbs_on_sale_for_1598__ama/20%Monthly2017-07-08 11:50
http://www.hotnewdeal.com/2017/07/08/195503_Little_Tikes_Go_Green_Playhouse_99_Free_Shipping/20%Monthly2017-07-08 11:43
http://www.hotnewdeal.com/2017/07/08/195502_4639_Optimum_Nutrition_Gold_Standard_100_Whey_P/20%Monthly2017-07-08 11:21
http://www.hotnewdeal.com/2017/07/08/195501_Sears__Dura_Power_100_FT_Extension_Cord_123_39/20%Monthly2017-07-08 11:20
http://www.hotnewdeal.com/2017/07/08/195500_Lowes_Garden_Treasures_30in_W_x_72in_H_Natural/20%Monthly2017-07-08 11:10
http://www.hotnewdeal.com/2017/07/08/195499_Prime_Members_24Ct_Sanpellegrino_Sparkling_Fruit/20%Monthly2017-07-08 11:10
http://www.hotnewdeal.com/2017/07/08/195498_Kingsford_Charcoal_Briquets_with_Applewood_Hickor/20%Monthly2017-07-08 11:10
http://www.hotnewdeal.com/2017/07/08/195497_Nintendo_3ds_xl_Amazon_Warehouse_Extra_20_off_93/20%Monthly2017-07-08 10:57
http://www.hotnewdeal.com/2017/07/08/195496_MTD_Parts_50_Off_TroyBilt_Garden_Tools/20%Monthly2017-07-08 10:57
http://www.hotnewdeal.com/2017/07/08/195494_Boston_to_Madrid_or_Barcelona_Spain_for_330_RT_on/20%Monthly2017-07-08 10:49
http://www.hotnewdeal.com/2017/07/08/195493_Dockers_50_off_Sale_Styles_Mens_Tussock_Leather/20%Monthly2017-07-08 10:43
http://www.hotnewdeal.com/2017/07/08/195492_Sushi_Go_Card_Game_759_FS_Amazon_Prime/20%Monthly2017-07-08 10:37
http://www.hotnewdeal.com/2017/07/08/195489_Motorola_Moto_E4_with_25_Simple_Mobile_Refill_car/20%Monthly2017-07-08 09:45
http://www.hotnewdeal.com/2017/07/08/195488_Denon_AVRX4300H_92Channel_Full_4K_AV_Receiver_w/20%Monthly2017-07-08 09:38
http://www.hotnewdeal.com/2017/07/08/195487_Craftsman_Hand_Sledge_Hammer_10_Reg_20_Free_/20%Monthly2017-07-08 09:29
http://www.hotnewdeal.com/2017/07/08/195486_RAVPower_FileHub_Plus_Wireless_Travel_Router_SD_/20%Monthly2017-07-08 08:57
http://www.hotnewdeal.com/2017/07/08/195484_45_CU_FT_WHIRLPOOL_FRONT_LOAD_WASHER__ENERGY_S/20%Monthly2017-07-08 08:00
http://www.hotnewdeal.com/2017/07/08/195483_Amazon_Prismacolor_Premier_Colored_Pencils_Soft_/20%Monthly2017-07-08 07:30
http://www.hotnewdeal.com/2017/07/08/195482_Walmart__Razer_DeathAdder_Chroma_Mouse__35_Dea/20%Monthly2017-07-08 07:11
http://www.hotnewdeal.com/2017/07/08/195481_Various_Armstrong_Flooring_on_clearance_70_off_YM/20%Monthly2017-07-08 07:04
http://www.hotnewdeal.com/2017/07/08/195480_Rosewill_RHAI16001_1800Watt_Induction_Cooker_Coo/20%Monthly2017-07-08 06:10
http://www.hotnewdeal.com/2017/07/08/195479_Extra_20_off_Select_Items__Amazon_Warehouse_Deal/20%Monthly2017-07-08 06:10
http://www.hotnewdeal.com/2017/07/08/195477_Prime_Members_Amazon_Echo_Certified_Refurbished/20%Monthly2017-07-08 04:10
http://www.hotnewdeal.com/2017/07/08/195476_Call_of_Duty_Infinite_Warfare_Legacy_Edition_Com/20%Monthly2017-07-08 03:11
http://www.hotnewdeal.com/2017/07/08/195475_Western_Pecan_Smoking_Chips_160__FS_with_prime_/20%Monthly2017-07-08 02:11
http://www.hotnewdeal.com/2017/07/08/195474_Mafia_3_Collectors_Edition__PS4XB1_3999_2K/20%Monthly2017-07-08 02:11
http://www.hotnewdeal.com/2017/07/08/195473_TCL_55P605__55P607_for_599_at_Best_Buy/20%Monthly2017-07-08 02:06
http://www.hotnewdeal.com/2017/07/08/195472_Rokinon_FE14MC_14mm_F28_Ultra_Wide_Lens_for_Cano/20%Monthly2017-07-08 01:31
http://www.hotnewdeal.com/2017/07/08/195471_Disney_Frozen_Collapsible_Fabric_Storage_Box_682/20%Monthly2017-07-08 01:11
http://www.hotnewdeal.com/2017/07/08/195470_Garmin_Forerunner_230_GPS_Running_Watch_in_Black_a/20%Monthly2017-07-08 01:11
http://www.hotnewdeal.com/2017/07/08/195469_Samsung_Evo_Select_128GB_U3_micro_SD_card_4499_s/20%Monthly2017-07-08 01:11
http://www.hotnewdeal.com/2017/07/08/195468_OnkyoDenon__Harman_Speaker_Bundles_Starting_at_/20%Monthly2017-07-08 00:18
http://www.hotnewdeal.com/2017/07/07/195467_Set_of_2_Riedel_O_Wine_Tumbler_Champagne_583__/20%Monthly2017-07-07 23:32
http://www.hotnewdeal.com/2017/07/07/195466_Costco_2_pack_50_ft_12_gauge_lighted_on_the_plug_/20%Monthly2017-07-07 23:25
http://www.hotnewdeal.com/2017/07/07/195465_7Inch_Survivor_HK106320_Series_Fixed_Blade_Outdo/20%Monthly2017-07-07 23:24
http://www.hotnewdeal.com/2017/07/07/195464_Acer_Spin_5_2in1_133_FHD_IPS_Touch_i57200U/20%Monthly2017-07-07 23:13
http://www.hotnewdeal.com/2017/07/07/195463_Kitchenaid_KSB1575_Diamond_5Speed_Blender_65_aft/20%Monthly2017-07-07 23:13
http://www.hotnewdeal.com/2017/07/07/195462_Star_Wars_The_Force_Awakens_Villains_Playing_Card/20%Monthly2017-07-07 22:43
http://www.hotnewdeal.com/2017/07/07/195461_Toukiden_2_PS4_2999__Amazon__GameStop/20%Monthly2017-07-07 22:31
http://www.hotnewdeal.com/2017/07/07/195460_Sennheiser_HDVA600_Headphone_Amplifier_dual_4_pin/20%Monthly2017-07-07 22:23
http://www.hotnewdeal.com/2017/07/07/195459_Fire_Sense_Small_Yakatori_Charcoal_Grill_16_shipp/20%Monthly2017-07-07 21:51
http://www.hotnewdeal.com/2017/07/07/195458_AmazonBasics_Retractable_Gel_Pens__50_Pack_at_5/20%Monthly2017-07-07 21:38
http://www.hotnewdeal.com/2017/07/07/195457_EA_and_Origin_Access_vault_additions/20%Monthly2017-07-07 21:00
http://www.hotnewdeal.com/2017/07/07/195456_Lowes_Delta_Nura_Venetian_Bronze_1Handle_Shower_/20%Monthly2017-07-07 20:46
http://www.hotnewdeal.com/2017/07/07/195454_FIFA_17_Xbox_One_Digital_Download_909_or_Less/20%Monthly2017-07-07 20:46
http://www.hotnewdeal.com/2017/07/07/195453_Ultra_Slim_Smart_Cover_for_Apple_iPad_Mini_2_3_4_/20%Monthly2017-07-07 20:34
http://www.hotnewdeal.com/2017/07/07/195452_Bosch_CLPK232181_18V_2Tool_Combo_Kit_DrillDriv/20%Monthly2017-07-07 20:31
http://www.hotnewdeal.com/2017/07/07/195451_ROCCAT_Sova_Lapboard_Keyboard_Lightning_Deal__M/20%Monthly2017-07-07 20:24
http://www.hotnewdeal.com/2017/07/07/195450_LG_E7_Picture_on_Glass_OLED_4K_HDR_Smart_TVs_55/20%Monthly2017-07-07 20:21
http://www.hotnewdeal.com/2017/07/07/195449_GLYCINE_Incursore_Automatic_Brown_Dial_Mens_Watch/20%Monthly2017-07-07 20:21
http://www.hotnewdeal.com/2017/07/07/195448_Amazon_AddOn_Detroit_Tool_and_Supply_18Inch_Wi/20%Monthly2017-07-07 20:05
http://www.hotnewdeal.com/2017/07/07/195447_270_Diamondback_Insight_2_Performance_Hybrid_Bike/20%Monthly2017-07-07 20:05
http://www.hotnewdeal.com/2017/07/07/195446_Glycine_Airman_DC4_GMT_Automatic_Watch_600_fs__/20%Monthly2017-07-07 19:54
http://www.hotnewdeal.com/2017/07/07/195445_Scent_Blocker_Trinity_FeatherLite_Pants_18_AC_Sh/20%Monthly2017-07-07 19:45
http://www.hotnewdeal.com/2017/07/07/195444_Cyberpower_425VA225W_28_at_Walmart_6_shipping/20%Monthly2017-07-07 19:38
http://www.hotnewdeal.com/2017/07/07/195443_My_Life_as_a_Zucchini_2017__1_HD_digital_movie/20%Monthly2017-07-07 19:38
http://www.hotnewdeal.com/2017/07/07/195442_Kobalt_80Piece_Screwdriver_Bit_Set_with_Hard_Case/20%Monthly2017-07-07 19:38
http://www.hotnewdeal.com/2017/07/07/195441_Barclaycard_CashForward_World_Mastercard_Get_a_/20%Monthly2017-07-07 19:23
http://www.hotnewdeal.com/2017/07/07/195440_Jackery_Bolt_6000_mAh_UltraCompact_External_Batt/20%Monthly2017-07-07 19:23
http://www.hotnewdeal.com/2017/07/07/195439_Instant_Pot_InstaPot_DUO60_7in1_Electric_Cooke/20%Monthly2017-07-07 19:12
http://www.hotnewdeal.com/2017/07/07/195438_Amazon_Small_World_board_game__1735_w_click_/20%Monthly2017-07-07 19:12
http://www.hotnewdeal.com/2017/07/07/195437_Instant_Pot_Duo_Plus_9in1_MultiFunctional_Press/20%Monthly2017-07-07 18:59
http://www.hotnewdeal.com/2017/07/07/195436_WalMart_Little_Tikes_Sort_N_Store_Toy_Chest_4/20%Monthly2017-07-07 18:50
http://www.hotnewdeal.com/2017/07/07/195435_20_OFF_tons_of_items_at_Vitamin_Shoppe_12pk_Que/20%Monthly2017-07-07 18:36
http://www.hotnewdeal.com/2017/07/07/195434_Funko_Wobbler_DC_Comics_Modern_Batgirl_Bobble_Hea/20%Monthly2017-07-07 18:07
http://www.hotnewdeal.com/2017/07/07/195433_New_Coupon_DenTek_Floss_Picks_Only_043_at_in_s/20%Monthly2017-07-07 17:49
http://www.hotnewdeal.com/2017/07/07/195432_Mafia_III__PlayStation_4_1999_FS/20%Monthly2017-07-07 17:49
http://www.hotnewdeal.com/2017/07/07/195431_Vizio_M65D0_with_400_Dell_GC__1200/20%Monthly2017-07-07 17:37
http://www.hotnewdeal.com/2017/07/07/195430_3DBluray_Movies_Cloudy_with_a_Chance_of_Meatball/20%Monthly2017-07-07 17:28
http://www.hotnewdeal.com/2017/07/07/195428_NEW_LG_G5_H830T_32GB_TMobile__GSM_Unlocked_4G_LT/20%Monthly2017-07-07 17:00
http://www.hotnewdeal.com/2017/07/07/195427_128GB_Apple_ATT_ATT_NEXT_iPhone_6S__6S_plus_Spri/20%Monthly2017-07-07 16:52
http://www.hotnewdeal.com/2017/07/07/195426_12oz_Camerons_Ground_Coffee_Caribbean_Hazelnut_/20%Monthly2017-07-07 16:47
http://www.hotnewdeal.com/2017/07/07/195425_Klipsch_XR8i_HYBRID_High_Clarity_InEar_Headphones/20%Monthly2017-07-07 16:47
http://www.hotnewdeal.com/2017/07/07/195424_Zinus_12_Memory_Foam_Green_Tea_Mattress_Queen_/20%Monthly2017-07-07 16:40
http://www.hotnewdeal.com/2017/07/07/195421_Razer_Tartarus_Chroma__Razer_Orbweaver_Chroma__/20%Monthly2017-07-07 16:22
http://www.hotnewdeal.com/2017/07/07/195420_8TB_Seagate_Backup_Plus_Hub_External_Hard_Drive_1/20%Monthly2017-07-07 16:10
http://www.hotnewdeal.com/2017/07/07/195419_Walmart_PCDD_Sale__Games_Starting_at_025/20%Monthly2017-07-07 16:06
http://www.hotnewdeal.com/2017/07/07/195418_LeEco_LEX727_Le_Pro3_Unlocked_Smartphone_34_off/20%Monthly2017-07-07 16:05
http://www.hotnewdeal.com/2017/07/07/195417_Klipsch_X11_Noise_Isolation_Audiophile_InEar_Head/20%Monthly2017-07-07 16:05
http://www.hotnewdeal.com/2017/07/07/195416_WEN_6_Waxer__Polisher_1042__Free_Store_Pick_u/20%Monthly2017-07-07 15:38
http://www.hotnewdeal.com/2017/07/07/195415_Xbox_One_S_Battlefield_1_bundle__100_Dell_GC__2/20%Monthly2017-07-07 15:38
http://www.hotnewdeal.com/2017/07/07/195414_Amazon_Sterilite_01423v01_4_shelf_cabinet_flat_g/20%Monthly2017-07-07 15:38
http://www.hotnewdeal.com/2017/07/07/195413_Small_World__2216_FSPrime/20%Monthly2017-07-07 15:38
http://www.hotnewdeal.com/2017/07/07/195412_CardCash__15_Off_on_iTunes/20%Monthly2017-07-07 15:29
http://www.hotnewdeal.com/2017/07/07/195411_Mens_Ferragamo_Polarized_Classic_Sunglasses_64_/20%Monthly2017-07-07 15:23
http://www.hotnewdeal.com/2017/07/07/195410_LG__G5_4G_LTE_with_32GB_Memory_Titan_unlocked__/20%Monthly2017-07-07 15:12
http://www.hotnewdeal.com/2017/07/07/195409_ZOTAC_ZBOXAD02PLUSU_AMD_E350_APU_16_GHZ_DUAL_/20%Monthly2017-07-07 15:12
http://www.hotnewdeal.com/2017/07/07/195408_Light_In_The_Box_Xiaomi_Mi_Band_2_Heart_Rate_Moni/20%Monthly2017-07-07 15:12
http://www.hotnewdeal.com/2017/07/07/195407_4Piece_450Thread_Count_Calvin_Klein_Valencia_Cot/20%Monthly2017-07-07 14:59
http://www.hotnewdeal.com/2017/07/07/195406_Milwaukee_Miter_Saw_Stand_at_Rural_King_for_99__/20%Monthly2017-07-07 14:59
http://www.hotnewdeal.com/2017/07/07/195405_Modern_Studio_14_Metal_Platform_Bed_Frame_King_s/20%Monthly2017-07-07 14:50
http://www.hotnewdeal.com/2017/07/07/195404_BonTon_Extra_50_Off_Mens_Womens_Kids_Yellow_/20%Monthly2017-07-07 14:50
http://www.hotnewdeal.com/2017/07/07/195403_Hamilton__the_revolution_hardcover_amazon_ccc_low/20%Monthly2017-07-07 14:49
http://www.hotnewdeal.com/2017/07/07/195402_Fire_HD_8_Protection_Bundle_with_Fire_HD_8_Tablet_/20%Monthly2017-07-07 14:49
http://www.hotnewdeal.com/2017/07/07/195401_Microfiber_4Piece_Bed_Sheet_Set_with_18Inch_Deep/20%Monthly2017-07-07 14:39
http://www.hotnewdeal.com/2017/07/07/195400_Walmart_Evenflo_Big_Kid_Sport_High_Back_Booster_S/20%Monthly2017-07-07 14:39
http://www.hotnewdeal.com/2017/07/07/195398_Torchstar_35W_LED_Outdoor_Barn_Light_w_Photocell_/20%Monthly2017-07-07 14:30
http://www.hotnewdeal.com/2017/07/07/195397_High_Sierra_Backpacks_Additional_50_off_plus_FREE/20%Monthly2017-07-07 14:29
http://www.hotnewdeal.com/2017/07/07/195395_1_Pair_Of_Intex_French_Oars_48_Long_5__Free_S/20%Monthly2017-07-07 14:12
http://www.hotnewdeal.com/2017/07/07/195394_Canon_5D_Mark_III_DSLR_Body__Pro100_Printer__Ta/20%Monthly2017-07-07 14:02
http://www.hotnewdeal.com/2017/07/07/195393_Alexa_Deal_Philips_Hue_Go_Light_works_with_Alexa/20%Monthly2017-07-07 14:02
http://www.hotnewdeal.com/2017/07/07/195392_Klipsch_The_Sixes__Bic_Acoustech_PL200_w_Wirele/20%Monthly2017-07-07 13:50
http://www.hotnewdeal.com/2017/07/07/195391_10_for_20_of_Uber_eGift_Card_at_Groupon__INVITE/20%Monthly2017-07-07 13:50
http://www.hotnewdeal.com/2017/07/07/195390_Quick_Drying_Mesh_Lightweight_Laceup_Walking_Shoe/20%Monthly2017-07-07 13:50
http://www.hotnewdeal.com/2017/07/07/195389_Snoop_Doggy_Dogg__Doggystyle_Vinyl_999/20%Monthly2017-07-07 13:38
http://www.hotnewdeal.com/2017/07/07/195388_Sonos_playbase__25_off_one_item_at_west_elm/20%Monthly2017-07-07 13:38
http://www.hotnewdeal.com/2017/07/07/195387_Osprey_Farpoint_Backpack_70L_or_80L_120125__Ca/20%Monthly2017-07-07 13:38
http://www.hotnewdeal.com/2017/07/07/195386_Sabrent_USB_30_TypeA_to_SSD__25_SATA_Hard_D/20%Monthly2017-07-07 13:21
http://www.hotnewdeal.com/2017/07/07/195385_189lb_DirectFromtheFarm_Boneless_Skinless_Ch/20%Monthly2017-07-07 13:10
http://www.hotnewdeal.com/2017/07/07/195384_Total_War_Warhammer_II_preorder_3509/20%Monthly2017-07-07 13:10
http://www.hotnewdeal.com/2017/07/07/195382_12Pack_OralB_Shiny_Clean_Soft_Toothbrushes_490/20%Monthly2017-07-07 12:58
http://www.hotnewdeal.com/2017/07/07/195381_Crocs_152025_Sale__Save_15_on_2_pair__10_/20%Monthly2017-07-07 12:58
http://www.hotnewdeal.com/2017/07/07/195380_MSI_Z170A_PC_Mate_LGA_1151_ATX_Intel_Motherboard_/20%Monthly2017-07-07 12:57
http://www.hotnewdeal.com/2017/07/07/195379_American_Tourister_Disney_Finding_Dory_18_Upright/20%Monthly2017-07-07 12:57
http://www.hotnewdeal.com/2017/07/07/195378_Makita_18_Volt_X2_LXT_Brushless_Cordless_String_Tr/20%Monthly2017-07-07 12:50
http://www.hotnewdeal.com/2017/07/07/195377_BeautySleep_SlumberTime_Naturally_Crib_and_Toddler/20%Monthly2017-07-07 12:49
http://www.hotnewdeal.com/2017/07/07/195376_Greenworks_7_Amp_Single_Speed_Handheld_Electric_Bl/20%Monthly2017-07-07 12:49
http://www.hotnewdeal.com/2017/07/07/195375_50_BLU_Advance_40M__25_simple_mobile_refill__/20%Monthly2017-07-07 12:42
http://www.hotnewdeal.com/2017/07/07/195374_LG_G6_H870DS_64GB_410_at_ebay_with_FS/20%Monthly2017-07-07 12:42
http://www.hotnewdeal.com/2017/07/07/195373_FREE_iPhoneiPad_App_Universal_Zoom_All_About_Si/20%Monthly2017-07-07 12:41
http://www.hotnewdeal.com/2017/07/07/195372_Hisense_55_4K_HDR__Walmart_428/20%Monthly2017-07-07 12:27
http://www.hotnewdeal.com/2017/07/07/195371_Amazon_Fire_7__HD_8_Tablet_Accessories_399__9/20%Monthly2017-07-07 12:19
http://www.hotnewdeal.com/2017/07/07/195370_ARRIS_SURFboard_SBG6580_eXtreme_DOCSIS_30_Cable_M/20%Monthly2017-07-07 12:00
http://www.hotnewdeal.com/2017/07/07/195369_16_LED_Solar_Power_Motion_Sensor_Garden_Security_L/20%Monthly2017-07-07 12:00
http://www.hotnewdeal.com/2017/07/07/195368_Washable_Coloring_Play_Mat_with_12_Washable_Marker/20%Monthly2017-07-07 11:51
http://www.hotnewdeal.com/2017/07/07/195367_Levis_Coupon_50_Off_Sale_Items__free_shipping_o/20%Monthly2017-07-07 11:51
http://www.hotnewdeal.com/2017/07/07/195366_BlenderBottle_Classic_Loop_Top_Shaker_Bottle_Clea/20%Monthly2017-07-07 11:50
http://www.hotnewdeal.com/2017/07/07/195364_3Pack_Google_Home_WiFi_System_24999_AC_for_NE_E/20%Monthly2017-07-07 11:43
http://www.hotnewdeal.com/2017/07/07/195363_Arlo_Q_1080p_HD_with_Audio_2_pack_245_ALEXA_E/20%Monthly2017-07-07 11:38
http://www.hotnewdeal.com/2017/07/07/195362_Apple_Watch_Band__Milanese_Loop_Magnetic_Mesh_Ban/20%Monthly2017-07-07 11:29
http://www.hotnewdeal.com/2017/07/07/195361_Mens_Nike_Elite_Or_DriFIT_Basketball_Tee_1498_/20%Monthly2017-07-07 11:29
http://www.hotnewdeal.com/2017/07/07/195360_Lowes_bubba_18fl_oz_Stainless_Steel_Water_Bottl/20%Monthly2017-07-07 11:20
http://www.hotnewdeal.com/2017/07/07/195358_Lowes_Hammerhead_Circuit_Sensor_Lithium_Ion_Cord/20%Monthly2017-07-07 10:35
http://www.hotnewdeal.com/2017/07/07/195357_All_Crayola_Arts__Crafts_Crayons_Color_Pencils/20%Monthly2017-07-07 10:35
http://www.hotnewdeal.com/2017/07/07/195356_HasBeen_Heroes_Nintendo_Switch_999/20%Monthly2017-07-07 10:21
http://www.hotnewdeal.com/2017/07/07/195355_Kraft_Macaroni_and_Cheese_Dinner_Original_Flavor/20%Monthly2017-07-07 10:20
http://www.hotnewdeal.com/2017/07/07/195354_Tayama_25kg_Rice_Dispenser_on_sale_for_5099__/20%Monthly2017-07-07 10:20
http://www.hotnewdeal.com/2017/07/07/195353_Boston_Market__BUY_ONE_GET_ONE_Individual_Meal_fo/20%Monthly2017-07-07 10:10
http://www.hotnewdeal.com/2017/07/07/195352_George_Foreman_Basic_Plate_Grill_and_Panini_Maker_/20%Monthly2017-07-07 10:09
http://www.hotnewdeal.com/2017/07/07/195351_DLC_for_Halo_3_Halo_4_Halo_Reach_and_Halo_Wars_/20%Monthly2017-07-07 09:50
http://www.hotnewdeal.com/2017/07/07/195350_Lauren_Ralph_Lauren_Classic_100_Cotton_Blanket_a/20%Monthly2017-07-07 09:50
http://www.hotnewdeal.com/2017/07/07/195349_GIGABYTE_Radeon_RX_580_8GB__GIGABYTE_GAZ270Gami/20%Monthly2017-07-07 09:50
http://www.hotnewdeal.com/2017/07/07/195348_Free_Cable_Modem_4499_value_with_Nighthawk_AC1/20%Monthly2017-07-07 09:50
http://www.hotnewdeal.com/2017/07/07/195347_Milestar_MS932_tire_for_36_from_Amazon/20%Monthly2017-07-07 09:50
http://www.hotnewdeal.com/2017/07/07/195346_ILIFE_V3s_Robotic_Vacuum_Cleaner_with_Smart_Auto_C/20%Monthly2017-07-07 09:40
http://www.hotnewdeal.com/2017/07/07/195345_Nintendo_Switch_in_Stock_at_Amazon/20%Monthly2017-07-07 09:34
http://www.hotnewdeal.com/2017/07/07/195344_Furinno_Nightland_8_Pocket_Coil_Mattress_Twin_Siz/20%Monthly2017-07-07 09:34
http://www.hotnewdeal.com/2017/07/07/195343_Channellock_75_EndCutting_Pliers_899_at_Amazo/20%Monthly2017-07-07 09:34
http://www.hotnewdeal.com/2017/07/07/195342_Mavic_Pro_with_Remote_Controller_for_899_/20%Monthly2017-07-07 09:33
http://www.hotnewdeal.com/2017/07/07/195341_Joby_Pro_Series_Hand_Grip_with_UltraPlate_208_for_/20%Monthly2017-07-07 09:26
http://www.hotnewdeal.com/2017/07/07/195340_Sandusky_72_Folding_Portable_Plastic_IndoorOutdo/20%Monthly2017-07-07 09:15
http://www.hotnewdeal.com/2017/07/07/195339_Craftsman_OBD2_Car_Reader_3999_at_sears/20%Monthly2017-07-07 08:58
http://www.hotnewdeal.com/2017/07/07/195338_Playskool_Heroes_Super_Hero_Adventures_Captain_A/20%Monthly2017-07-07 08:58
http://www.hotnewdeal.com/2017/07/07/195337_Deus_Ex_Mankind_DividedPS4__as_low_as_898__T/20%Monthly2017-07-07 08:57
http://www.hotnewdeal.com/2017/07/07/195336_1_digital_movie_rentals_and_5_digital_movies_to_/20%Monthly2017-07-07 08:50
http://www.hotnewdeal.com/2017/07/07/195335_Criterion_Bluray_Movies_Buena_Vista_Social_Club_/20%Monthly2017-07-07 08:50
http://www.hotnewdeal.com/2017/07/07/195334_Jos_A_Bank_Clearance_Cotton_14_Zip_Sweater_14/20%Monthly2017-07-07 08:49
http://www.hotnewdeal.com/2017/07/07/195333_64GB_Huawei_Mate_9_Unlocked_Smartphone_Refurbishe/20%Monthly2017-07-07 08:30
http://www.hotnewdeal.com/2017/07/07/195332_3TB_Toshiba_Canvio_Desk_Hard_Drive_57_wemailed_/20%Monthly2017-07-07 08:30
http://www.hotnewdeal.com/2017/07/07/195331_BioBidet_A3_Fresh_Water_Bidet_Attachment_22_BioB/20%Monthly2017-07-07 08:30
http://www.hotnewdeal.com/2017/07/07/195330_MSI_Z170A_GAMING_M5_LGA_1151_Intel_Z170_HDMI_SATA_/20%Monthly2017-07-07 07:17
http://www.hotnewdeal.com/2017/07/07/195329_Shutterfly_unlimited_pages_to_photo_books_stacks_/20%Monthly2017-07-07 06:32
http://www.hotnewdeal.com/2017/07/07/195328_AUTOVOX_96A24A_4_Smart_Ports_InCar_Charger_wi/20%Monthly2017-07-07 05:10
http://www.hotnewdeal.com/2017/07/07/195327_ProSeries_4_Mini_Multipurpose_Scaffolding_6679/20%Monthly2017-07-07 05:10
http://www.hotnewdeal.com/2017/07/07/195326_Amazon_Deal_of_the_day_Solar_Charger_RAVPower_16W_/20%Monthly2017-07-07 04:31
http://www.hotnewdeal.com/2017/07/07/195325_Meguiars_X3003_Grit_Guard_on_sale_for_1082__/20%Monthly2017-07-07 03:31
http://www.hotnewdeal.com/2017/07/07/195323_Google_Chromecast_2nd_Gen__40Mile_Insignia_HDT/20%Monthly2017-07-07 03:31
http://www.hotnewdeal.com/2017/07/07/195322_Barnes__Noble_Online_Coupon_Additional_20_off_1/20%Monthly2017-07-07 03:31
http://www.hotnewdeal.com/2017/07/07/195321_36Count_of_1oz_Annies_Organic_Variety_Pack_Ched/20%Monthly2017-07-07 03:11
http://www.hotnewdeal.com/2017/07/07/195320_Vudu_771771017_Weekend_Sale_499_HDX_Movies_/20%Monthly2017-07-07 03:11
http://www.hotnewdeal.com/2017/07/07/195319_The_SpongeBob_Movie_Sponge_Out_Of_Water_2015_0/20%Monthly2017-07-07 03:11
http://www.hotnewdeal.com/2017/07/07/195318_Buy_1_Select_Turquoise_Piece_Get_3_Free_2639_/20%Monthly2017-07-07 02:32
http://www.hotnewdeal.com/2017/07/07/195317_5Pack_Burts_Bees_Baby_Essentials_Short_Sleeve_Bo/20%Monthly2017-07-07 02:12
http://www.hotnewdeal.com/2017/07/07/195316_Blue_Buffalo_Life_Protection_Dry_Dog_Food__Lamb_a/20%Monthly2017-07-07 02:12
http://www.hotnewdeal.com/2017/07/07/195315_Senal_ASM6_Professional_TwoWay_Active_65_Studi/20%Monthly2017-07-07 02:11
http://www.hotnewdeal.com/2017/07/07/195314_Commercial_Grade_Double_Rail_Adjustable_Clothing_G/20%Monthly2017-07-07 02:06
http://www.hotnewdeal.com/2017/07/07/195313_Timberland_Sale_Items_20_off__20_off_Mens_Bri/20%Monthly2017-07-07 01:31
http://www.hotnewdeal.com/2017/07/07/195311_Cosco_Simple_Fold_High_Chair_1864/20%Monthly2017-07-07 01:10
http://www.hotnewdeal.com/2017/07/07/195308_YouTube_TV__Free_Chromecast_w1st_Paid_Month_35/20%Monthly2017-07-07 00:14
http://www.hotnewdeal.com/2017/07/06/195307_Alxum_USB_30_to_SATA_Dual_Bay_External_Hard_Drive/20%Monthly2017-07-06 23:57
http://www.hotnewdeal.com/2017/07/06/195306_IRWIN_VISEGRIP_GrooveLock_Pliers_VJaw_10_8_a/20%Monthly2017-07-06 23:53
http://www.hotnewdeal.com/2017/07/06/195305_Inateck_USBC_Nylon_Braided_Cables_33ft_319_/20%Monthly2017-07-06 23:39
http://www.hotnewdeal.com/2017/07/06/195304_AUKEY_10000mAh_Portable_Charger_Slimline_Design_D/20%Monthly2017-07-06 23:39
http://www.hotnewdeal.com/2017/07/06/195303_Swiffer_Sweeper_Dry_Sweeping_Pad_Refills_Floor_Mop/20%Monthly2017-07-06 23:32
http://www.hotnewdeal.com/2017/07/06/195302_AR_70_SeaSonic_G750_SSR750RM_750W_ATX12V__EP/20%Monthly2017-07-06 23:18
http://www.hotnewdeal.com/2017/07/06/195301_Turbot_87__Key_USB_Mechanical_Keyboard_wBlue_Swi/20%Monthly2017-07-06 23:13
http://www.hotnewdeal.com/2017/07/06/195300_YMMV_Ebay_Sellers_List_5_items_for_free_no_selli/20%Monthly2017-07-06 22:59
http://www.hotnewdeal.com/2017/07/06/195299_24_YETI_Rambler_36oz_Vacuum_Insulated_Stainless_/20%Monthly2017-07-06 22:33
http://www.hotnewdeal.com/2017/07/06/195298_Seagate_Backup_Plus_4TB_Portable_External_Hard_Dri/20%Monthly2017-07-06 22:33
http://www.hotnewdeal.com/2017/07/06/195297_LG_G5_H830_32GB_Unlocked_GSM_4G_LTE_QuadCore_Phon/20%Monthly2017-07-06 22:33
http://www.hotnewdeal.com/2017/07/06/195296_LeTV_Super_Power_Bank_for_898/20%Monthly2017-07-06 22:03
http://www.hotnewdeal.com/2017/07/06/195295_Rocket_League_PS4_999_PSN/20%Monthly2017-07-06 21:52
http://www.hotnewdeal.com/2017/07/06/195294_Batman_The_Complete_Television_Series_Bluray_/20%Monthly2017-07-06 21:51
http://www.hotnewdeal.com/2017/07/06/195293_Hamilton_Khaki_Aviation_XMach_Automatic_Chronogra/20%Monthly2017-07-06 21:40
http://www.hotnewdeal.com/2017/07/06/195292_Samsung_BDJ7500__4K_Upscaling_3D_WiFi_Smart_Blu/20%Monthly2017-07-06 21:26
http://www.hotnewdeal.com/2017/07/06/195291_Milwaukee_M18_18Volt_Fuel_Miter_Saw_with_Free_9ah/20%Monthly2017-07-06 21:26
http://www.hotnewdeal.com/2017/07/06/195290_Milwaukee_M12_14_Hex_Impact_Driver_3048_amazon/20%Monthly2017-07-06 21:15
http://www.hotnewdeal.com/2017/07/06/195289_Calphalon_Contemporary_HardAnodized_Aluminum_Nons/20%Monthly2017-07-06 21:08
http://www.hotnewdeal.com/2017/07/06/195288_Disney_Baby_Minnie_Infant_To_Toddler_Rocker/20%Monthly2017-07-06 21:02
http://www.hotnewdeal.com/2017/07/06/195287_iPhone_iPad_IOS_board_games_on_sale__RA_Tikal/20%Monthly2017-07-06 20:53
http://www.hotnewdeal.com/2017/07/06/195286_Full_Body_Shiatsu_Massage_Chair_Foot_Roller_Zero_G/20%Monthly2017-07-06 20:47
http://www.hotnewdeal.com/2017/07/06/195285_Memorex_DVDR_100pk_47GB_16X_Spindle_Tote_1198_/20%Monthly2017-07-06 20:42
http://www.hotnewdeal.com/2017/07/06/195284_Lowes_Garden_Treasures_Watering_Stake_Recycled_/20%Monthly2017-07-06 20:42
http://www.hotnewdeal.com/2017/07/06/195283_25_Dominos_Pizza_eGift_Card__5_Dominos_Pizza_/20%Monthly2017-07-06 20:33
http://www.hotnewdeal.com/2017/07/06/195282_AMC_Theatres_Dunkirk_in_70mm_Get_1000_AMC_points_/20%Monthly2017-07-06 20:29
http://www.hotnewdeal.com/2017/07/06/195281_Rokinon_14mm_f28_IF_ED_UMC_Ultra_Wide_Angle_Fixe/20%Monthly2017-07-06 20:07
http://www.hotnewdeal.com/2017/07/06/195280_Osprey_Porter_Travel_Backpack_Bag_46Liter_8042_/20%Monthly2017-07-06 20:07
http://www.hotnewdeal.com/2017/07/06/195279_Open_Box_Polk_Signature_Speakers_Pair_S60_floors/20%Monthly2017-07-06 20:07
http://www.hotnewdeal.com/2017/07/06/195278_Mr_Coffee_Automatic_Dual_Shot_EspressoCappuccino/20%Monthly2017-07-06 19:42
http://www.hotnewdeal.com/2017/07/06/195277_Sams_Club_Members__Premier_Protein_High_Protein_S/20%Monthly2017-07-06 19:40
http://www.hotnewdeal.com/2017/07/06/195276_Gillette_Fusion_Manual_Mens_Razor_Blade_Refills_/20%Monthly2017-07-06 19:33
http://www.hotnewdeal.com/2017/07/06/195275_Pittsburgh_to_Las_Vegas_or_Vice_Versa_92_RT_on_Sp/20%Monthly2017-07-06 19:33
http://www.hotnewdeal.com/2017/07/06/195274_Novation_Sale/20%Monthly2017-07-06 19:18
http://www.hotnewdeal.com/2017/07/06/195273_Intel_CS125_Compute_Stick__6618__Amazon/20%Monthly2017-07-06 19:18
http://www.hotnewdeal.com/2017/07/06/195272_Lowes_Carved_Wood_Moose_Garden_Statue_5_w_Free/20%Monthly2017-07-06 19:01
http://www.hotnewdeal.com/2017/07/06/195271_Castles_of_Burgundy_The_Card_Game_415_after_coup/20%Monthly2017-07-06 19:01
http://www.hotnewdeal.com/2017/07/06/195270_Amazon_American_Tourister_Disney_Finding_Dory_18/20%Monthly2017-07-06 19:01
http://www.hotnewdeal.com/2017/07/06/195269_Linksys_AC1200_RE6500_MAX_WiFi_Gigabit_Range_Exte/20%Monthly2017-07-06 18:47
http://www.hotnewdeal.com/2017/07/06/195268_Lowes__Schumacher_Electric_Emergency_Light_Tool_A/20%Monthly2017-07-06 18:36
http://www.hotnewdeal.com/2017/07/06/195267_Sabrent_Quick_Charge_30_54W_5Port_Desktop_USB_Ra/20%Monthly2017-07-06 18:31
http://www.hotnewdeal.com/2017/07/06/195266_8_ct_Knorr_Cube_Bouillon_Beef_31_oz_074_w_SS/20%Monthly2017-07-06 18:31
http://www.hotnewdeal.com/2017/07/06/195265_DEWALT_DW4856_MetalWoodcutting_Reciprocating_Saw_/20%Monthly2017-07-06 18:16
http://www.hotnewdeal.com/2017/07/06/195264_Franklin_Sports_Blackhawk_Portable_Soccer_Goal_6/20%Monthly2017-07-06 18:16
http://www.hotnewdeal.com/2017/07/06/195263_2_x_MAC_Cosmetics_Little_Mac_Lipsticks__FullSize/20%Monthly2017-07-06 18:16
http://www.hotnewdeal.com/2017/07/06/195262_128GB_Samsung_EVO_Class_10_microSDXC_Memory_Card_/20%Monthly2017-07-06 17:51
http://www.hotnewdeal.com/2017/07/06/195261_Staples_weekly_ad_79715__25_Chromecast_20_7/20%Monthly2017-07-06 17:44
http://www.hotnewdeal.com/2017/07/06/195260_Cooler_Master_Hyper_212_EVO__21_31__10_rebat/20%Monthly2017-07-06 17:37
http://www.hotnewdeal.com/2017/07/06/195259_Breitling_Superocean_36_COSC_Automatic_Watch_1995/20%Monthly2017-07-06 17:32
http://www.hotnewdeal.com/2017/07/06/195258_Ingenuity_Trio_3in1_Ridgedale_High_Chair_Grey_/20%Monthly2017-07-06 17:31
http://www.hotnewdeal.com/2017/07/06/195257_Lenovo_156_ThinkPad_E570_Laptop_Refurbished_i3/20%Monthly2017-07-06 17:31
http://www.hotnewdeal.com/2017/07/06/195256_Polk_PSW10_10_Powered_Subwoofer_75__free_shippi/20%Monthly2017-07-06 17:31
http://www.hotnewdeal.com/2017/07/06/195255_Loch_Ness_Monster_Design_Ladle_010__free_shippi/20%Monthly2017-07-06 17:31
http://www.hotnewdeal.com/2017/07/06/195254_Graco_SlimFit_AllinOne_Convertible_Car_Seat_Ann/20%Monthly2017-07-06 17:16
http://www.hotnewdeal.com/2017/07/06/195253_Stardew_Valley_for_PC_on_Steam_899_40_off/20%Monthly2017-07-06 17:16
http://www.hotnewdeal.com/2017/07/06/195252_Uniqlo_x_Nintendo_Mens_and_Womens_Tees_on_sale_f/20%Monthly2017-07-06 17:16
http://www.hotnewdeal.com/2017/07/06/195250_Pre_Seasoned_Cast_Iron_Deals_Combo_Cooker_with_3/20%Monthly2017-07-06 17:15
http://www.hotnewdeal.com/2017/07/06/195249_AKASO_A1_Bluetooth_Headphones_Sports_Wireless_Hea/20%Monthly2017-07-06 17:15
http://www.hotnewdeal.com/2017/07/06/195248_Lowes_bubba_18fl_oz_Stainless_Steel_Water_Bottl/20%Monthly2017-07-06 17:15
http://www.hotnewdeal.com/2017/07/06/195247_Upcoming_714_MVC_FREE_STANDARD_SHIPPING_WITH_YOUR/20%Monthly2017-07-06 16:57
http://www.hotnewdeal.com/2017/07/06/195246_Arslan_The_Warriors_of_Legend_for_Xbox_One_799_/20%Monthly2017-07-06 16:57
http://www.hotnewdeal.com/2017/07/06/195245_1_cent_tyre_installation__70_Off_Bridgestone_tir/20%Monthly2017-07-06 16:40
http://www.hotnewdeal.com/2017/07/06/195244_Frys_Belkin_Conserve_Power_Switch_4_Shipped_or_F/20%Monthly2017-07-06 16:40
http://www.hotnewdeal.com/2017/07/06/195243_The_Legend_of_Zelda_Breath_of_the_Wild_Champion_a/20%Monthly2017-07-06 16:24
http://www.hotnewdeal.com/2017/07/06/195242_Cuisinart_CGG200B_Gas_Grill_Black__13_Piece_Wood/20%Monthly2017-07-06 16:24
http://www.hotnewdeal.com/2017/07/06/195241_Lowes_Style_Selections_Gray_Bathroom_Wall_Cabine/20%Monthly2017-07-06 16:24
http://www.hotnewdeal.com/2017/07/06/195240_Lowes_Style_Selections_Morriston_Distressed_Java/20%Monthly2017-07-06 16:24
http://www.hotnewdeal.com/2017/07/06/195239_Tfal_FZ7002_ActiFry_LowFat_Healthy_AirFryer_Dish/20%Monthly2017-07-06 16:14
http://www.hotnewdeal.com/2017/07/06/195238_FRYScom__Samsung_256GB_850_Pro_Series_25_SATA_/20%Monthly2017-07-06 16:07
http://www.hotnewdeal.com/2017/07/06/195237_Garmin_Fitness_Deals_Vivofit_2_40_Forerunner_23/20%Monthly2017-07-06 16:07